<?xml version="1.0" encoding="UTF-8" standalone="no" ?>
<gpx xmlns="http://www.topografix.com/GPX/1/1" xmlns:xsi="http://www.w3.org/2001/XMLSchema-instance" creator="Kurviger.de" version="1.1" xmlns:gh="https://kurviger.de/public/schema/gpx/1.1">
<metadata>
<name>12.08.19_Feldb.-Leutschach-Feldb.</name>
<copyright author="OpenStreetMap contributors"/>
<link href="https://kurviger.de">
<text>Kurviger.de GPX</text>
</link>
<time>2019-08-12T10:05:58Z</time>
</metadata>
<trk><name>12.08.19_Feldb.-Leutschach-Feldb.</name><trkseg>
<trkpt lat="46.948158" lon="15.899371"><ele>283.1</ele><time>2019-08-12T10:05:58Z</time></trkpt>
<trkpt lat="46.947934" lon="15.898811"><ele>283.2</ele><time>2019-08-12T10:06:06Z</time></trkpt>
<trkpt lat="46.947816" lon="15.898676"><ele>283.2</ele><time>2019-08-12T10:06:09Z</time></trkpt>
<trkpt lat="46.947203" lon="15.898322"><ele>285.8</ele><time>2019-08-12T10:06:21Z</time></trkpt>
<trkpt lat="46.947076" lon="15.898674"><ele>284.0</ele><time>2019-08-12T10:06:25Z</time></trkpt>
<trkpt lat="46.946708" lon="15.900018"><ele>284.4</ele><time>2019-08-12T10:06:38Z</time></trkpt>
<trkpt lat="46.946517" lon="15.901102"><ele>286.6</ele><time>2019-08-12T10:06:49Z</time></trkpt>
<trkpt lat="46.946467" lon="15.901305"><ele>286.6</ele><time>2019-08-12T10:06:51Z</time></trkpt>
<trkpt lat="46.946365" lon="15.901471"><ele>286.6</ele><time>2019-08-12T10:06:53Z</time></trkpt>
<trkpt lat="46.945976" lon="15.901865"><ele>285.8</ele><time>2019-08-12T10:06:59Z</time></trkpt>
<trkpt lat="46.945669" lon="15.902269"><ele>291.6</ele><time>2019-08-12T10:07:05Z</time></trkpt>
<trkpt lat="46.945479" lon="15.902474"><ele>291.6</ele><time>2019-08-12T10:07:08Z</time></trkpt>
<trkpt lat="46.944721" lon="15.903195"><ele>296.2</ele><time>2019-08-12T10:07:21Z</time></trkpt>
<trkpt lat="46.944291" lon="15.903661"><ele>293.6</ele><time>2019-08-12T10:07:28Z</time></trkpt>
<trkpt lat="46.943927" lon="15.904137"><ele>300.2</ele><time>2019-08-12T10:07:35Z</time></trkpt>
<trkpt lat="46.9433" lon="15.905019"><ele>304.2</ele><time>2019-08-12T10:07:47Z</time></trkpt>
<trkpt lat="46.94307" lon="15.905071"><ele>304.2</ele><time>2019-08-12T10:07:50Z</time></trkpt>
<trkpt lat="46.942869" lon="15.905168"><ele>304.2</ele><time>2019-08-12T10:07:53Z</time></trkpt>
<trkpt lat="46.942229" lon="15.905411"><ele>304.2</ele><time>2019-08-12T10:08:02Z</time></trkpt>
<trkpt lat="46.942042" lon="15.905444"><ele>304.2</ele><time>2019-08-12T10:08:04Z</time></trkpt>
<trkpt lat="46.941793" lon="15.905417"><ele>304.2</ele><time>2019-08-12T10:08:08Z</time></trkpt>
<trkpt lat="46.941574" lon="15.905358"><ele>297.6</ele><time>2019-08-12T10:08:11Z</time></trkpt>
<trkpt lat="46.941322" lon="15.905227"><ele>297.6</ele><time>2019-08-12T10:08:15Z</time></trkpt>
<trkpt lat="46.94122" lon="15.90523"><ele>297.6</ele><time>2019-08-12T10:08:16Z</time></trkpt>
<trkpt lat="46.940826" lon="15.905338"><ele>290.2</ele><time>2019-08-12T10:08:22Z</time></trkpt>
<trkpt lat="46.940577" lon="15.905261"><ele>290.2</ele><time>2019-08-12T10:08:25Z</time></trkpt>
<trkpt lat="46.940114" lon="15.904985"><ele>299.8</ele><time>2019-08-12T10:08:32Z</time></trkpt>
<trkpt lat="46.93991" lon="15.904931"><ele>294.2</ele><time>2019-08-12T10:08:35Z</time></trkpt>
<trkpt lat="46.93974" lon="15.904832"><ele>294.2</ele><time>2019-08-12T10:08:37Z</time></trkpt>
<trkpt lat="46.939454" lon="15.904583"><ele>294.2</ele><time>2019-08-12T10:08:42Z</time></trkpt>
<trkpt lat="46.939192" lon="15.90443"><ele>294.2</ele><time>2019-08-12T10:08:46Z</time></trkpt>
<trkpt lat="46.939002" lon="15.904363"><ele>290.6</ele><time>2019-08-12T10:08:49Z</time></trkpt>
<trkpt lat="46.938804" lon="15.904337"><ele>290.6</ele><time>2019-08-12T10:08:51Z</time></trkpt>
<trkpt lat="46.938519" lon="15.904359"><ele>290.6</ele><time>2019-08-12T10:08:56Z</time></trkpt>
<trkpt lat="46.936513" lon="15.900708"><ele>300.6</ele><time>2019-08-12T10:09:15Z</time></trkpt>
<trkpt lat="46.934727" lon="15.897296"><ele>296.4</ele><time>2019-08-12T10:09:31Z</time></trkpt>
<trkpt lat="46.933714" lon="15.895581"><ele>293.8</ele><time>2019-08-12T10:09:40Z</time></trkpt>
<trkpt lat="46.932713" lon="15.893843"><ele>294.6</ele><time>2019-08-12T10:09:49Z</time></trkpt>
<trkpt lat="46.932147" lon="15.892813"><ele>295.0</ele><time>2019-08-12T10:09:54Z</time></trkpt>
<trkpt lat="46.931944" lon="15.892489"><ele>298.2</ele><time>2019-08-12T10:09:56Z</time></trkpt>
<trkpt lat="46.931495" lon="15.891863"><ele>297.6</ele><time>2019-08-12T10:10:00Z</time></trkpt>
<trkpt lat="46.931254" lon="15.891623"><ele>302.8</ele><time>2019-08-12T10:10:01Z</time></trkpt>
<trkpt lat="46.93025" lon="15.890804"><ele>304.8</ele><time>2019-08-12T10:10:08Z</time></trkpt>
<trkpt lat="46.929913" lon="15.890564"><ele>301.0</ele><time>2019-08-12T10:10:10Z</time></trkpt>
<trkpt lat="46.92962" lon="15.890402"><ele>301.0</ele><time>2019-08-12T10:10:12Z</time></trkpt>
<trkpt lat="46.929468" lon="15.890345"><ele>301.0</ele><time>2019-08-12T10:10:13Z</time></trkpt>
<trkpt lat="46.929324" lon="15.890309"><ele>301.0</ele><time>2019-08-12T10:10:14Z</time></trkpt>
<trkpt lat="46.92895" lon="15.890296"><ele>298.4</ele><time>2019-08-12T10:10:16Z</time></trkpt>
<trkpt lat="46.927177" lon="15.890512"><ele>297.4</ele><time>2019-08-12T10:10:26Z</time></trkpt>
<trkpt lat="46.926652" lon="15.890534"><ele>300.0</ele><time>2019-08-12T10:10:29Z</time></trkpt>
<trkpt lat="46.926293" lon="15.890522"><ele>300.0</ele><time>2019-08-12T10:10:31Z</time></trkpt>
<trkpt lat="46.924828" lon="15.890157"><ele>301.8</ele><time>2019-08-12T10:10:39Z</time></trkpt>
<trkpt lat="46.923485" lon="15.889782"><ele>302.6</ele><time>2019-08-12T10:10:47Z</time></trkpt>
<trkpt lat="46.922736" lon="15.889642"><ele>303.4</ele><time>2019-08-12T10:10:52Z</time></trkpt>
<trkpt lat="46.921989" lon="15.889549"><ele>304.8</ele><time>2019-08-12T10:10:56Z</time></trkpt>
<trkpt lat="46.921484" lon="15.889526"><ele>307.6</ele><time>2019-08-12T10:10:59Z</time></trkpt>
<trkpt lat="46.919674" lon="15.889583"><ele>307.0</ele><time>2019-08-12T10:11:09Z</time></trkpt>
<trkpt lat="46.91952" lon="15.889615"><ele>307.0</ele><time>2019-08-12T10:11:10Z</time></trkpt>
<trkpt lat="46.919385" lon="15.889673"><ele>307.0</ele><time>2019-08-12T10:11:11Z</time></trkpt>
<trkpt lat="46.919233" lon="15.889796"><ele>307.0</ele><time>2019-08-12T10:11:12Z</time></trkpt>
<trkpt lat="46.918873" lon="15.89012"><ele>316.6</ele><time>2019-08-12T10:11:14Z</time></trkpt>
<trkpt lat="46.917915" lon="15.891099"><ele>330.4</ele><time>2019-08-12T10:11:21Z</time></trkpt>
<trkpt lat="46.917483" lon="15.891504"><ele>337.0</ele><time>2019-08-12T10:11:24Z</time></trkpt>
<trkpt lat="46.917005" lon="15.891821"><ele>339.4</ele><time>2019-08-12T10:11:27Z</time></trkpt>
<trkpt lat="46.915396" lon="15.892712"><ele>341.8</ele><time>2019-08-12T10:11:37Z</time></trkpt>
<trkpt lat="46.914537" lon="15.893398"><ele>350.0</ele><time>2019-08-12T10:11:42Z</time></trkpt>
<trkpt lat="46.914431" lon="15.893454"><ele>350.0</ele><time>2019-08-12T10:11:43Z</time></trkpt>
<trkpt lat="46.914346" lon="15.89347"><ele>350.0</ele><time>2019-08-12T10:11:43Z</time></trkpt>
<trkpt lat="46.914272" lon="15.893438"><ele>350.0</ele><time>2019-08-12T10:11:44Z</time></trkpt>
<trkpt lat="46.914231" lon="15.893373"><ele>350.0</ele><time>2019-08-12T10:11:44Z</time></trkpt>
<trkpt lat="46.914213" lon="15.893254"><ele>348.2</ele><time>2019-08-12T10:11:45Z</time></trkpt>
<trkpt lat="46.914224" lon="15.893097"><ele>348.2</ele><time>2019-08-12T10:11:45Z</time></trkpt>
<trkpt lat="46.91434" lon="15.892725"><ele>348.2</ele><time>2019-08-12T10:11:47Z</time></trkpt>
<trkpt lat="46.914598" lon="15.892174"><ele>358.8</ele><time>2019-08-12T10:11:50Z</time></trkpt>
<trkpt lat="46.914807" lon="15.891941"><ele>358.8</ele><time>2019-08-12T10:11:51Z</time></trkpt>
<trkpt lat="46.914993" lon="15.891798"><ele>358.8</ele><time>2019-08-12T10:11:52Z</time></trkpt>
<trkpt lat="46.915075" lon="15.891663"><ele>362.0</ele><time>2019-08-12T10:11:53Z</time></trkpt>
<trkpt lat="46.915079" lon="15.891498"><ele>362.0</ele><time>2019-08-12T10:11:54Z</time></trkpt>
<trkpt lat="46.915038" lon="15.891359"><ele>362.0</ele><time>2019-08-12T10:11:54Z</time></trkpt>
<trkpt lat="46.914924" lon="15.891277"><ele>374.6</ele><time>2019-08-12T10:11:55Z</time></trkpt>
<trkpt lat="46.914782" lon="15.891273"><ele>374.6</ele><time>2019-08-12T10:11:56Z</time></trkpt>
<trkpt lat="46.914541" lon="15.891358"><ele>374.6</ele><time>2019-08-12T10:11:57Z</time></trkpt>
<trkpt lat="46.914162" lon="15.891608"><ele>384.8</ele><time>2019-08-12T10:12:00Z</time></trkpt>
<trkpt lat="46.913912" lon="15.891861"><ele>372.2</ele><time>2019-08-12T10:12:02Z</time></trkpt>
<trkpt lat="46.913694" lon="15.892267"><ele>372.2</ele><time>2019-08-12T10:12:04Z</time></trkpt>
<trkpt lat="46.913133" lon="15.893131"><ele>378.0</ele><time>2019-08-12T10:12:08Z</time></trkpt>
<trkpt lat="46.912768" lon="15.89355"><ele>373.4</ele><time>2019-08-12T10:12:11Z</time></trkpt>
<trkpt lat="46.912545" lon="15.893692"><ele>373.4</ele><time>2019-08-12T10:12:12Z</time></trkpt>
<trkpt lat="46.912111" lon="15.893812"><ele>382.2</ele><time>2019-08-12T10:12:15Z</time></trkpt>
<trkpt lat="46.911858" lon="15.893816"><ele>382.2</ele><time>2019-08-12T10:12:16Z</time></trkpt>
<trkpt lat="46.911608" lon="15.893719"><ele>382.8</ele><time>2019-08-12T10:12:18Z</time></trkpt>
<trkpt lat="46.910972" lon="15.893372"><ele>382.8</ele><time>2019-08-12T10:12:22Z</time></trkpt>
<trkpt lat="46.909443" lon="15.89236"><ele>381.0</ele><time>2019-08-12T10:12:31Z</time></trkpt>
<trkpt lat="46.909159" lon="15.892278"><ele>374.2</ele><time>2019-08-12T10:12:33Z</time></trkpt>
<trkpt lat="46.908953" lon="15.892262"><ele>374.2</ele><time>2019-08-12T10:12:34Z</time></trkpt>
<trkpt lat="46.908744" lon="15.8923"><ele>374.2</ele><time>2019-08-12T10:12:36Z</time></trkpt>
<trkpt lat="46.907664" lon="15.892807"><ele>371.6</ele><time>2019-08-12T10:12:42Z</time></trkpt>
<trkpt lat="46.907027" lon="15.892933"><ele>370.2</ele><time>2019-08-12T10:12:46Z</time></trkpt>
<trkpt lat="46.906541" lon="15.892976"><ele>370.0</ele><time>2019-08-12T10:12:48Z</time></trkpt>
<trkpt lat="46.903741" lon="15.892859"><ele>361.0</ele><time>2019-08-12T10:13:04Z</time></trkpt>
<trkpt lat="46.903404" lon="15.892899"><ele>361.0</ele><time>2019-08-12T10:13:06Z</time></trkpt>
<trkpt lat="46.903116" lon="15.893027"><ele>356.6</ele><time>2019-08-12T10:13:08Z</time></trkpt>
<trkpt lat="46.902949" lon="15.893159"><ele>356.6</ele><time>2019-08-12T10:13:09Z</time></trkpt>
<trkpt lat="46.902731" lon="15.893398"><ele>355.4</ele><time>2019-08-12T10:13:11Z</time></trkpt>
<trkpt lat="46.902611" lon="15.893067"><ele>356.6</ele><time>2019-08-12T10:13:14Z</time></trkpt>
<trkpt lat="46.902648" lon="15.892627"><ele>356.6</ele><time>2019-08-12T10:13:18Z</time></trkpt>
<trkpt lat="46.902648" lon="15.892456"><ele>360.0</ele><time>2019-08-12T10:13:19Z</time></trkpt>
<trkpt lat="46.902555" lon="15.892099"><ele>360.0</ele><time>2019-08-12T10:13:22Z</time></trkpt>
<trkpt lat="46.902325" lon="15.891608"><ele>363.6</ele><time>2019-08-12T10:13:27Z</time></trkpt>
<trkpt lat="46.90223" lon="15.891308"><ele>363.6</ele><time>2019-08-12T10:13:29Z</time></trkpt>
<trkpt lat="46.902152" lon="15.890768"><ele>362.0</ele><time>2019-08-12T10:13:34Z</time></trkpt>
<trkpt lat="46.902122" lon="15.890403"><ele>362.0</ele><time>2019-08-12T10:13:37Z</time></trkpt>
<trkpt lat="46.902069" lon="15.890192"><ele>362.0</ele><time>2019-08-12T10:13:38Z</time></trkpt>
<trkpt lat="46.901824" lon="15.889737"><ele>362.6</ele><time>2019-08-12T10:13:43Z</time></trkpt>
<trkpt lat="46.901559" lon="15.889318"><ele>373.8</ele><time>2019-08-12T10:13:47Z</time></trkpt>
<trkpt lat="46.901369" lon="15.888885"><ele>375.0</ele><time>2019-08-12T10:13:52Z</time></trkpt>
<trkpt lat="46.901254" lon="15.888674"><ele>375.0</ele><time>2019-08-12T10:13:54Z</time></trkpt>
<trkpt lat="46.901208" lon="15.888661"><ele>375.0</ele><time>2019-08-12T10:13:54Z</time></trkpt>
<trkpt lat="46.90115" lon="15.88876"><ele>375.0</ele><time>2019-08-12T10:13:55Z</time></trkpt>
<trkpt lat="46.901094" lon="15.888969"><ele>375.0</ele><time>2019-08-12T10:13:57Z</time></trkpt>
<trkpt lat="46.901023" lon="15.889159"><ele>375.0</ele><time>2019-08-12T10:13:59Z</time></trkpt>
<trkpt lat="46.900888" lon="15.889302"><ele>373.8</ele><time>2019-08-12T10:14:01Z</time></trkpt>
<trkpt lat="46.900537" lon="15.889602"><ele>395.8</ele><time>2019-08-12T10:14:06Z</time></trkpt>
<trkpt lat="46.900148" lon="15.889763"><ele>395.8</ele><time>2019-08-12T10:14:10Z</time></trkpt>
<trkpt lat="46.899943" lon="15.889817"><ele>412.2</ele><time>2019-08-12T10:14:13Z</time></trkpt>
<trkpt lat="46.899635" lon="15.889838"><ele>412.2</ele><time>2019-08-12T10:14:17Z</time></trkpt>
<trkpt lat="46.899393" lon="15.889763"><ele>412.2</ele><time>2019-08-12T10:14:20Z</time></trkpt>
<trkpt lat="46.898516" lon="15.889749"><ele>415.6</ele><time>2019-08-12T10:14:30Z</time></trkpt>
<trkpt lat="46.898316" lon="15.889676"><ele>412.8</ele><time>2019-08-12T10:14:32Z</time></trkpt>
<trkpt lat="46.898174" lon="15.889587"><ele>412.8</ele><time>2019-08-12T10:14:34Z</time></trkpt>
<trkpt lat="46.898063" lon="15.88946"><ele>412.8</ele><time>2019-08-12T10:14:36Z</time></trkpt>
<trkpt lat="46.897064" lon="15.889554"><ele>409.2</ele><time>2019-08-12T10:14:47Z</time></trkpt>
<trkpt lat="46.896749" lon="15.889704"><ele>409.2</ele><time>2019-08-12T10:14:51Z</time></trkpt>
<trkpt lat="46.896602" lon="15.889843"><ele>409.0</ele><time>2019-08-12T10:14:53Z</time></trkpt>
<trkpt lat="46.896338" lon="15.890305"><ele>411.4</ele><time>2019-08-12T10:14:58Z</time></trkpt>
<trkpt lat="46.896111" lon="15.890659"><ele>411.4</ele><time>2019-08-12T10:15:02Z</time></trkpt>
<trkpt lat="46.895789" lon="15.890937"><ele>412.4</ele><time>2019-08-12T10:15:06Z</time></trkpt>
<trkpt lat="46.895628" lon="15.891022"><ele>412.4</ele><time>2019-08-12T10:15:08Z</time></trkpt>
<trkpt lat="46.895266" lon="15.890935"><ele>412.4</ele><time>2019-08-12T10:15:13Z</time></trkpt>
<trkpt lat="46.895109" lon="15.890764"><ele>411.0</ele><time>2019-08-12T10:15:15Z</time></trkpt>
<trkpt lat="46.894866" lon="15.890367"><ele>407.0</ele><time>2019-08-12T10:15:19Z</time></trkpt>
<trkpt lat="46.89469" lon="15.89014"><ele>407.0</ele><time>2019-08-12T10:15:22Z</time></trkpt>
<trkpt lat="46.894433" lon="15.889958"><ele>398.0</ele><time>2019-08-12T10:15:26Z</time></trkpt>
<trkpt lat="46.893959" lon="15.889678"><ele>386.4</ele><time>2019-08-12T10:15:32Z</time></trkpt>
<trkpt lat="46.893737" lon="15.889599"><ele>386.4</ele><time>2019-08-12T10:15:34Z</time></trkpt>
<trkpt lat="46.893513" lon="15.88959"><ele>386.4</ele><time>2019-08-12T10:15:37Z</time></trkpt>
<trkpt lat="46.893332" lon="15.889629"><ele>371.6</ele><time>2019-08-12T10:15:40Z</time></trkpt>
<trkpt lat="46.893166" lon="15.889707"><ele>371.6</ele><time>2019-08-12T10:15:42Z</time></trkpt>
<trkpt lat="46.89299" lon="15.889895"><ele>371.6</ele><time>2019-08-12T10:15:44Z</time></trkpt>
<trkpt lat="46.89275" lon="15.890538"><ele>387.6</ele><time>2019-08-12T10:15:50Z</time></trkpt>
<trkpt lat="46.892447" lon="15.891017"><ele>377.6</ele><time>2019-08-12T10:15:56Z</time></trkpt>
<trkpt lat="46.892248" lon="15.891446"><ele>377.6</ele><time>2019-08-12T10:16:00Z</time></trkpt>
<trkpt lat="46.892007" lon="15.89171"><ele>390.8</ele><time>2019-08-12T10:16:04Z</time></trkpt>
<trkpt lat="46.891808" lon="15.891817"><ele>390.8</ele><time>2019-08-12T10:16:06Z</time></trkpt>
<trkpt lat="46.891544" lon="15.89201"><ele>365.0</ele><time>2019-08-12T10:16:10Z</time></trkpt>
<trkpt lat="46.891294" lon="15.892236"><ele>365.0</ele><time>2019-08-12T10:16:14Z</time></trkpt>
<trkpt lat="46.891027" lon="15.892711"><ele>382.0</ele><time>2019-08-12T10:16:19Z</time></trkpt>
<trkpt lat="46.890951" lon="15.892943"><ele>382.0</ele><time>2019-08-12T10:16:21Z</time></trkpt>
<trkpt lat="46.89079" lon="15.893139"><ele>356.6</ele><time>2019-08-12T10:16:25Z</time></trkpt>
<trkpt lat="46.890508" lon="15.893232"><ele>356.6</ele><time>2019-08-12T10:16:28Z</time></trkpt>
<trkpt lat="46.890267" lon="15.893376"><ele>368.8</ele><time>2019-08-12T10:16:31Z</time></trkpt>
<trkpt lat="46.890029" lon="15.893645"><ele>368.8</ele><time>2019-08-12T10:16:35Z</time></trkpt>
<trkpt lat="46.889686" lon="15.893905"><ele>345.6</ele><time>2019-08-12T10:16:40Z</time></trkpt>
<trkpt lat="46.889124" lon="15.894173"><ele>330.0</ele><time>2019-08-12T10:16:47Z</time></trkpt>
<trkpt lat="46.888995" lon="15.894181"><ele>330.0</ele><time>2019-08-12T10:16:49Z</time></trkpt>
<trkpt lat="46.888762" lon="15.894134"><ele>332.2</ele><time>2019-08-12T10:16:51Z</time></trkpt>
<trkpt lat="46.888674" lon="15.894094"><ele>332.2</ele><time>2019-08-12T10:16:53Z</time></trkpt>
<trkpt lat="46.888296" lon="15.893846"><ele>319.4</ele><time>2019-08-12T10:16:58Z</time></trkpt>
<trkpt lat="46.888216" lon="15.893707"><ele>319.4</ele><time>2019-08-12T10:17:00Z</time></trkpt>
<trkpt lat="46.88809" lon="15.893734"><ele>319.4</ele><time>2019-08-12T10:17:01Z</time></trkpt>
<trkpt lat="46.887934" lon="15.893799"><ele>319.4</ele><time>2019-08-12T10:17:03Z</time></trkpt>
<trkpt lat="46.88749" lon="15.894225"><ele>309.2</ele><time>2019-08-12T10:17:10Z</time></trkpt>
<trkpt lat="46.887303" lon="15.894317"><ele>309.2</ele><time>2019-08-12T10:17:12Z</time></trkpt>
<trkpt lat="46.887116" lon="15.894318"><ele>309.2</ele><time>2019-08-12T10:17:14Z</time></trkpt>
<trkpt lat="46.88692" lon="15.89423"><ele>309.2</ele><time>2019-08-12T10:17:17Z</time></trkpt>
<trkpt lat="46.886235" lon="15.893828"><ele>300.6</ele><time>2019-08-12T10:17:25Z</time></trkpt>
<trkpt lat="46.885933" lon="15.893732"><ele>300.6</ele><time>2019-08-12T10:17:29Z</time></trkpt>
<trkpt lat="46.885832" lon="15.89372"><ele>301.6</ele><time>2019-08-12T10:17:30Z</time></trkpt>
<trkpt lat="46.885586" lon="15.893712"><ele>301.6</ele><time>2019-08-12T10:17:33Z</time></trkpt>
<trkpt lat="46.885153" lon="15.893831"><ele>301.6</ele><time>2019-08-12T10:17:38Z</time></trkpt>
<trkpt lat="46.884441" lon="15.893868"><ele>301.8</ele><time>2019-08-12T10:17:47Z</time></trkpt>
<trkpt lat="46.883977" lon="15.893877"><ele>295.8</ele><time>2019-08-12T10:17:52Z</time></trkpt>
<trkpt lat="46.883463" lon="15.893791"><ele>295.8</ele><time>2019-08-12T10:17:59Z</time></trkpt>
<trkpt lat="46.883063" lon="15.89399"><ele>288.4</ele><time>2019-08-12T10:18:04Z</time></trkpt>
<trkpt lat="46.882759" lon="15.894024"><ele>288.4</ele><time>2019-08-12T10:18:07Z</time></trkpt>
<trkpt lat="46.882552" lon="15.894021"><ele>288.4</ele><time>2019-08-12T10:18:10Z</time></trkpt>
<trkpt lat="46.882546" lon="15.893882"><ele>288.4</ele><time>2019-08-12T10:18:11Z</time></trkpt>
<trkpt lat="46.8825" lon="15.893637"><ele>282.4</ele><time>2019-08-12T10:18:12Z</time></trkpt>
<trkpt lat="46.882454" lon="15.893488"><ele>282.4</ele><time>2019-08-12T10:18:13Z</time></trkpt>
<trkpt lat="46.882386" lon="15.893335"><ele>282.4</ele><time>2019-08-12T10:18:13Z</time></trkpt>
<trkpt lat="46.882178" lon="15.892982"><ele>279.4</ele><time>2019-08-12T10:18:15Z</time></trkpt>
<trkpt lat="46.881887" lon="15.892534"><ele>279.4</ele><time>2019-08-12T10:18:18Z</time></trkpt>
<trkpt lat="46.881642" lon="15.892166"><ele>287.6</ele><time>2019-08-12T10:18:20Z</time></trkpt>
<trkpt lat="46.881476" lon="15.891962"><ele>287.6</ele><time>2019-08-12T10:18:22Z</time></trkpt>
<trkpt lat="46.88139" lon="15.891881"><ele>287.6</ele><time>2019-08-12T10:18:23Z</time></trkpt>
<trkpt lat="46.881266" lon="15.891839"><ele>287.6</ele><time>2019-08-12T10:18:23Z</time></trkpt>
<trkpt lat="46.880304" lon="15.891659"><ele>305.8</ele><time>2019-08-12T10:18:30Z</time></trkpt>
<trkpt lat="46.879939" lon="15.89145"><ele>304.4</ele><time>2019-08-12T10:18:32Z</time></trkpt>
<trkpt lat="46.879656" lon="15.891233"><ele>304.4</ele><time>2019-08-12T10:18:34Z</time></trkpt>
<trkpt lat="46.879446" lon="15.890978"><ele>304.4</ele><time>2019-08-12T10:18:36Z</time></trkpt>
<trkpt lat="46.879285" lon="15.890677"><ele>309.2</ele><time>2019-08-12T10:18:38Z</time></trkpt>
<trkpt lat="46.879234" lon="15.890486"><ele>309.2</ele><time>2019-08-12T10:18:39Z</time></trkpt>
<trkpt lat="46.879134" lon="15.890273"><ele>306.2</ele><time>2019-08-12T10:18:40Z</time></trkpt>
<trkpt lat="46.878778" lon="15.889713"><ele>310.2</ele><time>2019-08-12T10:18:43Z</time></trkpt>
<trkpt lat="46.878537" lon="15.889466"><ele>310.2</ele><time>2019-08-12T10:18:45Z</time></trkpt>
<trkpt lat="46.878117" lon="15.889256"><ele>308.2</ele><time>2019-08-12T10:18:48Z</time></trkpt>
<trkpt lat="46.877975" lon="15.889171"><ele>308.2</ele><time>2019-08-12T10:18:49Z</time></trkpt>
<trkpt lat="46.877949" lon="15.889138"><ele>308.8</ele><time>2019-08-12T10:18:49Z</time></trkpt>
<trkpt lat="46.87792" lon="15.888978"><ele>308.8</ele><time>2019-08-12T10:18:50Z</time></trkpt>
<trkpt lat="46.877954" lon="15.888096"><ele>306.4</ele><time>2019-08-12T10:18:54Z</time></trkpt>
<trkpt lat="46.877946" lon="15.887605"><ele>306.4</ele><time>2019-08-12T10:18:56Z</time></trkpt>
<trkpt lat="46.87788" lon="15.887025"><ele>304.2</ele><time>2019-08-12T10:18:59Z</time></trkpt>
<trkpt lat="46.877885" lon="15.886262"><ele>306.0</ele><time>2019-08-12T10:19:02Z</time></trkpt>
<trkpt lat="46.877859" lon="15.886133"><ele>306.0</ele><time>2019-08-12T10:19:03Z</time></trkpt>
<trkpt lat="46.877539" lon="15.88555"><ele>310.2</ele><time>2019-08-12T10:19:06Z</time></trkpt>
<trkpt lat="46.877172" lon="15.884988"><ele>296.2</ele><time>2019-08-12T10:19:10Z</time></trkpt>
<trkpt lat="46.876899" lon="15.884656"><ele>296.2</ele><time>2019-08-12T10:19:12Z</time></trkpt>
<trkpt lat="46.876825" lon="15.884465"><ele>296.2</ele><time>2019-08-12T10:19:13Z</time></trkpt>
<trkpt lat="46.87679" lon="15.884236"><ele>296.2</ele><time>2019-08-12T10:19:14Z</time></trkpt>
<trkpt lat="46.876833" lon="15.883852"><ele>292.2</ele><time>2019-08-12T10:19:16Z</time></trkpt>
<trkpt lat="46.876895" lon="15.883508"><ele>292.2</ele><time>2019-08-12T10:19:17Z</time></trkpt>
<trkpt lat="46.876891" lon="15.883448"><ele>292.2</ele><time>2019-08-12T10:19:18Z</time></trkpt>
<trkpt lat="46.876824" lon="15.88338"><ele>292.2</ele><time>2019-08-12T10:19:18Z</time></trkpt>
<trkpt lat="46.876712" lon="15.883308"><ele>286.4</ele><time>2019-08-12T10:19:19Z</time></trkpt>
<trkpt lat="46.87617" lon="15.883071"><ele>279.8</ele><time>2019-08-12T10:19:23Z</time></trkpt>
<trkpt lat="46.876046" lon="15.882964"><ele>279.8</ele><time>2019-08-12T10:19:24Z</time></trkpt>
<trkpt lat="46.875991" lon="15.882851"><ele>279.8</ele><time>2019-08-12T10:19:24Z</time></trkpt>
<trkpt lat="46.875921" lon="15.882784"><ele>279.8</ele><time>2019-08-12T10:19:25Z</time></trkpt>
<trkpt lat="46.875724" lon="15.882685"><ele>281.6</ele><time>2019-08-12T10:19:26Z</time></trkpt>
<trkpt lat="46.875589" lon="15.882655"><ele>281.6</ele><time>2019-08-12T10:19:27Z</time></trkpt>
<trkpt lat="46.87528" lon="15.88271"><ele>281.6</ele><time>2019-08-12T10:19:29Z</time></trkpt>
<trkpt lat="46.875193" lon="15.882816"><ele>281.6</ele><time>2019-08-12T10:19:30Z</time></trkpt>
<trkpt lat="46.875132" lon="15.882979"><ele>281.6</ele><time>2019-08-12T10:19:31Z</time></trkpt>
<trkpt lat="46.874921" lon="15.883758"><ele>288.2</ele><time>2019-08-12T10:19:34Z</time></trkpt>
<trkpt lat="46.87479" lon="15.884088"><ele>288.2</ele><time>2019-08-12T10:19:36Z</time></trkpt>
<trkpt lat="46.874608" lon="15.884472"><ele>284.0</ele><time>2019-08-12T10:19:38Z</time></trkpt>
<trkpt lat="46.874353" lon="15.884859"><ele>284.0</ele><time>2019-08-12T10:19:41Z</time></trkpt>
<trkpt lat="46.874035" lon="15.885283"><ele>292.6</ele><time>2019-08-12T10:19:43Z</time></trkpt>
<trkpt lat="46.873173" lon="15.886244"><ele>294.0</ele><time>2019-08-12T10:19:50Z</time></trkpt>
<trkpt lat="46.87208" lon="15.887251"><ele>290.6</ele><time>2019-08-12T10:19:59Z</time></trkpt>
<trkpt lat="46.87184" lon="15.887503"><ele>284.2</ele><time>2019-08-12T10:20:01Z</time></trkpt>
<trkpt lat="46.87129" lon="15.887937"><ele>287.2</ele><time>2019-08-12T10:20:05Z</time></trkpt>
<trkpt lat="46.871195" lon="15.887963"><ele>287.2</ele><time>2019-08-12T10:20:05Z</time></trkpt>
<trkpt lat="46.871112" lon="15.887894"><ele>287.2</ele><time>2019-08-12T10:20:06Z</time></trkpt>
<trkpt lat="46.871022" lon="15.887899"><ele>287.2</ele><time>2019-08-12T10:20:07Z</time></trkpt>
<trkpt lat="46.870841" lon="15.887941"><ele>287.2</ele><time>2019-08-12T10:20:08Z</time></trkpt>
<trkpt lat="46.870538" lon="15.888051"><ele>285.0</ele><time>2019-08-12T10:20:10Z</time></trkpt>
<trkpt lat="46.87013" lon="15.88828"><ele>285.0</ele><time>2019-08-12T10:20:13Z</time></trkpt>
<trkpt lat="46.869881" lon="15.888508"><ele>279.0</ele><time>2019-08-12T10:20:15Z</time></trkpt>
<trkpt lat="46.869621" lon="15.888713"><ele>279.0</ele><time>2019-08-12T10:20:17Z</time></trkpt>
<trkpt lat="46.869385" lon="15.888857"><ele>279.0</ele><time>2019-08-12T10:20:18Z</time></trkpt>
<trkpt lat="46.869162" lon="15.888893"><ele>274.8</ele><time>2019-08-12T10:20:20Z</time></trkpt>
<trkpt lat="46.868769" lon="15.888795"><ele>274.8</ele><time>2019-08-12T10:20:22Z</time></trkpt>
<trkpt lat="46.867905" lon="15.888482"><ele>273.4</ele><time>2019-08-12T10:20:28Z</time></trkpt>
<trkpt lat="46.867537" lon="15.888316"><ele>275.4</ele><time>2019-08-12T10:20:31Z</time></trkpt>
<trkpt lat="46.867233" lon="15.888856"><ele>276.4</ele><time>2019-08-12T10:20:34Z</time></trkpt>
<trkpt lat="46.866894" lon="15.889402"><ele>273.4</ele><time>2019-08-12T10:20:38Z</time></trkpt>
<trkpt lat="46.866458" lon="15.890017"><ele>271.6</ele><time>2019-08-12T10:20:42Z</time></trkpt>
<trkpt lat="46.865419" lon="15.891346"><ele>268.8</ele><time>2019-08-12T10:20:51Z</time></trkpt>
<trkpt lat="46.865296" lon="15.891128"><ele>268.8</ele><time>2019-08-12T10:20:52Z</time></trkpt>
<trkpt lat="46.865001" lon="15.890723"><ele>273.6</ele><time>2019-08-12T10:20:56Z</time></trkpt>
<trkpt lat="46.864714" lon="15.890728"><ele>273.6</ele><time>2019-08-12T10:20:59Z</time></trkpt>
<trkpt lat="46.864248" lon="15.890777"><ele>273.6</ele><time>2019-08-12T10:21:03Z</time></trkpt>
<trkpt lat="46.863897" lon="15.890765"><ele>272.6</ele><time>2019-08-12T10:21:06Z</time></trkpt>
<trkpt lat="46.863647" lon="15.890737"><ele>272.6</ele><time>2019-08-12T10:21:08Z</time></trkpt>
<trkpt lat="46.863076" lon="15.890594"><ele>269.8</ele><time>2019-08-12T10:21:13Z</time></trkpt>
<trkpt lat="46.862792" lon="15.890575"><ele>269.8</ele><time>2019-08-12T10:21:15Z</time></trkpt>
<trkpt lat="46.862577" lon="15.890597"><ele>269.8</ele><time>2019-08-12T10:21:17Z</time></trkpt>
<trkpt lat="46.862452" lon="15.890651"><ele>270.4</ele><time>2019-08-12T10:21:19Z</time></trkpt>
<trkpt lat="46.862227" lon="15.890819"><ele>270.4</ele><time>2019-08-12T10:21:21Z</time></trkpt>
<trkpt lat="46.861566" lon="15.891377"><ele>272.8</ele><time>2019-08-12T10:21:27Z</time></trkpt>
<trkpt lat="46.861215" lon="15.891609"><ele>272.8</ele><time>2019-08-12T10:21:31Z</time></trkpt>
<trkpt lat="46.861129" lon="15.891634"><ele>272.8</ele><time>2019-08-12T10:21:32Z</time></trkpt>
<trkpt lat="46.860896" lon="15.891553"><ele>272.8</ele><time>2019-08-12T10:21:34Z</time></trkpt>
<trkpt lat="46.860618" lon="15.891321"><ele>276.8</ele><time>2019-08-12T10:21:37Z</time></trkpt>
<trkpt lat="46.860459" lon="15.891135"><ele>276.8</ele><time>2019-08-12T10:21:38Z</time></trkpt>
<trkpt lat="46.860038" lon="15.890544"><ele>285.8</ele><time>2019-08-12T10:21:44Z</time></trkpt>
<trkpt lat="46.85988" lon="15.890365"><ele>283.6</ele><time>2019-08-12T10:21:45Z</time></trkpt>
<trkpt lat="46.859187" lon="15.88971"><ele>294.8</ele><time>2019-08-12T10:21:53Z</time></trkpt>
<trkpt lat="46.858777" lon="15.889516"><ele>286.4</ele><time>2019-08-12T10:21:56Z</time></trkpt>
<trkpt lat="46.858344" lon="15.889196"><ele>286.4</ele><time>2019-08-12T10:22:01Z</time></trkpt>
<trkpt lat="46.858225" lon="15.889146"><ele>288.8</ele><time>2019-08-12T10:22:02Z</time></trkpt>
<trkpt lat="46.858038" lon="15.889125"><ele>288.8</ele><time>2019-08-12T10:22:03Z</time></trkpt>
<trkpt lat="46.857823" lon="15.889055"><ele>288.8</ele><time>2019-08-12T10:22:05Z</time></trkpt>
<trkpt lat="46.856906" lon="15.888601"><ele>278.4</ele><time>2019-08-12T10:22:14Z</time></trkpt>
<trkpt lat="46.856788" lon="15.888501"><ele>278.4</ele><time>2019-08-12T10:22:15Z</time></trkpt>
<trkpt lat="46.856454" lon="15.888001"><ele>274.4</ele><time>2019-08-12T10:22:19Z</time></trkpt>
<trkpt lat="46.856378" lon="15.887922"><ele>274.4</ele><time>2019-08-12T10:22:20Z</time></trkpt>
<trkpt lat="46.856273" lon="15.887878"><ele>274.4</ele><time>2019-08-12T10:22:21Z</time></trkpt>
<trkpt lat="46.856167" lon="15.887882"><ele>274.4</ele><time>2019-08-12T10:22:22Z</time></trkpt>
<trkpt lat="46.85606" lon="15.887944"><ele>274.4</ele><time>2019-08-12T10:22:23Z</time></trkpt>
<trkpt lat="46.855828" lon="15.888143"><ele>277.2</ele><time>2019-08-12T10:22:25Z</time></trkpt>
<trkpt lat="46.855794" lon="15.888199"><ele>277.2</ele><time>2019-08-12T10:22:26Z</time></trkpt>
<trkpt lat="46.855715" lon="15.888407"><ele>278.8</ele><time>2019-08-12T10:22:27Z</time></trkpt>
<trkpt lat="46.855563" lon="15.889175"><ele>276.0</ele><time>2019-08-12T10:22:32Z</time></trkpt>
<trkpt lat="46.855238" lon="15.889868"><ele>276.0</ele><time>2019-08-12T10:22:37Z</time></trkpt>
<trkpt lat="46.854662" lon="15.890894"><ele>271.0</ele><time>2019-08-12T10:22:45Z</time></trkpt>
<trkpt lat="46.854463" lon="15.89134"><ele>271.0</ele><time>2019-08-12T10:22:48Z</time></trkpt>
<trkpt lat="46.854298" lon="15.89161"><ele>271.0</ele><time>2019-08-12T10:22:51Z</time></trkpt>
<trkpt lat="46.854208" lon="15.891716"><ele>264.6</ele><time>2019-08-12T10:22:52Z</time></trkpt>
<trkpt lat="46.853747" lon="15.892028"><ele>271.2</ele><time>2019-08-12T10:22:56Z</time></trkpt>
<trkpt lat="46.853631" lon="15.89208"><ele>271.2</ele><time>2019-08-12T10:22:57Z</time></trkpt>
<trkpt lat="46.853243" lon="15.892958"><ele>276.2</ele><time>2019-08-12T10:23:03Z</time></trkpt>
<trkpt lat="46.852919" lon="15.893359"><ele>266.6</ele><time>2019-08-12T10:23:07Z</time></trkpt>
<trkpt lat="46.852701" lon="15.893527"><ele>266.6</ele><time>2019-08-12T10:23:09Z</time></trkpt>
<trkpt lat="46.85246" lon="15.893578"><ele>273.6</ele><time>2019-08-12T10:23:12Z</time></trkpt>
<trkpt lat="46.851975" lon="15.893549"><ele>273.6</ele><time>2019-08-12T10:23:16Z</time></trkpt>
<trkpt lat="46.85122" lon="15.893354"><ele>271.8</ele><time>2019-08-12T10:23:23Z</time></trkpt>
<trkpt lat="46.850988" lon="15.893365"><ele>271.8</ele><time>2019-08-12T10:23:25Z</time></trkpt>
<trkpt lat="46.850916" lon="15.893451"><ele>271.8</ele><time>2019-08-12T10:23:26Z</time></trkpt>
<trkpt lat="46.850835" lon="15.893591"><ele>271.8</ele><time>2019-08-12T10:23:27Z</time></trkpt>
<trkpt lat="46.850372" lon="15.89391"><ele>265.8</ele><time>2019-08-12T10:23:31Z</time></trkpt>
<trkpt lat="46.850038" lon="15.89443"><ele>258.8</ele><time>2019-08-12T10:23:35Z</time></trkpt>
<trkpt lat="46.849929" lon="15.8949"><ele>258.2</ele><time>2019-08-12T10:23:38Z</time></trkpt>
<trkpt lat="46.849831" lon="15.895436"><ele>257.0</ele><time>2019-08-12T10:23:42Z</time></trkpt>
<trkpt lat="46.849654" lon="15.896583"><ele>257.0</ele><time>2019-08-12T10:23:49Z</time></trkpt>
<trkpt lat="46.849512" lon="15.896961"><ele>257.6</ele><time>2019-08-12T10:23:51Z</time></trkpt>
<trkpt lat="46.848926" lon="15.89774"><ele>257.8</ele><time>2019-08-12T10:23:58Z</time></trkpt>
<trkpt lat="46.848773" lon="15.898041"><ele>257.8</ele><time>2019-08-12T10:24:01Z</time></trkpt>
<trkpt lat="46.848664" lon="15.89838"><ele>257.8</ele><time>2019-08-12T10:24:03Z</time></trkpt>
<trkpt lat="46.848526" lon="15.898922"><ele>257.8</ele><time>2019-08-12T10:24:06Z</time></trkpt>
<trkpt lat="46.848432" lon="15.899492"><ele>259.0</ele><time>2019-08-12T10:24:10Z</time></trkpt>
<trkpt lat="46.848354" lon="15.900505"><ele>260.4</ele><time>2019-08-12T10:24:16Z</time></trkpt>
<trkpt lat="46.848259" lon="15.901292"><ele>262.0</ele><time>2019-08-12T10:24:21Z</time></trkpt>
<trkpt lat="46.848127" lon="15.902032"><ele>262.8</ele><time>2019-08-12T10:24:25Z</time></trkpt>
<trkpt lat="46.8479" lon="15.903615"><ele>266.2</ele><time>2019-08-12T10:24:36Z</time></trkpt>
<trkpt lat="46.846985" lon="15.902803"><ele>265.8</ele><time>2019-08-12T10:24:43Z</time></trkpt>
<trkpt lat="46.846379" lon="15.902366"><ele>264.2</ele><time>2019-08-12T10:24:48Z</time></trkpt>
<trkpt lat="46.846137" lon="15.90222"><ele>264.2</ele><time>2019-08-12T10:24:49Z</time></trkpt>
<trkpt lat="46.845478" lon="15.901939"><ele>264.8</ele><time>2019-08-12T10:24:54Z</time></trkpt>
<trkpt lat="46.844163" lon="15.901491"><ele>264.4</ele><time>2019-08-12T10:25:03Z</time></trkpt>
<trkpt lat="46.843573" lon="15.9012"><ele>264.4</ele><time>2019-08-12T10:25:07Z</time></trkpt>
<trkpt lat="46.841152" lon="15.899913"><ele>264.6</ele><time>2019-08-12T10:25:24Z</time></trkpt>
<trkpt lat="46.840111" lon="15.899395"><ele>265.6</ele><time>2019-08-12T10:25:31Z</time></trkpt>
<trkpt lat="46.839403" lon="15.899074"><ele>263.8</ele><time>2019-08-12T10:25:36Z</time></trkpt>
<trkpt lat="46.837158" lon="15.898229"><ele>263.2</ele><time>2019-08-12T10:25:51Z</time></trkpt>
<trkpt lat="46.836266" lon="15.897855"><ele>263.4</ele><time>2019-08-12T10:25:57Z</time></trkpt>
<trkpt lat="46.835388" lon="15.897433"><ele>261.6</ele><time>2019-08-12T10:26:03Z</time></trkpt>
<trkpt lat="46.834385" lon="15.896863"><ele>263.0</ele><time>2019-08-12T10:26:10Z</time></trkpt>
<trkpt lat="46.833136" lon="15.896069"><ele>261.8</ele><time>2019-08-12T10:26:19Z</time></trkpt>
<trkpt lat="46.832485" lon="15.895683"><ele>259.6</ele><time>2019-08-12T10:26:24Z</time></trkpt>
<trkpt lat="46.831807" lon="15.89535"><ele>259.6</ele><time>2019-08-12T10:26:28Z</time></trkpt>
<trkpt lat="46.830956" lon="15.89505"><ele>259.2</ele><time>2019-08-12T10:26:34Z</time></trkpt>
<trkpt lat="46.830154" lon="15.894895"><ele>258.0</ele><time>2019-08-12T10:26:39Z</time></trkpt>
<trkpt lat="46.829116" lon="15.894837"><ele>257.2</ele><time>2019-08-12T10:26:46Z</time></trkpt>
<trkpt lat="46.82836" lon="15.894899"><ele>257.2</ele><time>2019-08-12T10:26:51Z</time></trkpt>
<trkpt lat="46.827492" lon="15.895092"><ele>257.2</ele><time>2019-08-12T10:26:57Z</time></trkpt>
<trkpt lat="46.826178" lon="15.895488"><ele>257.2</ele><time>2019-08-12T10:27:06Z</time></trkpt>
<trkpt lat="46.825738" lon="15.895563"><ele>258.2</ele><time>2019-08-12T10:27:08Z</time></trkpt>
<trkpt lat="46.825278" lon="15.895589"><ele>258.2</ele><time>2019-08-12T10:27:11Z</time></trkpt>
<trkpt lat="46.824804" lon="15.895589"><ele>258.4</ele><time>2019-08-12T10:27:15Z</time></trkpt>
<trkpt lat="46.824366" lon="15.895516"><ele>258.4</ele><time>2019-08-12T10:27:17Z</time></trkpt>
<trkpt lat="46.823453" lon="15.895278"><ele>258.2</ele><time>2019-08-12T10:27:24Z</time></trkpt>
<trkpt lat="46.822867" lon="15.895038"><ele>258.0</ele><time>2019-08-12T10:27:27Z</time></trkpt>
<trkpt lat="46.822216" lon="15.894818"><ele>256.0</ele><time>2019-08-12T10:27:32Z</time></trkpt>
<trkpt lat="46.821503" lon="15.894685"><ele>255.6</ele><time>2019-08-12T10:27:37Z</time></trkpt>
<trkpt lat="46.820769" lon="15.894581"><ele>255.4</ele><time>2019-08-12T10:27:41Z</time></trkpt>
<trkpt lat="46.820407" lon="15.894501"><ele>255.4</ele><time>2019-08-12T10:27:44Z</time></trkpt>
<trkpt lat="46.820131" lon="15.894423"><ele>255.4</ele><time>2019-08-12T10:27:46Z</time></trkpt>
<trkpt lat="46.818798" lon="15.893896"><ele>253.8</ele><time>2019-08-12T10:27:55Z</time></trkpt>
<trkpt lat="46.81789" lon="15.893641"><ele>254.2</ele><time>2019-08-12T10:28:01Z</time></trkpt>
<trkpt lat="46.81789" lon="15.893641"><ele>254.2</ele><time>2019-08-12T10:28:01Z</time></trkpt>
<trkpt lat="46.817696" lon="15.893584"><ele>254.2</ele><time>2019-08-12T10:28:02Z</time></trkpt>
<trkpt lat="46.817125" lon="15.893505"><ele>255.0</ele><time>2019-08-12T10:28:05Z</time></trkpt>
<trkpt lat="46.816482" lon="15.893457"><ele>255.6</ele><time>2019-08-12T10:28:08Z</time></trkpt>
<trkpt lat="46.815821" lon="15.893478"><ele>255.6</ele><time>2019-08-12T10:28:12Z</time></trkpt>
<trkpt lat="46.813131" lon="15.893633"><ele>255.6</ele><time>2019-08-12T10:28:26Z</time></trkpt>
<trkpt lat="46.812245" lon="15.893589"><ele>255.6</ele><time>2019-08-12T10:28:30Z</time></trkpt>
<trkpt lat="46.812191" lon="15.893256"><ele>254.4</ele><time>2019-08-12T10:28:31Z</time></trkpt>
<trkpt lat="46.812039" lon="15.892868"><ele>254.4</ele><time>2019-08-12T10:28:33Z</time></trkpt>
<trkpt lat="46.81181" lon="15.892481"><ele>253.6</ele><time>2019-08-12T10:28:34Z</time></trkpt>
<trkpt lat="46.811529" lon="15.892103"><ele>253.2</ele><time>2019-08-12T10:28:36Z</time></trkpt>
<trkpt lat="46.809964" lon="15.890142"><ele>249.6</ele><time>2019-08-12T10:28:46Z</time></trkpt>
<trkpt lat="46.809087" lon="15.889076"><ele>247.4</ele><time>2019-08-12T10:28:51Z</time></trkpt>
<trkpt lat="46.807705" lon="15.887587"><ele>246.2</ele><time>2019-08-12T10:28:59Z</time></trkpt>
<trkpt lat="46.805507" lon="15.885295"><ele>246.0</ele><time>2019-08-12T10:29:11Z</time></trkpt>
<trkpt lat="46.803187" lon="15.882954"><ele>249.0</ele><time>2019-08-12T10:29:24Z</time></trkpt>
<trkpt lat="46.802399" lon="15.882253"><ele>256.4</ele><time>2019-08-12T10:29:28Z</time></trkpt>
<trkpt lat="46.802232" lon="15.882046"><ele>256.4</ele><time>2019-08-12T10:29:29Z</time></trkpt>
<trkpt lat="46.802063" lon="15.881756"><ele>256.4</ele><time>2019-08-12T10:29:31Z</time></trkpt>
<trkpt lat="46.801655" lon="15.88082"><ele>262.8</ele><time>2019-08-12T10:29:34Z</time></trkpt>
<trkpt lat="46.801322" lon="15.880139"><ele>262.8</ele><time>2019-08-12T10:29:37Z</time></trkpt>
<trkpt lat="46.80126" lon="15.879923"><ele>266.4</ele><time>2019-08-12T10:29:38Z</time></trkpt>
<trkpt lat="46.801227" lon="15.879647"><ele>266.4</ele><time>2019-08-12T10:29:38Z</time></trkpt>
<trkpt lat="46.801249" lon="15.879181"><ele>266.4</ele><time>2019-08-12T10:29:40Z</time></trkpt>
<trkpt lat="46.801481" lon="15.878034"><ele>265.6</ele><time>2019-08-12T10:29:44Z</time></trkpt>
<trkpt lat="46.801455" lon="15.8779"><ele>265.6</ele><time>2019-08-12T10:29:44Z</time></trkpt>
<trkpt lat="46.801381" lon="15.87781"><ele>265.6</ele><time>2019-08-12T10:29:45Z</time></trkpt>
<trkpt lat="46.801248" lon="15.877793"><ele>265.6</ele><time>2019-08-12T10:29:45Z</time></trkpt>
<trkpt lat="46.800782" lon="15.87787"><ele>265.4</ele><time>2019-08-12T10:29:47Z</time></trkpt>
<trkpt lat="46.800546" lon="15.877857"><ele>265.4</ele><time>2019-08-12T10:29:48Z</time></trkpt>
<trkpt lat="46.800267" lon="15.877665"><ele>265.4</ele><time>2019-08-12T10:29:50Z</time></trkpt>
<trkpt lat="46.800019" lon="15.877452"><ele>267.0</ele><time>2019-08-12T10:29:51Z</time></trkpt>
<trkpt lat="46.799854" lon="15.877239"><ele>274.2</ele><time>2019-08-12T10:29:52Z</time></trkpt>
<trkpt lat="46.799805" lon="15.877062"><ele>274.2</ele><time>2019-08-12T10:29:53Z</time></trkpt>
<trkpt lat="46.799794" lon="15.876916"><ele>274.2</ele><time>2019-08-12T10:29:53Z</time></trkpt>
<trkpt lat="46.799843" lon="15.876669"><ele>274.2</ele><time>2019-08-12T10:29:54Z</time></trkpt>
<trkpt lat="46.7999" lon="15.876567"><ele>278.2</ele><time>2019-08-12T10:29:55Z</time></trkpt>
<trkpt lat="46.799982" lon="15.87647"><ele>278.2</ele><time>2019-08-12T10:29:55Z</time></trkpt>
<trkpt lat="46.800353" lon="15.876258"><ele>271.2</ele><time>2019-08-12T10:29:57Z</time></trkpt>
<trkpt lat="46.800779" lon="15.876127"><ele>271.2</ele><time>2019-08-12T10:29:59Z</time></trkpt>
<trkpt lat="46.800863" lon="15.876055"><ele>268.0</ele><time>2019-08-12T10:29:59Z</time></trkpt>
<trkpt lat="46.800916" lon="15.875956"><ele>268.0</ele><time>2019-08-12T10:30:00Z</time></trkpt>
<trkpt lat="46.800945" lon="15.875835"><ele>268.0</ele><time>2019-08-12T10:30:00Z</time></trkpt>
<trkpt lat="46.80096" lon="15.875558"><ele>270.4</ele><time>2019-08-12T10:30:01Z</time></trkpt>
<trkpt lat="46.800945" lon="15.875398"><ele>270.4</ele><time>2019-08-12T10:30:02Z</time></trkpt>
<trkpt lat="46.800902" lon="15.875203"><ele>270.4</ele><time>2019-08-12T10:30:02Z</time></trkpt>
<trkpt lat="46.800865" lon="15.875111"><ele>270.4</ele><time>2019-08-12T10:30:03Z</time></trkpt>
<trkpt lat="46.800795" lon="15.875011"><ele>273.2</ele><time>2019-08-12T10:30:03Z</time></trkpt>
<trkpt lat="46.800684" lon="15.874969"><ele>275.0</ele><time>2019-08-12T10:30:04Z</time></trkpt>
<trkpt lat="46.800557" lon="15.874992"><ele>275.0</ele><time>2019-08-12T10:30:04Z</time></trkpt>
<trkpt lat="46.800015" lon="15.875197"><ele>273.2</ele><time>2019-08-12T10:30:07Z</time></trkpt>
<trkpt lat="46.799894" lon="15.875218"><ele>281.2</ele><time>2019-08-12T10:30:07Z</time></trkpt>
<trkpt lat="46.799752" lon="15.875194"><ele>281.2</ele><time>2019-08-12T10:30:08Z</time></trkpt>
<trkpt lat="46.799637" lon="15.875137"><ele>281.2</ele><time>2019-08-12T10:30:09Z</time></trkpt>
<trkpt lat="46.799549" lon="15.875038"><ele>281.2</ele><time>2019-08-12T10:30:09Z</time></trkpt>
<trkpt lat="46.799499" lon="15.87494"><ele>282.6</ele><time>2019-08-12T10:30:09Z</time></trkpt>
<trkpt lat="46.799463" lon="15.874804"><ele>282.6</ele><time>2019-08-12T10:30:10Z</time></trkpt>
<trkpt lat="46.799459" lon="15.874643"><ele>282.6</ele><time>2019-08-12T10:30:10Z</time></trkpt>
<trkpt lat="46.799483" lon="15.874478"><ele>282.6</ele><time>2019-08-12T10:30:11Z</time></trkpt>
<trkpt lat="46.799827" lon="15.873545"><ele>285.8</ele><time>2019-08-12T10:30:14Z</time></trkpt>
<trkpt lat="46.799844" lon="15.873311"><ele>289.8</ele><time>2019-08-12T10:30:15Z</time></trkpt>
<trkpt lat="46.799755" lon="15.872255"><ele>293.8</ele><time>2019-08-12T10:30:18Z</time></trkpt>
<trkpt lat="46.79973" lon="15.871764"><ele>293.8</ele><time>2019-08-12T10:30:20Z</time></trkpt>
<trkpt lat="46.79966" lon="15.871246"><ele>301.2</ele><time>2019-08-12T10:30:22Z</time></trkpt>
<trkpt lat="46.799667" lon="15.87115"><ele>301.2</ele><time>2019-08-12T10:30:22Z</time></trkpt>
<trkpt lat="46.799705" lon="15.870998"><ele>301.2</ele><time>2019-08-12T10:30:23Z</time></trkpt>
<trkpt lat="46.799823" lon="15.870887"><ele>301.2</ele><time>2019-08-12T10:30:23Z</time></trkpt>
<trkpt lat="46.800232" lon="15.870664"><ele>300.6</ele><time>2019-08-12T10:30:25Z</time></trkpt>
<trkpt lat="46.800416" lon="15.87054"><ele>300.6</ele><time>2019-08-12T10:30:26Z</time></trkpt>
<trkpt lat="46.800733" lon="15.870225"><ele>300.6</ele><time>2019-08-12T10:30:28Z</time></trkpt>
<trkpt lat="46.801063" lon="15.869708"><ele>293.8</ele><time>2019-08-12T10:30:30Z</time></trkpt>
<trkpt lat="46.801189" lon="15.869547"><ele>293.8</ele><time>2019-08-12T10:30:31Z</time></trkpt>
<trkpt lat="46.801368" lon="15.869435"><ele>293.8</ele><time>2019-08-12T10:30:32Z</time></trkpt>
<trkpt lat="46.801903" lon="15.869215"><ele>295.8</ele><time>2019-08-12T10:30:34Z</time></trkpt>
<trkpt lat="46.802255" lon="15.869023"><ele>288.2</ele><time>2019-08-12T10:30:36Z</time></trkpt>
<trkpt lat="46.802626" lon="15.868759"><ele>294.4</ele><time>2019-08-12T10:30:38Z</time></trkpt>
<trkpt lat="46.802767" lon="15.868514"><ele>294.4</ele><time>2019-08-12T10:30:39Z</time></trkpt>
<trkpt lat="46.802821" lon="15.868331"><ele>293.4</ele><time>2019-08-12T10:30:40Z</time></trkpt>
<trkpt lat="46.802835" lon="15.868141"><ele>293.4</ele><time>2019-08-12T10:30:40Z</time></trkpt>
<trkpt lat="46.802795" lon="15.867964"><ele>293.4</ele><time>2019-08-12T10:30:41Z</time></trkpt>
<trkpt lat="46.80273" lon="15.867801"><ele>293.4</ele><time>2019-08-12T10:30:41Z</time></trkpt>
<trkpt lat="46.802413" lon="15.867252"><ele>284.6</ele><time>2019-08-12T10:30:44Z</time></trkpt>
<trkpt lat="46.802294" lon="15.866991"><ele>284.6</ele><time>2019-08-12T10:30:45Z</time></trkpt>
<trkpt lat="46.802202" lon="15.866649"><ele>282.6</ele><time>2019-08-12T10:30:46Z</time></trkpt>
<trkpt lat="46.802126" lon="15.865947"><ele>282.6</ele><time>2019-08-12T10:30:48Z</time></trkpt>
<trkpt lat="46.802023" lon="15.864367"><ele>272.6</ele><time>2019-08-12T10:30:53Z</time></trkpt>
<trkpt lat="46.801718" lon="15.863103"><ele>279.8</ele><time>2019-08-12T10:30:57Z</time></trkpt>
<trkpt lat="46.801682" lon="15.862765"><ele>279.8</ele><time>2019-08-12T10:30:58Z</time></trkpt>
<trkpt lat="46.801633" lon="15.86251"><ele>272.0</ele><time>2019-08-12T10:30:59Z</time></trkpt>
<trkpt lat="46.801541" lon="15.862215"><ele>279.8</ele><time>2019-08-12T10:31:00Z</time></trkpt>
<trkpt lat="46.801297" lon="15.861776"><ele>279.8</ele><time>2019-08-12T10:31:02Z</time></trkpt>
<trkpt lat="46.800431" lon="15.860387"><ele>277.2</ele><time>2019-08-12T10:31:08Z</time></trkpt>
<trkpt lat="46.800227" lon="15.860158"><ele>277.2</ele><time>2019-08-12T10:31:09Z</time></trkpt>
<trkpt lat="46.798917" lon="15.85903"><ele>258.4</ele><time>2019-08-12T10:31:16Z</time></trkpt>
<trkpt lat="46.798652" lon="15.858843"><ele>258.4</ele><time>2019-08-12T10:31:18Z</time></trkpt>
<trkpt lat="46.798333" lon="15.858714"><ele>257.4</ele><time>2019-08-12T10:31:19Z</time></trkpt>
<trkpt lat="46.797748" lon="15.858687"><ele>257.4</ele><time>2019-08-12T10:31:22Z</time></trkpt>
<trkpt lat="46.797251" lon="15.858704"><ele>255.8</ele><time>2019-08-12T10:31:24Z</time></trkpt>
<trkpt lat="46.797115" lon="15.858674"><ele>255.8</ele><time>2019-08-12T10:31:25Z</time></trkpt>
<trkpt lat="46.796991" lon="15.858621"><ele>255.8</ele><time>2019-08-12T10:31:25Z</time></trkpt>
<trkpt lat="46.796201" lon="15.858028"><ele>252.2</ele><time>2019-08-12T10:31:30Z</time></trkpt>
<trkpt lat="46.795837" lon="15.857645"><ele>252.2</ele><time>2019-08-12T10:31:32Z</time></trkpt>
<trkpt lat="46.795198" lon="15.856653"><ele>251.0</ele><time>2019-08-12T10:31:36Z</time></trkpt>
<trkpt lat="46.794792" lon="15.856159"><ele>250.8</ele><time>2019-08-12T10:31:38Z</time></trkpt>
<trkpt lat="46.794188" lon="15.855456"><ele>250.0</ele><time>2019-08-12T10:31:42Z</time></trkpt>
<trkpt lat="46.793989" lon="15.855293"><ele>250.6</ele><time>2019-08-12T10:31:43Z</time></trkpt>
<trkpt lat="46.793745" lon="15.855129"><ele>250.6</ele><time>2019-08-12T10:31:44Z</time></trkpt>
<trkpt lat="46.793528" lon="15.854878"><ele>250.8</ele><time>2019-08-12T10:31:45Z</time></trkpt>
<trkpt lat="46.793342" lon="15.854608"><ele>250.8</ele><time>2019-08-12T10:31:47Z</time></trkpt>
<trkpt lat="46.792895" lon="15.854054"><ele>250.6</ele><time>2019-08-12T10:31:49Z</time></trkpt>
<trkpt lat="46.79231" lon="15.853485"><ele>249.8</ele><time>2019-08-12T10:31:53Z</time></trkpt>
<trkpt lat="46.791933" lon="15.853165"><ele>249.8</ele><time>2019-08-12T10:31:55Z</time></trkpt>
<trkpt lat="46.791694" lon="15.852996"><ele>249.8</ele><time>2019-08-12T10:31:56Z</time></trkpt>
<trkpt lat="46.791422" lon="15.852928"><ele>250.2</ele><time>2019-08-12T10:31:57Z</time></trkpt>
<trkpt lat="46.791488" lon="15.852434"><ele>248.8</ele><time>2019-08-12T10:31:59Z</time></trkpt>
<trkpt lat="46.791523" lon="15.852268"><ele>248.8</ele><time>2019-08-12T10:32:00Z</time></trkpt>
<trkpt lat="46.79166" lon="15.85192"><ele>248.8</ele><time>2019-08-12T10:32:02Z</time></trkpt>
<trkpt lat="46.791856" lon="15.851625"><ele>249.0</ele><time>2019-08-12T10:32:03Z</time></trkpt>
<trkpt lat="46.793374" lon="15.849932"><ele>277.2</ele><time>2019-08-12T10:32:14Z</time></trkpt>
<trkpt lat="46.793453" lon="15.849813"><ele>277.2</ele><time>2019-08-12T10:32:15Z</time></trkpt>
<trkpt lat="46.793486" lon="15.849668"><ele>277.2</ele><time>2019-08-12T10:32:16Z</time></trkpt>
<trkpt lat="46.793481" lon="15.849236"><ele>277.2</ele><time>2019-08-12T10:32:17Z</time></trkpt>
<trkpt lat="46.793451" lon="15.849001"><ele>286.6</ele><time>2019-08-12T10:32:18Z</time></trkpt>
<trkpt lat="46.793381" lon="15.848686"><ele>286.6</ele><time>2019-08-12T10:32:20Z</time></trkpt>
<trkpt lat="46.792806" lon="15.847175"><ele>286.8</ele><time>2019-08-12T10:32:26Z</time></trkpt>
<trkpt lat="46.792598" lon="15.846836"><ele>286.8</ele><time>2019-08-12T10:32:28Z</time></trkpt>
<trkpt lat="46.792415" lon="15.846647"><ele>288.6</ele><time>2019-08-12T10:32:30Z</time></trkpt>
<trkpt lat="46.792131" lon="15.846108"><ele>288.6</ele><time>2019-08-12T10:32:32Z</time></trkpt>
<trkpt lat="46.791679" lon="15.845356"><ele>305.6</ele><time>2019-08-12T10:32:36Z</time></trkpt>
<trkpt lat="46.791394" lon="15.844788"><ele>307.4</ele><time>2019-08-12T10:32:39Z</time></trkpt>
<trkpt lat="46.791226" lon="15.844321"><ele>307.4</ele><time>2019-08-12T10:32:41Z</time></trkpt>
<trkpt lat="46.791181" lon="15.844034"><ele>313.0</ele><time>2019-08-12T10:32:42Z</time></trkpt>
<trkpt lat="46.791179" lon="15.84384"><ele>313.0</ele><time>2019-08-12T10:32:43Z</time></trkpt>
<trkpt lat="46.791305" lon="15.842998"><ele>309.0</ele><time>2019-08-12T10:32:46Z</time></trkpt>
<trkpt lat="46.791886" lon="15.841437"><ele>293.0</ele><time>2019-08-12T10:32:53Z</time></trkpt>
<trkpt lat="46.792447" lon="15.839799"><ele>277.4</ele><time>2019-08-12T10:33:01Z</time></trkpt>
<trkpt lat="46.792564" lon="15.8395"><ele>281.0</ele><time>2019-08-12T10:33:02Z</time></trkpt>
<trkpt lat="46.792612" lon="15.839322"><ele>281.0</ele><time>2019-08-12T10:33:03Z</time></trkpt>
<trkpt lat="46.792634" lon="15.839171"><ele>281.0</ele><time>2019-08-12T10:33:03Z</time></trkpt>
<trkpt lat="46.79267" lon="15.836821"><ele>257.4</ele><time>2019-08-12T10:33:13Z</time></trkpt>
<trkpt lat="46.792703" lon="15.836667"><ele>257.4</ele><time>2019-08-12T10:33:14Z</time></trkpt>
<trkpt lat="46.792561" lon="15.836426"><ele>257.4</ele><time>2019-08-12T10:33:15Z</time></trkpt>
<trkpt lat="46.791929" lon="15.835713"><ele>255.0</ele><time>2019-08-12T10:33:20Z</time></trkpt>
<trkpt lat="46.791827" lon="15.835474"><ele>255.0</ele><time>2019-08-12T10:33:21Z</time></trkpt>
<trkpt lat="46.79179" lon="15.835296"><ele>255.0</ele><time>2019-08-12T10:33:22Z</time></trkpt>
<trkpt lat="46.791756" lon="15.834272"><ele>252.8</ele><time>2019-08-12T10:33:26Z</time></trkpt>
<trkpt lat="46.791727" lon="15.833938"><ele>251.4</ele><time>2019-08-12T10:33:27Z</time></trkpt>
<trkpt lat="46.791698" lon="15.833732"><ele>251.4</ele><time>2019-08-12T10:33:28Z</time></trkpt>
<trkpt lat="46.791644" lon="15.833496"><ele>252.2</ele><time>2019-08-12T10:33:29Z</time></trkpt>
<trkpt lat="46.791454" lon="15.832959"><ele>250.4</ele><time>2019-08-12T10:33:31Z</time></trkpt>
<trkpt lat="46.791369" lon="15.83281"><ele>250.4</ele><time>2019-08-12T10:33:32Z</time></trkpt>
<trkpt lat="46.791007" lon="15.832378"><ele>249.4</ele><time>2019-08-12T10:33:35Z</time></trkpt>
<trkpt lat="46.790884" lon="15.832184"><ele>249.4</ele><time>2019-08-12T10:33:36Z</time></trkpt>
<trkpt lat="46.790743" lon="15.831799"><ele>249.4</ele><time>2019-08-12T10:33:37Z</time></trkpt>
<trkpt lat="46.790604" lon="15.831257"><ele>249.4</ele><time>2019-08-12T10:33:40Z</time></trkpt>
<trkpt lat="46.790556" lon="15.830929"><ele>249.4</ele><time>2019-08-12T10:33:41Z</time></trkpt>
<trkpt lat="46.790536" lon="15.83064"><ele>248.2</ele><time>2019-08-12T10:33:42Z</time></trkpt>
<trkpt lat="46.790537" lon="15.828318"><ele>246.4</ele><time>2019-08-12T10:33:51Z</time></trkpt>
<trkpt lat="46.79047" lon="15.827575"><ele>246.4</ele><time>2019-08-12T10:33:54Z</time></trkpt>
<trkpt lat="46.790351" lon="15.826941"><ele>247.4</ele><time>2019-08-12T10:33:57Z</time></trkpt>
<trkpt lat="46.79022" lon="15.826461"><ele>248.8</ele><time>2019-08-12T10:33:59Z</time></trkpt>
<trkpt lat="46.789963" lon="15.825777"><ele>247.6</ele><time>2019-08-12T10:34:02Z</time></trkpt>
<trkpt lat="46.789722" lon="15.82519"><ele>247.6</ele><time>2019-08-12T10:34:05Z</time></trkpt>
<trkpt lat="46.789572" lon="15.824761"><ele>247.4</ele><time>2019-08-12T10:34:06Z</time></trkpt>
<trkpt lat="46.78945" lon="15.824255"><ele>247.4</ele><time>2019-08-12T10:34:09Z</time></trkpt>
<trkpt lat="46.789929" lon="15.823996"><ele>248.6</ele><time>2019-08-12T10:34:11Z</time></trkpt>
<trkpt lat="46.79054" lon="15.823559"><ele>247.4</ele><time>2019-08-12T10:34:14Z</time></trkpt>
<trkpt lat="46.792798" lon="15.821672"><ele>250.2</ele><time>2019-08-12T10:34:26Z</time></trkpt>
<trkpt lat="46.793082" lon="15.821406"><ele>254.0</ele><time>2019-08-12T10:34:28Z</time></trkpt>
<trkpt lat="46.793339" lon="15.821102"><ele>251.0</ele><time>2019-08-12T10:34:29Z</time></trkpt>
<trkpt lat="46.79388" lon="15.820268"><ele>254.0</ele><time>2019-08-12T10:34:33Z</time></trkpt>
<trkpt lat="46.794023" lon="15.820074"><ele>254.0</ele><time>2019-08-12T10:34:34Z</time></trkpt>
<trkpt lat="46.794332" lon="15.819802"><ele>255.8</ele><time>2019-08-12T10:34:36Z</time></trkpt>
<trkpt lat="46.794662" lon="15.819638"><ele>255.8</ele><time>2019-08-12T10:34:37Z</time></trkpt>
<trkpt lat="46.795493" lon="15.819408"><ele>253.4</ele><time>2019-08-12T10:34:41Z</time></trkpt>
<trkpt lat="46.795829" lon="15.819288"><ele>253.4</ele><time>2019-08-12T10:34:43Z</time></trkpt>
<trkpt lat="46.796587" lon="15.818932"><ele>257.4</ele><time>2019-08-12T10:34:47Z</time></trkpt>
<trkpt lat="46.79686" lon="15.818834"><ele>261.4</ele><time>2019-08-12T10:34:48Z</time></trkpt>
<trkpt lat="46.797107" lon="15.818834"><ele>261.4</ele><time>2019-08-12T10:34:49Z</time></trkpt>
<trkpt lat="46.797237" lon="15.818867"><ele>261.4</ele><time>2019-08-12T10:34:50Z</time></trkpt>
<trkpt lat="46.797362" lon="15.818908"><ele>261.4</ele><time>2019-08-12T10:34:50Z</time></trkpt>
<trkpt lat="46.798139" lon="15.81927"><ele>259.0</ele><time>2019-08-12T10:34:54Z</time></trkpt>
<trkpt lat="46.798409" lon="15.819326"><ele>262.0</ele><time>2019-08-12T10:34:55Z</time></trkpt>
<trkpt lat="46.798702" lon="15.819313"><ele>262.0</ele><time>2019-08-12T10:34:57Z</time></trkpt>
<trkpt lat="46.799403" lon="15.819186"><ele>262.0</ele><time>2019-08-12T10:35:00Z</time></trkpt>
<trkpt lat="46.800139" lon="15.819082"><ele>265.8</ele><time>2019-08-12T10:35:04Z</time></trkpt>
<trkpt lat="46.801823" lon="15.818771"><ele>262.4</ele><time>2019-08-12T10:35:12Z</time></trkpt>
<trkpt lat="46.802376" lon="15.818639"><ele>262.4</ele><time>2019-08-12T10:35:14Z</time></trkpt>
<trkpt lat="46.803449" lon="15.81816"><ele>262.8</ele><time>2019-08-12T10:35:19Z</time></trkpt>
<trkpt lat="46.803906" lon="15.817901"><ele>262.8</ele><time>2019-08-12T10:35:22Z</time></trkpt>
<trkpt lat="46.805046" lon="15.817031"><ele>268.0</ele><time>2019-08-12T10:35:28Z</time></trkpt>
<trkpt lat="46.805542" lon="15.81659"><ele>271.6</ele><time>2019-08-12T10:35:30Z</time></trkpt>
<trkpt lat="46.806374" lon="15.815749"><ele>275.2</ele><time>2019-08-12T10:35:35Z</time></trkpt>
<trkpt lat="46.807052" lon="15.815033"><ele>271.0</ele><time>2019-08-12T10:35:39Z</time></trkpt>
<trkpt lat="46.807298" lon="15.81462"><ele>276.6</ele><time>2019-08-12T10:35:41Z</time></trkpt>
<trkpt lat="46.807796" lon="15.813538"><ele>274.2</ele><time>2019-08-12T10:35:45Z</time></trkpt>
<trkpt lat="46.807996" lon="15.813261"><ele>279.8</ele><time>2019-08-12T10:35:46Z</time></trkpt>
<trkpt lat="46.808478" lon="15.812779"><ele>274.2</ele><time>2019-08-12T10:35:49Z</time></trkpt>
<trkpt lat="46.808931" lon="15.812294"><ele>279.4</ele><time>2019-08-12T10:35:52Z</time></trkpt>
<trkpt lat="46.809138" lon="15.812199"><ele>279.4</ele><time>2019-08-12T10:35:53Z</time></trkpt>
<trkpt lat="46.809295" lon="15.812196"><ele>278.4</ele><time>2019-08-12T10:35:53Z</time></trkpt>
<trkpt lat="46.809385" lon="15.812226"><ele>278.4</ele><time>2019-08-12T10:35:54Z</time></trkpt>
<trkpt lat="46.809449" lon="15.811972"><ele>278.4</ele><time>2019-08-12T10:35:55Z</time></trkpt>
<trkpt lat="46.809548" lon="15.811685"><ele>278.4</ele><time>2019-08-12T10:35:57Z</time></trkpt>
<trkpt lat="46.809807" lon="15.81116"><ele>281.0</ele><time>2019-08-12T10:36:00Z</time></trkpt>
<trkpt lat="46.809906" lon="15.810926"><ele>281.0</ele><time>2019-08-12T10:36:01Z</time></trkpt>
<trkpt lat="46.810318" lon="15.809113"><ele>290.6</ele><time>2019-08-12T10:36:09Z</time></trkpt>
<trkpt lat="46.810384" lon="15.808618"><ele>290.6</ele><time>2019-08-12T10:36:11Z</time></trkpt>
<trkpt lat="46.810402" lon="15.807732"><ele>292.8</ele><time>2019-08-12T10:36:15Z</time></trkpt>
<trkpt lat="46.810439" lon="15.80727"><ele>296.4</ele><time>2019-08-12T10:36:17Z</time></trkpt>
<trkpt lat="46.81054" lon="15.80677"><ele>296.4</ele><time>2019-08-12T10:36:20Z</time></trkpt>
<trkpt lat="46.810923" lon="15.805348"><ele>309.4</ele><time>2019-08-12T10:36:26Z</time></trkpt>
<trkpt lat="46.811188" lon="15.803659"><ele>297.0</ele><time>2019-08-12T10:36:34Z</time></trkpt>
<trkpt lat="46.811227" lon="15.803284"><ele>285.4</ele><time>2019-08-12T10:36:36Z</time></trkpt>
<trkpt lat="46.811221" lon="15.80315"><ele>285.4</ele><time>2019-08-12T10:36:36Z</time></trkpt>
<trkpt lat="46.811184" lon="15.803007"><ele>285.4</ele><time>2019-08-12T10:36:37Z</time></trkpt>
<trkpt lat="46.811119" lon="15.802914"><ele>285.4</ele><time>2019-08-12T10:36:38Z</time></trkpt>
<trkpt lat="46.811026" lon="15.80286"><ele>285.4</ele><time>2019-08-12T10:36:38Z</time></trkpt>
<trkpt lat="46.810646" lon="15.802835"><ele>290.2</ele><time>2019-08-12T10:36:41Z</time></trkpt>
<trkpt lat="46.810361" lon="15.802729"><ele>290.2</ele><time>2019-08-12T10:36:43Z</time></trkpt>
<trkpt lat="46.809281" lon="15.802144"><ele>283.6</ele><time>2019-08-12T10:36:50Z</time></trkpt>
<trkpt lat="46.808638" lon="15.801833"><ele>286.4</ele><time>2019-08-12T10:36:54Z</time></trkpt>
<trkpt lat="46.808052" lon="15.801461"><ele>278.6</ele><time>2019-08-12T10:36:59Z</time></trkpt>
<trkpt lat="46.807717" lon="15.801205"><ele>278.6</ele><time>2019-08-12T10:37:01Z</time></trkpt>
<trkpt lat="46.807548" lon="15.800927"><ele>278.6</ele><time>2019-08-12T10:37:03Z</time></trkpt>
<trkpt lat="46.807391" lon="15.800543"><ele>276.8</ele><time>2019-08-12T10:37:05Z</time></trkpt>
<trkpt lat="46.807354" lon="15.800099"><ele>276.8</ele><time>2019-08-12T10:37:07Z</time></trkpt>
<trkpt lat="46.807393" lon="15.799726"><ele>275.2</ele><time>2019-08-12T10:37:08Z</time></trkpt>
<trkpt lat="46.807462" lon="15.799482"><ele>275.2</ele><time>2019-08-12T10:37:09Z</time></trkpt>
<trkpt lat="46.807723" lon="15.798972"><ele>275.6</ele><time>2019-08-12T10:37:12Z</time></trkpt>
<trkpt lat="46.807825" lon="15.798709"><ele>275.6</ele><time>2019-08-12T10:37:14Z</time></trkpt>
<trkpt lat="46.807858" lon="15.798428"><ele>275.6</ele><time>2019-08-12T10:37:15Z</time></trkpt>
<trkpt lat="46.80778" lon="15.798113"><ele>276.2</ele><time>2019-08-12T10:37:16Z</time></trkpt>
<trkpt lat="46.807386" lon="15.797173"><ele>275.8</ele><time>2019-08-12T10:37:20Z</time></trkpt>
<trkpt lat="46.807273" lon="15.796945"><ele>275.8</ele><time>2019-08-12T10:37:21Z</time></trkpt>
<trkpt lat="46.806978" lon="15.796439"><ele>276.6</ele><time>2019-08-12T10:37:23Z</time></trkpt>
<trkpt lat="46.80685" lon="15.79615"><ele>276.6</ele><time>2019-08-12T10:37:24Z</time></trkpt>
<trkpt lat="46.806601" lon="15.795489"><ele>276.4</ele><time>2019-08-12T10:37:26Z</time></trkpt>
<trkpt lat="46.806454" lon="15.795051"><ele>276.4</ele><time>2019-08-12T10:37:28Z</time></trkpt>
<trkpt lat="46.806386" lon="15.794909"><ele>278.0</ele><time>2019-08-12T10:37:28Z</time></trkpt>
<trkpt lat="46.806175" lon="15.794746"><ele>278.0</ele><time>2019-08-12T10:37:29Z</time></trkpt>
<trkpt lat="46.805747" lon="15.794517"><ele>274.6</ele><time>2019-08-12T10:37:31Z</time></trkpt>
<trkpt lat="46.804584" lon="15.793639"><ele>274.0</ele><time>2019-08-12T10:37:37Z</time></trkpt>
<trkpt lat="46.803944" lon="15.79308"><ele>274.2</ele><time>2019-08-12T10:37:41Z</time></trkpt>
<trkpt lat="46.803581" lon="15.792824"><ele>274.2</ele><time>2019-08-12T10:37:43Z</time></trkpt>
<trkpt lat="46.802986" lon="15.792541"><ele>273.6</ele><time>2019-08-12T10:37:46Z</time></trkpt>
<trkpt lat="46.802495" lon="15.792206"><ele>274.6</ele><time>2019-08-12T10:37:48Z</time></trkpt>
<trkpt lat="46.8018" lon="15.791868"><ele>274.6</ele><time>2019-08-12T10:37:51Z</time></trkpt>
<trkpt lat="46.801539" lon="15.791609"><ele>274.4</ele><time>2019-08-12T10:37:53Z</time></trkpt>
<trkpt lat="46.801339" lon="15.791306"><ele>274.4</ele><time>2019-08-12T10:37:54Z</time></trkpt>
<trkpt lat="46.80114" lon="15.790884"><ele>274.4</ele><time>2019-08-12T10:37:56Z</time></trkpt>
<trkpt lat="46.801015" lon="15.790457"><ele>275.4</ele><time>2019-08-12T10:37:57Z</time></trkpt>
<trkpt lat="46.800873" lon="15.789852"><ele>275.8</ele><time>2019-08-12T10:37:59Z</time></trkpt>
<trkpt lat="46.800746" lon="15.789497"><ele>274.2</ele><time>2019-08-12T10:38:01Z</time></trkpt>
<trkpt lat="46.800623" lon="15.789269"><ele>274.2</ele><time>2019-08-12T10:38:02Z</time></trkpt>
<trkpt lat="46.800178" lon="15.788614"><ele>275.0</ele><time>2019-08-12T10:38:04Z</time></trkpt>
<trkpt lat="46.799931" lon="15.788201"><ele>273.6</ele><time>2019-08-12T10:38:06Z</time></trkpt>
<trkpt lat="46.799622" lon="15.78725"><ele>274.0</ele><time>2019-08-12T10:38:09Z</time></trkpt>
<trkpt lat="46.799444" lon="15.786793"><ele>274.0</ele><time>2019-08-12T10:38:11Z</time></trkpt>
<trkpt lat="46.799377" lon="15.786558"><ele>273.6</ele><time>2019-08-12T10:38:12Z</time></trkpt>
<trkpt lat="46.799237" lon="15.78624"><ele>273.6</ele><time>2019-08-12T10:38:13Z</time></trkpt>
<trkpt lat="46.798632" lon="15.785171"><ele>271.6</ele><time>2019-08-12T10:38:17Z</time></trkpt>
<trkpt lat="46.798336" lon="15.784577"><ele>273.6</ele><time>2019-08-12T10:38:20Z</time></trkpt>
<trkpt lat="46.798131" lon="15.78407"><ele>271.2</ele><time>2019-08-12T10:38:22Z</time></trkpt>
<trkpt lat="46.797914" lon="15.78336"><ele>271.2</ele><time>2019-08-12T10:38:24Z</time></trkpt>
<trkpt lat="46.797829" lon="15.782991"><ele>270.8</ele><time>2019-08-12T10:38:25Z</time></trkpt>
<trkpt lat="46.797692" lon="15.782157"><ele>271.0</ele><time>2019-08-12T10:38:28Z</time></trkpt>
<trkpt lat="46.797612" lon="15.780706"><ele>272.0</ele><time>2019-08-12T10:38:33Z</time></trkpt>
<trkpt lat="46.797484" lon="15.779987"><ele>271.0</ele><time>2019-08-12T10:38:35Z</time></trkpt>
<trkpt lat="46.797295" lon="15.779223"><ele>271.0</ele><time>2019-08-12T10:38:38Z</time></trkpt>
<trkpt lat="46.796754" lon="15.779664"><ele>271.0</ele><time>2019-08-12T10:38:42Z</time></trkpt>
<trkpt lat="46.79662" lon="15.779716"><ele>268.0</ele><time>2019-08-12T10:38:43Z</time></trkpt>
<trkpt lat="46.796515" lon="15.779705"><ele>268.0</ele><time>2019-08-12T10:38:44Z</time></trkpt>
<trkpt lat="46.7964" lon="15.779637"><ele>268.0</ele><time>2019-08-12T10:38:45Z</time></trkpt>
<trkpt lat="46.796285" lon="15.779499"><ele>268.0</ele><time>2019-08-12T10:38:46Z</time></trkpt>
<trkpt lat="46.795717" lon="15.778592"><ele>267.2</ele><time>2019-08-12T10:38:52Z</time></trkpt>
<trkpt lat="46.79553" lon="15.778444"><ele>267.2</ele><time>2019-08-12T10:38:54Z</time></trkpt>
<trkpt lat="46.795398" lon="15.778483"><ele>267.2</ele><time>2019-08-12T10:38:55Z</time></trkpt>
<trkpt lat="46.795265" lon="15.778588"><ele>267.2</ele><time>2019-08-12T10:38:56Z</time></trkpt>
<trkpt lat="46.794853" lon="15.779066"><ele>265.0</ele><time>2019-08-12T10:39:00Z</time></trkpt>
<trkpt lat="46.794698" lon="15.779178"><ele>264.2</ele><time>2019-08-12T10:39:01Z</time></trkpt>
<trkpt lat="46.794329" lon="15.779219"><ele>264.2</ele><time>2019-08-12T10:39:04Z</time></trkpt>
<trkpt lat="46.794177" lon="15.779264"><ele>264.2</ele><time>2019-08-12T10:39:05Z</time></trkpt>
<trkpt lat="46.793802" lon="15.779443"><ele>266.4</ele><time>2019-08-12T10:39:08Z</time></trkpt>
<trkpt lat="46.793674" lon="15.779453"><ele>266.4</ele><time>2019-08-12T10:39:08Z</time></trkpt>
<trkpt lat="46.79355" lon="15.779432"><ele>266.4</ele><time>2019-08-12T10:39:09Z</time></trkpt>
<trkpt lat="46.793423" lon="15.779366"><ele>266.4</ele><time>2019-08-12T10:39:10Z</time></trkpt>
<trkpt lat="46.793233" lon="15.779174"><ele>280.0</ele><time>2019-08-12T10:39:12Z</time></trkpt>
<trkpt lat="46.792984" lon="15.77879"><ele>272.2</ele><time>2019-08-12T10:39:15Z</time></trkpt>
<trkpt lat="46.79278" lon="15.778231"><ele>267.6</ele><time>2019-08-12T10:39:18Z</time></trkpt>
<trkpt lat="46.792713" lon="15.777877"><ele>267.6</ele><time>2019-08-12T10:39:20Z</time></trkpt>
<trkpt lat="46.79261" lon="15.776866"><ele>264.2</ele><time>2019-08-12T10:39:25Z</time></trkpt>
<trkpt lat="46.792458" lon="15.776413"><ele>270.0</ele><time>2019-08-12T10:39:28Z</time></trkpt>
<trkpt lat="46.791988" lon="15.77583"><ele>263.6</ele><time>2019-08-12T10:39:32Z</time></trkpt>
<trkpt lat="46.791356" lon="15.77487"><ele>268.4</ele><time>2019-08-12T10:39:39Z</time></trkpt>
<trkpt lat="46.791233" lon="15.77466"><ele>268.4</ele><time>2019-08-12T10:39:40Z</time></trkpt>
<trkpt lat="46.791077" lon="15.774293"><ele>268.4</ele><time>2019-08-12T10:39:42Z</time></trkpt>
<trkpt lat="46.790988" lon="15.773914"><ele>262.8</ele><time>2019-08-12T10:39:45Z</time></trkpt>
<trkpt lat="46.790832" lon="15.773438"><ele>273.2</ele><time>2019-08-12T10:39:47Z</time></trkpt>
<trkpt lat="46.790644" lon="15.773027"><ele>266.2</ele><time>2019-08-12T10:39:50Z</time></trkpt>
<trkpt lat="46.790383" lon="15.772716"><ele>266.2</ele><time>2019-08-12T10:39:52Z</time></trkpt>
<trkpt lat="46.789782" lon="15.772211"><ele>266.2</ele><time>2019-08-12T10:39:57Z</time></trkpt>
<trkpt lat="46.789023" lon="15.77205"><ele>268.4</ele><time>2019-08-12T10:40:03Z</time></trkpt>
<trkpt lat="46.788171" lon="15.771748"><ele>268.4</ele><time>2019-08-12T10:40:09Z</time></trkpt>
<trkpt lat="46.787199" lon="15.771605"><ele>264.2</ele><time>2019-08-12T10:40:16Z</time></trkpt>
<trkpt lat="46.786956" lon="15.77152"><ele>264.2</ele><time>2019-08-12T10:40:18Z</time></trkpt>
<trkpt lat="46.786619" lon="15.771305"><ele>265.4</ele><time>2019-08-12T10:40:21Z</time></trkpt>
<trkpt lat="46.786317" lon="15.771191"><ele>265.4</ele><time>2019-08-12T10:40:23Z</time></trkpt>
<trkpt lat="46.785754" lon="15.771056"><ele>270.6</ele><time>2019-08-12T10:40:27Z</time></trkpt>
<trkpt lat="46.783897" lon="15.770062"><ele>264.6</ele><time>2019-08-12T10:40:42Z</time></trkpt>
<trkpt lat="46.783346" lon="15.769592"><ele>259.0</ele><time>2019-08-12T10:40:47Z</time></trkpt>
<trkpt lat="46.782866" lon="15.769258"><ele>257.0</ele><time>2019-08-12T10:40:51Z</time></trkpt>
<trkpt lat="46.782508" lon="15.769054"><ele>256.2</ele><time>2019-08-12T10:40:53Z</time></trkpt>
<trkpt lat="46.782303" lon="15.768821"><ele>255.0</ele><time>2019-08-12T10:40:55Z</time></trkpt>
<trkpt lat="46.782116" lon="15.768232"><ele>254.8</ele><time>2019-08-12T10:40:59Z</time></trkpt>
<trkpt lat="46.78203" lon="15.768022"><ele>254.8</ele><time>2019-08-12T10:41:00Z</time></trkpt>
<trkpt lat="46.781915" lon="15.76792"><ele>254.8</ele><time>2019-08-12T10:41:01Z</time></trkpt>
<trkpt lat="46.781721" lon="15.767796"><ele>254.8</ele><time>2019-08-12T10:41:02Z</time></trkpt>
<trkpt lat="46.781102" lon="15.767609"><ele>254.8</ele><time>2019-08-12T10:41:07Z</time></trkpt>
<trkpt lat="46.780728" lon="15.767703"><ele>254.6</ele><time>2019-08-12T10:41:10Z</time></trkpt>
<trkpt lat="46.780595" lon="15.767644"><ele>254.6</ele><time>2019-08-12T10:41:11Z</time></trkpt>
<trkpt lat="46.780514" lon="15.767561"><ele>254.6</ele><time>2019-08-12T10:41:11Z</time></trkpt>
<trkpt lat="46.780297" lon="15.767006"><ele>254.8</ele><time>2019-08-12T10:41:15Z</time></trkpt>
<trkpt lat="46.780174" lon="15.766801"><ele>254.8</ele><time>2019-08-12T10:41:16Z</time></trkpt>
<trkpt lat="46.779994" lon="15.766623"><ele>255.6</ele><time>2019-08-12T10:41:18Z</time></trkpt>
<trkpt lat="46.779477" lon="15.76627"><ele>255.6</ele><time>2019-08-12T10:41:22Z</time></trkpt>
<trkpt lat="46.778949" lon="15.767074"><ele>255.0</ele><time>2019-08-12T10:41:29Z</time></trkpt>
<trkpt lat="46.778606" lon="15.767453"><ele>255.0</ele><time>2019-08-12T10:41:33Z</time></trkpt>
<trkpt lat="46.778399" lon="15.76758"><ele>253.8</ele><time>2019-08-12T10:41:36Z</time></trkpt>
<trkpt lat="46.777074" lon="15.768073"><ele>252.4</ele><time>2019-08-12T10:41:48Z</time></trkpt>
<trkpt lat="46.776831" lon="15.768076"><ele>252.4</ele><time>2019-08-12T10:41:51Z</time></trkpt>
<trkpt lat="46.775811" lon="15.767781"><ele>252.2</ele><time>2019-08-12T10:42:01Z</time></trkpt>
<trkpt lat="46.775317" lon="15.767819"><ele>252.2</ele><time>2019-08-12T10:42:05Z</time></trkpt>
<trkpt lat="46.774991" lon="15.767954"><ele>252.0</ele><time>2019-08-12T10:42:08Z</time></trkpt>
<trkpt lat="46.774909" lon="15.767526"><ele>252.0</ele><time>2019-08-12T10:42:10Z</time></trkpt>
<trkpt lat="46.774627" lon="15.766377"><ele>254.0</ele><time>2019-08-12T10:42:14Z</time></trkpt>
<trkpt lat="46.774327" lon="15.76503"><ele>254.8</ele><time>2019-08-12T10:42:19Z</time></trkpt>
<trkpt lat="46.774126" lon="15.764404"><ele>254.6</ele><time>2019-08-12T10:42:22Z</time></trkpt>
<trkpt lat="46.774009" lon="15.764121"><ele>256.0</ele><time>2019-08-12T10:42:23Z</time></trkpt>
<trkpt lat="46.773665" lon="15.763454"><ele>256.0</ele><time>2019-08-12T10:42:26Z</time></trkpt>
<trkpt lat="46.773461" lon="15.763116"><ele>257.4</ele><time>2019-08-12T10:42:27Z</time></trkpt>
<trkpt lat="46.772682" lon="15.762174"><ele>259.6</ele><time>2019-08-12T10:42:32Z</time></trkpt>
<trkpt lat="46.772371" lon="15.761665"><ele>260.2</ele><time>2019-08-12T10:42:35Z</time></trkpt>
<trkpt lat="46.772109" lon="15.761047"><ele>260.2</ele><time>2019-08-12T10:42:37Z</time></trkpt>
<trkpt lat="46.771433" lon="15.758934"><ele>273.2</ele><time>2019-08-12T10:42:45Z</time></trkpt>
<trkpt lat="46.771341" lon="15.758309"><ele>281.2</ele><time>2019-08-12T10:42:47Z</time></trkpt>
<trkpt lat="46.771308" lon="15.757528"><ele>281.2</ele><time>2019-08-12T10:42:50Z</time></trkpt>
<trkpt lat="46.771468" lon="15.755989"><ele>297.0</ele><time>2019-08-12T10:42:56Z</time></trkpt>
<trkpt lat="46.771507" lon="15.755216"><ele>301.8</ele><time>2019-08-12T10:42:58Z</time></trkpt>
<trkpt lat="46.771416" lon="15.754491"><ele>302.6</ele><time>2019-08-12T10:43:01Z</time></trkpt>
<trkpt lat="46.771249" lon="15.753892"><ele>300.4</ele><time>2019-08-12T10:43:03Z</time></trkpt>
<trkpt lat="46.770863" lon="15.752788"><ele>299.2</ele><time>2019-08-12T10:43:07Z</time></trkpt>
<trkpt lat="46.77043" lon="15.75132"><ele>301.2</ele><time>2019-08-12T10:43:13Z</time></trkpt>
<trkpt lat="46.770117" lon="15.750537"><ele>301.8</ele><time>2019-08-12T10:43:16Z</time></trkpt>
<trkpt lat="46.769827" lon="15.749377"><ele>301.8</ele><time>2019-08-12T10:43:20Z</time></trkpt>
<trkpt lat="46.769628" lon="15.748236"><ele>300.2</ele><time>2019-08-12T10:43:24Z</time></trkpt>
<trkpt lat="46.769452" lon="15.747102"><ele>298.6</ele><time>2019-08-12T10:43:28Z</time></trkpt>
<trkpt lat="46.769006" lon="15.745928"><ele>302.2</ele><time>2019-08-12T10:43:33Z</time></trkpt>
<trkpt lat="46.768277" lon="15.744113"><ele>299.0</ele><time>2019-08-12T10:43:40Z</time></trkpt>
<trkpt lat="46.767879" lon="15.743421"><ele>299.0</ele><time>2019-08-12T10:43:43Z</time></trkpt>
<trkpt lat="46.767648" lon="15.743142"><ele>295.4</ele><time>2019-08-12T10:43:45Z</time></trkpt>
<trkpt lat="46.767377" lon="15.742914"><ele>295.4</ele><time>2019-08-12T10:43:47Z</time></trkpt>
<trkpt lat="46.766643" lon="15.742545"><ele>294.4</ele><time>2019-08-12T10:43:50Z</time></trkpt>
<trkpt lat="46.766385" lon="15.742478"><ele>291.2</ele><time>2019-08-12T10:43:52Z</time></trkpt>
<trkpt lat="46.766124" lon="15.742445"><ele>291.2</ele><time>2019-08-12T10:43:53Z</time></trkpt>
<trkpt lat="46.764767" lon="15.742531"><ele>292.2</ele><time>2019-08-12T10:44:00Z</time></trkpt>
<trkpt lat="46.763907" lon="15.742345"><ele>286.0</ele><time>2019-08-12T10:44:04Z</time></trkpt>
<trkpt lat="46.763592" lon="15.742173"><ele>286.0</ele><time>2019-08-12T10:44:06Z</time></trkpt>
<trkpt lat="46.763175" lon="15.741871"><ele>278.4</ele><time>2019-08-12T10:44:08Z</time></trkpt>
<trkpt lat="46.762931" lon="15.741654"><ele>270.8</ele><time>2019-08-12T10:44:10Z</time></trkpt>
<trkpt lat="46.762599" lon="15.7413"><ele>270.8</ele><time>2019-08-12T10:44:12Z</time></trkpt>
<trkpt lat="46.762363" lon="15.741003"><ele>263.4</ele><time>2019-08-12T10:44:14Z</time></trkpt>
<trkpt lat="46.762194" lon="15.740858"><ele>263.4</ele><time>2019-08-12T10:44:15Z</time></trkpt>
<trkpt lat="46.761999" lon="15.740748"><ele>260.6</ele><time>2019-08-12T10:44:16Z</time></trkpt>
<trkpt lat="46.761844" lon="15.740705"><ele>260.6</ele><time>2019-08-12T10:44:17Z</time></trkpt>
<trkpt lat="46.761251" lon="15.740657"><ele>259.8</ele><time>2019-08-12T10:44:20Z</time></trkpt>
<trkpt lat="46.761001" lon="15.740595"><ele>259.8</ele><time>2019-08-12T10:44:21Z</time></trkpt>
<trkpt lat="46.76074" lon="15.740476"><ele>260.2</ele><time>2019-08-12T10:44:22Z</time></trkpt>
<trkpt lat="46.760425" lon="15.740246"><ele>260.2</ele><time>2019-08-12T10:44:24Z</time></trkpt>
<trkpt lat="46.760156" lon="15.739948"><ele>264.2</ele><time>2019-08-12T10:44:26Z</time></trkpt>
<trkpt lat="46.759897" lon="15.739548"><ele>260.6</ele><time>2019-08-12T10:44:28Z</time></trkpt>
<trkpt lat="46.7598" lon="15.739316"><ele>260.6</ele><time>2019-08-12T10:44:29Z</time></trkpt>
<trkpt lat="46.759509" lon="15.738348"><ele>265.4</ele><time>2019-08-12T10:44:32Z</time></trkpt>
<trkpt lat="46.759348" lon="15.737635"><ele>269.8</ele><time>2019-08-12T10:44:35Z</time></trkpt>
<trkpt lat="46.75919" lon="15.736744"><ele>270.8</ele><time>2019-08-12T10:44:38Z</time></trkpt>
<trkpt lat="46.759008" lon="15.735925"><ele>264.0</ele><time>2019-08-12T10:44:41Z</time></trkpt>
<trkpt lat="46.75892" lon="15.73546"><ele>264.6</ele><time>2019-08-12T10:44:43Z</time></trkpt>
<trkpt lat="46.758757" lon="15.734286"><ele>266.0</ele><time>2019-08-12T10:44:47Z</time></trkpt>
<trkpt lat="46.758684" lon="15.733914"><ele>268.6</ele><time>2019-08-12T10:44:48Z</time></trkpt>
<trkpt lat="46.758407" lon="15.732994"><ele>271.8</ele><time>2019-08-12T10:44:52Z</time></trkpt>
<trkpt lat="46.757978" lon="15.731251"><ele>267.4</ele><time>2019-08-12T10:44:58Z</time></trkpt>
<trkpt lat="46.757923" lon="15.730863"><ele>267.4</ele><time>2019-08-12T10:44:59Z</time></trkpt>
<trkpt lat="46.757861" lon="15.729725"><ele>271.4</ele><time>2019-08-12T10:45:03Z</time></trkpt>
<trkpt lat="46.757811" lon="15.729247"><ele>271.4</ele><time>2019-08-12T10:45:05Z</time></trkpt>
<trkpt lat="46.757697" lon="15.728318"><ele>274.4</ele><time>2019-08-12T10:45:08Z</time></trkpt>
<trkpt lat="46.757604" lon="15.727898"><ele>274.4</ele><time>2019-08-12T10:45:10Z</time></trkpt>
<trkpt lat="46.757429" lon="15.727411"><ele>266.6</ele><time>2019-08-12T10:45:12Z</time></trkpt>
<trkpt lat="46.757113" lon="15.726618"><ele>269.0</ele><time>2019-08-12T10:45:15Z</time></trkpt>
<trkpt lat="46.756992" lon="15.726409"><ele>269.0</ele><time>2019-08-12T10:45:16Z</time></trkpt>
<trkpt lat="46.75689" lon="15.72627"><ele>269.0</ele><time>2019-08-12T10:45:17Z</time></trkpt>
<trkpt lat="46.75676" lon="15.726126"><ele>269.0</ele><time>2019-08-12T10:45:17Z</time></trkpt>
<trkpt lat="46.756571" lon="15.725972"><ele>265.2</ele><time>2019-08-12T10:45:19Z</time></trkpt>
<trkpt lat="46.756062" lon="15.725732"><ele>269.2</ele><time>2019-08-12T10:45:21Z</time></trkpt>
<trkpt lat="46.755855" lon="15.725585"><ele>269.2</ele><time>2019-08-12T10:45:22Z</time></trkpt>
<trkpt lat="46.755622" lon="15.72536"><ele>264.4</ele><time>2019-08-12T10:45:24Z</time></trkpt>
<trkpt lat="46.755437" lon="15.725105"><ele>264.4</ele><time>2019-08-12T10:45:25Z</time></trkpt>
<trkpt lat="46.755294" lon="15.724831"><ele>267.6</ele><time>2019-08-12T10:45:26Z</time></trkpt>
<trkpt lat="46.755185" lon="15.724546"><ele>267.6</ele><time>2019-08-12T10:45:27Z</time></trkpt>
<trkpt lat="46.755129" lon="15.724348"><ele>267.6</ele><time>2019-08-12T10:45:28Z</time></trkpt>
<trkpt lat="46.754991" lon="15.723709"><ele>264.6</ele><time>2019-08-12T10:45:31Z</time></trkpt>
<trkpt lat="46.754866" lon="15.72333"><ele>266.8</ele><time>2019-08-12T10:45:32Z</time></trkpt>
<trkpt lat="46.754113" lon="15.721909"><ele>260.4</ele><time>2019-08-12T10:45:38Z</time></trkpt>
<trkpt lat="46.753934" lon="15.72151"><ele>263.2</ele><time>2019-08-12T10:45:40Z</time></trkpt>
<trkpt lat="46.753849" lon="15.721231"><ele>263.2</ele><time>2019-08-12T10:45:41Z</time></trkpt>
<trkpt lat="46.753807" lon="15.721035"><ele>263.2</ele><time>2019-08-12T10:45:42Z</time></trkpt>
<trkpt lat="46.753768" lon="15.720683"><ele>264.4</ele><time>2019-08-12T10:45:43Z</time></trkpt>
<trkpt lat="46.753795" lon="15.719234"><ele>263.2</ele><time>2019-08-12T10:45:48Z</time></trkpt>
<trkpt lat="46.753822" lon="15.718891"><ele>259.2</ele><time>2019-08-12T10:45:49Z</time></trkpt>
<trkpt lat="46.753855" lon="15.718663"><ele>259.2</ele><time>2019-08-12T10:45:50Z</time></trkpt>
<trkpt lat="46.75403" lon="15.717857"><ele>254.8</ele><time>2019-08-12T10:45:53Z</time></trkpt>
<trkpt lat="46.754051" lon="15.717505"><ele>254.8</ele><time>2019-08-12T10:45:54Z</time></trkpt>
<trkpt lat="46.754023" lon="15.717166"><ele>252.4</ele><time>2019-08-12T10:45:55Z</time></trkpt>
<trkpt lat="46.753983" lon="15.716961"><ele>252.4</ele><time>2019-08-12T10:45:56Z</time></trkpt>
<trkpt lat="46.753916" lon="15.716747"><ele>252.4</ele><time>2019-08-12T10:45:57Z</time></trkpt>
<trkpt lat="46.753737" lon="15.716401"><ele>251.4</ele><time>2019-08-12T10:45:58Z</time></trkpt>
<trkpt lat="46.752609" lon="15.715046"><ele>251.0</ele><time>2019-08-12T10:46:06Z</time></trkpt>
<trkpt lat="46.752427" lon="15.714759"><ele>250.6</ele><time>2019-08-12T10:46:07Z</time></trkpt>
<trkpt lat="46.752274" lon="15.714422"><ele>250.6</ele><time>2019-08-12T10:46:08Z</time></trkpt>
<trkpt lat="46.752205" lon="15.714185"><ele>250.6</ele><time>2019-08-12T10:46:09Z</time></trkpt>
<trkpt lat="46.752139" lon="15.713872"><ele>251.8</ele><time>2019-08-12T10:46:10Z</time></trkpt>
<trkpt lat="46.752092" lon="15.713473"><ele>251.8</ele><time>2019-08-12T10:46:12Z</time></trkpt>
<trkpt lat="46.752091" lon="15.71274"><ele>254.4</ele><time>2019-08-12T10:46:14Z</time></trkpt>
<trkpt lat="46.752277" lon="15.709922"><ele>259.8</ele><time>2019-08-12T10:46:24Z</time></trkpt>
<trkpt lat="46.752264" lon="15.709788"><ele>259.8</ele><time>2019-08-12T10:46:25Z</time></trkpt>
<trkpt lat="46.752224" lon="15.70966"><ele>259.8</ele><time>2019-08-12T10:46:25Z</time></trkpt>
<trkpt lat="46.752137" lon="15.709495"><ele>259.8</ele><time>2019-08-12T10:46:27Z</time></trkpt>
<trkpt lat="46.751196" lon="15.710451"><ele>259.4</ele><time>2019-08-12T10:46:33Z</time></trkpt>
<trkpt lat="46.743328" lon="15.718179"><ele>261.6</ele><time>2019-08-12T10:47:26Z</time></trkpt>
<trkpt lat="46.743046" lon="15.718419"><ele>258.4</ele><time>2019-08-12T10:47:28Z</time></trkpt>
<trkpt lat="46.742734" lon="15.718592"><ele>258.4</ele><time>2019-08-12T10:47:29Z</time></trkpt>
<trkpt lat="46.742073" lon="15.718905"><ele>257.2</ele><time>2019-08-12T10:47:33Z</time></trkpt>
<trkpt lat="46.741604" lon="15.719245"><ele>255.0</ele><time>2019-08-12T10:47:36Z</time></trkpt>
<trkpt lat="46.74147" lon="15.71939"><ele>255.0</ele><time>2019-08-12T10:47:37Z</time></trkpt>
<trkpt lat="46.741181" lon="15.719827"><ele>255.0</ele><time>2019-08-12T10:47:39Z</time></trkpt>
<trkpt lat="46.740965" lon="15.720317"><ele>254.2</ele><time>2019-08-12T10:47:42Z</time></trkpt>
<trkpt lat="46.740876" lon="15.720592"><ele>254.2</ele><time>2019-08-12T10:47:43Z</time></trkpt>
<trkpt lat="46.740825" lon="15.720892"><ele>255.8</ele><time>2019-08-12T10:47:44Z</time></trkpt>
<trkpt lat="46.740384" lon="15.720835"><ele>255.8</ele><time>2019-08-12T10:47:46Z</time></trkpt>
<trkpt lat="46.740149" lon="15.720855"><ele>255.8</ele><time>2019-08-12T10:47:47Z</time></trkpt>
<trkpt lat="46.740006" lon="15.720898"><ele>255.8</ele><time>2019-08-12T10:47:48Z</time></trkpt>
<trkpt lat="46.73988" lon="15.720968"><ele>256.6</ele><time>2019-08-12T10:47:48Z</time></trkpt>
<trkpt lat="46.739288" lon="15.721426"><ele>256.6</ele><time>2019-08-12T10:47:51Z</time></trkpt>
<trkpt lat="46.738763" lon="15.721737"><ele>254.0</ele><time>2019-08-12T10:47:54Z</time></trkpt>
<trkpt lat="46.738456" lon="15.721852"><ele>254.0</ele><time>2019-08-12T10:47:56Z</time></trkpt>
<trkpt lat="46.738078" lon="15.721904"><ele>247.0</ele><time>2019-08-12T10:47:57Z</time></trkpt>
<trkpt lat="46.73532" lon="15.722196"><ele>247.4</ele><time>2019-08-12T10:48:10Z</time></trkpt>
<trkpt lat="46.734902" lon="15.722173"><ele>248.2</ele><time>2019-08-12T10:48:12Z</time></trkpt>
<trkpt lat="46.734675" lon="15.722126"><ele>248.2</ele><time>2019-08-12T10:48:13Z</time></trkpt>
<trkpt lat="46.734209" lon="15.721966"><ele>248.2</ele><time>2019-08-12T10:48:15Z</time></trkpt>
<trkpt lat="46.733701" lon="15.721689"><ele>245.8</ele><time>2019-08-12T10:48:18Z</time></trkpt>
<trkpt lat="46.733788" lon="15.721449"><ele>245.0</ele><time>2019-08-12T10:48:19Z</time></trkpt>
<trkpt lat="46.73399" lon="15.721223"><ele>245.0</ele><time>2019-08-12T10:48:20Z</time></trkpt>
<trkpt lat="46.734723" lon="15.720764"><ele>245.8</ele><time>2019-08-12T10:48:24Z</time></trkpt>
<trkpt lat="46.734893" lon="15.720642"><ele>245.8</ele><time>2019-08-12T10:48:25Z</time></trkpt>
<trkpt lat="46.735078" lon="15.720456"><ele>246.2</ele><time>2019-08-12T10:48:27Z</time></trkpt>
<trkpt lat="46.735205" lon="15.720282"><ele>246.2</ele><time>2019-08-12T10:48:28Z</time></trkpt>
<trkpt lat="46.735299" lon="15.720028"><ele>246.2</ele><time>2019-08-12T10:48:29Z</time></trkpt>
<trkpt lat="46.735355" lon="15.719767"><ele>246.4</ele><time>2019-08-12T10:48:30Z</time></trkpt>
<trkpt lat="46.735373" lon="15.719578"><ele>246.4</ele><time>2019-08-12T10:48:30Z</time></trkpt>
<trkpt lat="46.73534" lon="15.717877"><ele>247.8</ele><time>2019-08-12T10:48:37Z</time></trkpt>
<trkpt lat="46.735279" lon="15.717236"><ele>248.0</ele><time>2019-08-12T10:48:39Z</time></trkpt>
<trkpt lat="46.735213" lon="15.716963"><ele>248.0</ele><time>2019-08-12T10:48:40Z</time></trkpt>
<trkpt lat="46.735069" lon="15.716513"><ele>248.8</ele><time>2019-08-12T10:48:42Z</time></trkpt>
<trkpt lat="46.735022" lon="15.716304"><ele>248.8</ele><time>2019-08-12T10:48:43Z</time></trkpt>
<trkpt lat="46.734865" lon="15.715232"><ele>247.8</ele><time>2019-08-12T10:48:47Z</time></trkpt>
<trkpt lat="46.734715" lon="15.714481"><ele>248.2</ele><time>2019-08-12T10:48:50Z</time></trkpt>
<trkpt lat="46.734224" lon="15.712613"><ele>249.8</ele><time>2019-08-12T10:48:57Z</time></trkpt>
<trkpt lat="46.734167" lon="15.712259"><ele>251.6</ele><time>2019-08-12T10:48:59Z</time></trkpt>
<trkpt lat="46.734095" lon="15.710883"><ele>255.0</ele><time>2019-08-12T10:49:04Z</time></trkpt>
<trkpt lat="46.734098" lon="15.710689"><ele>256.6</ele><time>2019-08-12T10:49:04Z</time></trkpt>
<trkpt lat="46.734107" lon="15.710449"><ele>256.6</ele><time>2019-08-12T10:49:05Z</time></trkpt>
<trkpt lat="46.734213" lon="15.709233"><ele>255.6</ele><time>2019-08-12T10:49:10Z</time></trkpt>
<trkpt lat="46.734255" lon="15.70833"><ele>256.6</ele><time>2019-08-12T10:49:13Z</time></trkpt>
<trkpt lat="46.734393" lon="15.706335"><ele>259.2</ele><time>2019-08-12T10:49:21Z</time></trkpt>
<trkpt lat="46.734406" lon="15.705764"><ele>259.0</ele><time>2019-08-12T10:49:23Z</time></trkpt>
<trkpt lat="46.734384" lon="15.705541"><ele>259.0</ele><time>2019-08-12T10:49:24Z</time></trkpt>
<trkpt lat="46.734343" lon="15.705347"><ele>259.0</ele><time>2019-08-12T10:49:24Z</time></trkpt>
<trkpt lat="46.734067" lon="15.704765"><ele>257.2</ele><time>2019-08-12T10:49:27Z</time></trkpt>
<trkpt lat="46.733841" lon="15.7042"><ele>257.2</ele><time>2019-08-12T10:49:30Z</time></trkpt>
<trkpt lat="46.733716" lon="15.703827"><ele>256.8</ele><time>2019-08-12T10:49:31Z</time></trkpt>
<trkpt lat="46.733669" lon="15.70363"><ele>256.8</ele><time>2019-08-12T10:49:32Z</time></trkpt>
<trkpt lat="46.733345" lon="15.701718"><ele>256.8</ele><time>2019-08-12T10:49:39Z</time></trkpt>
<trkpt lat="46.733229" lon="15.700883"><ele>251.8</ele><time>2019-08-12T10:49:42Z</time></trkpt>
<trkpt lat="46.733166" lon="15.700015"><ele>250.8</ele><time>2019-08-12T10:49:46Z</time></trkpt>
<trkpt lat="46.733064" lon="15.697917"><ele>251.0</ele><time>2019-08-12T10:49:53Z</time></trkpt>
<trkpt lat="46.733237" lon="15.694143"><ele>248.4</ele><time>2019-08-12T10:50:07Z</time></trkpt>
<trkpt lat="46.733479" lon="15.692365"><ele>249.8</ele><time>2019-08-12T10:50:14Z</time></trkpt>
<trkpt lat="46.733517" lon="15.691285"><ele>250.4</ele><time>2019-08-12T10:50:18Z</time></trkpt>
<trkpt lat="46.73337" lon="15.687637"><ele>249.4</ele><time>2019-08-12T10:50:32Z</time></trkpt>
<trkpt lat="46.73337" lon="15.687204"><ele>250.4</ele><time>2019-08-12T10:50:33Z</time></trkpt>
<trkpt lat="46.733257" lon="15.686261"><ele>249.4</ele><time>2019-08-12T10:50:37Z</time></trkpt>
<trkpt lat="46.733131" lon="15.68554"><ele>249.0</ele><time>2019-08-12T10:50:40Z</time></trkpt>
<trkpt lat="46.732811" lon="15.684093"><ele>250.0</ele><time>2019-08-12T10:50:45Z</time></trkpt>
<trkpt lat="46.732497" lon="15.683168"><ele>250.2</ele><time>2019-08-12T10:50:49Z</time></trkpt>
<trkpt lat="46.732128" lon="15.682288"><ele>250.6</ele><time>2019-08-12T10:50:53Z</time></trkpt>
<trkpt lat="46.731762" lon="15.681221"><ele>251.2</ele><time>2019-08-12T10:50:57Z</time></trkpt>
<trkpt lat="46.73157" lon="15.680561"><ele>250.6</ele><time>2019-08-12T10:51:00Z</time></trkpt>
<trkpt lat="46.731434" lon="15.680248"><ele>250.6</ele><time>2019-08-12T10:51:01Z</time></trkpt>
<trkpt lat="46.731288" lon="15.680017"><ele>250.6</ele><time>2019-08-12T10:51:03Z</time></trkpt>
<trkpt lat="46.731105" lon="15.679807"><ele>251.4</ele><time>2019-08-12T10:51:04Z</time></trkpt>
<trkpt lat="46.730535" lon="15.679419"><ele>250.6</ele><time>2019-08-12T10:51:07Z</time></trkpt>
<trkpt lat="46.730288" lon="15.679159"><ele>251.0</ele><time>2019-08-12T10:51:09Z</time></trkpt>
<trkpt lat="46.73003" lon="15.678561"><ele>251.0</ele><time>2019-08-12T10:51:12Z</time></trkpt>
<trkpt lat="46.729929" lon="15.678213"><ele>249.8</ele><time>2019-08-12T10:51:13Z</time></trkpt>
<trkpt lat="46.72992" lon="15.678055"><ele>249.8</ele><time>2019-08-12T10:51:14Z</time></trkpt>
<trkpt lat="46.72993" lon="15.677899"><ele>249.8</ele><time>2019-08-12T10:51:14Z</time></trkpt>
<trkpt lat="46.730238" lon="15.676597"><ele>250.6</ele><time>2019-08-12T10:51:19Z</time></trkpt>
<trkpt lat="46.730381" lon="15.676039"><ele>250.6</ele><time>2019-08-12T10:51:21Z</time></trkpt>
<trkpt lat="46.730455" lon="15.675836"><ele>250.6</ele><time>2019-08-12T10:51:22Z</time></trkpt>
<trkpt lat="46.730522" lon="15.675716"><ele>250.8</ele><time>2019-08-12T10:51:23Z</time></trkpt>
<trkpt lat="46.73061" lon="15.675607"><ele>250.8</ele><time>2019-08-12T10:51:24Z</time></trkpt>
<trkpt lat="46.730699" lon="15.675546"><ele>250.8</ele><time>2019-08-12T10:51:24Z</time></trkpt>
<trkpt lat="46.731601" lon="15.675138"><ele>251.4</ele><time>2019-08-12T10:51:29Z</time></trkpt>
<trkpt lat="46.731777" lon="15.674923"><ele>253.8</ele><time>2019-08-12T10:51:30Z</time></trkpt>
<trkpt lat="46.731854" lon="15.674778"><ele>253.8</ele><time>2019-08-12T10:51:31Z</time></trkpt>
<trkpt lat="46.7319" lon="15.674638"><ele>253.8</ele><time>2019-08-12T10:51:32Z</time></trkpt>
<trkpt lat="46.732053" lon="15.673571"><ele>256.8</ele><time>2019-08-12T10:51:36Z</time></trkpt>
<trkpt lat="46.732127" lon="15.6733"><ele>258.6</ele><time>2019-08-12T10:51:37Z</time></trkpt>
<trkpt lat="46.732232" lon="15.673027"><ele>258.6</ele><time>2019-08-12T10:51:38Z</time></trkpt>
<trkpt lat="46.732577" lon="15.672385"><ele>259.0</ele><time>2019-08-12T10:51:41Z</time></trkpt>
<trkpt lat="46.733493" lon="15.671423"><ele>255.4</ele><time>2019-08-12T10:51:47Z</time></trkpt>
<trkpt lat="46.733593" lon="15.6713"><ele>255.4</ele><time>2019-08-12T10:51:48Z</time></trkpt>
<trkpt lat="46.73376" lon="15.671007"><ele>255.4</ele><time>2019-08-12T10:51:49Z</time></trkpt>
<trkpt lat="46.734395" lon="15.669399"><ele>255.6</ele><time>2019-08-12T10:51:56Z</time></trkpt>
<trkpt lat="46.734475" lon="15.669158"><ele>257.0</ele><time>2019-08-12T10:51:57Z</time></trkpt>
<trkpt lat="46.734498" lon="15.668956"><ele>257.0</ele><time>2019-08-12T10:51:58Z</time></trkpt>
<trkpt lat="46.734468" lon="15.668757"><ele>257.0</ele><time>2019-08-12T10:51:59Z</time></trkpt>
<trkpt lat="46.73438" lon="15.66855"><ele>257.0</ele><time>2019-08-12T10:52:00Z</time></trkpt>
<trkpt lat="46.73436" lon="15.668462"><ele>257.0</ele><time>2019-08-12T10:52:00Z</time></trkpt>
<trkpt lat="46.734358" lon="15.668334"><ele>257.0</ele><time>2019-08-12T10:52:00Z</time></trkpt>
<trkpt lat="46.734609" lon="15.667438"><ele>259.6</ele><time>2019-08-12T10:52:04Z</time></trkpt>
<trkpt lat="46.734652" lon="15.667117"><ele>259.6</ele><time>2019-08-12T10:52:05Z</time></trkpt>
<trkpt lat="46.734667" lon="15.666295"><ele>261.2</ele><time>2019-08-12T10:52:08Z</time></trkpt>
<trkpt lat="46.734647" lon="15.665932"><ele>261.2</ele><time>2019-08-12T10:52:10Z</time></trkpt>
<trkpt lat="46.734438" lon="15.664123"><ele>263.2</ele><time>2019-08-12T10:52:16Z</time></trkpt>
<trkpt lat="46.734365" lon="15.663218"><ele>262.2</ele><time>2019-08-12T10:52:20Z</time></trkpt>
<trkpt lat="46.734356" lon="15.662697"><ele>262.2</ele><time>2019-08-12T10:52:22Z</time></trkpt>
<trkpt lat="46.734388" lon="15.662443"><ele>260.4</ele><time>2019-08-12T10:52:23Z</time></trkpt>
<trkpt lat="46.734464" lon="15.662042"><ele>260.4</ele><time>2019-08-12T10:52:24Z</time></trkpt>
<trkpt lat="46.734496" lon="15.661737"><ele>260.4</ele><time>2019-08-12T10:52:25Z</time></trkpt>
<trkpt lat="46.734464" lon="15.660759"><ele>258.0</ele><time>2019-08-12T10:52:29Z</time></trkpt>
<trkpt lat="46.733574" lon="15.660814"><ele>258.0</ele><time>2019-08-12T10:52:35Z</time></trkpt>
<trkpt lat="46.733338" lon="15.660864"><ele>257.4</ele><time>2019-08-12T10:52:36Z</time></trkpt>
<trkpt lat="46.73324" lon="15.660945"><ele>256.0</ele><time>2019-08-12T10:52:37Z</time></trkpt>
<trkpt lat="46.733132" lon="15.661103"><ele>256.0</ele><time>2019-08-12T10:52:38Z</time></trkpt>
<trkpt lat="46.732369" lon="15.662947"><ele>253.8</ele><time>2019-08-12T10:52:47Z</time></trkpt>
<trkpt lat="46.732109" lon="15.663635"><ele>254.0</ele><time>2019-08-12T10:52:50Z</time></trkpt>
<trkpt lat="46.731775" lon="15.664699"><ele>254.0</ele><time>2019-08-12T10:52:55Z</time></trkpt>
<trkpt lat="46.731688" lon="15.664918"><ele>254.0</ele><time>2019-08-12T10:52:56Z</time></trkpt>
<trkpt lat="46.731565" lon="15.665095"><ele>251.6</ele><time>2019-08-12T10:52:57Z</time></trkpt>
<trkpt lat="46.731462" lon="15.66516"><ele>251.6</ele><time>2019-08-12T10:52:58Z</time></trkpt>
<trkpt lat="46.731326" lon="15.665204"><ele>251.6</ele><time>2019-08-12T10:52:59Z</time></trkpt>
<trkpt lat="46.731216" lon="15.665214"><ele>251.6</ele><time>2019-08-12T10:52:59Z</time></trkpt>
<trkpt lat="46.73094" lon="15.665146"><ele>251.6</ele><time>2019-08-12T10:53:01Z</time></trkpt>
<trkpt lat="46.730619" lon="15.66501"><ele>250.0</ele><time>2019-08-12T10:53:03Z</time></trkpt>
<trkpt lat="46.72802" lon="15.66385"><ele>248.0</ele><time>2019-08-12T10:53:20Z</time></trkpt>
<trkpt lat="46.72596" lon="15.662859"><ele>250.0</ele><time>2019-08-12T10:53:33Z</time></trkpt>
<trkpt lat="46.725545" lon="15.662726"><ele>249.0</ele><time>2019-08-12T10:53:36Z</time></trkpt>
<trkpt lat="46.725043" lon="15.662634"><ele>249.0</ele><time>2019-08-12T10:53:39Z</time></trkpt>
<trkpt lat="46.724348" lon="15.66254"><ele>247.8</ele><time>2019-08-12T10:53:43Z</time></trkpt>
<trkpt lat="46.724116" lon="15.662479"><ele>247.6</ele><time>2019-08-12T10:53:44Z</time></trkpt>
<trkpt lat="46.722141" lon="15.661667"><ele>248.4</ele><time>2019-08-12T10:53:57Z</time></trkpt>
<trkpt lat="46.721792" lon="15.661545"><ele>249.6</ele><time>2019-08-12T10:53:59Z</time></trkpt>
<trkpt lat="46.721213" lon="15.661404"><ele>249.6</ele><time>2019-08-12T10:54:03Z</time></trkpt>
<trkpt lat="46.720137" lon="15.661206"><ele>249.4</ele><time>2019-08-12T10:54:09Z</time></trkpt>
<trkpt lat="46.718858" lon="15.660925"><ele>247.6</ele><time>2019-08-12T10:54:17Z</time></trkpt>
<trkpt lat="46.718655" lon="15.660801"><ele>247.2</ele><time>2019-08-12T10:54:19Z</time></trkpt>
<trkpt lat="46.718575" lon="15.66071"><ele>247.2</ele><time>2019-08-12T10:54:19Z</time></trkpt>
<trkpt lat="46.718512" lon="15.660566"><ele>247.2</ele><time>2019-08-12T10:54:20Z</time></trkpt>
<trkpt lat="46.718476" lon="15.660262"><ele>247.2</ele><time>2019-08-12T10:54:21Z</time></trkpt>
<trkpt lat="46.71851" lon="15.659225"><ele>247.2</ele><time>2019-08-12T10:54:26Z</time></trkpt>
<trkpt lat="46.718583" lon="15.659035"><ele>248.6</ele><time>2019-08-12T10:54:27Z</time></trkpt>
<trkpt lat="46.718705" lon="15.658877"><ele>248.6</ele><time>2019-08-12T10:54:28Z</time></trkpt>
<trkpt lat="46.719071" lon="15.658673"><ele>248.6</ele><time>2019-08-12T10:54:30Z</time></trkpt>
<trkpt lat="46.719131" lon="15.65857"><ele>248.6</ele><time>2019-08-12T10:54:31Z</time></trkpt>
<trkpt lat="46.719156" lon="15.658438"><ele>248.6</ele><time>2019-08-12T10:54:31Z</time></trkpt>
<trkpt lat="46.719104" lon="15.658193"><ele>250.2</ele><time>2019-08-12T10:54:32Z</time></trkpt>
<trkpt lat="46.719032" lon="15.658103"><ele>250.2</ele><time>2019-08-12T10:54:33Z</time></trkpt>
<trkpt lat="46.718785" lon="15.657912"><ele>250.2</ele><time>2019-08-12T10:54:35Z</time></trkpt>
<trkpt lat="46.719071" lon="15.657072"><ele>250.0</ele><time>2019-08-12T10:54:38Z</time></trkpt>
<trkpt lat="46.719259" lon="15.656468"><ele>248.6</ele><time>2019-08-12T10:54:40Z</time></trkpt>
<trkpt lat="46.719393" lon="15.655898"><ele>248.6</ele><time>2019-08-12T10:54:42Z</time></trkpt>
<trkpt lat="46.719682" lon="15.654906"><ele>250.6</ele><time>2019-08-12T10:54:46Z</time></trkpt>
<trkpt lat="46.720553" lon="15.652837"><ele>255.4</ele><time>2019-08-12T10:54:55Z</time></trkpt>
<trkpt lat="46.721161" lon="15.651497"><ele>252.2</ele><time>2019-08-12T10:55:00Z</time></trkpt>
<trkpt lat="46.721414" lon="15.651005"><ele>252.2</ele><time>2019-08-12T10:55:02Z</time></trkpt>
<trkpt lat="46.721312" lon="15.650886"><ele>252.2</ele><time>2019-08-12T10:55:03Z</time></trkpt>
<trkpt lat="46.720643" lon="15.648387"><ele>251.4</ele><time>2019-08-12T10:55:14Z</time></trkpt>
<trkpt lat="46.720172" lon="15.646558"><ele>250.2</ele><time>2019-08-12T10:55:22Z</time></trkpt>
<trkpt lat="46.720079" lon="15.646296"><ele>250.2</ele><time>2019-08-12T10:55:23Z</time></trkpt>
<trkpt lat="46.719896" lon="15.645963"><ele>253.8</ele><time>2019-08-12T10:55:24Z</time></trkpt>
<trkpt lat="46.717086" lon="15.642337"><ele>249.6</ele><time>2019-08-12T10:55:46Z</time></trkpt>
<trkpt lat="46.716975" lon="15.642239"><ele>249.6</ele><time>2019-08-12T10:55:47Z</time></trkpt>
<trkpt lat="46.715375" lon="15.641183"><ele>249.2</ele><time>2019-08-12T10:55:57Z</time></trkpt>
<trkpt lat="46.715205" lon="15.641053"><ele>249.2</ele><time>2019-08-12T10:55:58Z</time></trkpt>
<trkpt lat="46.710773" lon="15.637003"><ele>249.0</ele><time>2019-08-12T10:56:28Z</time></trkpt>
<trkpt lat="46.710692" lon="15.636877"><ele>249.0</ele><time>2019-08-12T10:56:29Z</time></trkpt>
<trkpt lat="46.710643" lon="15.63672"><ele>249.0</ele><time>2019-08-12T10:56:30Z</time></trkpt>
<trkpt lat="46.7106" lon="15.636401"><ele>249.0</ele><time>2019-08-12T10:56:31Z</time></trkpt>
<trkpt lat="46.710616" lon="15.635497"><ele>249.2</ele><time>2019-08-12T10:56:35Z</time></trkpt>
<trkpt lat="46.710659" lon="15.634655"><ele>247.8</ele><time>2019-08-12T10:56:38Z</time></trkpt>
<trkpt lat="46.710582" lon="15.634207"><ele>247.8</ele><time>2019-08-12T10:56:40Z</time></trkpt>
<trkpt lat="46.710581" lon="15.634122"><ele>248.6</ele><time>2019-08-12T10:56:40Z</time></trkpt>
<trkpt lat="46.708994" lon="15.633886"><ele>251.6</ele><time>2019-08-12T10:56:51Z</time></trkpt>
<trkpt lat="46.709075" lon="15.633082"><ele>253.0</ele><time>2019-08-12T10:56:54Z</time></trkpt>
<trkpt lat="46.709067" lon="15.632883"><ele>253.0</ele><time>2019-08-12T10:56:54Z</time></trkpt>
<trkpt lat="46.709033" lon="15.632755"><ele>253.0</ele><time>2019-08-12T10:56:55Z</time></trkpt>
<trkpt lat="46.708981" lon="15.632656"><ele>253.0</ele><time>2019-08-12T10:56:55Z</time></trkpt>
<trkpt lat="46.708888" lon="15.632544"><ele>253.0</ele><time>2019-08-12T10:56:56Z</time></trkpt>
<trkpt lat="46.708679" lon="15.632377"><ele>255.2</ele><time>2019-08-12T10:56:57Z</time></trkpt>
<trkpt lat="46.708632" lon="15.632316"><ele>255.2</ele><time>2019-08-12T10:56:57Z</time></trkpt>
<trkpt lat="46.708593" lon="15.632139"><ele>255.2</ele><time>2019-08-12T10:56:58Z</time></trkpt>
<trkpt lat="46.708303" lon="15.632129"><ele>262.8</ele><time>2019-08-12T10:57:00Z</time></trkpt>
<trkpt lat="46.708169" lon="15.632151"><ele>262.8</ele><time>2019-08-12T10:57:00Z</time></trkpt>
<trkpt lat="46.708071" lon="15.632221"><ele>262.8</ele><time>2019-08-12T10:57:01Z</time></trkpt>
<trkpt lat="46.70787" lon="15.632413"><ele>262.8</ele><time>2019-08-12T10:57:02Z</time></trkpt>
<trkpt lat="46.707048" lon="15.633346"><ele>254.8</ele><time>2019-08-12T10:57:08Z</time></trkpt>
<trkpt lat="46.706869" lon="15.633528"><ele>254.8</ele><time>2019-08-12T10:57:10Z</time></trkpt>
<trkpt lat="46.706836" lon="15.633383"><ele>254.8</ele><time>2019-08-12T10:57:10Z</time></trkpt>
<trkpt lat="46.706528" lon="15.632559"><ele>262.0</ele><time>2019-08-12T10:57:15Z</time></trkpt>
<trkpt lat="46.706346" lon="15.632153"><ele>267.8</ele><time>2019-08-12T10:57:17Z</time></trkpt>
<trkpt lat="46.706137" lon="15.631804"><ele>267.8</ele><time>2019-08-12T10:57:19Z</time></trkpt>
<trkpt lat="46.70574" lon="15.63128"><ele>271.0</ele><time>2019-08-12T10:57:23Z</time></trkpt>
<trkpt lat="46.705578" lon="15.631006"><ele>271.0</ele><time>2019-08-12T10:57:25Z</time></trkpt>
<trkpt lat="46.705514" lon="15.630746"><ele>275.4</ele><time>2019-08-12T10:57:26Z</time></trkpt>
<trkpt lat="46.705444" lon="15.630376"><ele>275.4</ele><time>2019-08-12T10:57:28Z</time></trkpt>
<trkpt lat="46.705274" lon="15.628644"><ele>280.8</ele><time>2019-08-12T10:57:36Z</time></trkpt>
<trkpt lat="46.705204" lon="15.628432"><ele>280.8</ele><time>2019-08-12T10:57:38Z</time></trkpt>
<trkpt lat="46.705068" lon="15.62812"><ele>281.2</ele><time>2019-08-12T10:57:39Z</time></trkpt>
<trkpt lat="46.704779" lon="15.627698"><ele>287.0</ele><time>2019-08-12T10:57:42Z</time></trkpt>
<trkpt lat="46.704613" lon="15.627424"><ele>285.4</ele><time>2019-08-12T10:57:44Z</time></trkpt>
<trkpt lat="46.704479" lon="15.627117"><ele>285.4</ele><time>2019-08-12T10:57:46Z</time></trkpt>
<trkpt lat="46.704407" lon="15.626879"><ele>285.4</ele><time>2019-08-12T10:57:47Z</time></trkpt>
<trkpt lat="46.704262" lon="15.626136"><ele>283.8</ele><time>2019-08-12T10:57:51Z</time></trkpt>
<trkpt lat="46.704126" lon="15.625801"><ele>291.8</ele><time>2019-08-12T10:57:52Z</time></trkpt>
<trkpt lat="46.702968" lon="15.624021"><ele>306.2</ele><time>2019-08-12T10:58:04Z</time></trkpt>
<trkpt lat="46.702683" lon="15.6233"><ele>309.4</ele><time>2019-08-12T10:58:08Z</time></trkpt>
<trkpt lat="46.702498" lon="15.622996"><ele>321.0</ele><time>2019-08-12T10:58:10Z</time></trkpt>
<trkpt lat="46.70203" lon="15.622436"><ele>327.6</ele><time>2019-08-12T10:58:15Z</time></trkpt>
<trkpt lat="46.701868" lon="15.62215"><ele>327.6</ele><time>2019-08-12T10:58:16Z</time></trkpt>
<trkpt lat="46.701753" lon="15.621878"><ele>327.6</ele><time>2019-08-12T10:58:18Z</time></trkpt>
<trkpt lat="46.70153" lon="15.621218"><ele>344.2</ele><time>2019-08-12T10:58:21Z</time></trkpt>
<trkpt lat="46.701409" lon="15.620919"><ele>344.2</ele><time>2019-08-12T10:58:23Z</time></trkpt>
<trkpt lat="46.700994" lon="15.620177"><ele>344.8</ele><time>2019-08-12T10:58:28Z</time></trkpt>
<trkpt lat="46.700888" lon="15.619914"><ele>341.4</ele><time>2019-08-12T10:58:29Z</time></trkpt>
<trkpt lat="46.700805" lon="15.619626"><ele>358.4</ele><time>2019-08-12T10:58:31Z</time></trkpt>
<trkpt lat="46.700772" lon="15.619229"><ele>358.4</ele><time>2019-08-12T10:58:33Z</time></trkpt>
<trkpt lat="46.700728" lon="15.617891"><ele>366.0</ele><time>2019-08-12T10:58:39Z</time></trkpt>
<trkpt lat="46.700635" lon="15.617226"><ele>368.4</ele><time>2019-08-12T10:58:43Z</time></trkpt>
<trkpt lat="46.700229" lon="15.614857"><ele>378.6</ele><time>2019-08-12T10:58:54Z</time></trkpt>
<trkpt lat="46.70007" lon="15.614325"><ele>378.6</ele><time>2019-08-12T10:58:57Z</time></trkpt>
<trkpt lat="46.69994" lon="15.614043"><ele>391.2</ele><time>2019-08-12T10:58:59Z</time></trkpt>
<trkpt lat="46.699765" lon="15.61378"><ele>391.2</ele><time>2019-08-12T10:59:01Z</time></trkpt>
<trkpt lat="46.699531" lon="15.613496"><ele>391.2</ele><time>2019-08-12T10:59:03Z</time></trkpt>
<trkpt lat="46.699206" lon="15.613165"><ele>389.2</ele><time>2019-08-12T10:59:05Z</time></trkpt>
<trkpt lat="46.699035" lon="15.612908"><ele>398.2</ele><time>2019-08-12T10:59:07Z</time></trkpt>
<trkpt lat="46.698939" lon="15.612653"><ele>398.2</ele><time>2019-08-12T10:59:09Z</time></trkpt>
<trkpt lat="46.69892" lon="15.612505"><ele>398.2</ele><time>2019-08-12T10:59:10Z</time></trkpt>
<trkpt lat="46.69884" lon="15.612521"><ele>398.2</ele><time>2019-08-12T10:59:11Z</time></trkpt>
<trkpt lat="46.698041" lon="15.612896"><ele>400.6</ele><time>2019-08-12T10:59:24Z</time></trkpt>
<trkpt lat="46.697633" lon="15.612753"><ele>400.6</ele><time>2019-08-12T10:59:30Z</time></trkpt>
<trkpt lat="46.697281" lon="15.612766"><ele>402.8</ele><time>2019-08-12T10:59:36Z</time></trkpt>
<trkpt lat="46.697094" lon="15.612865"><ele>402.8</ele><time>2019-08-12T10:59:39Z</time></trkpt>
<trkpt lat="46.696558" lon="15.612871"><ele>405.0</ele><time>2019-08-12T10:59:47Z</time></trkpt>
<trkpt lat="46.695889" lon="15.613135"><ele>405.0</ele><time>2019-08-12T10:59:58Z</time></trkpt>
<trkpt lat="46.695495" lon="15.613273"><ele>411.2</ele><time>2019-08-12T11:00:04Z</time></trkpt>
<trkpt lat="46.695357" lon="15.613296"><ele>411.2</ele><time>2019-08-12T11:00:06Z</time></trkpt>
<trkpt lat="46.695089" lon="15.613197"><ele>411.2</ele><time>2019-08-12T11:00:10Z</time></trkpt>
<trkpt lat="46.694911" lon="15.613173"><ele>416.6</ele><time>2019-08-12T11:00:13Z</time></trkpt>
<trkpt lat="46.69409" lon="15.612795"><ele>412.8</ele><time>2019-08-12T11:00:26Z</time></trkpt>
<trkpt lat="46.69401" lon="15.612702"><ele>412.8</ele><time>2019-08-12T11:00:28Z</time></trkpt>
<trkpt lat="46.693725" lon="15.612782"><ele>412.8</ele><time>2019-08-12T11:00:29Z</time></trkpt>
<trkpt lat="46.69305" lon="15.612603"><ele>409.4</ele><time>2019-08-12T11:00:33Z</time></trkpt>
<trkpt lat="46.692249" lon="15.612529"><ele>410.6</ele><time>2019-08-12T11:00:38Z</time></trkpt>
<trkpt lat="46.691895" lon="15.612365"><ele>402.4</ele><time>2019-08-12T11:00:40Z</time></trkpt>
<trkpt lat="46.691558" lon="15.612132"><ele>415.2</ele><time>2019-08-12T11:00:42Z</time></trkpt>
<trkpt lat="46.69124" lon="15.611989"><ele>415.2</ele><time>2019-08-12T11:00:44Z</time></trkpt>
<trkpt lat="46.690996" lon="15.611918"><ele>415.2</ele><time>2019-08-12T11:00:45Z</time></trkpt>
<trkpt lat="46.690301" lon="15.611894"><ele>431.2</ele><time>2019-08-12T11:00:49Z</time></trkpt>
<trkpt lat="46.690136" lon="15.611867"><ele>431.2</ele><time>2019-08-12T11:00:50Z</time></trkpt>
<trkpt lat="46.689922" lon="15.61179"><ele>433.6</ele><time>2019-08-12T11:00:51Z</time></trkpt>
<trkpt lat="46.68891" lon="15.611137"><ele>438.8</ele><time>2019-08-12T11:00:57Z</time></trkpt>
<trkpt lat="46.688556" lon="15.610578"><ele>443.4</ele><time>2019-08-12T11:01:00Z</time></trkpt>
<trkpt lat="46.688429" lon="15.610534"><ele>443.4</ele><time>2019-08-12T11:01:01Z</time></trkpt>
<trkpt lat="46.687984" lon="15.610583"><ele>450.0</ele><time>2019-08-12T11:01:03Z</time></trkpt>
<trkpt lat="46.687748" lon="15.610514"><ele>450.0</ele><time>2019-08-12T11:01:05Z</time></trkpt>
<trkpt lat="46.687688" lon="15.610477"><ele>450.0</ele><time>2019-08-12T11:01:05Z</time></trkpt>
<trkpt lat="46.68763" lon="15.610344"><ele>450.0</ele><time>2019-08-12T11:01:06Z</time></trkpt>
<trkpt lat="46.687622" lon="15.609521"><ele>454.2</ele><time>2019-08-12T11:01:09Z</time></trkpt>
<trkpt lat="46.687672" lon="15.608901"><ele>456.8</ele><time>2019-08-12T11:01:11Z</time></trkpt>
<trkpt lat="46.687748" lon="15.608549"><ele>456.8</ele><time>2019-08-12T11:01:12Z</time></trkpt>
<trkpt lat="46.688132" lon="15.607303"><ele>456.0</ele><time>2019-08-12T11:01:18Z</time></trkpt>
<trkpt lat="46.688189" lon="15.607051"><ele>456.0</ele><time>2019-08-12T11:01:19Z</time></trkpt>
<trkpt lat="46.688196" lon="15.606783"><ele>456.0</ele><time>2019-08-12T11:01:20Z</time></trkpt>
<trkpt lat="46.688162" lon="15.606227"><ele>456.2</ele><time>2019-08-12T11:01:22Z</time></trkpt>
<trkpt lat="46.688163" lon="15.605673"><ele>452.2</ele><time>2019-08-12T11:01:24Z</time></trkpt>
<trkpt lat="46.688116" lon="15.605095"><ele>452.2</ele><time>2019-08-12T11:01:26Z</time></trkpt>
<trkpt lat="46.688098" lon="15.604491"><ele>448.8</ele><time>2019-08-12T11:01:28Z</time></trkpt>
<trkpt lat="46.688127" lon="15.604193"><ele>448.8</ele><time>2019-08-12T11:01:30Z</time></trkpt>
<trkpt lat="46.688161" lon="15.604053"><ele>449.2</ele><time>2019-08-12T11:01:30Z</time></trkpt>
<trkpt lat="46.688437" lon="15.603356"><ele>448.2</ele><time>2019-08-12T11:01:33Z</time></trkpt>
<trkpt lat="46.688558" lon="15.603171"><ele>454.8</ele><time>2019-08-12T11:01:34Z</time></trkpt>
<trkpt lat="46.68867" lon="15.603042"><ele>454.8</ele><time>2019-08-12T11:01:35Z</time></trkpt>
<trkpt lat="46.68907" lon="15.602678"><ele>454.8</ele><time>2019-08-12T11:01:38Z</time></trkpt>
<trkpt lat="46.689323" lon="15.602348"><ele>454.2</ele><time>2019-08-12T11:01:39Z</time></trkpt>
<trkpt lat="46.689549" lon="15.602004"><ele>454.2</ele><time>2019-08-12T11:01:41Z</time></trkpt>
<trkpt lat="46.689651" lon="15.601728"><ele>454.2</ele><time>2019-08-12T11:01:42Z</time></trkpt>
<trkpt lat="46.689729" lon="15.60134"><ele>460.6</ele><time>2019-08-12T11:01:44Z</time></trkpt>
<trkpt lat="46.690037" lon="15.600205"><ele>453.2</ele><time>2019-08-12T11:01:49Z</time></trkpt>
<trkpt lat="46.690152" lon="15.599665"><ele>460.6</ele><time>2019-08-12T11:01:51Z</time></trkpt>
<trkpt lat="46.690309" lon="15.599119"><ele>469.2</ele><time>2019-08-12T11:01:53Z</time></trkpt>
<trkpt lat="46.690564" lon="15.598406"><ele>469.2</ele><time>2019-08-12T11:01:56Z</time></trkpt>
<trkpt lat="46.6906" lon="15.598268"><ele>478.0</ele><time>2019-08-12T11:01:57Z</time></trkpt>
<trkpt lat="46.690606" lon="15.598115"><ele>478.0</ele><time>2019-08-12T11:01:57Z</time></trkpt>
<trkpt lat="46.690441" lon="15.597321"><ele>484.0</ele><time>2019-08-12T11:02:00Z</time></trkpt>
<trkpt lat="46.690336" lon="15.596589"><ele>490.0</ele><time>2019-08-12T11:02:03Z</time></trkpt>
<trkpt lat="46.690218" lon="15.596099"><ele>490.0</ele><time>2019-08-12T11:02:05Z</time></trkpt>
<trkpt lat="46.690037" lon="15.595212"><ele>493.4</ele><time>2019-08-12T11:02:09Z</time></trkpt>
<trkpt lat="46.689986" lon="15.595038"><ele>492.0</ele><time>2019-08-12T11:02:10Z</time></trkpt>
<trkpt lat="46.689876" lon="15.594836"><ele>496.8</ele><time>2019-08-12T11:02:11Z</time></trkpt>
<trkpt lat="46.689641" lon="15.594649"><ele>496.8</ele><time>2019-08-12T11:02:12Z</time></trkpt>
<trkpt lat="46.688933" lon="15.593985"><ele>501.4</ele><time>2019-08-12T11:02:17Z</time></trkpt>
<trkpt lat="46.688844" lon="15.593861"><ele>501.4</ele><time>2019-08-12T11:02:17Z</time></trkpt>
<trkpt lat="46.688765" lon="15.593711"><ele>501.4</ele><time>2019-08-12T11:02:18Z</time></trkpt>
<trkpt lat="46.688539" lon="15.593169"><ele>493.4</ele><time>2019-08-12T11:02:20Z</time></trkpt>
<trkpt lat="46.687957" lon="15.592467"><ele>483.6</ele><time>2019-08-12T11:02:25Z</time></trkpt>
<trkpt lat="46.687739" lon="15.592128"><ele>483.6</ele><time>2019-08-12T11:02:26Z</time></trkpt>
<trkpt lat="46.687605" lon="15.59197"><ele>483.6</ele><time>2019-08-12T11:02:27Z</time></trkpt>
<trkpt lat="46.687263" lon="15.591855"><ele>492.0</ele><time>2019-08-12T11:02:29Z</time></trkpt>
<trkpt lat="46.687112" lon="15.591775"><ele>492.0</ele><time>2019-08-12T11:02:30Z</time></trkpt>
<trkpt lat="46.686902" lon="15.59156"><ele>480.2</ele><time>2019-08-12T11:02:32Z</time></trkpt>
<trkpt lat="46.686341" lon="15.591081"><ele>488.6</ele><time>2019-08-12T11:02:35Z</time></trkpt>
<trkpt lat="46.68622" lon="15.590782"><ele>482.8</ele><time>2019-08-12T11:02:37Z</time></trkpt>
<trkpt lat="46.686123" lon="15.59047"><ele>482.8</ele><time>2019-08-12T11:02:38Z</time></trkpt>
<trkpt lat="46.68609" lon="15.590087"><ele>482.8</ele><time>2019-08-12T11:02:39Z</time></trkpt>
<trkpt lat="46.686135" lon="15.588693"><ele>472.0</ele><time>2019-08-12T11:02:45Z</time></trkpt>
<trkpt lat="46.686129" lon="15.588493"><ele>472.0</ele><time>2019-08-12T11:02:46Z</time></trkpt>
<trkpt lat="46.686104" lon="15.588294"><ele>471.8</ele><time>2019-08-12T11:02:46Z</time></trkpt>
<trkpt lat="46.686006" lon="15.587884"><ele>471.8</ele><time>2019-08-12T11:02:48Z</time></trkpt>
<trkpt lat="46.685909" lon="15.587574"><ele>471.8</ele><time>2019-08-12T11:02:49Z</time></trkpt>
<trkpt lat="46.685655" lon="15.586231"><ele>481.4</ele><time>2019-08-12T11:02:55Z</time></trkpt>
<trkpt lat="46.685653" lon="15.586043"><ele>481.4</ele><time>2019-08-12T11:02:55Z</time></trkpt>
<trkpt lat="46.685768" lon="15.585588"><ele>488.6</ele><time>2019-08-12T11:02:57Z</time></trkpt>
<trkpt lat="46.68577" lon="15.58535"><ele>488.6</ele><time>2019-08-12T11:02:58Z</time></trkpt>
<trkpt lat="46.685733" lon="15.585206"><ele>488.6</ele><time>2019-08-12T11:02:59Z</time></trkpt>
<trkpt lat="46.685379" lon="15.584199"><ele>497.0</ele><time>2019-08-12T11:03:03Z</time></trkpt>
<trkpt lat="46.685337" lon="15.583975"><ele>499.8</ele><time>2019-08-12T11:03:04Z</time></trkpt>
<trkpt lat="46.685376" lon="15.583728"><ele>499.8</ele><time>2019-08-12T11:03:05Z</time></trkpt>
<trkpt lat="46.685491" lon="15.58345"><ele>499.8</ele><time>2019-08-12T11:03:06Z</time></trkpt>
<trkpt lat="46.685625" lon="15.583187"><ele>496.8</ele><time>2019-08-12T11:03:07Z</time></trkpt>
<trkpt lat="46.685988" lon="15.582252"><ele>502.8</ele><time>2019-08-12T11:03:11Z</time></trkpt>
<trkpt lat="46.68603" lon="15.582015"><ele>502.8</ele><time>2019-08-12T11:03:12Z</time></trkpt>
<trkpt lat="46.686041" lon="15.581255"><ele>502.4</ele><time>2019-08-12T11:03:15Z</time></trkpt>
<trkpt lat="46.685998" lon="15.580613"><ele>497.0</ele><time>2019-08-12T11:03:18Z</time></trkpt>
<trkpt lat="46.685767" lon="15.579638"><ele>498.6</ele><time>2019-08-12T11:03:21Z</time></trkpt>
<trkpt lat="46.68576" lon="15.579434"><ele>498.6</ele><time>2019-08-12T11:03:22Z</time></trkpt>
<trkpt lat="46.685807" lon="15.578986"><ele>482.6</ele><time>2019-08-12T11:03:24Z</time></trkpt>
<trkpt lat="46.685778" lon="15.578702"><ele>482.6</ele><time>2019-08-12T11:03:25Z</time></trkpt>
<trkpt lat="46.685649" lon="15.578449"><ele>482.6</ele><time>2019-08-12T11:03:26Z</time></trkpt>
<trkpt lat="46.685358" lon="15.578119"><ele>462.0</ele><time>2019-08-12T11:03:29Z</time></trkpt>
<trkpt lat="46.685108" lon="15.577679"><ele>462.0</ele><time>2019-08-12T11:03:31Z</time></trkpt>
<trkpt lat="46.684534" lon="15.577443"><ele>451.2</ele><time>2019-08-12T11:03:34Z</time></trkpt>
<trkpt lat="46.684305" lon="15.57725"><ele>451.2</ele><time>2019-08-12T11:03:36Z</time></trkpt>
<trkpt lat="46.68376" lon="15.577092"><ele>456.6</ele><time>2019-08-12T11:03:39Z</time></trkpt>
<trkpt lat="46.683494" lon="15.576907"><ele>456.6</ele><time>2019-08-12T11:03:40Z</time></trkpt>
<trkpt lat="46.68329" lon="15.576628"><ele>441.8</ele><time>2019-08-12T11:03:42Z</time></trkpt>
<trkpt lat="46.682756" lon="15.575726"><ele>431.8</ele><time>2019-08-12T11:03:47Z</time></trkpt>
<trkpt lat="46.682634" lon="15.575556"><ele>431.8</ele><time>2019-08-12T11:03:47Z</time></trkpt>
<trkpt lat="46.681826" lon="15.574873"><ele>427.8</ele><time>2019-08-12T11:03:53Z</time></trkpt>
<trkpt lat="46.681491" lon="15.57471"><ele>433.8</ele><time>2019-08-12T11:03:55Z</time></trkpt>
<trkpt lat="46.681271" lon="15.574577"><ele>433.8</ele><time>2019-08-12T11:03:56Z</time></trkpt>
<trkpt lat="46.681054" lon="15.574387"><ele>433.8</ele><time>2019-08-12T11:03:57Z</time></trkpt>
<trkpt lat="46.680956" lon="15.574222"><ele>433.8</ele><time>2019-08-12T11:03:58Z</time></trkpt>
<trkpt lat="46.680684" lon="15.573502"><ele>443.2</ele><time>2019-08-12T11:04:01Z</time></trkpt>
<trkpt lat="46.680522" lon="15.572962"><ele>438.2</ele><time>2019-08-12T11:04:04Z</time></trkpt>
<trkpt lat="46.680471" lon="15.572526"><ele>438.2</ele><time>2019-08-12T11:04:05Z</time></trkpt>
<trkpt lat="46.680663" lon="15.57129"><ele>427.4</ele><time>2019-08-12T11:04:10Z</time></trkpt>
<trkpt lat="46.680813" lon="15.5705"><ele>427.2</ele><time>2019-08-12T11:04:13Z</time></trkpt>
<trkpt lat="46.680938" lon="15.570137"><ele>424.0</ele><time>2019-08-12T11:04:15Z</time></trkpt>
<trkpt lat="46.68114" lon="15.569744"><ele>427.6</ele><time>2019-08-12T11:04:17Z</time></trkpt>
<trkpt lat="46.681242" lon="15.569369"><ele>427.6</ele><time>2019-08-12T11:04:18Z</time></trkpt>
<trkpt lat="46.68134" lon="15.56855"><ele>429.4</ele><time>2019-08-12T11:04:21Z</time></trkpt>
<trkpt lat="46.681362" lon="15.567519"><ele>431.6</ele><time>2019-08-12T11:04:25Z</time></trkpt>
<trkpt lat="46.681382" lon="15.567251"><ele>432.6</ele><time>2019-08-12T11:04:26Z</time></trkpt>
<trkpt lat="46.681441" lon="15.566991"><ele>432.6</ele><time>2019-08-12T11:04:27Z</time></trkpt>
<trkpt lat="46.681532" lon="15.566838"><ele>432.6</ele><time>2019-08-12T11:04:28Z</time></trkpt>
<trkpt lat="46.682502" lon="15.565727"><ele>437.8</ele><time>2019-08-12T11:04:35Z</time></trkpt>
<trkpt lat="46.683069" lon="15.565395"><ele>437.8</ele><time>2019-08-12T11:04:38Z</time></trkpt>
<trkpt lat="46.683157" lon="15.565258"><ele>437.8</ele><time>2019-08-12T11:04:39Z</time></trkpt>
<trkpt lat="46.68322" lon="15.565105"><ele>437.8</ele><time>2019-08-12T11:04:39Z</time></trkpt>
<trkpt lat="46.683255" lon="15.564935"><ele>436.8</ele><time>2019-08-12T11:04:40Z</time></trkpt>
<trkpt lat="46.683215" lon="15.564444"><ele>436.8</ele><time>2019-08-12T11:04:42Z</time></trkpt>
<trkpt lat="46.683215" lon="15.563904"><ele>434.2</ele><time>2019-08-12T11:04:44Z</time></trkpt>
<trkpt lat="46.683098" lon="15.563521"><ele>434.2</ele><time>2019-08-12T11:04:46Z</time></trkpt>
<trkpt lat="46.683051" lon="15.562974"><ele>434.4</ele><time>2019-08-12T11:04:48Z</time></trkpt>
<trkpt lat="46.683056" lon="15.561751"><ele>439.4</ele><time>2019-08-12T11:04:52Z</time></trkpt>
<trkpt lat="46.683097" lon="15.561513"><ele>443.2</ele><time>2019-08-12T11:04:53Z</time></trkpt>
<trkpt lat="46.683216" lon="15.561221"><ele>443.2</ele><time>2019-08-12T11:04:55Z</time></trkpt>
<trkpt lat="46.683287" lon="15.5611"><ele>443.2</ele><time>2019-08-12T11:04:55Z</time></trkpt>
<trkpt lat="46.683557" lon="15.560808"><ele>442.8</ele><time>2019-08-12T11:04:57Z</time></trkpt>
<trkpt lat="46.683668" lon="15.56065"><ele>442.8</ele><time>2019-08-12T11:04:58Z</time></trkpt>
<trkpt lat="46.683853" lon="15.560235"><ele>442.8</ele><time>2019-08-12T11:05:00Z</time></trkpt>
<trkpt lat="46.684275" lon="15.559613"><ele>452.2</ele><time>2019-08-12T11:05:03Z</time></trkpt>
<trkpt lat="46.684415" lon="15.559341"><ele>452.2</ele><time>2019-08-12T11:05:04Z</time></trkpt>
<trkpt lat="46.684567" lon="15.559097"><ele>463.0</ele><time>2019-08-12T11:05:06Z</time></trkpt>
<trkpt lat="46.685195" lon="15.558311"><ele>475.4</ele><time>2019-08-12T11:05:10Z</time></trkpt>
<trkpt lat="46.685397" lon="15.558085"><ele>475.4</ele><time>2019-08-12T11:05:12Z</time></trkpt>
<trkpt lat="46.685632" lon="15.557943"><ele>475.4</ele><time>2019-08-12T11:05:13Z</time></trkpt>
<trkpt lat="46.685818" lon="15.557801"><ele>475.4</ele><time>2019-08-12T11:05:14Z</time></trkpt>
<trkpt lat="46.685888" lon="15.557722"><ele>467.2</ele><time>2019-08-12T11:05:15Z</time></trkpt>
<trkpt lat="46.685929" lon="15.557595"><ele>467.2</ele><time>2019-08-12T11:05:15Z</time></trkpt>
<trkpt lat="46.685938" lon="15.557434"><ele>461.4</ele><time>2019-08-12T11:05:16Z</time></trkpt>
<trkpt lat="46.685871" lon="15.557152"><ele>461.4</ele><time>2019-08-12T11:05:17Z</time></trkpt>
<trkpt lat="46.685787" lon="15.556968"><ele>473.2</ele><time>2019-08-12T11:05:18Z</time></trkpt>
<trkpt lat="46.685575" lon="15.556677"><ele>473.2</ele><time>2019-08-12T11:05:20Z</time></trkpt>
<trkpt lat="46.685547" lon="15.556609"><ele>467.4</ele><time>2019-08-12T11:05:20Z</time></trkpt>
<trkpt lat="46.685527" lon="15.556465"><ele>467.4</ele><time>2019-08-12T11:05:21Z</time></trkpt>
<trkpt lat="46.68551" lon="15.556283"><ele>467.4</ele><time>2019-08-12T11:05:22Z</time></trkpt>
<trkpt lat="46.685508" lon="15.555635"><ele>458.8</ele><time>2019-08-12T11:05:24Z</time></trkpt>
<trkpt lat="46.685574" lon="15.555139"><ele>458.8</ele><time>2019-08-12T11:05:26Z</time></trkpt>
<trkpt lat="46.685696" lon="15.554915"><ele>451.8</ele><time>2019-08-12T11:05:27Z</time></trkpt>
<trkpt lat="46.686185" lon="15.554195"><ele>450.4</ele><time>2019-08-12T11:05:31Z</time></trkpt>
<trkpt lat="46.686285" lon="15.553978"><ele>453.0</ele><time>2019-08-12T11:05:32Z</time></trkpt>
<trkpt lat="46.686527" lon="15.553566"><ele>453.0</ele><time>2019-08-12T11:05:34Z</time></trkpt>
<trkpt lat="46.686706" lon="15.553295"><ele>460.8</ele><time>2019-08-12T11:05:35Z</time></trkpt>
<trkpt lat="46.686889" lon="15.553078"><ele>460.8</ele><time>2019-08-12T11:05:37Z</time></trkpt>
<trkpt lat="46.687042" lon="15.552649"><ele>460.8</ele><time>2019-08-12T11:05:39Z</time></trkpt>
<trkpt lat="46.687101" lon="15.552019"><ele>463.8</ele><time>2019-08-12T11:05:41Z</time></trkpt>
<trkpt lat="46.687196" lon="15.551365"><ele>460.8</ele><time>2019-08-12T11:05:46Z</time></trkpt>
<trkpt lat="46.686897" lon="15.551268"><ele>460.8</ele><time>2019-08-12T11:05:47Z</time></trkpt>
<trkpt lat="46.686504" lon="15.551011"><ele>464.4</ele><time>2019-08-12T11:05:49Z</time></trkpt>
<trkpt lat="46.686077" lon="15.550465"><ele>463.2</ele><time>2019-08-12T11:05:52Z</time></trkpt>
<trkpt lat="46.685818" lon="15.550155"><ele>470.6</ele><time>2019-08-12T11:05:54Z</time></trkpt>
<trkpt lat="46.685689" lon="15.550028"><ele>470.6</ele><time>2019-08-12T11:05:55Z</time></trkpt>
<trkpt lat="46.684928" lon="15.54948"><ele>481.8</ele><time>2019-08-12T11:05:59Z</time></trkpt>
<trkpt lat="46.684734" lon="15.549267"><ele>481.8</ele><time>2019-08-12T11:06:00Z</time></trkpt>
<trkpt lat="46.684557" lon="15.548958"><ele>487.0</ele><time>2019-08-12T11:06:02Z</time></trkpt>
<trkpt lat="46.684456" lon="15.548719"><ele>487.0</ele><time>2019-08-12T11:06:03Z</time></trkpt>
<trkpt lat="46.684243" lon="15.548084"><ele>493.2</ele><time>2019-08-12T11:06:05Z</time></trkpt>
<trkpt lat="46.684211" lon="15.547899"><ele>493.2</ele><time>2019-08-12T11:06:06Z</time></trkpt>
<trkpt lat="46.684196" lon="15.547187"><ele>501.0</ele><time>2019-08-12T11:06:09Z</time></trkpt>
<trkpt lat="46.684164" lon="15.546878"><ele>503.0</ele><time>2019-08-12T11:06:10Z</time></trkpt>
<trkpt lat="46.684099" lon="15.546652"><ele>508.0</ele><time>2019-08-12T11:06:11Z</time></trkpt>
<trkpt lat="46.684028" lon="15.546471"><ele>508.0</ele><time>2019-08-12T11:06:11Z</time></trkpt>
<trkpt lat="46.68392" lon="15.546296"><ele>508.0</ele><time>2019-08-12T11:06:12Z</time></trkpt>
<trkpt lat="46.683764" lon="15.546106"><ele>508.0</ele><time>2019-08-12T11:06:13Z</time></trkpt>
<trkpt lat="46.683446" lon="15.545945"><ele>508.0</ele><time>2019-08-12T11:06:15Z</time></trkpt>
<trkpt lat="46.68324" lon="15.545933"><ele>500.4</ele><time>2019-08-12T11:06:16Z</time></trkpt>
<trkpt lat="46.682982" lon="15.545993"><ele>500.4</ele><time>2019-08-12T11:06:17Z</time></trkpt>
<trkpt lat="46.682743" lon="15.546108"><ele>500.4</ele><time>2019-08-12T11:06:19Z</time></trkpt>
<trkpt lat="46.682531" lon="15.546125"><ele>500.4</ele><time>2019-08-12T11:06:20Z</time></trkpt>
<trkpt lat="46.682448" lon="15.5461"><ele>488.4</ele><time>2019-08-12T11:06:20Z</time></trkpt>
<trkpt lat="46.682326" lon="15.546029"><ele>488.4</ele><time>2019-08-12T11:06:21Z</time></trkpt>
<trkpt lat="46.682192" lon="15.545879"><ele>488.4</ele><time>2019-08-12T11:06:22Z</time></trkpt>
<trkpt lat="46.681763" lon="15.54504"><ele>488.2</ele><time>2019-08-12T11:06:26Z</time></trkpt>
<trkpt lat="46.681574" lon="15.54483"><ele>471.4</ele><time>2019-08-12T11:06:27Z</time></trkpt>
<trkpt lat="46.68141" lon="15.544715"><ele>471.4</ele><time>2019-08-12T11:06:28Z</time></trkpt>
<trkpt lat="46.68125" lon="15.544642"><ele>471.4</ele><time>2019-08-12T11:06:29Z</time></trkpt>
<trkpt lat="46.680322" lon="15.544413"><ele>473.2</ele><time>2019-08-12T11:06:34Z</time></trkpt>
<trkpt lat="46.680078" lon="15.544295"><ele>473.2</ele><time>2019-08-12T11:06:35Z</time></trkpt>
<trkpt lat="46.679839" lon="15.54415"><ele>475.6</ele><time>2019-08-12T11:06:36Z</time></trkpt>
<trkpt lat="46.677951" lon="15.542861"><ele>494.6</ele><time>2019-08-12T11:06:47Z</time></trkpt>
<trkpt lat="46.677805" lon="15.542732"><ele>494.6</ele><time>2019-08-12T11:06:48Z</time></trkpt>
<trkpt lat="46.677593" lon="15.542479"><ele>496.2</ele><time>2019-08-12T11:06:49Z</time></trkpt>
<trkpt lat="46.677417" lon="15.542212"><ele>498.2</ele><time>2019-08-12T11:06:51Z</time></trkpt>
<trkpt lat="46.677138" lon="15.541665"><ele>507.0</ele><time>2019-08-12T11:06:53Z</time></trkpt>
<trkpt lat="46.676898" lon="15.541262"><ele>507.0</ele><time>2019-08-12T11:06:55Z</time></trkpt>
<trkpt lat="46.676298" lon="15.540498"><ele>510.8</ele><time>2019-08-12T11:06:59Z</time></trkpt>
<trkpt lat="46.676119" lon="15.540167"><ele>510.8</ele><time>2019-08-12T11:07:00Z</time></trkpt>
<trkpt lat="46.675715" lon="15.539185"><ele>500.6</ele><time>2019-08-12T11:07:04Z</time></trkpt>
<trkpt lat="46.675551" lon="15.538887"><ele>489.4</ele><time>2019-08-12T11:07:06Z</time></trkpt>
<trkpt lat="46.675417" lon="15.538768"><ele>489.4</ele><time>2019-08-12T11:07:07Z</time></trkpt>
<trkpt lat="46.675316" lon="15.538716"><ele>489.4</ele><time>2019-08-12T11:07:07Z</time></trkpt>
<trkpt lat="46.675217" lon="15.538696"><ele>489.4</ele><time>2019-08-12T11:07:08Z</time></trkpt>
<trkpt lat="46.675056" lon="15.538705"><ele>489.4</ele><time>2019-08-12T11:07:09Z</time></trkpt>
<trkpt lat="46.674796" lon="15.538788"><ele>486.4</ele><time>2019-08-12T11:07:10Z</time></trkpt>
<trkpt lat="46.674578" lon="15.538825"><ele>486.4</ele><time>2019-08-12T11:07:11Z</time></trkpt>
<trkpt lat="46.674392" lon="15.538779"><ele>486.4</ele><time>2019-08-12T11:07:12Z</time></trkpt>
<trkpt lat="46.674272" lon="15.538703"><ele>486.4</ele><time>2019-08-12T11:07:13Z</time></trkpt>
<trkpt lat="46.674163" lon="15.538589"><ele>476.6</ele><time>2019-08-12T11:07:13Z</time></trkpt>
<trkpt lat="46.674074" lon="15.538442"><ele>476.6</ele><time>2019-08-12T11:07:14Z</time></trkpt>
<trkpt lat="46.674012" lon="15.538275"><ele>471.0</ele><time>2019-08-12T11:07:15Z</time></trkpt>
<trkpt lat="46.673958" lon="15.537976"><ele>471.0</ele><time>2019-08-12T11:07:16Z</time></trkpt>
<trkpt lat="46.673915" lon="15.537361"><ele>467.2</ele><time>2019-08-12T11:07:18Z</time></trkpt>
<trkpt lat="46.673864" lon="15.536998"><ele>467.2</ele><time>2019-08-12T11:07:19Z</time></trkpt>
<trkpt lat="46.673741" lon="15.536573"><ele>466.0</ele><time>2019-08-12T11:07:21Z</time></trkpt>
<trkpt lat="46.673368" lon="15.535517"><ele>466.0</ele><time>2019-08-12T11:07:25Z</time></trkpt>
<trkpt lat="46.673326" lon="15.535371"><ele>476.0</ele><time>2019-08-12T11:07:26Z</time></trkpt>
<trkpt lat="46.673286" lon="15.535141"><ele>476.0</ele><time>2019-08-12T11:07:27Z</time></trkpt>
<trkpt lat="46.673274" lon="15.534962"><ele>482.4</ele><time>2019-08-12T11:07:27Z</time></trkpt>
<trkpt lat="46.673284" lon="15.53476"><ele>482.4</ele><time>2019-08-12T11:07:28Z</time></trkpt>
<trkpt lat="46.673502" lon="15.533833"><ele>475.4</ele><time>2019-08-12T11:07:32Z</time></trkpt>
<trkpt lat="46.673506" lon="15.533615"><ele>475.4</ele><time>2019-08-12T11:07:32Z</time></trkpt>
<trkpt lat="46.673475" lon="15.533189"><ele>475.4</ele><time>2019-08-12T11:07:34Z</time></trkpt>
<trkpt lat="46.673433" lon="15.533001"><ele>475.4</ele><time>2019-08-12T11:07:35Z</time></trkpt>
<trkpt lat="46.673282" lon="15.53254"><ele>488.8</ele><time>2019-08-12T11:07:37Z</time></trkpt>
<trkpt lat="46.67321" lon="15.532222"><ele>481.6</ele><time>2019-08-12T11:07:38Z</time></trkpt>
<trkpt lat="46.673185" lon="15.532027"><ele>481.6</ele><time>2019-08-12T11:07:38Z</time></trkpt>
<trkpt lat="46.67318" lon="15.531701"><ele>481.6</ele><time>2019-08-12T11:07:40Z</time></trkpt>
<trkpt lat="46.67322" lon="15.530912"><ele>477.6</ele><time>2019-08-12T11:07:42Z</time></trkpt>
<trkpt lat="46.673258" lon="15.530709"><ele>475.4</ele><time>2019-08-12T11:07:43Z</time></trkpt>
<trkpt lat="46.673422" lon="15.530307"><ele>482.0</ele><time>2019-08-12T11:07:45Z</time></trkpt>
<trkpt lat="46.673479" lon="15.530088"><ele>482.0</ele><time>2019-08-12T11:07:46Z</time></trkpt>
<trkpt lat="46.67355" lon="15.529681"><ele>485.4</ele><time>2019-08-12T11:07:47Z</time></trkpt>
<trkpt lat="46.673731" lon="15.529188"><ele>485.4</ele><time>2019-08-12T11:07:49Z</time></trkpt>
<trkpt lat="46.673853" lon="15.528718"><ele>491.4</ele><time>2019-08-12T11:07:51Z</time></trkpt>
<trkpt lat="46.673843" lon="15.527812"><ele>497.4</ele><time>2019-08-12T11:07:54Z</time></trkpt>
<trkpt lat="46.673867" lon="15.527638"><ele>497.4</ele><time>2019-08-12T11:07:55Z</time></trkpt>
<trkpt lat="46.673922" lon="15.52749"><ele>492.0</ele><time>2019-08-12T11:07:55Z</time></trkpt>
<trkpt lat="46.674122" lon="15.527203"><ele>492.0</ele><time>2019-08-12T11:07:57Z</time></trkpt>
<trkpt lat="46.674412" lon="15.526856"><ele>503.6</ele><time>2019-08-12T11:07:59Z</time></trkpt>
<trkpt lat="46.674742" lon="15.526565"><ele>493.2</ele><time>2019-08-12T11:08:01Z</time></trkpt>
<trkpt lat="46.674885" lon="15.526471"><ele>493.2</ele><time>2019-08-12T11:08:02Z</time></trkpt>
<trkpt lat="46.675296" lon="15.526313"><ele>498.0</ele><time>2019-08-12T11:08:04Z</time></trkpt>
<trkpt lat="46.675418" lon="15.526203"><ele>498.0</ele><time>2019-08-12T11:08:04Z</time></trkpt>
<trkpt lat="46.675672" lon="15.5259"><ele>498.0</ele><time>2019-08-12T11:08:06Z</time></trkpt>
<trkpt lat="46.675795" lon="15.525693"><ele>496.0</ele><time>2019-08-12T11:08:07Z</time></trkpt>
<trkpt lat="46.676093" lon="15.52497"><ele>497.4</ele><time>2019-08-12T11:08:10Z</time></trkpt>
<trkpt lat="46.676426" lon="15.524267"><ele>497.4</ele><time>2019-08-12T11:08:13Z</time></trkpt>
<trkpt lat="46.676768" lon="15.523352"><ele>503.2</ele><time>2019-08-12T11:08:17Z</time></trkpt>
<trkpt lat="46.676824" lon="15.523013"><ele>513.2</ele><time>2019-08-12T11:08:18Z</time></trkpt>
<trkpt lat="46.676926" lon="15.521774"><ele>520.2</ele><time>2019-08-12T11:08:22Z</time></trkpt>
<trkpt lat="46.676975" lon="15.521437"><ele>526.4</ele><time>2019-08-12T11:08:24Z</time></trkpt>
<trkpt lat="46.677088" lon="15.521095"><ele>526.4</ele><time>2019-08-12T11:08:25Z</time></trkpt>
<trkpt lat="46.677257" lon="15.520711"><ele>532.6</ele><time>2019-08-12T11:08:27Z</time></trkpt>
<trkpt lat="46.677282" lon="15.520576"><ele>532.6</ele><time>2019-08-12T11:08:27Z</time></trkpt>
<trkpt lat="46.677259" lon="15.520446"><ele>532.6</ele><time>2019-08-12T11:08:28Z</time></trkpt>
<trkpt lat="46.677172" lon="15.520295"><ele>532.6</ele><time>2019-08-12T11:08:28Z</time></trkpt>
<trkpt lat="46.676889" lon="15.519985"><ele>539.4</ele><time>2019-08-12T11:08:30Z</time></trkpt>
<trkpt lat="46.676755" lon="15.51991"><ele>539.4</ele><time>2019-08-12T11:08:31Z</time></trkpt>
<trkpt lat="46.67642" lon="15.519867"><ele>530.8</ele><time>2019-08-12T11:08:33Z</time></trkpt>
<trkpt lat="46.676137" lon="15.519714"><ele>530.8</ele><time>2019-08-12T11:08:34Z</time></trkpt>
<trkpt lat="46.675806" lon="15.519384"><ele>525.4</ele><time>2019-08-12T11:08:36Z</time></trkpt>
<trkpt lat="46.675388" lon="15.518472"><ele>529.4</ele><time>2019-08-12T11:08:40Z</time></trkpt>
<trkpt lat="46.674886" lon="15.51751"><ele>517.0</ele><time>2019-08-12T11:08:44Z</time></trkpt>
<trkpt lat="46.674707" lon="15.516862"><ele>521.2</ele><time>2019-08-12T11:08:47Z</time></trkpt>
<trkpt lat="46.674496" lon="15.51648"><ele>525.6</ele><time>2019-08-12T11:08:49Z</time></trkpt>
<trkpt lat="46.674313" lon="15.516076"><ele>525.6</ele><time>2019-08-12T11:08:50Z</time></trkpt>
<trkpt lat="46.674152" lon="15.515636"><ele>506.8</ele><time>2019-08-12T11:08:52Z</time></trkpt>
<trkpt lat="46.673955" lon="15.515367"><ele>506.8</ele><time>2019-08-12T11:08:54Z</time></trkpt>
<trkpt lat="46.673892" lon="15.515317"><ele>506.8</ele><time>2019-08-12T11:08:55Z</time></trkpt>
<trkpt lat="46.674085" lon="15.51523"><ele>506.8</ele><time>2019-08-12T11:08:56Z</time></trkpt>
<trkpt lat="46.674391" lon="15.515239"><ele>523.2</ele><time>2019-08-12T11:08:58Z</time></trkpt>
<trkpt lat="46.674629" lon="15.515299"><ele>523.2</ele><time>2019-08-12T11:08:59Z</time></trkpt>
<trkpt lat="46.67473" lon="15.515276"><ele>523.2</ele><time>2019-08-12T11:09:00Z</time></trkpt>
<trkpt lat="46.6748" lon="15.515207"><ele>523.2</ele><time>2019-08-12T11:09:00Z</time></trkpt>
<trkpt lat="46.674868" lon="15.515036"><ele>523.2</ele><time>2019-08-12T11:09:01Z</time></trkpt>
<trkpt lat="46.675188" lon="15.514049"><ele>524.6</ele><time>2019-08-12T11:09:06Z</time></trkpt>
<trkpt lat="46.675258" lon="15.513686"><ele>524.6</ele><time>2019-08-12T11:09:07Z</time></trkpt>
<trkpt lat="46.675316" lon="15.51307"><ele>521.4</ele><time>2019-08-12T11:09:10Z</time></trkpt>
<trkpt lat="46.675366" lon="15.512951"><ele>521.4</ele><time>2019-08-12T11:09:10Z</time></trkpt>
<trkpt lat="46.675471" lon="15.512835"><ele>521.4</ele><time>2019-08-12T11:09:11Z</time></trkpt>
<trkpt lat="46.675557" lon="15.512758"><ele>521.4</ele><time>2019-08-12T11:09:11Z</time></trkpt>
<trkpt lat="46.676013" lon="15.512602"><ele>519.0</ele><time>2019-08-12T11:09:14Z</time></trkpt>
<trkpt lat="46.676245" lon="15.512468"><ele>519.8</ele><time>2019-08-12T11:09:16Z</time></trkpt>
<trkpt lat="46.676403" lon="15.512328"><ele>519.8</ele><time>2019-08-12T11:09:17Z</time></trkpt>
<trkpt lat="46.676856" lon="15.511848"><ele>510.8</ele><time>2019-08-12T11:09:20Z</time></trkpt>
<trkpt lat="46.677017" lon="15.511725"><ele>510.8</ele><time>2019-08-12T11:09:21Z</time></trkpt>
<trkpt lat="46.677267" lon="15.51161"><ele>510.0</ele><time>2019-08-12T11:09:22Z</time></trkpt>
<trkpt lat="46.677552" lon="15.511513"><ele>515.8</ele><time>2019-08-12T11:09:24Z</time></trkpt>
<trkpt lat="46.677909" lon="15.511331"><ele>515.8</ele><time>2019-08-12T11:09:26Z</time></trkpt>
<trkpt lat="46.67826" lon="15.511119"><ele>515.8</ele><time>2019-08-12T11:09:28Z</time></trkpt>
<trkpt lat="46.678454" lon="15.510976"><ele>530.0</ele><time>2019-08-12T11:09:30Z</time></trkpt>
<trkpt lat="46.678603" lon="15.510828"><ele>527.4</ele><time>2019-08-12T11:09:31Z</time></trkpt>
<trkpt lat="46.678857" lon="15.510482"><ele>527.4</ele><time>2019-08-12T11:09:33Z</time></trkpt>
<trkpt lat="46.67894" lon="15.510401"><ele>527.4</ele><time>2019-08-12T11:09:34Z</time></trkpt>
<trkpt lat="46.679314" lon="15.510233"><ele>545.4</ele><time>2019-08-12T11:09:36Z</time></trkpt>
<trkpt lat="46.679465" lon="15.510114"><ele>545.4</ele><time>2019-08-12T11:09:37Z</time></trkpt>
<trkpt lat="46.679558" lon="15.509978"><ele>538.6</ele><time>2019-08-12T11:09:38Z</time></trkpt>
<trkpt lat="46.679643" lon="15.509782"><ele>538.6</ele><time>2019-08-12T11:09:39Z</time></trkpt>
<trkpt lat="46.680058" lon="15.508603"><ele>554.2</ele><time>2019-08-12T11:09:44Z</time></trkpt>
<trkpt lat="46.680151" lon="15.508215"><ele>546.2</ele><time>2019-08-12T11:09:46Z</time></trkpt>
<trkpt lat="46.680227" lon="15.507791"><ele>546.2</ele><time>2019-08-12T11:09:47Z</time></trkpt>
<trkpt lat="46.680238" lon="15.50764"><ele>546.2</ele><time>2019-08-12T11:09:48Z</time></trkpt>
<trkpt lat="46.680219" lon="15.507456"><ele>539.8</ele><time>2019-08-12T11:09:49Z</time></trkpt>
<trkpt lat="46.680142" lon="15.507283"><ele>539.8</ele><time>2019-08-12T11:09:50Z</time></trkpt>
<trkpt lat="46.679492" lon="15.506589"><ele>533.8</ele><time>2019-08-12T11:09:54Z</time></trkpt>
<trkpt lat="46.679173" lon="15.506102"><ele>533.8</ele><time>2019-08-12T11:09:57Z</time></trkpt>
<trkpt lat="46.679134" lon="15.506035"><ele>531.0</ele><time>2019-08-12T11:09:57Z</time></trkpt>
<trkpt lat="46.679016" lon="15.505712"><ele>523.2</ele><time>2019-08-12T11:09:59Z</time></trkpt>
<trkpt lat="46.678951" lon="15.505367"><ele>523.2</ele><time>2019-08-12T11:10:00Z</time></trkpt>
<trkpt lat="46.678934" lon="15.504821"><ele>514.6</ele><time>2019-08-12T11:10:02Z</time></trkpt>
<trkpt lat="46.679" lon="15.504391"><ele>514.6</ele><time>2019-08-12T11:10:04Z</time></trkpt>
<trkpt lat="46.679119" lon="15.503975"><ele>506.8</ele><time>2019-08-12T11:10:06Z</time></trkpt>
<trkpt lat="46.679124" lon="15.503537"><ele>506.8</ele><time>2019-08-12T11:10:08Z</time></trkpt>
<trkpt lat="46.679045" lon="15.503028"><ele>494.0</ele><time>2019-08-12T11:10:10Z</time></trkpt>
<trkpt lat="46.679065" lon="15.502806"><ele>494.0</ele><time>2019-08-12T11:10:11Z</time></trkpt>
<trkpt lat="46.679153" lon="15.502389"><ele>483.6</ele><time>2019-08-12T11:10:13Z</time></trkpt>
<trkpt lat="46.67935" lon="15.501631"><ele>478.8</ele><time>2019-08-12T11:10:16Z</time></trkpt>
<trkpt lat="46.679355" lon="15.501522"><ele>478.8</ele><time>2019-08-12T11:10:16Z</time></trkpt>
<trkpt lat="46.679342" lon="15.501434"><ele>478.8</ele><time>2019-08-12T11:10:17Z</time></trkpt>
<trkpt lat="46.679189" lon="15.501043"><ele>478.8</ele><time>2019-08-12T11:10:18Z</time></trkpt>
<trkpt lat="46.679137" lon="15.500855"><ele>478.8</ele><time>2019-08-12T11:10:19Z</time></trkpt>
<trkpt lat="46.679113" lon="15.500657"><ele>478.0</ele><time>2019-08-12T11:10:20Z</time></trkpt>
<trkpt lat="46.679121" lon="15.500425"><ele>478.0</ele><time>2019-08-12T11:10:21Z</time></trkpt>
<trkpt lat="46.679146" lon="15.500301"><ele>478.0</ele><time>2019-08-12T11:10:21Z</time></trkpt>
<trkpt lat="46.679253" lon="15.499991"><ele>479.4</ele><time>2019-08-12T11:10:23Z</time></trkpt>
<trkpt lat="46.679447" lon="15.499583"><ele>479.4</ele><time>2019-08-12T11:10:25Z</time></trkpt>
<trkpt lat="46.679881" lon="15.499022"><ele>469.6</ele><time>2019-08-12T11:10:28Z</time></trkpt>
<trkpt lat="46.680005" lon="15.498924"><ele>474.2</ele><time>2019-08-12T11:10:29Z</time></trkpt>
<trkpt lat="46.680535" lon="15.498687"><ele>474.2</ele><time>2019-08-12T11:10:32Z</time></trkpt>
<trkpt lat="46.680849" lon="15.498443"><ele>479.4</ele><time>2019-08-12T11:10:34Z</time></trkpt>
<trkpt lat="46.681225" lon="15.498029"><ele>477.0</ele><time>2019-08-12T11:10:37Z</time></trkpt>
<trkpt lat="46.681399" lon="15.497776"><ele>477.0</ele><time>2019-08-12T11:10:38Z</time></trkpt>
<trkpt lat="46.681697" lon="15.497173"><ele>477.6</ele><time>2019-08-12T11:10:41Z</time></trkpt>
<trkpt lat="46.681851" lon="15.496819"><ele>477.6</ele><time>2019-08-12T11:10:43Z</time></trkpt>
<trkpt lat="46.681918" lon="15.496525"><ele>470.0</ele><time>2019-08-12T11:10:44Z</time></trkpt>
<trkpt lat="46.681931" lon="15.496371"><ele>470.0</ele><time>2019-08-12T11:10:45Z</time></trkpt>
<trkpt lat="46.681926" lon="15.496165"><ele>470.0</ele><time>2019-08-12T11:10:46Z</time></trkpt>
<trkpt lat="46.681769" lon="15.494966"><ele>461.4</ele><time>2019-08-12T11:10:50Z</time></trkpt>
<trkpt lat="46.681482" lon="15.49362"><ele>471.0</ele><time>2019-08-12T11:10:56Z</time></trkpt>
<trkpt lat="46.681361" lon="15.493267"><ele>473.2</ele><time>2019-08-12T11:10:58Z</time></trkpt>
<trkpt lat="46.681176" lon="15.492924"><ele>473.2</ele><time>2019-08-12T11:10:59Z</time></trkpt>
<trkpt lat="46.68112" lon="15.492655"><ele>473.2</ele><time>2019-08-12T11:11:00Z</time></trkpt>
<trkpt lat="46.681095" lon="15.492376"><ele>475.2</ele><time>2019-08-12T11:11:02Z</time></trkpt>
<trkpt lat="46.681101" lon="15.492223"><ele>475.2</ele><time>2019-08-12T11:11:02Z</time></trkpt>
<trkpt lat="46.681205" lon="15.491699"><ele>475.2</ele><time>2019-08-12T11:11:04Z</time></trkpt>
<trkpt lat="46.681322" lon="15.491237"><ele>472.8</ele><time>2019-08-12T11:11:06Z</time></trkpt>
<trkpt lat="46.681338" lon="15.491088"><ele>472.8</ele><time>2019-08-12T11:11:07Z</time></trkpt>
<trkpt lat="46.681347" lon="15.490902"><ele>472.8</ele><time>2019-08-12T11:11:08Z</time></trkpt>
<trkpt lat="46.681304" lon="15.490352"><ele>465.6</ele><time>2019-08-12T11:11:10Z</time></trkpt>
<trkpt lat="46.681308" lon="15.49012"><ele>465.6</ele><time>2019-08-12T11:11:11Z</time></trkpt>
<trkpt lat="46.681389" lon="15.489663"><ele>457.6</ele><time>2019-08-12T11:11:13Z</time></trkpt>
<trkpt lat="46.681441" lon="15.48924"><ele>457.6</ele><time>2019-08-12T11:11:14Z</time></trkpt>
<trkpt lat="46.68144" lon="15.489032"><ele>453.6</ele><time>2019-08-12T11:11:15Z</time></trkpt>
<trkpt lat="46.681401" lon="15.488723"><ele>453.6</ele><time>2019-08-12T11:11:16Z</time></trkpt>
<trkpt lat="46.681237" lon="15.487995"><ele>456.2</ele><time>2019-08-12T11:11:19Z</time></trkpt>
<trkpt lat="46.681191" lon="15.487635"><ele>456.2</ele><time>2019-08-12T11:11:21Z</time></trkpt>
<trkpt lat="46.681192" lon="15.487469"><ele>458.0</ele><time>2019-08-12T11:11:22Z</time></trkpt>
<trkpt lat="46.681218" lon="15.487275"><ele>458.0</ele><time>2019-08-12T11:11:22Z</time></trkpt>
<trkpt lat="46.681314" lon="15.486969"><ele>458.0</ele><time>2019-08-12T11:11:24Z</time></trkpt>
<trkpt lat="46.681326" lon="15.486843"><ele>458.0</ele><time>2019-08-12T11:11:24Z</time></trkpt>
<trkpt lat="46.681258" lon="15.486699"><ele>458.0</ele><time>2019-08-12T11:11:25Z</time></trkpt>
<trkpt lat="46.681061" lon="15.48644"><ele>454.2</ele><time>2019-08-12T11:11:26Z</time></trkpt>
<trkpt lat="46.680883" lon="15.486137"><ele>454.2</ele><time>2019-08-12T11:11:28Z</time></trkpt>
<trkpt lat="46.680778" lon="15.485895"><ele>461.6</ele><time>2019-08-12T11:11:29Z</time></trkpt>
<trkpt lat="46.680706" lon="15.485511"><ele>454.6</ele><time>2019-08-12T11:11:31Z</time></trkpt>
<trkpt lat="46.680731" lon="15.485209"><ele>454.6</ele><time>2019-08-12T11:11:32Z</time></trkpt>
<trkpt lat="46.680855" lon="15.484559"><ele>450.0</ele><time>2019-08-12T11:11:35Z</time></trkpt>
<trkpt lat="46.681041" lon="15.483857"><ele>453.4</ele><time>2019-08-12T11:11:38Z</time></trkpt>
<trkpt lat="46.681262" lon="15.48325"><ele>455.8</ele><time>2019-08-12T11:11:40Z</time></trkpt>
<trkpt lat="46.681374" lon="15.481946"><ele>460.4</ele><time>2019-08-12T11:11:46Z</time></trkpt>
<trkpt lat="46.681552" lon="15.481094"><ele>466.4</ele><time>2019-08-12T11:11:49Z</time></trkpt>
<trkpt lat="46.681732" lon="15.480115"><ele>474.0</ele><time>2019-08-12T11:11:55Z</time></trkpt>
<trkpt lat="46.681639" lon="15.480004"><ele>474.4</ele><time>2019-08-12T11:11:55Z</time></trkpt>
<trkpt lat="46.681219" lon="15.479388"><ele>476.8</ele><time>2019-08-12T11:11:58Z</time></trkpt>
<trkpt lat="46.681086" lon="15.479261"><ele>476.8</ele><time>2019-08-12T11:11:59Z</time></trkpt>
<trkpt lat="46.680923" lon="15.4792"><ele>476.8</ele><time>2019-08-12T11:12:00Z</time></trkpt>
<trkpt lat="46.680758" lon="15.479181"><ele>473.2</ele><time>2019-08-12T11:12:01Z</time></trkpt>
<trkpt lat="46.679819" lon="15.479244"><ele>470.6</ele><time>2019-08-12T11:12:06Z</time></trkpt>
<trkpt lat="46.679481" lon="15.479204"><ele>470.6</ele><time>2019-08-12T11:12:08Z</time></trkpt>
<trkpt lat="46.679295" lon="15.479127"><ele>471.6</ele><time>2019-08-12T11:12:09Z</time></trkpt>
<trkpt lat="46.678838" lon="15.478871"><ele>472.4</ele><time>2019-08-12T11:12:11Z</time></trkpt>
<trkpt lat="46.678638" lon="15.478866"><ele>472.4</ele><time>2019-08-12T11:12:12Z</time></trkpt>
<trkpt lat="46.678556" lon="15.478905"><ele>472.4</ele><time>2019-08-12T11:12:12Z</time></trkpt>
<trkpt lat="46.678464" lon="15.479002"><ele>472.4</ele><time>2019-08-12T11:12:13Z</time></trkpt>
<trkpt lat="46.678079" lon="15.479816"><ele>465.2</ele><time>2019-08-12T11:12:17Z</time></trkpt>
<trkpt lat="46.677973" lon="15.479947"><ele>465.2</ele><time>2019-08-12T11:12:17Z</time></trkpt>
<trkpt lat="46.677826" lon="15.480044"><ele>458.4</ele><time>2019-08-12T11:12:18Z</time></trkpt>
<trkpt lat="46.677727" lon="15.480079"><ele>458.4</ele><time>2019-08-12T11:12:19Z</time></trkpt>
<trkpt lat="46.677439" lon="15.480076"><ele>453.6</ele><time>2019-08-12T11:12:20Z</time></trkpt>
<trkpt lat="46.677226" lon="15.480032"><ele>453.6</ele><time>2019-08-12T11:12:21Z</time></trkpt>
<trkpt lat="46.676813" lon="15.47987"><ele>455.8</ele><time>2019-08-12T11:12:23Z</time></trkpt>
<trkpt lat="46.676683" lon="15.479786"><ele>455.8</ele><time>2019-08-12T11:12:24Z</time></trkpt>
<trkpt lat="46.676093" lon="15.479163"><ele>442.8</ele><time>2019-08-12T11:12:28Z</time></trkpt>
<trkpt lat="46.675956" lon="15.479057"><ele>442.8</ele><time>2019-08-12T11:12:29Z</time></trkpt>
<trkpt lat="46.675788" lon="15.47897"><ele>444.0</ele><time>2019-08-12T11:12:30Z</time></trkpt>
<trkpt lat="46.675644" lon="15.478933"><ele>444.0</ele><time>2019-08-12T11:12:30Z</time></trkpt>
<trkpt lat="46.675168" lon="15.478882"><ele>444.0</ele><time>2019-08-12T11:12:33Z</time></trkpt>
<trkpt lat="46.674968" lon="15.478919"><ele>447.2</ele><time>2019-08-12T11:12:34Z</time></trkpt>
<trkpt lat="46.674796" lon="15.479025"><ele>447.2</ele><time>2019-08-12T11:12:35Z</time></trkpt>
<trkpt lat="46.674498" lon="15.47929"><ele>439.8</ele><time>2019-08-12T11:12:37Z</time></trkpt>
<trkpt lat="46.674388" lon="15.479341"><ele>439.8</ele><time>2019-08-12T11:12:37Z</time></trkpt>
<trkpt lat="46.674276" lon="15.479358"><ele>439.8</ele><time>2019-08-12T11:12:38Z</time></trkpt>
<trkpt lat="46.673875" lon="15.479318"><ele>438.0</ele><time>2019-08-12T11:12:40Z</time></trkpt>
<trkpt lat="46.673387" lon="15.479307"><ele>438.0</ele><time>2019-08-12T11:12:42Z</time></trkpt>
<trkpt lat="46.673276" lon="15.479266"><ele>431.4</ele><time>2019-08-12T11:12:43Z</time></trkpt>
<trkpt lat="46.673172" lon="15.479172"><ele>431.4</ele><time>2019-08-12T11:12:44Z</time></trkpt>
<trkpt lat="46.673113" lon="15.479092"><ele>432.2</ele><time>2019-08-12T11:12:44Z</time></trkpt>
<trkpt lat="46.673083" lon="15.479003"><ele>432.2</ele><time>2019-08-12T11:12:44Z</time></trkpt>
<trkpt lat="46.673064" lon="15.478834"><ele>432.2</ele><time>2019-08-12T11:12:45Z</time></trkpt>
<trkpt lat="46.673071" lon="15.478704"><ele>432.2</ele><time>2019-08-12T11:12:45Z</time></trkpt>
<trkpt lat="46.673179" lon="15.478462"><ele>432.2</ele><time>2019-08-12T11:12:46Z</time></trkpt>
<trkpt lat="46.673589" lon="15.477995"><ele>441.4</ele><time>2019-08-12T11:12:49Z</time></trkpt>
<trkpt lat="46.673669" lon="15.477843"><ele>441.4</ele><time>2019-08-12T11:12:50Z</time></trkpt>
<trkpt lat="46.673719" lon="15.477669"><ele>441.4</ele><time>2019-08-12T11:12:51Z</time></trkpt>
<trkpt lat="46.673748" lon="15.477444"><ele>439.4</ele><time>2019-08-12T11:12:51Z</time></trkpt>
<trkpt lat="46.673702" lon="15.477089"><ele>439.4</ele><time>2019-08-12T11:12:53Z</time></trkpt>
<trkpt lat="46.673589" lon="15.476755"><ele>439.4</ele><time>2019-08-12T11:12:54Z</time></trkpt>
<trkpt lat="46.673405" lon="15.476401"><ele>439.8</ele><time>2019-08-12T11:12:55Z</time></trkpt>
<trkpt lat="46.673288" lon="15.476208"><ele>426.2</ele><time>2019-08-12T11:12:57Z</time></trkpt>
<trkpt lat="46.673176" lon="15.476068"><ele>426.2</ele><time>2019-08-12T11:12:57Z</time></trkpt>
<trkpt lat="46.672125" lon="15.474969"><ele>415.8</ele><time>2019-08-12T11:13:04Z</time></trkpt>
<trkpt lat="46.671476" lon="15.474212"><ele>397.4</ele><time>2019-08-12T11:13:08Z</time></trkpt>
<trkpt lat="46.671302" lon="15.473911"><ele>397.2</ele><time>2019-08-12T11:13:10Z</time></trkpt>
<trkpt lat="46.671227" lon="15.473667"><ele>397.2</ele><time>2019-08-12T11:13:11Z</time></trkpt>
<trkpt lat="46.671191" lon="15.473394"><ele>397.2</ele><time>2019-08-12T11:13:12Z</time></trkpt>
<trkpt lat="46.671198" lon="15.47321"><ele>391.0</ele><time>2019-08-12T11:13:12Z</time></trkpt>
<trkpt lat="46.671225" lon="15.473021"><ele>391.0</ele><time>2019-08-12T11:13:13Z</time></trkpt>
<trkpt lat="46.671328" lon="15.472744"><ele>391.0</ele><time>2019-08-12T11:13:14Z</time></trkpt>
<trkpt lat="46.671569" lon="15.472333"><ele>390.9</ele><time>2019-08-12T11:13:16Z</time></trkpt>
<trkpt lat="46.671569" lon="15.472333"><ele>390.9</ele><time>2019-08-12T11:13:16Z</time></trkpt>
<trkpt lat="46.671687" lon="15.472155"><ele>396.0</ele><time>2019-08-12T11:13:18Z</time></trkpt>
<trkpt lat="46.671763" lon="15.47198"><ele>396.0</ele><time>2019-08-12T11:13:20Z</time></trkpt>
<trkpt lat="46.671871" lon="15.471592"><ele>387.8</ele><time>2019-08-12T11:13:23Z</time></trkpt>
<trkpt lat="46.671984" lon="15.47097"><ele>387.8</ele><time>2019-08-12T11:13:27Z</time></trkpt>
<trkpt lat="46.672027" lon="15.47065"><ele>380.8</ele><time>2019-08-12T11:13:29Z</time></trkpt>
<trkpt lat="46.672049" lon="15.470333"><ele>380.8</ele><time>2019-08-12T11:13:31Z</time></trkpt>
<trkpt lat="46.672016" lon="15.469889"><ele>376.4</ele><time>2019-08-12T11:13:34Z</time></trkpt>
<trkpt lat="46.671945" lon="15.469567"><ele>376.4</ele><time>2019-08-12T11:13:37Z</time></trkpt>
<trkpt lat="46.671838" lon="15.469291"><ele>376.4</ele><time>2019-08-12T11:13:39Z</time></trkpt>
<trkpt lat="46.671643" lon="15.468975"><ele>367.6</ele><time>2019-08-12T11:13:42Z</time></trkpt>
<trkpt lat="46.671237" lon="15.468496"><ele>367.6</ele><time>2019-08-12T11:13:47Z</time></trkpt>
<trkpt lat="46.670917" lon="15.468191"><ele>359.2</ele><time>2019-08-12T11:13:51Z</time></trkpt>
<trkpt lat="46.670688" lon="15.468059"><ele>358.0</ele><time>2019-08-12T11:13:54Z</time></trkpt>
<trkpt lat="46.670518" lon="15.46804"><ele>358.0</ele><time>2019-08-12T11:13:55Z</time></trkpt>
<trkpt lat="46.670224" lon="15.468066"><ele>358.0</ele><time>2019-08-12T11:13:58Z</time></trkpt>
<trkpt lat="46.669866" lon="15.467977"><ele>357.8</ele><time>2019-08-12T11:14:02Z</time></trkpt>
<trkpt lat="46.669122" lon="15.467869"><ele>355.6</ele><time>2019-08-12T11:14:09Z</time></trkpt>
<trkpt lat="46.669193" lon="15.467651"><ele>357.8</ele><time>2019-08-12T11:14:12Z</time></trkpt>
<trkpt lat="46.669735" lon="15.467252"><ele>351.6</ele><time>2019-08-12T11:14:20Z</time></trkpt>
<trkpt lat="46.670104" lon="15.466812"><ele>352.0</ele><time>2019-08-12T11:14:26Z</time></trkpt>
<trkpt lat="46.670209" lon="15.466734"><ele>352.0</ele><time>2019-08-12T11:14:28Z</time></trkpt>
<trkpt lat="46.670323" lon="15.466701"><ele>352.0</ele><time>2019-08-12T11:14:29Z</time></trkpt>
<trkpt lat="46.67096" lon="15.466768"><ele>353.2</ele><time>2019-08-12T11:14:38Z</time></trkpt>
<trkpt lat="46.671052" lon="15.466769"><ele>353.2</ele><time>2019-08-12T11:14:39Z</time></trkpt>
<trkpt lat="46.671139" lon="15.466738"><ele>353.2</ele><time>2019-08-12T11:14:40Z</time></trkpt>
<trkpt lat="46.671231" lon="15.466655"><ele>354.4</ele><time>2019-08-12T11:14:41Z</time></trkpt>
<trkpt lat="46.671291" lon="15.46653"><ele>354.4</ele><time>2019-08-12T11:14:43Z</time></trkpt>
<trkpt lat="46.671359" lon="15.466255"><ele>354.4</ele><time>2019-08-12T11:14:45Z</time></trkpt>
<trkpt lat="46.671436" lon="15.466123"><ele>354.4</ele><time>2019-08-12T11:14:47Z</time></trkpt>
<trkpt lat="46.671852" lon="15.465742"><ele>360.2</ele><time>2019-08-12T11:14:54Z</time></trkpt>
<trkpt lat="46.671992" lon="15.465583"><ele>360.2</ele><time>2019-08-12T11:14:56Z</time></trkpt>
<trkpt lat="46.672077" lon="15.465279"><ele>360.2</ele><time>2019-08-12T11:15:00Z</time></trkpt>
<trkpt lat="46.672689" lon="15.464563"><ele>366.4</ele><time>2019-08-12T11:15:12Z</time></trkpt>
<trkpt lat="46.673326" lon="15.463692"><ele>381.8</ele><time>2019-08-12T11:15:25Z</time></trkpt>
<trkpt lat="46.673492" lon="15.463187"><ele>379.2</ele><time>2019-08-12T11:15:31Z</time></trkpt>
<trkpt lat="46.673993" lon="15.462315"><ele>389.0</ele><time>2019-08-12T11:15:43Z</time></trkpt>
<trkpt lat="46.674254" lon="15.461639"><ele>382.8</ele><time>2019-08-12T11:15:51Z</time></trkpt>
<trkpt lat="46.674353" lon="15.461057"><ele>382.8</ele><time>2019-08-12T11:15:58Z</time></trkpt>
<trkpt lat="46.674427" lon="15.460824"><ele>391.2</ele><time>2019-08-12T11:16:01Z</time></trkpt>
<trkpt lat="46.674557" lon="15.460559"><ele>391.2</ele><time>2019-08-12T11:16:04Z</time></trkpt>
<trkpt lat="46.674605" lon="15.460341"><ele>391.2</ele><time>2019-08-12T11:16:06Z</time></trkpt>
<trkpt lat="46.674633" lon="15.460129"><ele>391.2</ele><time>2019-08-12T11:16:09Z</time></trkpt>
<trkpt lat="46.674694" lon="15.459918"><ele>396.4</ele><time>2019-08-12T11:16:11Z</time></trkpt>
<trkpt lat="46.674782" lon="15.459741"><ele>396.4</ele><time>2019-08-12T11:16:14Z</time></trkpt>
<trkpt lat="46.675226" lon="15.459006"><ele>401.0</ele><time>2019-08-12T11:16:24Z</time></trkpt>
<trkpt lat="46.675437" lon="15.458593"><ele>401.0</ele><time>2019-08-12T11:16:29Z</time></trkpt>
<trkpt lat="46.675721" lon="15.457927"><ele>405.4</ele><time>2019-08-12T11:16:38Z</time></trkpt>
<trkpt lat="46.675827" lon="15.45775"><ele>405.4</ele><time>2019-08-12T11:16:40Z</time></trkpt>
<trkpt lat="46.676823" lon="15.457007"><ele>412.0</ele><time>2019-08-12T11:16:57Z</time></trkpt>
<trkpt lat="46.67707" lon="15.45686"><ele>412.0</ele><time>2019-08-12T11:17:01Z</time></trkpt>
<trkpt lat="46.677248" lon="15.456825"><ele>412.0</ele><time>2019-08-12T11:17:04Z</time></trkpt>
<trkpt lat="46.677778" lon="15.456836"><ele>407.6</ele><time>2019-08-12T11:17:12Z</time></trkpt>
<trkpt lat="46.677808" lon="15.456821"><ele>406.4</ele><time>2019-08-12T11:17:14Z</time></trkpt>
<trkpt lat="46.677808" lon="15.456821"><ele>406.4</ele><time>2019-08-12T11:17:14Z</time></trkpt>
<trkpt lat="46.678459" lon="15.456503"><ele>405.2</ele><time>2019-08-12T11:17:23Z</time></trkpt>
<trkpt lat="46.679212" lon="15.456388"><ele>405.0</ele><time>2019-08-12T11:17:33Z</time></trkpt>
<trkpt lat="46.679353" lon="15.456315"><ele>405.0</ele><time>2019-08-12T11:17:35Z</time></trkpt>
<trkpt lat="46.679611" lon="15.455795"><ele>413.0</ele><time>2019-08-12T11:17:40Z</time></trkpt>
<trkpt lat="46.679727" lon="15.455479"><ele>413.0</ele><time>2019-08-12T11:17:43Z</time></trkpt>
<trkpt lat="46.679867" lon="15.454905"><ele>414.0</ele><time>2019-08-12T11:17:49Z</time></trkpt>
<trkpt lat="46.680273" lon="15.454231"><ele>418.2</ele><time>2019-08-12T11:17:57Z</time></trkpt>
<trkpt lat="46.680435" lon="15.453893"><ele>423.8</ele><time>2019-08-12T11:18:01Z</time></trkpt>
<trkpt lat="46.680513" lon="15.453609"><ele>423.8</ele><time>2019-08-12T11:18:03Z</time></trkpt>
<trkpt lat="46.680543" lon="15.453398"><ele>423.8</ele><time>2019-08-12T11:18:05Z</time></trkpt>
<trkpt lat="46.680597" lon="15.453231"><ele>428.6</ele><time>2019-08-12T11:18:07Z</time></trkpt>
<trkpt lat="46.680709" lon="15.452976"><ele>428.6</ele><time>2019-08-12T11:18:10Z</time></trkpt>
<trkpt lat="46.68089" lon="15.452718"><ele>435.0</ele><time>2019-08-12T11:18:13Z</time></trkpt>
<trkpt lat="46.68107" lon="15.452555"><ele>435.0</ele><time>2019-08-12T11:18:16Z</time></trkpt>
<trkpt lat="46.681351" lon="15.452349"><ele>435.4</ele><time>2019-08-12T11:18:20Z</time></trkpt>
<trkpt lat="46.681447" lon="15.45232"><ele>435.4</ele><time>2019-08-12T11:18:21Z</time></trkpt>
<trkpt lat="46.681664" lon="15.452345"><ele>435.4</ele><time>2019-08-12T11:18:24Z</time></trkpt>
<trkpt lat="46.681744" lon="15.452397"><ele>449.0</ele><time>2019-08-12T11:18:26Z</time></trkpt>
<trkpt lat="46.681908" lon="15.452563"><ele>443.2</ele><time>2019-08-12T11:18:28Z</time></trkpt>
<trkpt lat="46.681985" lon="15.452606"><ele>443.2</ele><time>2019-08-12T11:18:29Z</time></trkpt>
<trkpt lat="46.682084" lon="15.452595"><ele>443.2</ele><time>2019-08-12T11:18:31Z</time></trkpt>
<trkpt lat="46.682345" lon="15.452515"><ele>443.2</ele><time>2019-08-12T11:18:34Z</time></trkpt>
<trkpt lat="46.682511" lon="15.452434"><ele>449.2</ele><time>2019-08-12T11:18:36Z</time></trkpt>
<trkpt lat="46.682592" lon="15.452257"><ele>449.2</ele><time>2019-08-12T11:18:38Z</time></trkpt>
<trkpt lat="46.682675" lon="15.451844"><ele>449.2</ele><time>2019-08-12T11:18:42Z</time></trkpt>
<trkpt lat="46.682783" lon="15.451547"><ele>456.2</ele><time>2019-08-12T11:18:45Z</time></trkpt>
<trkpt lat="46.682907" lon="15.451348"><ele>456.2</ele><time>2019-08-12T11:18:48Z</time></trkpt>
<trkpt lat="46.683179" lon="15.451144"><ele>456.2</ele><time>2019-08-12T11:18:51Z</time></trkpt>
<trkpt lat="46.683207" lon="15.451048"><ele>456.2</ele><time>2019-08-12T11:18:52Z</time></trkpt>
<trkpt lat="46.68323" lon="15.450366"><ele>459.8</ele><time>2019-08-12T11:18:58Z</time></trkpt>
<trkpt lat="46.68325" lon="15.450201"><ele>459.8</ele><time>2019-08-12T11:19:00Z</time></trkpt>
<trkpt lat="46.683327" lon="15.450006"><ele>459.8</ele><time>2019-08-12T11:19:02Z</time></trkpt>
<trkpt lat="46.683714" lon="15.449573"><ele>465.6</ele><time>2019-08-12T11:19:08Z</time></trkpt>
<trkpt lat="46.683957" lon="15.44943"><ele>465.6</ele><time>2019-08-12T11:19:12Z</time></trkpt>
<trkpt lat="46.684213" lon="15.449406"><ele>461.8</ele><time>2019-08-12T11:19:15Z</time></trkpt>
<trkpt lat="46.684847" lon="15.449486"><ele>461.8</ele><time>2019-08-12T11:19:23Z</time></trkpt>
<trkpt lat="46.685244" lon="15.449497"><ele>464.6</ele><time>2019-08-12T11:19:28Z</time></trkpt>
<trkpt lat="46.685669" lon="15.449401"><ele>464.6</ele><time>2019-08-12T11:19:34Z</time></trkpt>
<trkpt lat="46.686291" lon="15.449004"><ele>475.8</ele><time>2019-08-12T11:19:43Z</time></trkpt>
<trkpt lat="46.68662" lon="15.448832"><ele>475.8</ele><time>2019-08-12T11:19:47Z</time></trkpt>
<trkpt lat="46.686852" lon="15.448881"><ele>487.8</ele><time>2019-08-12T11:19:50Z</time></trkpt>
<trkpt lat="46.687133" lon="15.449065"><ele>487.8</ele><time>2019-08-12T11:19:54Z</time></trkpt>
<trkpt lat="46.687276" lon="15.449074"><ele>487.8</ele><time>2019-08-12T11:19:56Z</time></trkpt>
<trkpt lat="46.687502" lon="15.448955"><ele>490.2</ele><time>2019-08-12T11:19:59Z</time></trkpt>
<trkpt lat="46.687723" lon="15.448913"><ele>490.2</ele><time>2019-08-12T11:20:02Z</time></trkpt>
<trkpt lat="46.687885" lon="15.44895"><ele>490.2</ele><time>2019-08-12T11:20:04Z</time></trkpt>
<trkpt lat="46.688153" lon="15.449056"><ele>490.2</ele><time>2019-08-12T11:20:08Z</time></trkpt>
<trkpt lat="46.688401" lon="15.448897"><ele>489.8</ele><time>2019-08-12T11:20:11Z</time></trkpt>
<trkpt lat="46.688603" lon="15.448708"><ele>489.8</ele><time>2019-08-12T11:20:14Z</time></trkpt>
<trkpt lat="46.688774" lon="15.448664"><ele>489.8</ele><time>2019-08-12T11:20:17Z</time></trkpt>
<trkpt lat="46.689728" lon="15.448631"><ele>501.6</ele><time>2019-08-12T11:20:29Z</time></trkpt>
<trkpt lat="46.689908" lon="15.448553"><ele>501.6</ele><time>2019-08-12T11:20:31Z</time></trkpt>
<trkpt lat="46.690119" lon="15.44829"><ele>514.0</ele><time>2019-08-12T11:20:35Z</time></trkpt>
<trkpt lat="46.690318" lon="15.447888"><ele>514.0</ele><time>2019-08-12T11:20:40Z</time></trkpt>
<trkpt lat="46.690539" lon="15.447373"><ele>506.2</ele><time>2019-08-12T11:20:45Z</time></trkpt>
<trkpt lat="46.691047" lon="15.446788"><ele>517.2</ele><time>2019-08-12T11:20:54Z</time></trkpt>
<trkpt lat="46.691179" lon="15.44667"><ele>517.2</ele><time>2019-08-12T11:20:56Z</time></trkpt>
<trkpt lat="46.691278" lon="15.446756"><ele>517.2</ele><time>2019-08-12T11:20:57Z</time></trkpt>
<trkpt lat="46.69131" lon="15.446863"><ele>517.2</ele><time>2019-08-12T11:20:58Z</time></trkpt>
<trkpt lat="46.691283" lon="15.447281"><ele>517.2</ele><time>2019-08-12T11:21:02Z</time></trkpt>
<trkpt lat="46.691381" lon="15.447665"><ele>525.2</ele><time>2019-08-12T11:21:05Z</time></trkpt>
<trkpt lat="46.69171" lon="15.447799"><ele>525.0</ele><time>2019-08-12T11:21:09Z</time></trkpt>
<trkpt lat="46.692137" lon="15.448179"><ele>525.0</ele><time>2019-08-12T11:21:15Z</time></trkpt>
<trkpt lat="46.692355" lon="15.448312"><ele>525.0</ele><time>2019-08-12T11:21:17Z</time></trkpt>
<trkpt lat="46.692429" lon="15.448327"><ele>525.0</ele><time>2019-08-12T11:21:18Z</time></trkpt>
<trkpt lat="46.69263" lon="15.448199"><ele>526.4</ele><time>2019-08-12T11:21:21Z</time></trkpt>
<trkpt lat="46.692824" lon="15.447921"><ele>526.4</ele><time>2019-08-12T11:21:24Z</time></trkpt>
<trkpt lat="46.692923" lon="15.447829"><ele>526.4</ele><time>2019-08-12T11:21:25Z</time></trkpt>
<trkpt lat="46.693036" lon="15.447796"><ele>526.4</ele><time>2019-08-12T11:21:26Z</time></trkpt>
<trkpt lat="46.693175" lon="15.447814"><ele>526.4</ele><time>2019-08-12T11:21:28Z</time></trkpt>
<trkpt lat="46.693283" lon="15.447887"><ele>526.4</ele><time>2019-08-12T11:21:29Z</time></trkpt>
<trkpt lat="46.693571" lon="15.448311"><ele>523.6</ele><time>2019-08-12T11:21:34Z</time></trkpt>
<trkpt lat="46.693796" lon="15.448524"><ele>534.2</ele><time>2019-08-12T11:21:37Z</time></trkpt>
<trkpt lat="46.694088" lon="15.448653"><ele>534.2</ele><time>2019-08-12T11:21:41Z</time></trkpt>
<trkpt lat="46.694217" lon="15.448676"><ele>532.4</ele><time>2019-08-12T11:21:42Z</time></trkpt>
<trkpt lat="46.694437" lon="15.448632"><ele>532.4</ele><time>2019-08-12T11:21:45Z</time></trkpt>
<trkpt lat="46.694567" lon="15.448632"><ele>532.4</ele><time>2019-08-12T11:21:46Z</time></trkpt>
<trkpt lat="46.69462" lon="15.44866"><ele>532.4</ele><time>2019-08-12T11:21:47Z</time></trkpt>
<trkpt lat="46.69464" lon="15.448721"><ele>532.4</ele><time>2019-08-12T11:21:48Z</time></trkpt>
<trkpt lat="46.694624" lon="15.448808"><ele>532.4</ele><time>2019-08-12T11:21:49Z</time></trkpt>
<trkpt lat="46.694581" lon="15.448865"><ele>532.4</ele><time>2019-08-12T11:21:50Z</time></trkpt>
<trkpt lat="46.694434" lon="15.448942"><ele>532.4</ele><time>2019-08-12T11:21:52Z</time></trkpt>
<trkpt lat="46.694285" lon="15.449056"><ele>532.4</ele><time>2019-08-12T11:21:55Z</time></trkpt>
<trkpt lat="46.694067" lon="15.449304"><ele>540.6</ele><time>2019-08-12T11:21:59Z</time></trkpt>
<trkpt lat="46.693978" lon="15.449492"><ele>540.6</ele><time>2019-08-12T11:22:01Z</time></trkpt>
<trkpt lat="46.69394" lon="15.449756"><ele>540.6</ele><time>2019-08-12T11:22:04Z</time></trkpt>
<trkpt lat="46.693961" lon="15.450381"><ele>539.0</ele><time>2019-08-12T11:22:11Z</time></trkpt>
<trkpt lat="46.693916" lon="15.450656"><ele>539.0</ele><time>2019-08-12T11:22:14Z</time></trkpt>
<trkpt lat="46.69383" lon="15.450745"><ele>539.0</ele><time>2019-08-12T11:22:15Z</time></trkpt>
<trkpt lat="46.69375" lon="15.450753"><ele>539.0</ele><time>2019-08-12T11:22:17Z</time></trkpt>
<trkpt lat="46.693466" lon="15.450642"><ele>539.0</ele><time>2019-08-12T11:22:21Z</time></trkpt>
<trkpt lat="46.693313" lon="15.450636"><ele>550.2</ele><time>2019-08-12T11:22:24Z</time></trkpt>
<trkpt lat="46.693146" lon="15.450673"><ele>550.2</ele><time>2019-08-12T11:22:27Z</time></trkpt>
<trkpt lat="46.693014" lon="15.450755"><ele>550.2</ele><time>2019-08-12T11:22:29Z</time></trkpt>
<trkpt lat="46.692888" lon="15.450913"><ele>543.2</ele><time>2019-08-12T11:22:32Z</time></trkpt>
<trkpt lat="46.692754" lon="15.451262"><ele>543.2</ele><time>2019-08-12T11:22:36Z</time></trkpt>
<trkpt lat="46.692666" lon="15.451555"><ele>543.2</ele><time>2019-08-12T11:22:39Z</time></trkpt>
<trkpt lat="46.692616" lon="15.451853"><ele>532.0</ele><time>2019-08-12T11:22:43Z</time></trkpt>
<trkpt lat="46.69261" lon="15.45215"><ele>532.0</ele><time>2019-08-12T11:22:46Z</time></trkpt>
<trkpt lat="46.692623" lon="15.452606"><ele>526.0</ele><time>2019-08-12T11:22:51Z</time></trkpt>
<trkpt lat="46.69238" lon="15.453553"><ele>531.0</ele><time>2019-08-12T11:23:01Z</time></trkpt>
<trkpt lat="46.692203" lon="15.453828"><ele>531.0</ele><time>2019-08-12T11:23:05Z</time></trkpt>
<trkpt lat="46.691806" lon="15.45411"><ele>531.0</ele><time>2019-08-12T11:23:12Z</time></trkpt>
<trkpt lat="46.691719" lon="15.454219"><ele>531.0</ele><time>2019-08-12T11:23:14Z</time></trkpt>
<trkpt lat="46.691615" lon="15.454428"><ele>525.8</ele><time>2019-08-12T11:23:17Z</time></trkpt>
<trkpt lat="46.691544" lon="15.454737"><ele>525.8</ele><time>2019-08-12T11:23:20Z</time></trkpt>
<trkpt lat="46.691471" lon="15.4553"><ele>525.4</ele><time>2019-08-12T11:23:26Z</time></trkpt>
<trkpt lat="46.691379" lon="15.455772"><ele>525.4</ele><time>2019-08-12T11:23:31Z</time></trkpt>
<trkpt lat="46.691292" lon="15.456072"><ele>524.8</ele><time>2019-08-12T11:23:35Z</time></trkpt>
<trkpt lat="46.691165" lon="15.456394"><ele>524.8</ele><time>2019-08-12T11:23:39Z</time></trkpt>
<trkpt lat="46.690991" lon="15.456911"><ele>527.6</ele><time>2019-08-12T11:23:45Z</time></trkpt>
<trkpt lat="46.690985" lon="15.457073"><ele>527.6</ele><time>2019-08-12T11:23:46Z</time></trkpt>
<trkpt lat="46.691016" lon="15.45718"><ele>527.6</ele><time>2019-08-12T11:23:48Z</time></trkpt>
<trkpt lat="46.691071" lon="15.457243"><ele>527.6</ele><time>2019-08-12T11:23:49Z</time></trkpt>
<trkpt lat="46.691303" lon="15.457332"><ele>527.6</ele><time>2019-08-12T11:23:52Z</time></trkpt>
<trkpt lat="46.691496" lon="15.457456"><ele>527.6</ele><time>2019-08-12T11:23:56Z</time></trkpt>
<trkpt lat="46.691657" lon="15.457645"><ele>523.0</ele><time>2019-08-12T11:23:59Z</time></trkpt>
<trkpt lat="46.691796" lon="15.457856"><ele>519.4</ele><time>2019-08-12T11:24:02Z</time></trkpt>
<trkpt lat="46.691885" lon="15.458083"><ele>519.4</ele><time>2019-08-12T11:24:05Z</time></trkpt>
<trkpt lat="46.692057" lon="15.458367"><ele>514.6</ele><time>2019-08-12T11:24:09Z</time></trkpt>
<trkpt lat="46.692134" lon="15.458916"><ele>514.6</ele><time>2019-08-12T11:24:15Z</time></trkpt>
<trkpt lat="46.69226" lon="15.459502"><ele>513.8</ele><time>2019-08-12T11:24:21Z</time></trkpt>
<trkpt lat="46.692281" lon="15.45974"><ele>513.8</ele><time>2019-08-12T11:24:24Z</time></trkpt>
<trkpt lat="46.692429" lon="15.459631"><ele>513.8</ele><time>2019-08-12T11:24:27Z</time></trkpt>
<trkpt lat="46.692585" lon="15.459573"><ele>524.6</ele><time>2019-08-12T11:24:30Z</time></trkpt>
<trkpt lat="46.693" lon="15.459093"><ele>515.8</ele><time>2019-08-12T11:24:40Z</time></trkpt>
<trkpt lat="46.693101" lon="15.459027"><ele>515.8</ele><time>2019-08-12T11:24:42Z</time></trkpt>
<trkpt lat="46.693239" lon="15.459013"><ele>515.8</ele><time>2019-08-12T11:24:44Z</time></trkpt>
<trkpt lat="46.693375" lon="15.459027"><ele>526.4</ele><time>2019-08-12T11:24:47Z</time></trkpt>
<trkpt lat="46.693839" lon="15.459288"><ele>535.6</ele><time>2019-08-12T11:24:57Z</time></trkpt>
<trkpt lat="46.693959" lon="15.459321"><ele>535.6</ele><time>2019-08-12T11:24:59Z</time></trkpt>
<trkpt lat="46.694099" lon="15.459329"><ele>535.6</ele><time>2019-08-12T11:25:01Z</time></trkpt>
<trkpt lat="46.694245" lon="15.45929"><ele>538.0</ele><time>2019-08-12T11:25:04Z</time></trkpt>
<trkpt lat="46.694419" lon="15.459214"><ele>538.0</ele><time>2019-08-12T11:25:07Z</time></trkpt>
<trkpt lat="46.694593" lon="15.459003"><ele>535.2</ele><time>2019-08-12T11:25:12Z</time></trkpt>
<trkpt lat="46.694699" lon="15.458784"><ele>535.2</ele><time>2019-08-12T11:25:15Z</time></trkpt>
<trkpt lat="46.694699" lon="15.458784"><ele>535.2</ele><time>2019-08-12T11:25:15Z</time></trkpt>
<trkpt lat="46.694847" lon="15.45848"><ele>535.2</ele><time>2019-08-12T11:25:20Z</time></trkpt>
<trkpt lat="46.694936" lon="15.458435"><ele>535.2</ele><time>2019-08-12T11:25:21Z</time></trkpt>
<trkpt lat="46.695035" lon="15.458465"><ele>529.0</ele><time>2019-08-12T11:25:24Z</time></trkpt>
<trkpt lat="46.695453" lon="15.458844"><ele>529.0</ele><time>2019-08-12T11:25:33Z</time></trkpt>
<trkpt lat="46.69562" lon="15.458938"><ele>529.0</ele><time>2019-08-12T11:25:36Z</time></trkpt>
<trkpt lat="46.695897" lon="15.458978"><ele>532.0</ele><time>2019-08-12T11:25:41Z</time></trkpt>
<trkpt lat="46.696288" lon="15.458911"><ele>532.0</ele><time>2019-08-12T11:25:48Z</time></trkpt>
<trkpt lat="46.696572" lon="15.458938"><ele>532.0</ele><time>2019-08-12T11:25:54Z</time></trkpt>
<trkpt lat="46.696732" lon="15.459033"><ele>533.4</ele><time>2019-08-12T11:25:57Z</time></trkpt>
<trkpt lat="46.696814" lon="15.459163"><ele>533.4</ele><time>2019-08-12T11:25:59Z</time></trkpt>
<trkpt lat="46.696847" lon="15.459297"><ele>536.6</ele><time>2019-08-12T11:26:01Z</time></trkpt>
<trkpt lat="46.696856" lon="15.459528"><ele>536.6</ele><time>2019-08-12T11:26:04Z</time></trkpt>
<trkpt lat="46.696819" lon="15.459753"><ele>536.6</ele><time>2019-08-12T11:26:07Z</time></trkpt>
<trkpt lat="46.696735" lon="15.460121"><ele>537.2</ele><time>2019-08-12T11:26:12Z</time></trkpt>
<trkpt lat="46.696741" lon="15.460274"><ele>537.2</ele><time>2019-08-12T11:26:14Z</time></trkpt>
<trkpt lat="46.696785" lon="15.460438"><ele>537.2</ele><time>2019-08-12T11:26:16Z</time></trkpt>
<trkpt lat="46.696887" lon="15.460678"><ele>537.2</ele><time>2019-08-12T11:26:19Z</time></trkpt>
<trkpt lat="46.696994" lon="15.460812"><ele>537.2</ele><time>2019-08-12T11:26:22Z</time></trkpt>
<trkpt lat="46.697167" lon="15.460956"><ele>537.2</ele><time>2019-08-12T11:26:26Z</time></trkpt>
<trkpt lat="46.697469" lon="15.461109"><ele>537.2</ele><time>2019-08-12T11:26:31Z</time></trkpt>
<trkpt lat="46.69761" lon="15.461119"><ele>539.4</ele><time>2019-08-12T11:26:34Z</time></trkpt>
<trkpt lat="46.698049" lon="15.461081"><ele>539.4</ele><time>2019-08-12T11:26:42Z</time></trkpt>
<trkpt lat="46.698202" lon="15.461092"><ele>539.4</ele><time>2019-08-12T11:26:45Z</time></trkpt>
<trkpt lat="46.698389" lon="15.461181"><ele>538.0</ele><time>2019-08-12T11:26:49Z</time></trkpt>
<trkpt lat="46.698523" lon="15.461304"><ele>538.0</ele><time>2019-08-12T11:26:52Z</time></trkpt>
<trkpt lat="46.698912" lon="15.461935"><ele>537.8</ele><time>2019-08-12T11:27:02Z</time></trkpt>
<trkpt lat="46.699381" lon="15.462446"><ele>545.8</ele><time>2019-08-12T11:27:13Z</time></trkpt>
<trkpt lat="46.699721" lon="15.462721"><ele>543.4</ele><time>2019-08-12T11:27:20Z</time></trkpt>
<trkpt lat="46.699867" lon="15.462769"><ele>543.4</ele><time>2019-08-12T11:27:23Z</time></trkpt>
<trkpt lat="46.700134" lon="15.462756"><ele>555.6</ele><time>2019-08-12T11:27:29Z</time></trkpt>
<trkpt lat="46.700532" lon="15.463092"><ele>555.6</ele><time>2019-08-12T11:27:43Z</time></trkpt>
<trkpt lat="46.700679" lon="15.463136"><ele>555.6</ele><time>2019-08-12T11:27:47Z</time></trkpt>
<trkpt lat="46.700906" lon="15.463104"><ele>553.4</ele><time>2019-08-12T11:27:54Z</time></trkpt>
<trkpt lat="46.701062" lon="15.463139"><ele>553.4</ele><time>2019-08-12T11:27:59Z</time></trkpt>
<trkpt lat="46.701217" lon="15.463302"><ele>553.4</ele><time>2019-08-12T11:28:05Z</time></trkpt>
<trkpt lat="46.701272" lon="15.463329"><ele>553.4</ele><time>2019-08-12T11:28:07Z</time></trkpt>
<trkpt lat="46.701224" lon="15.463033"><ele>553.4</ele><time>2019-08-12T11:28:11Z</time></trkpt>
<trkpt lat="46.701218" lon="15.462721"><ele>553.4</ele><time>2019-08-12T11:28:15Z</time></trkpt>
<trkpt lat="46.701253" lon="15.462574"><ele>553.4</ele><time>2019-08-12T11:28:17Z</time></trkpt>
<trkpt lat="46.701409" lon="15.462232"><ele>558.8</ele><time>2019-08-12T11:28:22Z</time></trkpt>
<trkpt lat="46.701508" lon="15.461757"><ele>558.8</ele><time>2019-08-12T11:28:28Z</time></trkpt>
<trkpt lat="46.701666" lon="15.461425"><ele>556.8</ele><time>2019-08-12T11:28:33Z</time></trkpt>
<trkpt lat="46.701684" lon="15.461303"><ele>555.2</ele><time>2019-08-12T11:28:35Z</time></trkpt>
<trkpt lat="46.701847" lon="15.461208"><ele>555.2</ele><time>2019-08-12T11:28:38Z</time></trkpt>
<trkpt lat="46.70206" lon="15.461003"><ele>555.2</ele><time>2019-08-12T11:28:43Z</time></trkpt>
<trkpt lat="46.702406" lon="15.460908"><ele>555.2</ele><time>2019-08-12T11:28:49Z</time></trkpt>
<trkpt lat="46.702582" lon="15.460843"><ele>557.4</ele><time>2019-08-12T11:28:53Z</time></trkpt>
<trkpt lat="46.702707" lon="15.460763"><ele>563.8</ele><time>2019-08-12T11:28:56Z</time></trkpt>
<trkpt lat="46.703257" lon="15.460227"><ele>563.8</ele><time>2019-08-12T11:29:08Z</time></trkpt>
<trkpt lat="46.703471" lon="15.459991"><ele>579.8</ele><time>2019-08-12T11:29:13Z</time></trkpt>
<trkpt lat="46.703537" lon="15.459842"><ele>579.8</ele><time>2019-08-12T11:29:16Z</time></trkpt>
<trkpt lat="46.703559" lon="15.45969"><ele>579.8</ele><time>2019-08-12T11:29:18Z</time></trkpt>
<trkpt lat="46.703606" lon="15.458626"><ele>579.0</ele><time>2019-08-12T11:29:31Z</time></trkpt>
<trkpt lat="46.703625" lon="15.458453"><ele>579.0</ele><time>2019-08-12T11:29:33Z</time></trkpt>
<trkpt lat="46.703747" lon="15.458311"><ele>571.6</ele><time>2019-08-12T11:29:36Z</time></trkpt>
<trkpt lat="46.703931" lon="15.458152"><ele>571.6</ele><time>2019-08-12T11:29:40Z</time></trkpt>
<trkpt lat="46.704102" lon="15.458118"><ele>571.6</ele><time>2019-08-12T11:29:43Z</time></trkpt>
<trkpt lat="46.70422" lon="15.458195"><ele>567.6</ele><time>2019-08-12T11:29:46Z</time></trkpt>
<trkpt lat="46.7044" lon="15.458933"><ele>574.2</ele><time>2019-08-12T11:29:56Z</time></trkpt>
<trkpt lat="46.704621" lon="15.459549"><ele>580.2</ele><time>2019-08-12T11:30:05Z</time></trkpt>
<trkpt lat="46.704796" lon="15.459898"><ele>580.2</ele><time>2019-08-12T11:30:10Z</time></trkpt>
<trkpt lat="46.704963" lon="15.460069"><ele>579.2</ele><time>2019-08-12T11:30:14Z</time></trkpt>
<trkpt lat="46.705154" lon="15.460058"><ele>585.6</ele><time>2019-08-12T11:30:18Z</time></trkpt>
<trkpt lat="46.705364" lon="15.459964"><ele>583.8</ele><time>2019-08-12T11:30:22Z</time></trkpt>
<trkpt lat="46.705625" lon="15.459801"><ele>583.8</ele><time>2019-08-12T11:30:27Z</time></trkpt>
<trkpt lat="46.705962" lon="15.45966"><ele>588.4</ele><time>2019-08-12T11:30:33Z</time></trkpt>
<trkpt lat="46.7067" lon="15.459475"><ele>593.6</ele><time>2019-08-12T11:30:47Z</time></trkpt>
<trkpt lat="46.707096" lon="15.459412"><ele>593.6</ele><time>2019-08-12T11:30:55Z</time></trkpt>
<trkpt lat="46.707743" lon="15.459252"><ele>605.0</ele><time>2019-08-12T11:31:07Z</time></trkpt>
<trkpt lat="46.708244" lon="15.458986"><ele>598.4</ele><time>2019-08-12T11:31:17Z</time></trkpt>
<trkpt lat="46.708709" lon="15.459044"><ele>604.4</ele><time>2019-08-12T11:31:25Z</time></trkpt>
<trkpt lat="46.708709" lon="15.459044"><ele>604.4</ele><time>2019-08-12T11:31:25Z</time></trkpt>
<trkpt lat="46.708957" lon="15.459077"><ele>604.4</ele><time>2019-08-12T11:31:30Z</time></trkpt>
<trkpt lat="46.709276" lon="15.458968"><ele>609.8</ele><time>2019-08-12T11:31:36Z</time></trkpt>
<trkpt lat="46.710389" lon="15.458382"><ele>611.8</ele><time>2019-08-12T11:31:58Z</time></trkpt>
<trkpt lat="46.711543" lon="15.457639"><ele>594.8</ele><time>2019-08-12T11:32:21Z</time></trkpt>
<trkpt lat="46.711813" lon="15.457572"><ele>579.2</ele><time>2019-08-12T11:32:27Z</time></trkpt>
<trkpt lat="46.712055" lon="15.457583"><ele>579.2</ele><time>2019-08-12T11:32:31Z</time></trkpt>
<trkpt lat="46.712306" lon="15.457703"><ele>579.2</ele><time>2019-08-12T11:32:36Z</time></trkpt>
<trkpt lat="46.712275" lon="15.457759"><ele>579.2</ele><time>2019-08-12T11:32:37Z</time></trkpt>
<trkpt lat="46.71196" lon="15.458079"><ele>579.2</ele><time>2019-08-12T11:32:41Z</time></trkpt>
<trkpt lat="46.711822" lon="15.45835"><ele>575.0</ele><time>2019-08-12T11:32:44Z</time></trkpt>
<trkpt lat="46.711761" lon="15.458793"><ele>575.0</ele><time>2019-08-12T11:32:48Z</time></trkpt>
<trkpt lat="46.711853" lon="15.459372"><ele>566.0</ele><time>2019-08-12T11:32:52Z</time></trkpt>
<trkpt lat="46.712083" lon="15.460118"><ele>563.6</ele><time>2019-08-12T11:32:59Z</time></trkpt>
<trkpt lat="46.712264" lon="15.46034"><ele>563.6</ele><time>2019-08-12T11:33:01Z</time></trkpt>
<trkpt lat="46.712383" lon="15.460442"><ele>563.6</ele><time>2019-08-12T11:33:03Z</time></trkpt>
<trkpt lat="46.712785" lon="15.460897"><ele>553.4</ele><time>2019-08-12T11:33:09Z</time></trkpt>
<trkpt lat="46.713036" lon="15.461213"><ele>553.4</ele><time>2019-08-12T11:33:13Z</time></trkpt>
<trkpt lat="46.713289" lon="15.461337"><ele>553.4</ele><time>2019-08-12T11:33:16Z</time></trkpt>
<trkpt lat="46.713661" lon="15.461349"><ele>538.0</ele><time>2019-08-12T11:33:20Z</time></trkpt>
<trkpt lat="46.715234" lon="15.461891"><ele>529.8</ele><time>2019-08-12T11:33:39Z</time></trkpt>
<trkpt lat="46.715547" lon="15.462153"><ele>529.8</ele><time>2019-08-12T11:33:43Z</time></trkpt>
<trkpt lat="46.715972" lon="15.462558"><ele>539.2</ele><time>2019-08-12T11:33:49Z</time></trkpt>
<trkpt lat="46.715999" lon="15.462647"><ele>539.2</ele><time>2019-08-12T11:33:50Z</time></trkpt>
<trkpt lat="46.71601" lon="15.463272"><ele>539.2</ele><time>2019-08-12T11:33:55Z</time></trkpt>
<trkpt lat="46.716039" lon="15.463709"><ele>543.2</ele><time>2019-08-12T11:33:58Z</time></trkpt>
<trkpt lat="46.716131" lon="15.464369"><ele>537.2</ele><time>2019-08-12T11:34:04Z</time></trkpt>
<trkpt lat="46.716141" lon="15.464692"><ele>537.2</ele><time>2019-08-12T11:34:06Z</time></trkpt>
<trkpt lat="46.716175" lon="15.46491"><ele>537.2</ele><time>2019-08-12T11:34:08Z</time></trkpt>
<trkpt lat="46.716398" lon="15.465578"><ele>527.0</ele><time>2019-08-12T11:34:14Z</time></trkpt>
<trkpt lat="46.716488" lon="15.465797"><ele>527.0</ele><time>2019-08-12T11:34:16Z</time></trkpt>
<trkpt lat="46.716548" lon="15.465858"><ele>514.8</ele><time>2019-08-12T11:34:18Z</time></trkpt>
<trkpt lat="46.716679" lon="15.465902"><ele>511.6</ele><time>2019-08-12T11:34:19Z</time></trkpt>
<trkpt lat="46.71678" lon="15.465868"><ele>511.6</ele><time>2019-08-12T11:34:20Z</time></trkpt>
<trkpt lat="46.717052" lon="15.465712"><ele>519.8</ele><time>2019-08-12T11:34:24Z</time></trkpt>
<trkpt lat="46.717279" lon="15.465688"><ele>519.8</ele><time>2019-08-12T11:34:26Z</time></trkpt>
<trkpt lat="46.717364" lon="15.465636"><ele>519.8</ele><time>2019-08-12T11:34:27Z</time></trkpt>
<trkpt lat="46.717388" lon="15.465536"><ele>519.8</ele><time>2019-08-12T11:34:28Z</time></trkpt>
<trkpt lat="46.717365" lon="15.465209"><ele>519.8</ele><time>2019-08-12T11:34:31Z</time></trkpt>
<trkpt lat="46.717441" lon="15.464727"><ele>531.2</ele><time>2019-08-12T11:34:35Z</time></trkpt>
<trkpt lat="46.71755" lon="15.464331"><ele>505.0</ele><time>2019-08-12T11:34:39Z</time></trkpt>
<trkpt lat="46.717628" lon="15.464151"><ele>521.2</ele><time>2019-08-12T11:34:42Z</time></trkpt>
<trkpt lat="46.717789" lon="15.463957"><ele>521.2</ele><time>2019-08-12T11:34:44Z</time></trkpt>
<trkpt lat="46.718048" lon="15.4638"><ele>521.2</ele><time>2019-08-12T11:34:47Z</time></trkpt>
<trkpt lat="46.718529" lon="15.463648"><ele>494.4</ele><time>2019-08-12T11:34:54Z</time></trkpt>
<trkpt lat="46.718646" lon="15.463564"><ele>494.4</ele><time>2019-08-12T11:34:55Z</time></trkpt>
<trkpt lat="46.718947" lon="15.462769"><ele>503.2</ele><time>2019-08-12T11:35:02Z</time></trkpt>
<trkpt lat="46.719116" lon="15.462653"><ele>503.2</ele><time>2019-08-12T11:35:04Z</time></trkpt>
<trkpt lat="46.719298" lon="15.462673"><ele>488.0</ele><time>2019-08-12T11:35:07Z</time></trkpt>
<trkpt lat="46.719974" lon="15.463212"><ele>488.0</ele><time>2019-08-12T11:35:16Z</time></trkpt>
<trkpt lat="46.720554" lon="15.463535"><ele>478.4</ele><time>2019-08-12T11:35:23Z</time></trkpt>
<trkpt lat="46.72158" lon="15.463991"><ele>473.0</ele><time>2019-08-12T11:35:36Z</time></trkpt>
<trkpt lat="46.721784" lon="15.464009"><ele>462.6</ele><time>2019-08-12T11:35:38Z</time></trkpt>
<trkpt lat="46.722033" lon="15.463966"><ele>462.6</ele><time>2019-08-12T11:35:41Z</time></trkpt>
<trkpt lat="46.722113" lon="15.463995"><ele>462.6</ele><time>2019-08-12T11:35:42Z</time></trkpt>
<trkpt lat="46.722436" lon="15.464311"><ele>467.8</ele><time>2019-08-12T11:35:46Z</time></trkpt>
<trkpt lat="46.722524" lon="15.464432"><ele>455.4</ele><time>2019-08-12T11:35:48Z</time></trkpt>
<trkpt lat="46.722786" lon="15.464902"><ele>455.4</ele><time>2019-08-12T11:35:53Z</time></trkpt>
<trkpt lat="46.722984" lon="15.465082"><ele>462.0</ele><time>2019-08-12T11:35:56Z</time></trkpt>
<trkpt lat="46.723233" lon="15.465092"><ele>462.0</ele><time>2019-08-12T11:35:59Z</time></trkpt>
<trkpt lat="46.723691" lon="15.464925"><ele>443.0</ele><time>2019-08-12T11:36:05Z</time></trkpt>
<trkpt lat="46.724183" lon="15.464781"><ele>436.6</ele><time>2019-08-12T11:36:10Z</time></trkpt>
<trkpt lat="46.724421" lon="15.464627"><ele>436.6</ele><time>2019-08-12T11:36:13Z</time></trkpt>
<trkpt lat="46.724648" lon="15.464607"><ele>436.6</ele><time>2019-08-12T11:36:16Z</time></trkpt>
<trkpt lat="46.724872" lon="15.464646"><ele>436.6</ele><time>2019-08-12T11:36:19Z</time></trkpt>
<trkpt lat="46.725446" lon="15.464613"><ele>433.6</ele><time>2019-08-12T11:36:25Z</time></trkpt>
<trkpt lat="46.725446" lon="15.464613"><ele>433.6</ele><time>2019-08-12T11:36:25Z</time></trkpt>
<trkpt lat="46.725511" lon="15.464609"><ele>430.6</ele><time>2019-08-12T11:36:26Z</time></trkpt>
<trkpt lat="46.725727" lon="15.46466"><ele>430.6</ele><time>2019-08-12T11:36:29Z</time></trkpt>
<trkpt lat="46.726039" lon="15.464891"><ele>424.8</ele><time>2019-08-12T11:36:33Z</time></trkpt>
<trkpt lat="46.726372" lon="15.465036"><ele>431.4</ele><time>2019-08-12T11:36:37Z</time></trkpt>
<trkpt lat="46.726444" lon="15.465088"><ele>431.4</ele><time>2019-08-12T11:36:38Z</time></trkpt>
<trkpt lat="46.726501" lon="15.465187"><ele>431.4</ele><time>2019-08-12T11:36:39Z</time></trkpt>
<trkpt lat="46.726564" lon="15.465557"><ele>431.4</ele><time>2019-08-12T11:36:42Z</time></trkpt>
<trkpt lat="46.726625" lon="15.465738"><ele>431.4</ele><time>2019-08-12T11:36:43Z</time></trkpt>
<trkpt lat="46.726708" lon="15.465918"><ele>423.2</ele><time>2019-08-12T11:36:45Z</time></trkpt>
<trkpt lat="46.726867" lon="15.466111"><ele>423.2</ele><time>2019-08-12T11:36:48Z</time></trkpt>
<trkpt lat="46.727198" lon="15.466274"><ele>423.2</ele><time>2019-08-12T11:36:52Z</time></trkpt>
<trkpt lat="46.727443" lon="15.466203"><ele>423.2</ele><time>2019-08-12T11:36:55Z</time></trkpt>
<trkpt lat="46.727836" lon="15.465975"><ele>416.2</ele><time>2019-08-12T11:37:00Z</time></trkpt>
<trkpt lat="46.728442" lon="15.465907"><ele>401.4</ele><time>2019-08-12T11:37:07Z</time></trkpt>
<trkpt lat="46.728513" lon="15.465939"><ele>401.4</ele><time>2019-08-12T11:37:08Z</time></trkpt>
<trkpt lat="46.728565" lon="15.466047"><ele>401.4</ele><time>2019-08-12T11:37:09Z</time></trkpt>
<trkpt lat="46.728658" lon="15.466146"><ele>401.4</ele><time>2019-08-12T11:37:10Z</time></trkpt>
<trkpt lat="46.728775" lon="15.466209"><ele>401.4</ele><time>2019-08-12T11:37:11Z</time></trkpt>
<trkpt lat="46.728954" lon="15.466254"><ele>401.4</ele><time>2019-08-12T11:37:13Z</time></trkpt>
<trkpt lat="46.729092" lon="15.466243"><ele>401.4</ele><time>2019-08-12T11:37:15Z</time></trkpt>
<trkpt lat="46.729326" lon="15.466163"><ele>388.0</ele><time>2019-08-12T11:37:18Z</time></trkpt>
<trkpt lat="46.729503" lon="15.466369"><ele>388.0</ele><time>2019-08-12T11:37:22Z</time></trkpt>
<trkpt lat="46.729634" lon="15.466587"><ele>388.0</ele><time>2019-08-12T11:37:26Z</time></trkpt>
<trkpt lat="46.729754" lon="15.466843"><ele>389.8</ele><time>2019-08-12T11:37:30Z</time></trkpt>
<trkpt lat="46.729979" lon="15.467188"><ele>389.8</ele><time>2019-08-12T11:37:36Z</time></trkpt>
<trkpt lat="46.730942" lon="15.46813"><ele>379.8</ele><time>2019-08-12T11:37:57Z</time></trkpt>
<trkpt lat="46.731329" lon="15.468482"><ele>384.8</ele><time>2019-08-12T11:38:06Z</time></trkpt>
<trkpt lat="46.732079" lon="15.468085"><ele>382.6</ele><time>2019-08-12T11:38:17Z</time></trkpt>
<trkpt lat="46.732283" lon="15.467941"><ele>382.6</ele><time>2019-08-12T11:38:21Z</time></trkpt>
<trkpt lat="46.732384" lon="15.467826"><ele>382.6</ele><time>2019-08-12T11:38:23Z</time></trkpt>
<trkpt lat="46.732947" lon="15.467655"><ele>390.6</ele><time>2019-08-12T11:38:31Z</time></trkpt>
<trkpt lat="46.733136" lon="15.467572"><ele>390.6</ele><time>2019-08-12T11:38:34Z</time></trkpt>
<trkpt lat="46.733543" lon="15.467319"><ele>392.6</ele><time>2019-08-12T11:38:40Z</time></trkpt>
<trkpt lat="46.733667" lon="15.467274"><ele>392.6</ele><time>2019-08-12T11:38:42Z</time></trkpt>
<trkpt lat="46.733817" lon="15.467307"><ele>392.6</ele><time>2019-08-12T11:38:44Z</time></trkpt>
<trkpt lat="46.73394" lon="15.467362"><ele>392.6</ele><time>2019-08-12T11:38:46Z</time></trkpt>
<trkpt lat="46.734735" lon="15.468029"><ele>387.2</ele><time>2019-08-12T11:39:00Z</time></trkpt>
<trkpt lat="46.734984" lon="15.468209"><ele>387.2</ele><time>2019-08-12T11:39:04Z</time></trkpt>
<trkpt lat="46.735235" lon="15.46834"><ele>384.2</ele><time>2019-08-12T11:39:08Z</time></trkpt>
<trkpt lat="46.735742" lon="15.468436"><ele>384.2</ele><time>2019-08-12T11:39:15Z</time></trkpt>
<trkpt lat="46.736238" lon="15.468389"><ele>386.2</ele><time>2019-08-12T11:39:22Z</time></trkpt>
<trkpt lat="46.736339" lon="15.468414"><ele>386.2</ele><time>2019-08-12T11:39:24Z</time></trkpt>
<trkpt lat="46.736425" lon="15.468471"><ele>386.2</ele><time>2019-08-12T11:39:25Z</time></trkpt>
<trkpt lat="46.736684" lon="15.468895"><ele>379.6</ele><time>2019-08-12T11:39:31Z</time></trkpt>
<trkpt lat="46.736877" lon="15.469098"><ele>379.6</ele><time>2019-08-12T11:39:34Z</time></trkpt>
<trkpt lat="46.737055" lon="15.469222"><ele>383.8</ele><time>2019-08-12T11:39:37Z</time></trkpt>
<trkpt lat="46.73722" lon="15.469292"><ele>383.8</ele><time>2019-08-12T11:39:40Z</time></trkpt>
<trkpt lat="46.737374" lon="15.469431"><ele>383.8</ele><time>2019-08-12T11:39:42Z</time></trkpt>
<trkpt lat="46.737767" lon="15.469843"><ele>378.2</ele><time>2019-08-12T11:39:49Z</time></trkpt>
<trkpt lat="46.738051" lon="15.470066"><ele>384.4</ele><time>2019-08-12T11:39:54Z</time></trkpt>
<trkpt lat="46.73818" lon="15.470245"><ele>384.4</ele><time>2019-08-12T11:39:57Z</time></trkpt>
<trkpt lat="46.738637" lon="15.47105"><ele>378.2</ele><time>2019-08-12T11:40:07Z</time></trkpt>
<trkpt lat="46.739067" lon="15.471431"><ele>378.2</ele><time>2019-08-12T11:40:14Z</time></trkpt>
<trkpt lat="46.739253" lon="15.471782"><ele>373.4</ele><time>2019-08-12T11:40:19Z</time></trkpt>
<trkpt lat="46.739386" lon="15.472335"><ele>373.4</ele><time>2019-08-12T11:40:25Z</time></trkpt>
<trkpt lat="46.739523" lon="15.472554"><ele>381.8</ele><time>2019-08-12T11:40:28Z</time></trkpt>
<trkpt lat="46.739704" lon="15.472763"><ele>381.8</ele><time>2019-08-12T11:40:31Z</time></trkpt>
<trkpt lat="46.74024" lon="15.473054"><ele>375.0</ele><time>2019-08-12T11:40:40Z</time></trkpt>
<trkpt lat="46.74024" lon="15.473054"><ele>375.0</ele><time>2019-08-12T11:40:40Z</time></trkpt>
<trkpt lat="46.740388" lon="15.473122"><ele>375.0</ele><time>2019-08-12T11:40:42Z</time></trkpt>
<trkpt lat="46.740675" lon="15.473125"><ele>375.0</ele><time>2019-08-12T11:40:46Z</time></trkpt>
<trkpt lat="46.741153" lon="15.473004"><ele>370.6</ele><time>2019-08-12T11:40:51Z</time></trkpt>
<trkpt lat="46.741296" lon="15.472921"><ele>370.6</ele><time>2019-08-12T11:40:53Z</time></trkpt>
<trkpt lat="46.741319" lon="15.473092"><ele>370.6</ele><time>2019-08-12T11:40:54Z</time></trkpt>
<trkpt lat="46.741296" lon="15.473259"><ele>370.6</ele><time>2019-08-12T11:40:56Z</time></trkpt>
<trkpt lat="46.741152" lon="15.473713"><ele>365.4</ele><time>2019-08-12T11:41:00Z</time></trkpt>
<trkpt lat="46.741097" lon="15.47404"><ele>365.4</ele><time>2019-08-12T11:41:02Z</time></trkpt>
<trkpt lat="46.740956" lon="15.47515"><ele>360.2</ele><time>2019-08-12T11:41:11Z</time></trkpt>
<trkpt lat="46.740882" lon="15.47542"><ele>360.2</ele><time>2019-08-12T11:41:13Z</time></trkpt>
<trkpt lat="46.740821" lon="15.475494"><ele>370.0</ele><time>2019-08-12T11:41:15Z</time></trkpt>
<trkpt lat="46.740751" lon="15.475529"><ele>370.0</ele><time>2019-08-12T11:41:16Z</time></trkpt>
<trkpt lat="46.74042" lon="15.475554"><ele>370.0</ele><time>2019-08-12T11:41:20Z</time></trkpt>
<trkpt lat="46.740271" lon="15.475616"><ele>370.0</ele><time>2019-08-12T11:41:21Z</time></trkpt>
<trkpt lat="46.740129" lon="15.475765"><ele>370.0</ele><time>2019-08-12T11:41:23Z</time></trkpt>
<trkpt lat="46.739696" lon="15.476379"><ele>363.6</ele><time>2019-08-12T11:41:30Z</time></trkpt>
<trkpt lat="46.739215" lon="15.477206"><ele>359.2</ele><time>2019-08-12T11:41:39Z</time></trkpt>
<trkpt lat="46.739051" lon="15.477414"><ele>357.0</ele><time>2019-08-12T11:41:41Z</time></trkpt>
<trkpt lat="46.738851" lon="15.477705"><ele>361.8</ele><time>2019-08-12T11:41:45Z</time></trkpt>
<trkpt lat="46.738784" lon="15.478029"><ele>361.8</ele><time>2019-08-12T11:41:48Z</time></trkpt>
<trkpt lat="46.738826" lon="15.478314"><ele>361.8</ele><time>2019-08-12T11:41:51Z</time></trkpt>
<trkpt lat="46.738891" lon="15.478566"><ele>372.4</ele><time>2019-08-12T11:41:53Z</time></trkpt>
<trkpt lat="46.739062" lon="15.478957"><ele>372.4</ele><time>2019-08-12T11:41:57Z</time></trkpt>
<trkpt lat="46.73925" lon="15.479278"><ele>374.2</ele><time>2019-08-12T11:42:01Z</time></trkpt>
<trkpt lat="46.73954" lon="15.479441"><ele>374.2</ele><time>2019-08-12T11:42:05Z</time></trkpt>
<trkpt lat="46.739593" lon="15.479558"><ele>374.2</ele><time>2019-08-12T11:42:06Z</time></trkpt>
<trkpt lat="46.739625" lon="15.479706"><ele>374.2</ele><time>2019-08-12T11:42:08Z</time></trkpt>
<trkpt lat="46.739561" lon="15.480166"><ele>379.6</ele><time>2019-08-12T11:42:12Z</time></trkpt>
<trkpt lat="46.739542" lon="15.480538"><ele>379.6</ele><time>2019-08-12T11:42:15Z</time></trkpt>
<trkpt lat="46.739585" lon="15.480742"><ele>379.6</ele><time>2019-08-12T11:42:17Z</time></trkpt>
<trkpt lat="46.739913" lon="15.481143"><ele>380.6</ele><time>2019-08-12T11:42:22Z</time></trkpt>
<trkpt lat="46.740544" lon="15.481563"><ele>370.2</ele><time>2019-08-12T11:42:31Z</time></trkpt>
<trkpt lat="46.740666" lon="15.481627"><ele>370.2</ele><time>2019-08-12T11:42:33Z</time></trkpt>
<trkpt lat="46.741386" lon="15.481626"><ele>362.4</ele><time>2019-08-12T11:42:42Z</time></trkpt>
<trkpt lat="46.741516" lon="15.481676"><ele>366.6</ele><time>2019-08-12T11:42:44Z</time></trkpt>
<trkpt lat="46.741824" lon="15.481882"><ele>363.2</ele><time>2019-08-12T11:42:48Z</time></trkpt>
<trkpt lat="46.742692" lon="15.482258"><ele>352.8</ele><time>2019-08-12T11:43:00Z</time></trkpt>
<trkpt lat="46.742985" lon="15.482473"><ele>352.8</ele><time>2019-08-12T11:43:04Z</time></trkpt>
<trkpt lat="46.743104" lon="15.482595"><ele>360.2</ele><time>2019-08-12T11:43:06Z</time></trkpt>
<trkpt lat="46.74365" lon="15.483369"><ele>361.0</ele><time>2019-08-12T11:43:16Z</time></trkpt>
<trkpt lat="46.743875" lon="15.483635"><ele>361.0</ele><time>2019-08-12T11:43:19Z</time></trkpt>
<trkpt lat="46.744035" lon="15.483783"><ele>361.0</ele><time>2019-08-12T11:43:22Z</time></trkpt>
<trkpt lat="46.744204" lon="15.484041"><ele>350.4</ele><time>2019-08-12T11:43:25Z</time></trkpt>
<trkpt lat="46.744282" lon="15.484331"><ele>351.8</ele><time>2019-08-12T11:43:28Z</time></trkpt>
<trkpt lat="46.744295" lon="15.484557"><ele>351.8</ele><time>2019-08-12T11:43:30Z</time></trkpt>
<trkpt lat="46.744279" lon="15.484753"><ele>351.8</ele><time>2019-08-12T11:43:32Z</time></trkpt>
<trkpt lat="46.743799" lon="15.485957"><ele>354.4</ele><time>2019-08-12T11:43:44Z</time></trkpt>
<trkpt lat="46.743773" lon="15.486114"><ele>354.4</ele><time>2019-08-12T11:43:45Z</time></trkpt>
<trkpt lat="46.743802" lon="15.486274"><ele>354.4</ele><time>2019-08-12T11:43:47Z</time></trkpt>
<trkpt lat="46.743986" lon="15.486931"><ele>351.4</ele><time>2019-08-12T11:43:53Z</time></trkpt>
<trkpt lat="46.744084" lon="15.487504"><ele>351.6</ele><time>2019-08-12T11:43:58Z</time></trkpt>
<trkpt lat="46.744096" lon="15.48772"><ele>351.6</ele><time>2019-08-12T11:44:00Z</time></trkpt>
<trkpt lat="46.744057" lon="15.48841"><ele>350.4</ele><time>2019-08-12T11:44:06Z</time></trkpt>
<trkpt lat="46.744077" lon="15.488853"><ele>350.4</ele><time>2019-08-12T11:44:10Z</time></trkpt>
<trkpt lat="46.744129" lon="15.489039"><ele>350.4</ele><time>2019-08-12T11:44:12Z</time></trkpt>
<trkpt lat="46.744242" lon="15.489333"><ele>351.6</ele><time>2019-08-12T11:44:15Z</time></trkpt>
<trkpt lat="46.744363" lon="15.489594"><ele>351.6</ele><time>2019-08-12T11:44:17Z</time></trkpt>
<trkpt lat="46.744936" lon="15.49072"><ele>353.2</ele><time>2019-08-12T11:44:30Z</time></trkpt>
<trkpt lat="46.745323" lon="15.491405"><ele>350.2</ele><time>2019-08-12T11:44:37Z</time></trkpt>
<trkpt lat="46.745463" lon="15.491604"><ele>350.2</ele><time>2019-08-12T11:44:40Z</time></trkpt>
<trkpt lat="46.745623" lon="15.491786"><ele>350.2</ele><time>2019-08-12T11:44:42Z</time></trkpt>
<trkpt lat="46.746556" lon="15.492696"><ele>351.2</ele><time>2019-08-12T11:44:57Z</time></trkpt>
<trkpt lat="46.746556" lon="15.492696"><ele>351.2</ele><time>2019-08-12T11:44:57Z</time></trkpt>
<trkpt lat="46.747248" lon="15.4934"><ele>351.6</ele><time>2019-08-12T11:45:07Z</time></trkpt>
<trkpt lat="46.747518" lon="15.493914"><ele>344.6</ele><time>2019-08-12T11:45:12Z</time></trkpt>
<trkpt lat="46.747771" lon="15.494495"><ele>347.2</ele><time>2019-08-12T11:45:18Z</time></trkpt>
<trkpt lat="46.747878" lon="15.494896"><ele>347.2</ele><time>2019-08-12T11:45:21Z</time></trkpt>
<trkpt lat="46.747917" lon="15.495043"><ele>345.6</ele><time>2019-08-12T11:45:23Z</time></trkpt>
<trkpt lat="46.747934" lon="15.495503"><ele>345.6</ele><time>2019-08-12T11:45:28Z</time></trkpt>
<trkpt lat="46.748007" lon="15.496127"><ele>340.6</ele><time>2019-08-12T11:45:34Z</time></trkpt>
<trkpt lat="46.748098" lon="15.496479"><ele>340.6</ele><time>2019-08-12T11:45:38Z</time></trkpt>
<trkpt lat="46.748513" lon="15.497483"><ele>328.2</ele><time>2019-08-12T11:45:51Z</time></trkpt>
<trkpt lat="46.748536" lon="15.497668"><ele>319.4</ele><time>2019-08-12T11:45:53Z</time></trkpt>
<trkpt lat="46.748406" lon="15.498542"><ele>312.2</ele><time>2019-08-12T11:46:02Z</time></trkpt>
<trkpt lat="46.748371" lon="15.498898"><ele>312.2</ele><time>2019-08-12T11:46:06Z</time></trkpt>
<trkpt lat="46.748505" lon="15.498959"><ele>312.2</ele><time>2019-08-12T11:46:09Z</time></trkpt>
<trkpt lat="46.749199" lon="15.49903"><ele>313.0</ele><time>2019-08-12T11:46:22Z</time></trkpt>
<trkpt lat="46.749411" lon="15.499001"><ele>313.0</ele><time>2019-08-12T11:46:26Z</time></trkpt>
<trkpt lat="46.750059" lon="15.498584"><ele>313.2</ele><time>2019-08-12T11:46:39Z</time></trkpt>
<trkpt lat="46.750358" lon="15.498441"><ele>313.2</ele><time>2019-08-12T11:46:44Z</time></trkpt>
<trkpt lat="46.750601" lon="15.498375"><ele>313.2</ele><time>2019-08-12T11:46:49Z</time></trkpt>
<trkpt lat="46.750742" lon="15.498392"><ele>313.2</ele><time>2019-08-12T11:46:52Z</time></trkpt>
<trkpt lat="46.750967" lon="15.49848"><ele>315.2</ele><time>2019-08-12T11:46:56Z</time></trkpt>
<trkpt lat="46.751539" lon="15.49875"><ele>315.2</ele><time>2019-08-12T11:47:07Z</time></trkpt>
<trkpt lat="46.752224" lon="15.499118"><ele>318.2</ele><time>2019-08-12T11:47:20Z</time></trkpt>
<trkpt lat="46.752439" lon="15.499324"><ele>310.6</ele><time>2019-08-12T11:47:25Z</time></trkpt>
<trkpt lat="46.752678" lon="15.499588"><ele>313.0</ele><time>2019-08-12T11:47:31Z</time></trkpt>
<trkpt lat="46.752885" lon="15.499754"><ele>313.0</ele><time>2019-08-12T11:47:35Z</time></trkpt>
<trkpt lat="46.753323" lon="15.50022"><ele>306.2</ele><time>2019-08-12T11:47:45Z</time></trkpt>
<trkpt lat="46.753876" lon="15.500526"><ele>306.8</ele><time>2019-08-12T11:47:56Z</time></trkpt>
<trkpt lat="46.754293" lon="15.501035"><ele>296.6</ele><time>2019-08-12T11:48:06Z</time></trkpt>
<trkpt lat="46.75463" lon="15.5014"><ele>296.6</ele><time>2019-08-12T11:48:14Z</time></trkpt>
<trkpt lat="46.754688" lon="15.501545"><ele>296.6</ele><time>2019-08-12T11:48:16Z</time></trkpt>
<trkpt lat="46.755342" lon="15.501784"><ele>286.6</ele><time>2019-08-12T11:48:29Z</time></trkpt>
<trkpt lat="46.756417" lon="15.502119"><ele>279.6</ele><time>2019-08-12T11:48:49Z</time></trkpt>
<trkpt lat="46.756551" lon="15.50215"><ele>279.6</ele><time>2019-08-12T11:48:51Z</time></trkpt>
<trkpt lat="46.756588" lon="15.50214"><ele>279.6</ele><time>2019-08-12T11:48:52Z</time></trkpt>
<trkpt lat="46.75656" lon="15.502539"><ele>280.6</ele><time>2019-08-12T11:48:57Z</time></trkpt>
<trkpt lat="46.756505" lon="15.503016"><ele>280.6</ele><time>2019-08-12T11:49:02Z</time></trkpt>
<trkpt lat="46.756294" lon="15.504146"><ele>288.0</ele><time>2019-08-12T11:49:14Z</time></trkpt>
<trkpt lat="46.756237" lon="15.504319"><ele>302.2</ele><time>2019-08-12T11:49:17Z</time></trkpt>
<trkpt lat="46.755959" lon="15.504779"><ele>302.2</ele><time>2019-08-12T11:49:24Z</time></trkpt>
<trkpt lat="46.755735" lon="15.50505"><ele>310.0</ele><time>2019-08-12T11:49:28Z</time></trkpt>
<trkpt lat="46.755175" lon="15.50546"><ele>310.0</ele><time>2019-08-12T11:49:38Z</time></trkpt>
<trkpt lat="46.755047" lon="15.505663"><ele>310.0</ele><time>2019-08-12T11:49:41Z</time></trkpt>
<trkpt lat="46.755037" lon="15.505782"><ele>310.0</ele><time>2019-08-12T11:49:42Z</time></trkpt>
<trkpt lat="46.755107" lon="15.505865"><ele>328.0</ele><time>2019-08-12T11:49:44Z</time></trkpt>
<trkpt lat="46.755175" lon="15.505884"><ele>328.0</ele><time>2019-08-12T11:49:45Z</time></trkpt>
<trkpt lat="46.755595" lon="15.505873"><ele>328.0</ele><time>2019-08-12T11:49:50Z</time></trkpt>
<trkpt lat="46.75638" lon="15.505627"><ele>319.8</ele><time>2019-08-12T11:49:58Z</time></trkpt>
<trkpt lat="46.756662" lon="15.50549"><ele>319.8</ele><time>2019-08-12T11:50:01Z</time></trkpt>
<trkpt lat="46.756745" lon="15.505477"><ele>323.6</ele><time>2019-08-12T11:50:02Z</time></trkpt>
<trkpt lat="46.757144" lon="15.505509"><ele>323.6</ele><time>2019-08-12T11:50:06Z</time></trkpt>
<trkpt lat="46.757192" lon="15.505556"><ele>323.6</ele><time>2019-08-12T11:50:07Z</time></trkpt>
<trkpt lat="46.75718" lon="15.505688"><ele>323.6</ele><time>2019-08-12T11:50:08Z</time></trkpt>
<trkpt lat="46.7571" lon="15.505822"><ele>323.6</ele><time>2019-08-12T11:50:09Z</time></trkpt>
<trkpt lat="46.756573" lon="15.506468"><ele>332.0</ele><time>2019-08-12T11:50:17Z</time></trkpt>
<trkpt lat="46.756445" lon="15.506687"><ele>338.0</ele><time>2019-08-12T11:50:19Z</time></trkpt>
<trkpt lat="46.756144" lon="15.507035"><ele>338.0</ele><time>2019-08-12T11:50:23Z</time></trkpt>
<trkpt lat="46.755557" lon="15.507371"><ele>338.2</ele><time>2019-08-12T11:50:30Z</time></trkpt>
<trkpt lat="46.754794" lon="15.507855"><ele>341.2</ele><time>2019-08-12T11:50:38Z</time></trkpt>
<trkpt lat="46.75448" lon="15.508153"><ele>341.2</ele><time>2019-08-12T11:50:42Z</time></trkpt>
<trkpt lat="46.753759" lon="15.509498"><ele>343.0</ele><time>2019-08-12T11:50:55Z</time></trkpt>
<trkpt lat="46.753655" lon="15.509735"><ele>343.0</ele><time>2019-08-12T11:50:57Z</time></trkpt>
<trkpt lat="46.753588" lon="15.509978"><ele>343.0</ele><time>2019-08-12T11:50:59Z</time></trkpt>
<trkpt lat="46.753513" lon="15.510451"><ele>342.4</ele><time>2019-08-12T11:51:02Z</time></trkpt>
<trkpt lat="46.7533" lon="15.509541"><ele>348.2</ele><time>2019-08-12T11:51:10Z</time></trkpt>
<trkpt lat="46.7532" lon="15.509324"><ele>348.2</ele><time>2019-08-12T11:51:12Z</time></trkpt>
<trkpt lat="46.753015" lon="15.50923"><ele>348.2</ele><time>2019-08-12T11:51:14Z</time></trkpt>
<trkpt lat="46.752771" lon="15.509206"><ele>348.2</ele><time>2019-08-12T11:51:17Z</time></trkpt>
<trkpt lat="46.752648" lon="15.509167"><ele>348.2</ele><time>2019-08-12T11:51:19Z</time></trkpt>
<trkpt lat="46.752267" lon="15.508929"><ele>350.5</ele><time>2019-08-12T11:51:23Z</time></trkpt>
<trkpt lat="46.752267" lon="15.508929"><ele>350.5</ele><time>2019-08-12T11:51:23Z</time></trkpt>
<trkpt lat="46.752044" lon="15.50879"><ele>352.8</ele><time>2019-08-12T11:51:26Z</time></trkpt>
<trkpt lat="46.751702" lon="15.508505"><ele>352.8</ele><time>2019-08-12T11:51:31Z</time></trkpt>
<trkpt lat="46.751687" lon="15.508384"><ele>352.8</ele><time>2019-08-12T11:51:32Z</time></trkpt>
<trkpt lat="46.751461" lon="15.507792"><ele>356.4</ele><time>2019-08-12T11:51:37Z</time></trkpt>
<trkpt lat="46.751325" lon="15.507502"><ele>356.4</ele><time>2019-08-12T11:51:40Z</time></trkpt>
<trkpt lat="46.751078" lon="15.507115"><ele>345.0</ele><time>2019-08-12T11:51:44Z</time></trkpt>
<trkpt lat="46.748754" lon="15.504703"><ele>343.6</ele><time>2019-08-12T11:52:17Z</time></trkpt>
<trkpt lat="46.74819" lon="15.504197"><ele>353.4</ele><time>2019-08-12T11:52:25Z</time></trkpt>
<trkpt lat="46.747693" lon="15.50405"><ele>336.8</ele><time>2019-08-12T11:52:31Z</time></trkpt>
<trkpt lat="46.746693" lon="15.504216"><ele>356.6</ele><time>2019-08-12T11:52:43Z</time></trkpt>
<trkpt lat="46.746084" lon="15.504403"><ele>352.0</ele><time>2019-08-12T11:52:50Z</time></trkpt>
<trkpt lat="46.745386" lon="15.504406"><ele>346.8</ele><time>2019-08-12T11:52:58Z</time></trkpt>
<trkpt lat="46.745171" lon="15.50444"><ele>346.8</ele><time>2019-08-12T11:53:00Z</time></trkpt>
<trkpt lat="46.744721" lon="15.504625"><ele>344.0</ele><time>2019-08-12T11:53:06Z</time></trkpt>
<trkpt lat="46.744561" lon="15.504644"><ele>344.0</ele><time>2019-08-12T11:53:07Z</time></trkpt>
<trkpt lat="46.744252" lon="15.504582"><ele>344.0</ele><time>2019-08-12T11:53:11Z</time></trkpt>
<trkpt lat="46.744108" lon="15.504501"><ele>346.8</ele><time>2019-08-12T11:53:13Z</time></trkpt>
<trkpt lat="46.74396" lon="15.504372"><ele>346.8</ele><time>2019-08-12T11:53:15Z</time></trkpt>
<trkpt lat="46.74368" lon="15.504027"><ele>341.8</ele><time>2019-08-12T11:53:19Z</time></trkpt>
<trkpt lat="46.743496" lon="15.503916"><ele>341.8</ele><time>2019-08-12T11:53:21Z</time></trkpt>
<trkpt lat="46.743355" lon="15.503897"><ele>341.8</ele><time>2019-08-12T11:53:23Z</time></trkpt>
<trkpt lat="46.742838" lon="15.503991"><ele>348.6</ele><time>2019-08-12T11:53:29Z</time></trkpt>
<trkpt lat="46.742273" lon="15.504"><ele>356.6</ele><time>2019-08-12T11:53:36Z</time></trkpt>
<trkpt lat="46.741505" lon="15.503853"><ele>357.4</ele><time>2019-08-12T11:53:45Z</time></trkpt>
<trkpt lat="46.740393" lon="15.503759"><ele>354.8</ele><time>2019-08-12T11:53:57Z</time></trkpt>
<trkpt lat="46.740095" lon="15.503618"><ele>354.8</ele><time>2019-08-12T11:54:01Z</time></trkpt>
<trkpt lat="46.739723" lon="15.503285"><ele>350.0</ele><time>2019-08-12T11:54:06Z</time></trkpt>
<trkpt lat="46.739386" lon="15.50295"><ele>350.0</ele><time>2019-08-12T11:54:11Z</time></trkpt>
<trkpt lat="46.739138" lon="15.502606"><ele>356.4</ele><time>2019-08-12T11:54:15Z</time></trkpt>
<trkpt lat="46.738881" lon="15.502316"><ele>350.0</ele><time>2019-08-12T11:54:19Z</time></trkpt>
<trkpt lat="46.738881" lon="15.502316"><ele>350.0</ele><time>2019-08-12T11:54:19Z</time></trkpt>
<trkpt lat="46.738373" lon="15.501657"><ele>334.6</ele><time>2019-08-12T11:54:27Z</time></trkpt>
<trkpt lat="46.738086" lon="15.500949"><ele>342.4</ele><time>2019-08-12T11:54:33Z</time></trkpt>
<trkpt lat="46.738129" lon="15.500687"><ele>341.6</ele><time>2019-08-12T11:54:35Z</time></trkpt>
<trkpt lat="46.738075" lon="15.500619"><ele>341.6</ele><time>2019-08-12T11:54:37Z</time></trkpt>
<trkpt lat="46.737885" lon="15.500498"><ele>341.6</ele><time>2019-08-12T11:54:40Z</time></trkpt>
<trkpt lat="46.73761" lon="15.500427"><ele>341.6</ele><time>2019-08-12T11:54:44Z</time></trkpt>
<trkpt lat="46.73742" lon="15.500423"><ele>344.8</ele><time>2019-08-12T11:54:47Z</time></trkpt>
<trkpt lat="46.73732" lon="15.50045"><ele>344.8</ele><time>2019-08-12T11:54:49Z</time></trkpt>
<trkpt lat="46.737219" lon="15.500512"><ele>344.8</ele><time>2019-08-12T11:54:50Z</time></trkpt>
<trkpt lat="46.737139" lon="15.50059"><ele>344.8</ele><time>2019-08-12T11:54:52Z</time></trkpt>
<trkpt lat="46.736665" lon="15.50134"><ele>336.6</ele><time>2019-08-12T11:55:02Z</time></trkpt>
<trkpt lat="46.736383" lon="15.501915"><ele>329.8</ele><time>2019-08-12T11:55:10Z</time></trkpt>
<trkpt lat="46.736118" lon="15.502405"><ele>329.8</ele><time>2019-08-12T11:55:17Z</time></trkpt>
<trkpt lat="46.73584" lon="15.50246"><ele>329.8</ele><time>2019-08-12T11:55:20Z</time></trkpt>
<trkpt lat="46.735645" lon="15.502435"><ele>324.4</ele><time>2019-08-12T11:55:22Z</time></trkpt>
<trkpt lat="46.735375" lon="15.502278"><ele>324.4</ele><time>2019-08-12T11:55:25Z</time></trkpt>
<trkpt lat="46.735224" lon="15.502113"><ele>324.4</ele><time>2019-08-12T11:55:28Z</time></trkpt>
<trkpt lat="46.734884" lon="15.501661"><ele>327.4</ele><time>2019-08-12T11:55:33Z</time></trkpt>
<trkpt lat="46.734127" lon="15.501655"><ele>331.6</ele><time>2019-08-12T11:55:42Z</time></trkpt>
<trkpt lat="46.733445" lon="15.501588"><ele>331.6</ele><time>2019-08-12T11:55:49Z</time></trkpt>
<trkpt lat="46.732126" lon="15.501264"><ele>352.8</ele><time>2019-08-12T11:56:05Z</time></trkpt>
<trkpt lat="46.732082" lon="15.501182"><ele>352.8</ele><time>2019-08-12T11:56:06Z</time></trkpt>
<trkpt lat="46.732125" lon="15.501054"><ele>352.8</ele><time>2019-08-12T11:56:07Z</time></trkpt>
<trkpt lat="46.73257" lon="15.500914"><ele>346.6</ele><time>2019-08-12T11:56:12Z</time></trkpt>
<trkpt lat="46.732924" lon="15.500633"><ele>357.8</ele><time>2019-08-12T11:56:17Z</time></trkpt>
<trkpt lat="46.733121" lon="15.500546"><ele>357.8</ele><time>2019-08-12T11:56:19Z</time></trkpt>
<trkpt lat="46.733274" lon="15.50051"><ele>357.8</ele><time>2019-08-12T11:56:21Z</time></trkpt>
<trkpt lat="46.733293" lon="15.500456"><ele>357.8</ele><time>2019-08-12T11:56:22Z</time></trkpt>
<trkpt lat="46.733293" lon="15.500397"><ele>357.8</ele><time>2019-08-12T11:56:22Z</time></trkpt>
<trkpt lat="46.733273" lon="15.500341"><ele>357.8</ele><time>2019-08-12T11:56:23Z</time></trkpt>
<trkpt lat="46.733219" lon="15.500295"><ele>357.8</ele><time>2019-08-12T11:56:23Z</time></trkpt>
<trkpt lat="46.732984" lon="15.500291"><ele>357.8</ele><time>2019-08-12T11:56:26Z</time></trkpt>
<trkpt lat="46.73272" lon="15.500357"><ele>357.8</ele><time>2019-08-12T11:56:29Z</time></trkpt>
<trkpt lat="46.732615" lon="15.500312"><ele>357.8</ele><time>2019-08-12T11:56:30Z</time></trkpt>
<trkpt lat="46.732459" lon="15.500107"><ele>365.2</ele><time>2019-08-12T11:56:33Z</time></trkpt>
<trkpt lat="46.7323" lon="15.50002"><ele>365.2</ele><time>2019-08-12T11:56:35Z</time></trkpt>
<trkpt lat="46.732203" lon="15.500024"><ele>365.2</ele><time>2019-08-12T11:56:36Z</time></trkpt>
<trkpt lat="46.731931" lon="15.500123"><ele>365.2</ele><time>2019-08-12T11:56:39Z</time></trkpt>
<trkpt lat="46.731009" lon="15.500367"><ele>365.8</ele><time>2019-08-12T11:56:50Z</time></trkpt>
<trkpt lat="46.730789" lon="15.500455"><ele>367.2</ele><time>2019-08-12T11:56:53Z</time></trkpt>
<trkpt lat="46.730677" lon="15.500524"><ele>367.2</ele><time>2019-08-12T11:56:54Z</time></trkpt>
<trkpt lat="46.730608" lon="15.500608"><ele>367.2</ele><time>2019-08-12T11:56:55Z</time></trkpt>
<trkpt lat="46.730419" lon="15.501052"><ele>368.2</ele><time>2019-08-12T11:56:59Z</time></trkpt>
<trkpt lat="46.730304" lon="15.501246"><ele>368.2</ele><time>2019-08-12T11:57:01Z</time></trkpt>
<trkpt lat="46.730205" lon="15.501337"><ele>368.2</ele><time>2019-08-12T11:57:03Z</time></trkpt>
<trkpt lat="46.730024" lon="15.50144"><ele>368.2</ele><time>2019-08-12T11:57:05Z</time></trkpt>
<trkpt lat="46.729715" lon="15.501503"><ele>378.2</ele><time>2019-08-12T11:57:09Z</time></trkpt>
<trkpt lat="46.729032" lon="15.50125"><ele>386.6</ele><time>2019-08-12T11:57:17Z</time></trkpt>
<trkpt lat="46.728928" lon="15.50127"><ele>386.6</ele><time>2019-08-12T11:57:18Z</time></trkpt>
<trkpt lat="46.728757" lon="15.501341"><ele>386.6</ele><time>2019-08-12T11:57:20Z</time></trkpt>
<trkpt lat="46.728515" lon="15.501375"><ele>386.6</ele><time>2019-08-12T11:57:23Z</time></trkpt>
<trkpt lat="46.728353" lon="15.501356"><ele>386.6</ele><time>2019-08-12T11:57:25Z</time></trkpt>
<trkpt lat="46.728182" lon="15.501252"><ele>396.2</ele><time>2019-08-12T11:57:27Z</time></trkpt>
<trkpt lat="46.727535" lon="15.500634"><ele>387.8</ele><time>2019-08-12T11:57:36Z</time></trkpt>
<trkpt lat="46.72744" lon="15.500484"><ele>405.0</ele><time>2019-08-12T11:57:38Z</time></trkpt>
<trkpt lat="46.727369" lon="15.500299"><ele>405.0</ele><time>2019-08-12T11:57:40Z</time></trkpt>
<trkpt lat="46.727288" lon="15.49982"><ele>410.8</ele><time>2019-08-12T11:57:44Z</time></trkpt>
<trkpt lat="46.72724" lon="15.499695"><ele>410.8</ele><time>2019-08-12T11:57:46Z</time></trkpt>
<trkpt lat="46.727126" lon="15.500356"><ele>405.0</ele><time>2019-08-12T11:57:51Z</time></trkpt>
<trkpt lat="46.72712" lon="15.500508"><ele>405.0</ele><time>2019-08-12T11:57:52Z</time></trkpt>
<trkpt lat="46.727144" lon="15.50065"><ele>405.0</ele><time>2019-08-12T11:57:53Z</time></trkpt>
<trkpt lat="46.727249" lon="15.500916"><ele>405.8</ele><time>2019-08-12T11:57:56Z</time></trkpt>
<trkpt lat="46.727363" lon="15.501101"><ele>405.8</ele><time>2019-08-12T11:57:58Z</time></trkpt>
<trkpt lat="46.727874" lon="15.501789"><ele>407.6</ele><time>2019-08-12T11:58:06Z</time></trkpt>
<trkpt lat="46.727973" lon="15.501979"><ele>407.6</ele><time>2019-08-12T11:58:08Z</time></trkpt>
<trkpt lat="46.728023" lon="15.50212"><ele>407.6</ele><time>2019-08-12T11:58:09Z</time></trkpt>
<trkpt lat="46.728134" lon="15.502634"><ele>411.6</ele><time>2019-08-12T11:58:13Z</time></trkpt>
<trkpt lat="46.728173" lon="15.502877"><ele>411.6</ele><time>2019-08-12T11:58:15Z</time></trkpt>
<trkpt lat="46.728177" lon="15.502992"><ele>411.6</ele><time>2019-08-12T11:58:16Z</time></trkpt>
<trkpt lat="46.728057" lon="15.503703"><ele>411.2</ele><time>2019-08-12T11:58:22Z</time></trkpt>
<trkpt lat="46.728362" lon="15.505103"><ele>408.4</ele><time>2019-08-12T11:58:34Z</time></trkpt>
<trkpt lat="46.728404" lon="15.505243"><ele>408.4</ele><time>2019-08-12T11:58:35Z</time></trkpt>
<trkpt lat="46.728549" lon="15.505462"><ele>408.4</ele><time>2019-08-12T11:58:37Z</time></trkpt>
<trkpt lat="46.728674" lon="15.505763"><ele>408.4</ele><time>2019-08-12T11:58:40Z</time></trkpt>
<trkpt lat="46.728697" lon="15.506715"><ele>423.0</ele><time>2019-08-12T11:58:48Z</time></trkpt>
<trkpt lat="46.728652" lon="15.507085"><ele>423.0</ele><time>2019-08-12T11:58:51Z</time></trkpt>
<trkpt lat="46.72852" lon="15.507451"><ele>423.0</ele><time>2019-08-12T11:58:54Z</time></trkpt>
<trkpt lat="46.728259" lon="15.507918"><ele>419.2</ele><time>2019-08-12T11:58:59Z</time></trkpt>
<trkpt lat="46.728104" lon="15.508136"><ele>419.2</ele><time>2019-08-12T11:59:01Z</time></trkpt>
<trkpt lat="46.727522" lon="15.508863"><ele>414.8</ele><time>2019-08-12T11:59:10Z</time></trkpt>
<trkpt lat="46.727409" lon="15.508969"><ele>407.6</ele><time>2019-08-12T11:59:12Z</time></trkpt>
<trkpt lat="46.72676" lon="15.509367"><ele>406.6</ele><time>2019-08-12T11:59:20Z</time></trkpt>
<trkpt lat="46.726389" lon="15.509558"><ele>404.4</ele><time>2019-08-12T11:59:24Z</time></trkpt>
<trkpt lat="46.726473" lon="15.509612"><ele>404.4</ele><time>2019-08-12T11:59:25Z</time></trkpt>
<trkpt lat="46.726536" lon="15.50962"><ele>404.4</ele><time>2019-08-12T11:59:26Z</time></trkpt>
<trkpt lat="46.726899" lon="15.509529"><ele>406.6</ele><time>2019-08-12T11:59:30Z</time></trkpt>
<trkpt lat="46.727075" lon="15.509517"><ele>406.6</ele><time>2019-08-12T11:59:32Z</time></trkpt>
<trkpt lat="46.727185" lon="15.509558"><ele>406.6</ele><time>2019-08-12T11:59:34Z</time></trkpt>
<trkpt lat="46.727301" lon="15.509689"><ele>406.6</ele><time>2019-08-12T11:59:35Z</time></trkpt>
<trkpt lat="46.727408" lon="15.509859"><ele>406.6</ele><time>2019-08-12T11:59:37Z</time></trkpt>
<trkpt lat="46.727469" lon="15.509923"><ele>406.6</ele><time>2019-08-12T11:59:38Z</time></trkpt>
<trkpt lat="46.727565" lon="15.509977"><ele>406.0</ele><time>2019-08-12T11:59:39Z</time></trkpt>
<trkpt lat="46.727656" lon="15.509991"><ele>406.0</ele><time>2019-08-12T11:59:40Z</time></trkpt>
<trkpt lat="46.727769" lon="15.509969"><ele>406.0</ele><time>2019-08-12T11:59:42Z</time></trkpt>
<trkpt lat="46.727904" lon="15.509885"><ele>406.0</ele><time>2019-08-12T11:59:43Z</time></trkpt>
<trkpt lat="46.728143" lon="15.509477"><ele>406.0</ele><time>2019-08-12T11:59:47Z</time></trkpt>
<trkpt lat="46.728244" lon="15.509426"><ele>406.0</ele><time>2019-08-12T11:59:49Z</time></trkpt>
<trkpt lat="46.728356" lon="15.509449"><ele>395.0</ele><time>2019-08-12T11:59:50Z</time></trkpt>
<trkpt lat="46.728437" lon="15.509549"><ele>395.0</ele><time>2019-08-12T11:59:52Z</time></trkpt>
<trkpt lat="46.729404" lon="15.51109"><ele>370.8</ele><time>2019-08-12T12:00:08Z</time></trkpt>
<trkpt lat="46.729623" lon="15.511342"><ele>370.8</ele><time>2019-08-12T12:00:12Z</time></trkpt>
<trkpt lat="46.729813" lon="15.511655"><ele>370.8</ele><time>2019-08-12T12:00:15Z</time></trkpt>
<trkpt lat="46.730238" lon="15.512537"><ele>379.4</ele><time>2019-08-12T12:00:23Z</time></trkpt>
<trkpt lat="46.730426" lon="15.512707"><ele>379.4</ele><time>2019-08-12T12:00:26Z</time></trkpt>
<trkpt lat="46.730558" lon="15.512746"><ele>379.4</ele><time>2019-08-12T12:00:28Z</time></trkpt>
<trkpt lat="46.730957" lon="15.512723"><ele>376.0</ele><time>2019-08-12T12:00:32Z</time></trkpt>
<trkpt lat="46.731122" lon="15.512785"><ele>376.0</ele><time>2019-08-12T12:00:34Z</time></trkpt>
<trkpt lat="46.731193" lon="15.512841"><ele>376.0</ele><time>2019-08-12T12:00:35Z</time></trkpt>
<trkpt lat="46.731311" lon="15.513051"><ele>376.0</ele><time>2019-08-12T12:00:37Z</time></trkpt>
<trkpt lat="46.731529" lon="15.513588"><ele>385.4</ele><time>2019-08-12T12:00:42Z</time></trkpt>
<trkpt lat="46.731802" lon="15.51434"><ele>393.0</ele><time>2019-08-12T12:00:49Z</time></trkpt>
<trkpt lat="46.731844" lon="15.514533"><ele>393.0</ele><time>2019-08-12T12:00:51Z</time></trkpt>
<trkpt lat="46.732099" lon="15.514773"><ele>393.0</ele><time>2019-08-12T12:00:54Z</time></trkpt>
<trkpt lat="46.732338" lon="15.515099"><ele>392.4</ele><time>2019-08-12T12:00:58Z</time></trkpt>
<trkpt lat="46.732443" lon="15.515295"><ele>392.4</ele><time>2019-08-12T12:01:00Z</time></trkpt>
<trkpt lat="46.732619" lon="15.515778"><ele>395.8</ele><time>2019-08-12T12:01:04Z</time></trkpt>
<trkpt lat="46.732704" lon="15.515967"><ele>387.0</ele><time>2019-08-12T12:01:06Z</time></trkpt>
<trkpt lat="46.732852" lon="15.516124"><ele>387.0</ele><time>2019-08-12T12:01:08Z</time></trkpt>
<trkpt lat="46.733221" lon="15.516322"><ele>387.0</ele><time>2019-08-12T12:01:13Z</time></trkpt>
<trkpt lat="46.733501" lon="15.516505"><ele>382.8</ele><time>2019-08-12T12:01:17Z</time></trkpt>
<trkpt lat="46.733646" lon="15.516688"><ele>375.0</ele><time>2019-08-12T12:01:19Z</time></trkpt>
<trkpt lat="46.733708" lon="15.516852"><ele>375.0</ele><time>2019-08-12T12:01:20Z</time></trkpt>
<trkpt lat="46.73375" lon="15.517079"><ele>375.0</ele><time>2019-08-12T12:01:22Z</time></trkpt>
<trkpt lat="46.733797" lon="15.517491"><ele>375.0</ele><time>2019-08-12T12:01:26Z</time></trkpt>
<trkpt lat="46.733826" lon="15.517911"><ele>372.4</ele><time>2019-08-12T12:01:29Z</time></trkpt>
<trkpt lat="46.733702" lon="15.520009"><ele>380.8</ele><time>2019-08-12T12:01:46Z</time></trkpt>
<trkpt lat="46.733739" lon="15.520321"><ele>380.8</ele><time>2019-08-12T12:01:48Z</time></trkpt>
<trkpt lat="46.733868" lon="15.520704"><ele>380.8</ele><time>2019-08-12T12:01:51Z</time></trkpt>
<trkpt lat="46.734201" lon="15.521474"><ele>373.8</ele><time>2019-08-12T12:01:59Z</time></trkpt>
<trkpt lat="46.734656" lon="15.522337"><ele>379.8</ele><time>2019-08-12T12:02:07Z</time></trkpt>
<trkpt lat="46.73506" lon="15.523651"><ele>363.8</ele><time>2019-08-12T12:02:19Z</time></trkpt>
<trkpt lat="46.735132" lon="15.524036"><ele>363.8</ele><time>2019-08-12T12:02:22Z</time></trkpt>
<trkpt lat="46.735127" lon="15.524918"><ele>358.0</ele><time>2019-08-12T12:02:29Z</time></trkpt>
<trkpt lat="46.735194" lon="15.52549"><ele>356.2</ele><time>2019-08-12T12:02:33Z</time></trkpt>
<trkpt lat="46.735329" lon="15.526204"><ele>356.6</ele><time>2019-08-12T12:02:39Z</time></trkpt>
<trkpt lat="46.735411" lon="15.526426"><ele>356.6</ele><time>2019-08-12T12:02:41Z</time></trkpt>
<trkpt lat="46.735779" lon="15.527016"><ele>359.4</ele><time>2019-08-12T12:02:48Z</time></trkpt>
<trkpt lat="46.736137" lon="15.527492"><ele>353.4</ele><time>2019-08-12T12:02:53Z</time></trkpt>
<trkpt lat="46.736291" lon="15.527657"><ele>355.6</ele><time>2019-08-12T12:02:55Z</time></trkpt>
<trkpt lat="46.735683" lon="15.528246"><ele>364.0</ele><time>2019-08-12T12:03:04Z</time></trkpt>
<trkpt lat="46.7355" lon="15.528397"><ele>363.8</ele><time>2019-08-12T12:03:06Z</time></trkpt>
<trkpt lat="46.735237" lon="15.528426"><ele>363.8</ele><time>2019-08-12T12:03:09Z</time></trkpt>
<trkpt lat="46.735237" lon="15.528426"><ele>363.8</ele><time>2019-08-12T12:03:09Z</time></trkpt>
<trkpt lat="46.735022" lon="15.52845"><ele>363.8</ele><time>2019-08-12T12:03:12Z</time></trkpt>
<trkpt lat="46.73477" lon="15.528548"><ele>373.6</ele><time>2019-08-12T12:03:15Z</time></trkpt>
<trkpt lat="46.73458" lon="15.528869"><ele>373.6</ele><time>2019-08-12T12:03:18Z</time></trkpt>
<trkpt lat="46.734388" lon="15.528977"><ele>373.6</ele><time>2019-08-12T12:03:21Z</time></trkpt>
<trkpt lat="46.733756" lon="15.528552"><ele>375.4</ele><time>2019-08-12T12:03:29Z</time></trkpt>
<trkpt lat="46.73368" lon="15.528557"><ele>375.4</ele><time>2019-08-12T12:03:30Z</time></trkpt>
<trkpt lat="46.733483" lon="15.52862"><ele>375.4</ele><time>2019-08-12T12:03:32Z</time></trkpt>
<trkpt lat="46.733269" lon="15.528731"><ele>367.2</ele><time>2019-08-12T12:03:35Z</time></trkpt>
<trkpt lat="46.732948" lon="15.529005"><ele>367.2</ele><time>2019-08-12T12:03:39Z</time></trkpt>
<trkpt lat="46.732558" lon="15.529466"><ele>363.8</ele><time>2019-08-12T12:03:45Z</time></trkpt>
<trkpt lat="46.732433" lon="15.529723"><ele>358.2</ele><time>2019-08-12T12:03:47Z</time></trkpt>
<trkpt lat="46.732315" lon="15.530102"><ele>357.6</ele><time>2019-08-12T12:03:51Z</time></trkpt>
<trkpt lat="46.732095" lon="15.531086"><ele>356.4</ele><time>2019-08-12T12:03:59Z</time></trkpt>
<trkpt lat="46.732072" lon="15.531307"><ele>356.4</ele><time>2019-08-12T12:04:01Z</time></trkpt>
<trkpt lat="46.732088" lon="15.531521"><ele>356.4</ele><time>2019-08-12T12:04:02Z</time></trkpt>
<trkpt lat="46.732227" lon="15.53232"><ele>354.2</ele><time>2019-08-12T12:04:09Z</time></trkpt>
<trkpt lat="46.732265" lon="15.532649"><ele>351.8</ele><time>2019-08-12T12:04:11Z</time></trkpt>
<trkpt lat="46.732276" lon="15.532915"><ele>351.8</ele><time>2019-08-12T12:04:13Z</time></trkpt>
<trkpt lat="46.732244" lon="15.533263"><ele>351.8</ele><time>2019-08-12T12:04:16Z</time></trkpt>
<trkpt lat="46.732196" lon="15.533569"><ele>346.2</ele><time>2019-08-12T12:04:19Z</time></trkpt>
<trkpt lat="46.73218" lon="15.533814"><ele>346.2</ele><time>2019-08-12T12:04:21Z</time></trkpt>
<trkpt lat="46.73224" lon="15.534444"><ele>337.8</ele><time>2019-08-12T12:04:26Z</time></trkpt>
<trkpt lat="46.732237" lon="15.534706"><ele>337.8</ele><time>2019-08-12T12:04:28Z</time></trkpt>
<trkpt lat="46.73214" lon="15.535389"><ele>331.0</ele><time>2019-08-12T12:04:33Z</time></trkpt>
<trkpt lat="46.73206" lon="15.535785"><ele>331.0</ele><time>2019-08-12T12:04:37Z</time></trkpt>
<trkpt lat="46.732043" lon="15.536083"><ele>326.8</ele><time>2019-08-12T12:04:39Z</time></trkpt>
<trkpt lat="46.732032" lon="15.537137"><ele>320.4</ele><time>2019-08-12T12:04:47Z</time></trkpt>
<trkpt lat="46.732012" lon="15.537354"><ele>320.4</ele><time>2019-08-12T12:04:49Z</time></trkpt>
<trkpt lat="46.731968" lon="15.53752"><ele>313.2</ele><time>2019-08-12T12:04:51Z</time></trkpt>
<trkpt lat="46.731452" lon="15.538867"><ele>309.6</ele><time>2019-08-12T12:05:03Z</time></trkpt>
<trkpt lat="46.731362" lon="15.539219"><ele>305.2</ele><time>2019-08-12T12:05:06Z</time></trkpt>
<trkpt lat="46.731278" lon="15.540625"><ele>300.6</ele><time>2019-08-12T12:05:17Z</time></trkpt>
<trkpt lat="46.731239" lon="15.540961"><ele>299.6</ele><time>2019-08-12T12:05:20Z</time></trkpt>
<trkpt lat="46.731142" lon="15.541179"><ele>299.6</ele><time>2019-08-12T12:05:22Z</time></trkpt>
<trkpt lat="46.731056" lon="15.541179"><ele>299.6</ele><time>2019-08-12T12:05:22Z</time></trkpt>
<trkpt lat="46.730784" lon="15.54124"><ele>300.4</ele><time>2019-08-12T12:05:24Z</time></trkpt>
<trkpt lat="46.73058" lon="15.54133"><ele>300.4</ele><time>2019-08-12T12:05:25Z</time></trkpt>
<trkpt lat="46.730377" lon="15.541438"><ele>300.4</ele><time>2019-08-12T12:05:26Z</time></trkpt>
<trkpt lat="46.730062" lon="15.541646"><ele>300.4</ele><time>2019-08-12T12:05:28Z</time></trkpt>
<trkpt lat="46.729957" lon="15.541746"><ele>301.2</ele><time>2019-08-12T12:05:29Z</time></trkpt>
<trkpt lat="46.729876" lon="15.541863"><ele>301.2</ele><time>2019-08-12T12:05:30Z</time></trkpt>
<trkpt lat="46.729807" lon="15.542014"><ele>301.2</ele><time>2019-08-12T12:05:31Z</time></trkpt>
<trkpt lat="46.729653" lon="15.542649"><ele>303.8</ele><time>2019-08-12T12:05:33Z</time></trkpt>
<trkpt lat="46.72936" lon="15.543584"><ele>308.0</ele><time>2019-08-12T12:05:37Z</time></trkpt>
<trkpt lat="46.729297" lon="15.543708"><ele>308.0</ele><time>2019-08-12T12:05:38Z</time></trkpt>
<trkpt lat="46.729211" lon="15.543798"><ele>308.0</ele><time>2019-08-12T12:05:38Z</time></trkpt>
<trkpt lat="46.729093" lon="15.543835"><ele>295.6</ele><time>2019-08-12T12:05:39Z</time></trkpt>
<trkpt lat="46.728804" lon="15.543819"><ele>295.6</ele><time>2019-08-12T12:05:41Z</time></trkpt>
<trkpt lat="46.728681" lon="15.543853"><ele>295.6</ele><time>2019-08-12T12:05:42Z</time></trkpt>
<trkpt lat="46.728388" lon="15.543994"><ele>295.6</ele><time>2019-08-12T12:05:44Z</time></trkpt>
<trkpt lat="46.72809" lon="15.544056"><ele>293.6</ele><time>2019-08-12T12:05:45Z</time></trkpt>
<trkpt lat="46.727752" lon="15.544049"><ele>293.6</ele><time>2019-08-12T12:05:47Z</time></trkpt>
<trkpt lat="46.727581" lon="15.544099"><ele>293.6</ele><time>2019-08-12T12:05:48Z</time></trkpt>
<trkpt lat="46.727491" lon="15.544165"><ele>303.8</ele><time>2019-08-12T12:05:49Z</time></trkpt>
<trkpt lat="46.727393" lon="15.544271"><ele>300.8</ele><time>2019-08-12T12:05:50Z</time></trkpt>
<trkpt lat="46.727307" lon="15.544413"><ele>300.8</ele><time>2019-08-12T12:05:51Z</time></trkpt>
<trkpt lat="46.72712" lon="15.544908"><ele>300.8</ele><time>2019-08-12T12:05:53Z</time></trkpt>
<trkpt lat="46.727022" lon="15.545096"><ele>302.2</ele><time>2019-08-12T12:05:54Z</time></trkpt>
<trkpt lat="46.726657" lon="15.545655"><ele>310.6</ele><time>2019-08-12T12:05:57Z</time></trkpt>
<trkpt lat="46.726107" lon="15.546298"><ele>302.6</ele><time>2019-08-12T12:06:01Z</time></trkpt>
<trkpt lat="46.725544" lon="15.546907"><ele>298.4</ele><time>2019-08-12T12:06:05Z</time></trkpt>
<trkpt lat="46.724922" lon="15.547539"><ele>295.6</ele><time>2019-08-12T12:06:09Z</time></trkpt>
<trkpt lat="46.724475" lon="15.547957"><ele>295.6</ele><time>2019-08-12T12:06:12Z</time></trkpt>
<trkpt lat="46.724368" lon="15.548078"><ele>295.6</ele><time>2019-08-12T12:06:13Z</time></trkpt>
<trkpt lat="46.723972" lon="15.54864"><ele>292.0</ele><time>2019-08-12T12:06:16Z</time></trkpt>
<trkpt lat="46.723845" lon="15.548777"><ele>292.0</ele><time>2019-08-12T12:06:17Z</time></trkpt>
<trkpt lat="46.723388" lon="15.549176"><ele>289.8</ele><time>2019-08-12T12:06:20Z</time></trkpt>
<trkpt lat="46.722536" lon="15.549817"><ele>286.2</ele><time>2019-08-12T12:06:26Z</time></trkpt>
<trkpt lat="46.722274" lon="15.550057"><ele>280.2</ele><time>2019-08-12T12:06:28Z</time></trkpt>
<trkpt lat="46.722081" lon="15.550294"><ele>280.2</ele><time>2019-08-12T12:06:29Z</time></trkpt>
<trkpt lat="46.72184" lon="15.550678"><ele>280.2</ele><time>2019-08-12T12:06:31Z</time></trkpt>
<trkpt lat="46.72226" lon="15.551742"><ele>280.4</ele><time>2019-08-12T12:06:42Z</time></trkpt>
<trkpt lat="46.722336" lon="15.551856"><ele>280.4</ele><time>2019-08-12T12:06:43Z</time></trkpt>
<trkpt lat="46.722449" lon="15.551941"><ele>280.4</ele><time>2019-08-12T12:06:45Z</time></trkpt>
<trkpt lat="46.722625" lon="15.552007"><ele>284.4</ele><time>2019-08-12T12:06:47Z</time></trkpt>
<trkpt lat="46.722868" lon="15.55206"><ele>284.4</ele><time>2019-08-12T12:06:50Z</time></trkpt>
<trkpt lat="46.723531" lon="15.552127"><ele>290.8</ele><time>2019-08-12T12:06:59Z</time></trkpt>
<trkpt lat="46.723683" lon="15.552164"><ele>290.8</ele><time>2019-08-12T12:07:01Z</time></trkpt>
<trkpt lat="46.724117" lon="15.55238"><ele>290.8</ele><time>2019-08-12T12:07:07Z</time></trkpt>
<trkpt lat="46.724537" lon="15.552498"><ele>300.2</ele><time>2019-08-12T12:07:12Z</time></trkpt>
<trkpt lat="46.724731" lon="15.552512"><ele>301.8</ele><time>2019-08-12T12:07:14Z</time></trkpt>
<trkpt lat="46.725804" lon="15.552493"><ele>309.0</ele><time>2019-08-12T12:07:28Z</time></trkpt>
<trkpt lat="46.726357" lon="15.552532"><ele>320.2</ele><time>2019-08-12T12:07:35Z</time></trkpt>
<trkpt lat="46.726877" lon="15.552542"><ele>327.2</ele><time>2019-08-12T12:07:42Z</time></trkpt>
<trkpt lat="46.727523" lon="15.552469"><ele>326.0</ele><time>2019-08-12T12:07:50Z</time></trkpt>
<trkpt lat="46.72765" lon="15.552485"><ele>326.0</ele><time>2019-08-12T12:07:51Z</time></trkpt>
<trkpt lat="46.727768" lon="15.552548"><ele>323.0</ele><time>2019-08-12T12:07:53Z</time></trkpt>
<trkpt lat="46.728155" lon="15.553022"><ele>323.0</ele><time>2019-08-12T12:07:59Z</time></trkpt>
<trkpt lat="46.729143" lon="15.554607"><ele>313.6</ele><time>2019-08-12T12:08:18Z</time></trkpt>
<trkpt lat="46.729331" lon="15.555032"><ele>313.4</ele><time>2019-08-12T12:08:22Z</time></trkpt>
<trkpt lat="46.729741" lon="15.556072"><ele>311.0</ele><time>2019-08-12T12:08:33Z</time></trkpt>
<trkpt lat="46.729819" lon="15.556366"><ele>311.0</ele><time>2019-08-12T12:08:35Z</time></trkpt>
<trkpt lat="46.729902" lon="15.557021"><ele>304.6</ele><time>2019-08-12T12:08:41Z</time></trkpt>
<trkpt lat="46.72991" lon="15.557255"><ele>304.6</ele><time>2019-08-12T12:08:43Z</time></trkpt>
<trkpt lat="46.72988" lon="15.557821"><ele>302.4</ele><time>2019-08-12T12:08:48Z</time></trkpt>
<trkpt lat="46.729743" lon="15.559134"><ele>302.4</ele><time>2019-08-12T12:08:59Z</time></trkpt>
<trkpt lat="46.729795" lon="15.559858"><ele>298.8</ele><time>2019-08-12T12:09:06Z</time></trkpt>
<trkpt lat="46.729989" lon="15.560665"><ele>288.8</ele><time>2019-08-12T12:09:13Z</time></trkpt>
<trkpt lat="46.730742" lon="15.563303"><ele>273.4</ele><time>2019-08-12T12:09:38Z</time></trkpt>
<trkpt lat="46.730969" lon="15.563932"><ele>284.4</ele><time>2019-08-12T12:09:44Z</time></trkpt>
<trkpt lat="46.73143" lon="15.564524"><ele>285.6</ele><time>2019-08-12T12:09:52Z</time></trkpt>
<trkpt lat="46.731798" lon="15.56495"><ele>294.0</ele><time>2019-08-12T12:09:58Z</time></trkpt>
<trkpt lat="46.732237" lon="15.565377"><ele>295.6</ele><time>2019-08-12T12:10:04Z</time></trkpt>
<trkpt lat="46.732778" lon="15.566018"><ele>300.0</ele><time>2019-08-12T12:10:13Z</time></trkpt>
<trkpt lat="46.733086" lon="15.566269"><ele>300.0</ele><time>2019-08-12T12:10:18Z</time></trkpt>
<trkpt lat="46.733505" lon="15.566788"><ele>293.4</ele><time>2019-08-12T12:10:25Z</time></trkpt>
<trkpt lat="46.733574" lon="15.566983"><ele>293.4</ele><time>2019-08-12T12:10:27Z</time></trkpt>
<trkpt lat="46.733733" lon="15.567312"><ele>293.4</ele><time>2019-08-12T12:10:30Z</time></trkpt>
<trkpt lat="46.733899" lon="15.567536"><ele>290.2</ele><time>2019-08-12T12:10:33Z</time></trkpt>
<trkpt lat="46.734074" lon="15.567695"><ele>290.2</ele><time>2019-08-12T12:10:35Z</time></trkpt>
<trkpt lat="46.735151" lon="15.568256"><ele>273.6</ele><time>2019-08-12T12:10:50Z</time></trkpt>
<trkpt lat="46.73542" lon="15.568502"><ele>271.8</ele><time>2019-08-12T12:10:54Z</time></trkpt>
<trkpt lat="46.735719" lon="15.568714"><ele>271.8</ele><time>2019-08-12T12:10:58Z</time></trkpt>
<trkpt lat="46.736001" lon="15.568753"><ele>264.6</ele><time>2019-08-12T12:11:02Z</time></trkpt>
<trkpt lat="46.736419" lon="15.568637"><ele>264.6</ele><time>2019-08-12T12:11:07Z</time></trkpt>
<trkpt lat="46.736734" lon="15.568461"><ele>264.2</ele><time>2019-08-12T12:11:11Z</time></trkpt>
<trkpt lat="46.736822" lon="15.568317"><ele>263.8</ele><time>2019-08-12T12:11:13Z</time></trkpt>
<trkpt lat="46.737031" lon="15.568401"><ele>264.2</ele><time>2019-08-12T12:11:16Z</time></trkpt>
<trkpt lat="46.737144" lon="15.568522"><ele>264.2</ele><time>2019-08-12T12:11:18Z</time></trkpt>
<trkpt lat="46.737114" lon="15.568699"><ele>264.2</ele><time>2019-08-12T12:11:19Z</time></trkpt>
<trkpt lat="46.737097" lon="15.569186"><ele>264.6</ele><time>2019-08-12T12:11:21Z</time></trkpt>
<trkpt lat="46.73708" lon="15.569305"><ele>264.6</ele><time>2019-08-12T12:11:21Z</time></trkpt>
<trkpt lat="46.73679" lon="15.570136"><ele>264.0</ele><time>2019-08-12T12:11:25Z</time></trkpt>
<trkpt lat="46.736636" lon="15.57038"><ele>263.8</ele><time>2019-08-12T12:11:26Z</time></trkpt>
<trkpt lat="46.736475" lon="15.570514"><ele>263.8</ele><time>2019-08-12T12:11:27Z</time></trkpt>
<trkpt lat="46.736011" lon="15.570668"><ele>263.8</ele><time>2019-08-12T12:11:29Z</time></trkpt>
<trkpt lat="46.735376" lon="15.570999"><ele>264.6</ele><time>2019-08-12T12:11:33Z</time></trkpt>
<trkpt lat="46.735305" lon="15.571079"><ele>264.6</ele><time>2019-08-12T12:11:34Z</time></trkpt>
<trkpt lat="46.735249" lon="15.571183"><ele>264.6</ele><time>2019-08-12T12:11:34Z</time></trkpt>
<trkpt lat="46.73514" lon="15.571649"><ele>264.6</ele><time>2019-08-12T12:11:36Z</time></trkpt>
<trkpt lat="46.735099" lon="15.57175"><ele>260.2</ele><time>2019-08-12T12:11:36Z</time></trkpt>
<trkpt lat="46.734987" lon="15.571877"><ele>264.2</ele><time>2019-08-12T12:11:37Z</time></trkpt>
<trkpt lat="46.734928" lon="15.571906"><ele>264.2</ele><time>2019-08-12T12:11:38Z</time></trkpt>
<trkpt lat="46.734876" lon="15.571905"><ele>264.2</ele><time>2019-08-12T12:11:38Z</time></trkpt>
<trkpt lat="46.734406" lon="15.571773"><ele>264.2</ele><time>2019-08-12T12:11:40Z</time></trkpt>
<trkpt lat="46.733856" lon="15.571884"><ele>270.2</ele><time>2019-08-12T12:11:44Z</time></trkpt>
<trkpt lat="46.733135" lon="15.572133"><ele>273.8</ele><time>2019-08-12T12:11:48Z</time></trkpt>
<trkpt lat="46.73224" lon="15.572495"><ele>271.6</ele><time>2019-08-12T12:11:53Z</time></trkpt>
<trkpt lat="46.73152" lon="15.572838"><ele>263.2</ele><time>2019-08-12T12:11:57Z</time></trkpt>
<trkpt lat="46.730982" lon="15.573184"><ele>263.2</ele><time>2019-08-12T12:12:00Z</time></trkpt>
<trkpt lat="46.730516" lon="15.573541"><ele>267.8</ele><time>2019-08-12T12:12:03Z</time></trkpt>
<trkpt lat="46.729999" lon="15.574133"><ele>274.0</ele><time>2019-08-12T12:12:07Z</time></trkpt>
<trkpt lat="46.729777" lon="15.574427"><ele>267.0</ele><time>2019-08-12T12:12:08Z</time></trkpt>
<trkpt lat="46.729557" lon="15.57478"><ele>267.0</ele><time>2019-08-12T12:12:10Z</time></trkpt>
<trkpt lat="46.729263" lon="15.575367"><ele>260.4</ele><time>2019-08-12T12:12:13Z</time></trkpt>
<trkpt lat="46.728986" lon="15.576041"><ele>265.0</ele><time>2019-08-12T12:12:16Z</time></trkpt>
<trkpt lat="46.728468" lon="15.57776"><ele>262.2</ele><time>2019-08-12T12:12:23Z</time></trkpt>
<trkpt lat="46.728131" lon="15.578951"><ele>271.4</ele><time>2019-08-12T12:12:28Z</time></trkpt>
<trkpt lat="46.727998" lon="15.579528"><ele>267.8</ele><time>2019-08-12T12:12:30Z</time></trkpt>
<trkpt lat="46.72794" lon="15.580047"><ele>264.0</ele><time>2019-08-12T12:12:32Z</time></trkpt>
<trkpt lat="46.727928" lon="15.580532"><ele>264.0</ele><time>2019-08-12T12:12:34Z</time></trkpt>
<trkpt lat="46.727955" lon="15.581105"><ele>261.4</ele><time>2019-08-12T12:12:36Z</time></trkpt>
<trkpt lat="46.727999" lon="15.581632"><ele>261.4</ele><time>2019-08-12T12:12:38Z</time></trkpt>
<trkpt lat="46.728077" lon="15.582177"><ele>260.0</ele><time>2019-08-12T12:12:40Z</time></trkpt>
<trkpt lat="46.72813" lon="15.58283"><ele>258.2</ele><time>2019-08-12T12:12:42Z</time></trkpt>
<trkpt lat="46.728136" lon="15.583172"><ele>258.2</ele><time>2019-08-12T12:12:44Z</time></trkpt>
<trkpt lat="46.72813" lon="15.583706"><ele>256.6</ele><time>2019-08-12T12:12:46Z</time></trkpt>
<trkpt lat="46.727986" lon="15.584574"><ele>255.4</ele><time>2019-08-12T12:12:49Z</time></trkpt>
<trkpt lat="46.729401" lon="15.584926"><ele>255.0</ele><time>2019-08-12T12:13:05Z</time></trkpt>
<trkpt lat="46.729526" lon="15.584982"><ele>255.0</ele><time>2019-08-12T12:13:06Z</time></trkpt>
<trkpt lat="46.729524" lon="15.585051"><ele>255.6</ele><time>2019-08-12T12:13:06Z</time></trkpt>
<trkpt lat="46.729574" lon="15.585135"><ele>255.6</ele><time>2019-08-12T12:13:07Z</time></trkpt>
<trkpt lat="46.729611" lon="15.585146"><ele>255.6</ele><time>2019-08-12T12:13:07Z</time></trkpt>
<trkpt lat="46.729665" lon="15.585116"><ele>255.6</ele><time>2019-08-12T12:13:07Z</time></trkpt>
<trkpt lat="46.729695" lon="15.585044"><ele>255.6</ele><time>2019-08-12T12:13:08Z</time></trkpt>
<trkpt lat="46.729696" lon="15.585002"><ele>255.6</ele><time>2019-08-12T12:13:08Z</time></trkpt>
<trkpt lat="46.729671" lon="15.584926"><ele>255.0</ele><time>2019-08-12T12:13:08Z</time></trkpt>
<trkpt lat="46.729647" lon="15.584902"><ele>255.0</ele><time>2019-08-12T12:13:08Z</time></trkpt>
<trkpt lat="46.72984" lon="15.584481"><ele>255.0</ele><time>2019-08-12T12:13:10Z</time></trkpt>
<trkpt lat="46.730674" lon="15.582983"><ele>254.8</ele><time>2019-08-12T12:13:18Z</time></trkpt>
<trkpt lat="46.730844" lon="15.582718"><ele>255.6</ele><time>2019-08-12T12:13:19Z</time></trkpt>
<trkpt lat="46.731131" lon="15.582387"><ele>256.4</ele><time>2019-08-12T12:13:21Z</time></trkpt>
<trkpt lat="46.73149" lon="15.582084"><ele>256.4</ele><time>2019-08-12T12:13:24Z</time></trkpt>
<trkpt lat="46.731878" lon="15.581841"><ele>259.0</ele><time>2019-08-12T12:13:26Z</time></trkpt>
<trkpt lat="46.732113" lon="15.581749"><ele>259.0</ele><time>2019-08-12T12:13:28Z</time></trkpt>
<trkpt lat="46.732464" lon="15.581688"><ele>259.0</ele><time>2019-08-12T12:13:30Z</time></trkpt>
<trkpt lat="46.732853" lon="15.581695"><ele>259.8</ele><time>2019-08-12T12:13:32Z</time></trkpt>
<trkpt lat="46.733054" lon="15.581715"><ele>259.8</ele><time>2019-08-12T12:13:33Z</time></trkpt>
<trkpt lat="46.733307" lon="15.581771"><ele>259.8</ele><time>2019-08-12T12:13:34Z</time></trkpt>
<trkpt lat="46.733565" lon="15.581891"><ele>257.6</ele><time>2019-08-12T12:13:36Z</time></trkpt>
<trkpt lat="46.734392" lon="15.582367"><ele>255.8</ele><time>2019-08-12T12:13:41Z</time></trkpt>
<trkpt lat="46.734639" lon="15.582449"><ele>255.8</ele><time>2019-08-12T12:13:42Z</time></trkpt>
<trkpt lat="46.734944" lon="15.582475"><ele>255.8</ele><time>2019-08-12T12:13:44Z</time></trkpt>
<trkpt lat="46.73514" lon="15.582467"><ele>255.6</ele><time>2019-08-12T12:13:45Z</time></trkpt>
<trkpt lat="46.735878" lon="15.582276"><ele>255.6</ele><time>2019-08-12T12:13:50Z</time></trkpt>
<trkpt lat="46.736638" lon="15.582138"><ele>255.6</ele><time>2019-08-12T12:13:54Z</time></trkpt>
<trkpt lat="46.738009" lon="15.581946"><ele>255.8</ele><time>2019-08-12T12:14:02Z</time></trkpt>
<trkpt lat="46.738342" lon="15.581855"><ele>256.2</ele><time>2019-08-12T12:14:04Z</time></trkpt>
<trkpt lat="46.73893" lon="15.581571"><ele>255.6</ele><time>2019-08-12T12:14:07Z</time></trkpt>
<trkpt lat="46.739224" lon="15.581496"><ele>256.0</ele><time>2019-08-12T12:14:09Z</time></trkpt>
<trkpt lat="46.739441" lon="15.581493"><ele>256.0</ele><time>2019-08-12T12:14:10Z</time></trkpt>
<trkpt lat="46.739605" lon="15.58152"><ele>256.0</ele><time>2019-08-12T12:14:11Z</time></trkpt>
<trkpt lat="46.739784" lon="15.581581"><ele>256.0</ele><time>2019-08-12T12:14:12Z</time></trkpt>
<trkpt lat="46.741252" lon="15.58235"><ele>257.0</ele><time>2019-08-12T12:14:21Z</time></trkpt>
<trkpt lat="46.742355" lon="15.582883"><ele>257.2</ele><time>2019-08-12T12:14:28Z</time></trkpt>
<trkpt lat="46.742745" lon="15.583032"><ele>258.2</ele><time>2019-08-12T12:14:30Z</time></trkpt>
<trkpt lat="46.743161" lon="15.583132"><ele>258.2</ele><time>2019-08-12T12:14:33Z</time></trkpt>
<trkpt lat="46.74375" lon="15.583216"><ele>258.6</ele><time>2019-08-12T12:14:36Z</time></trkpt>
<trkpt lat="46.743959" lon="15.583273"><ele>258.6</ele><time>2019-08-12T12:14:37Z</time></trkpt>
<trkpt lat="46.744133" lon="15.583323"><ele>258.6</ele><time>2019-08-12T12:14:38Z</time></trkpt>
<trkpt lat="46.744843" lon="15.583621"><ele>259.0</ele><time>2019-08-12T12:14:42Z</time></trkpt>
<trkpt lat="46.745756" lon="15.583674"><ele>259.4</ele><time>2019-08-12T12:14:48Z</time></trkpt>
<trkpt lat="46.745939" lon="15.583641"><ele>259.6</ele><time>2019-08-12T12:14:49Z</time></trkpt>
<trkpt lat="46.746964" lon="15.58334"><ele>260.8</ele><time>2019-08-12T12:14:55Z</time></trkpt>
<trkpt lat="46.747961" lon="15.583038"><ele>259.0</ele><time>2019-08-12T12:15:01Z</time></trkpt>
<trkpt lat="46.748405" lon="15.582879"><ele>258.2</ele><time>2019-08-12T12:15:03Z</time></trkpt>
<trkpt lat="46.748775" lon="15.582688"><ele>258.2</ele><time>2019-08-12T12:15:05Z</time></trkpt>
<trkpt lat="46.749492" lon="15.582186"><ele>257.6</ele><time>2019-08-12T12:15:10Z</time></trkpt>
<trkpt lat="46.751265" lon="15.581419"><ele>260.0</ele><time>2019-08-12T12:15:21Z</time></trkpt>
<trkpt lat="46.751819" lon="15.5811"><ele>259.8</ele><time>2019-08-12T12:15:24Z</time></trkpt>
<trkpt lat="46.75248" lon="15.580752"><ele>261.6</ele><time>2019-08-12T12:15:28Z</time></trkpt>
<trkpt lat="46.752864" lon="15.580662"><ele>261.6</ele><time>2019-08-12T12:15:30Z</time></trkpt>
<trkpt lat="46.7532" lon="15.580665"><ele>261.6</ele><time>2019-08-12T12:15:32Z</time></trkpt>
<trkpt lat="46.753354" lon="15.580689"><ele>262.0</ele><time>2019-08-12T12:15:33Z</time></trkpt>
<trkpt lat="46.753758" lon="15.580821"><ele>262.0</ele><time>2019-08-12T12:15:35Z</time></trkpt>
<trkpt lat="46.754254" lon="15.581136"><ele>259.8</ele><time>2019-08-12T12:15:38Z</time></trkpt>
<trkpt lat="46.755449" lon="15.582015"><ele>259.0</ele><time>2019-08-12T12:15:46Z</time></trkpt>
<trkpt lat="46.758326" lon="15.584006"><ele>260.0</ele><time>2019-08-12T12:16:04Z</time></trkpt>
<trkpt lat="46.758895" lon="15.584379"><ele>260.4</ele><time>2019-08-12T12:16:08Z</time></trkpt>
<trkpt lat="46.759022" lon="15.584424"><ele>260.4</ele><time>2019-08-12T12:16:09Z</time></trkpt>
<trkpt lat="46.759198" lon="15.584449"><ele>261.0</ele><time>2019-08-12T12:16:10Z</time></trkpt>
<trkpt lat="46.759254" lon="15.58448"><ele>261.0</ele><time>2019-08-12T12:16:10Z</time></trkpt>
<trkpt lat="46.759307" lon="15.584536"><ele>261.0</ele><time>2019-08-12T12:16:10Z</time></trkpt>
<trkpt lat="46.759348" lon="15.584616"><ele>261.0</ele><time>2019-08-12T12:16:11Z</time></trkpt>
<trkpt lat="46.759389" lon="15.584755"><ele>261.0</ele><time>2019-08-12T12:16:11Z</time></trkpt>
<trkpt lat="46.759341" lon="15.584815"><ele>261.0</ele><time>2019-08-12T12:16:12Z</time></trkpt>
<trkpt lat="46.759314" lon="15.5849"><ele>261.0</ele><time>2019-08-12T12:16:12Z</time></trkpt>
<trkpt lat="46.759314" lon="15.584993"><ele>261.0</ele><time>2019-08-12T12:16:12Z</time></trkpt>
<trkpt lat="46.75934" lon="15.585078"><ele>261.6</ele><time>2019-08-12T12:16:13Z</time></trkpt>
<trkpt lat="46.759377" lon="15.585129"><ele>261.6</ele><time>2019-08-12T12:16:13Z</time></trkpt>
<trkpt lat="46.759424" lon="15.585159"><ele>261.6</ele><time>2019-08-12T12:16:13Z</time></trkpt>
<trkpt lat="46.759524" lon="15.585145"><ele>261.6</ele><time>2019-08-12T12:16:14Z</time></trkpt>
<trkpt lat="46.759566" lon="15.585102"><ele>261.6</ele><time>2019-08-12T12:16:14Z</time></trkpt>
<trkpt lat="46.759665" lon="15.585234"><ele>261.6</ele><time>2019-08-12T12:16:14Z</time></trkpt>
<trkpt lat="46.759786" lon="15.585226"><ele>261.6</ele><time>2019-08-12T12:16:15Z</time></trkpt>
<trkpt lat="46.760513" lon="15.58474"><ele>261.4</ele><time>2019-08-12T12:16:19Z</time></trkpt>
<trkpt lat="46.762454" lon="15.583872"><ele>261.8</ele><time>2019-08-12T12:16:28Z</time></trkpt>
<trkpt lat="46.763122" lon="15.583519"><ele>263.0</ele><time>2019-08-12T12:16:32Z</time></trkpt>
<trkpt lat="46.763179" lon="15.583565"><ele>263.0</ele><time>2019-08-12T12:16:32Z</time></trkpt>
<trkpt lat="46.763262" lon="15.583751"><ele>263.0</ele><time>2019-08-12T12:16:34Z</time></trkpt>
<trkpt lat="46.762842" lon="15.58475"><ele>262.4</ele><time>2019-08-12T12:16:40Z</time></trkpt>
<trkpt lat="46.762205" lon="15.586066"><ele>261.6</ele><time>2019-08-12T12:16:49Z</time></trkpt>
<trkpt lat="46.761533" lon="15.587368"><ele>262.4</ele><time>2019-08-12T12:16:57Z</time></trkpt>
<trkpt lat="46.761282" lon="15.587928"><ele>262.8</ele><time>2019-08-12T12:17:01Z</time></trkpt>
<trkpt lat="46.76119" lon="15.588198"><ele>262.8</ele><time>2019-08-12T12:17:03Z</time></trkpt>
<trkpt lat="46.761102" lon="15.588593"><ele>263.0</ele><time>2019-08-12T12:17:05Z</time></trkpt>
<trkpt lat="46.761071" lon="15.588808"><ele>263.0</ele><time>2019-08-12T12:17:06Z</time></trkpt>
<trkpt lat="46.761037" lon="15.589162"><ele>263.0</ele><time>2019-08-12T12:17:08Z</time></trkpt>
<trkpt lat="46.76103" lon="15.589632"><ele>263.4</ele><time>2019-08-12T12:17:11Z</time></trkpt>
<trkpt lat="46.761182" lon="15.591229"><ele>264.0</ele><time>2019-08-12T12:17:19Z</time></trkpt>
<trkpt lat="46.76118" lon="15.591761"><ele>264.4</ele><time>2019-08-12T12:17:22Z</time></trkpt>
<trkpt lat="46.761145" lon="15.592289"><ele>264.4</ele><time>2019-08-12T12:17:25Z</time></trkpt>
<trkpt lat="46.760993" lon="15.593075"><ele>264.0</ele><time>2019-08-12T12:17:29Z</time></trkpt>
<trkpt lat="46.760816" lon="15.593648"><ele>265.2</ele><time>2019-08-12T12:17:33Z</time></trkpt>
<trkpt lat="46.760606" lon="15.594125"><ele>265.2</ele><time>2019-08-12T12:17:36Z</time></trkpt>
<trkpt lat="46.76043" lon="15.594472"><ele>264.0</ele><time>2019-08-12T12:17:38Z</time></trkpt>
<trkpt lat="46.760127" lon="15.594905"><ele>264.0</ele><time>2019-08-12T12:17:41Z</time></trkpt>
<trkpt lat="46.759385" lon="15.595739"><ele>263.6</ele><time>2019-08-12T12:17:49Z</time></trkpt>
<trkpt lat="46.75903" lon="15.596226"><ele>265.4</ele><time>2019-08-12T12:17:52Z</time></trkpt>
<trkpt lat="46.758789" lon="15.59674"><ele>265.6</ele><time>2019-08-12T12:17:56Z</time></trkpt>
<trkpt lat="46.758627" lon="15.597261"><ele>265.6</ele><time>2019-08-12T12:17:59Z</time></trkpt>
<trkpt lat="46.757811" lon="15.601287"><ele>267.0</ele><time>2019-08-12T12:18:21Z</time></trkpt>
<trkpt lat="46.757585" lon="15.60254"><ele>269.8</ele><time>2019-08-12T12:18:28Z</time></trkpt>
<trkpt lat="46.757433" lon="15.603522"><ele>268.4</ele><time>2019-08-12T12:18:34Z</time></trkpt>
<trkpt lat="46.757389" lon="15.603944"><ele>268.4</ele><time>2019-08-12T12:18:36Z</time></trkpt>
<trkpt lat="46.757378" lon="15.604241"><ele>269.4</ele><time>2019-08-12T12:18:38Z</time></trkpt>
<trkpt lat="46.7574" lon="15.604661"><ele>269.4</ele><time>2019-08-12T12:18:40Z</time></trkpt>
<trkpt lat="46.757511" lon="15.605984"><ele>273.2</ele><time>2019-08-12T12:18:47Z</time></trkpt>
<trkpt lat="46.757741" lon="15.607536"><ele>273.8</ele><time>2019-08-12T12:18:56Z</time></trkpt>
<trkpt lat="46.758187" lon="15.610172"><ele>273.4</ele><time>2019-08-12T12:19:10Z</time></trkpt>
<trkpt lat="46.758226" lon="15.610783"><ele>273.4</ele><time>2019-08-12T12:19:13Z</time></trkpt>
<trkpt lat="46.758221" lon="15.611167"><ele>273.2</ele><time>2019-08-12T12:19:16Z</time></trkpt>
<trkpt lat="46.758124" lon="15.611805"><ele>273.2</ele><time>2019-08-12T12:19:19Z</time></trkpt>
<trkpt lat="46.757878" lon="15.61297"><ele>273.6</ele><time>2019-08-12T12:19:26Z</time></trkpt>
<trkpt lat="46.757523" lon="15.614923"><ele>271.6</ele><time>2019-08-12T12:19:36Z</time></trkpt>
<trkpt lat="46.75736" lon="15.616204"><ele>271.6</ele><time>2019-08-12T12:19:43Z</time></trkpt>
<trkpt lat="46.757317" lon="15.616787"><ele>272.2</ele><time>2019-08-12T12:19:47Z</time></trkpt>
<trkpt lat="46.757298" lon="15.617361"><ele>272.2</ele><time>2019-08-12T12:19:50Z</time></trkpt>
<trkpt lat="46.757315" lon="15.618385"><ele>272.2</ele><time>2019-08-12T12:19:55Z</time></trkpt>
<trkpt lat="46.757382" lon="15.619229"><ele>272.0</ele><time>2019-08-12T12:20:00Z</time></trkpt>
<trkpt lat="46.757764" lon="15.622445"><ele>271.0</ele><time>2019-08-12T12:20:17Z</time></trkpt>
<trkpt lat="46.757843" lon="15.623236"><ele>271.6</ele><time>2019-08-12T12:20:21Z</time></trkpt>
<trkpt lat="46.757858" lon="15.623848"><ele>272.4</ele><time>2019-08-12T12:20:25Z</time></trkpt>
<trkpt lat="46.757842" lon="15.624039"><ele>272.4</ele><time>2019-08-12T12:20:26Z</time></trkpt>
<trkpt lat="46.757701" lon="15.624402"><ele>273.6</ele><time>2019-08-12T12:20:28Z</time></trkpt>
<trkpt lat="46.757636" lon="15.624413"><ele>273.6</ele><time>2019-08-12T12:20:28Z</time></trkpt>
<trkpt lat="46.757562" lon="15.624468"><ele>273.6</ele><time>2019-08-12T12:20:29Z</time></trkpt>
<trkpt lat="46.7575" lon="15.624597"><ele>273.2</ele><time>2019-08-12T12:20:29Z</time></trkpt>
<trkpt lat="46.757493" lon="15.624719"><ele>273.2</ele><time>2019-08-12T12:20:30Z</time></trkpt>
<trkpt lat="46.757516" lon="15.624819"><ele>273.6</ele><time>2019-08-12T12:20:30Z</time></trkpt>
<trkpt lat="46.757548" lon="15.624884"><ele>273.6</ele><time>2019-08-12T12:20:30Z</time></trkpt>
<trkpt lat="46.757612" lon="15.624949"><ele>273.6</ele><time>2019-08-12T12:20:31Z</time></trkpt>
<trkpt lat="46.757688" lon="15.624961"><ele>273.6</ele><time>2019-08-12T12:20:31Z</time></trkpt>
<trkpt lat="46.757775" lon="15.624931"><ele>273.6</ele><time>2019-08-12T12:20:32Z</time></trkpt>
<trkpt lat="46.757841" lon="15.624852"><ele>273.6</ele><time>2019-08-12T12:20:32Z</time></trkpt>
<trkpt lat="46.757859" lon="15.624798"><ele>273.6</ele><time>2019-08-12T12:20:32Z</time></trkpt>
<trkpt lat="46.757908" lon="15.624754"><ele>273.6</ele><time>2019-08-12T12:20:32Z</time></trkpt>
<trkpt lat="46.758106" lon="15.624666"><ele>273.6</ele><time>2019-08-12T12:20:33Z</time></trkpt>
<trkpt lat="46.758293" lon="15.624755"><ele>273.6</ele><time>2019-08-12T12:20:34Z</time></trkpt>
<trkpt lat="46.758439" lon="15.624877"><ele>271.4</ele><time>2019-08-12T12:20:35Z</time></trkpt>
<trkpt lat="46.759077" lon="15.625789"><ele>273.2</ele><time>2019-08-12T12:20:39Z</time></trkpt>
<trkpt lat="46.759532" lon="15.626398"><ele>275.4</ele><time>2019-08-12T12:20:42Z</time></trkpt>
<trkpt lat="46.760417" lon="15.627759"><ele>283.4</ele><time>2019-08-12T12:20:48Z</time></trkpt>
<trkpt lat="46.760608" lon="15.627995"><ele>283.4</ele><time>2019-08-12T12:20:49Z</time></trkpt>
<trkpt lat="46.760862" lon="15.628158"><ele>284.0</ele><time>2019-08-12T12:20:50Z</time></trkpt>
<trkpt lat="46.761374" lon="15.628256"><ele>284.0</ele><time>2019-08-12T12:20:53Z</time></trkpt>
<trkpt lat="46.762849" lon="15.628261"><ele>288.4</ele><time>2019-08-12T12:21:00Z</time></trkpt>
<trkpt lat="46.763254" lon="15.628348"><ele>287.2</ele><time>2019-08-12T12:21:01Z</time></trkpt>
<trkpt lat="46.767854" lon="15.630617"><ele>287.1</ele><time>2019-08-12T12:21:24Z</time></trkpt>
<trkpt lat="46.767854" lon="15.630617"><ele>287.1</ele><time>2019-08-12T12:21:24Z</time></trkpt>
<trkpt lat="46.771635" lon="15.632481"><ele>289.0</ele><time>2019-08-12T12:21:44Z</time></trkpt>
<trkpt lat="46.772442" lon="15.632959"><ele>291.4</ele><time>2019-08-12T12:21:49Z</time></trkpt>
<trkpt lat="46.773307" lon="15.633546"><ele>291.6</ele><time>2019-08-12T12:21:54Z</time></trkpt>
<trkpt lat="46.773559" lon="15.633673"><ele>292.8</ele><time>2019-08-12T12:21:55Z</time></trkpt>
<trkpt lat="46.7748" lon="15.634101"><ele>294.8</ele><time>2019-08-12T12:22:02Z</time></trkpt>
<trkpt lat="46.775101" lon="15.634252"><ele>290.4</ele><time>2019-08-12T12:22:03Z</time></trkpt>
<trkpt lat="46.775494" lon="15.634474"><ele>290.4</ele><time>2019-08-12T12:22:06Z</time></trkpt>
<trkpt lat="46.775814" lon="15.634687"><ele>290.4</ele><time>2019-08-12T12:22:07Z</time></trkpt>
<trkpt lat="46.776383" lon="15.635192"><ele>289.4</ele><time>2019-08-12T12:22:11Z</time></trkpt>
<trkpt lat="46.776761" lon="15.635474"><ele>294.6</ele><time>2019-08-12T12:22:13Z</time></trkpt>
<trkpt lat="46.777173" lon="15.635694"><ele>294.6</ele><time>2019-08-12T12:22:15Z</time></trkpt>
<trkpt lat="46.777937" lon="15.635944"><ele>287.8</ele><time>2019-08-12T12:22:19Z</time></trkpt>
<trkpt lat="46.779629" lon="15.636912"><ele>284.8</ele><time>2019-08-12T12:22:29Z</time></trkpt>
<trkpt lat="46.780026" lon="15.637177"><ele>293.0</ele><time>2019-08-12T12:22:31Z</time></trkpt>
<trkpt lat="46.780513" lon="15.637558"><ele>284.4</ele><time>2019-08-12T12:22:34Z</time></trkpt>
<trkpt lat="46.781603" lon="15.638329"><ele>287.6</ele><time>2019-08-12T12:22:40Z</time></trkpt>
<trkpt lat="46.781761" lon="15.638473"><ele>279.2</ele><time>2019-08-12T12:22:41Z</time></trkpt>
<trkpt lat="46.782627" lon="15.639615"><ele>277.2</ele><time>2019-08-12T12:22:47Z</time></trkpt>
<trkpt lat="46.782942" lon="15.639979"><ele>277.2</ele><time>2019-08-12T12:22:49Z</time></trkpt>
<trkpt lat="46.783586" lon="15.640526"><ele>280.0</ele><time>2019-08-12T12:22:53Z</time></trkpt>
<trkpt lat="46.784078" lon="15.640745"><ele>280.0</ele><time>2019-08-12T12:22:56Z</time></trkpt>
<trkpt lat="46.78444" lon="15.64081"><ele>283.0</ele><time>2019-08-12T12:22:58Z</time></trkpt>
<trkpt lat="46.785275" lon="15.640911"><ele>282.4</ele><time>2019-08-12T12:23:02Z</time></trkpt>
<trkpt lat="46.785477" lon="15.640905"><ele>282.4</ele><time>2019-08-12T12:23:03Z</time></trkpt>
<trkpt lat="46.7856" lon="15.640869"><ele>282.4</ele><time>2019-08-12T12:23:04Z</time></trkpt>
<trkpt lat="46.785736" lon="15.640786"><ele>285.4</ele><time>2019-08-12T12:23:04Z</time></trkpt>
<trkpt lat="46.786054" lon="15.6405"><ele>286.6</ele><time>2019-08-12T12:23:06Z</time></trkpt>
<trkpt lat="46.78686" lon="15.639659"><ele>287.8</ele><time>2019-08-12T12:23:12Z</time></trkpt>
<trkpt lat="46.787485" lon="15.639074"><ele>289.0</ele><time>2019-08-12T12:23:15Z</time></trkpt>
<trkpt lat="46.787632" lon="15.638897"><ele>289.8</ele><time>2019-08-12T12:23:16Z</time></trkpt>
<trkpt lat="46.788131" lon="15.638087"><ele>291.0</ele><time>2019-08-12T12:23:20Z</time></trkpt>
<trkpt lat="46.788313" lon="15.637839"><ele>291.0</ele><time>2019-08-12T12:23:21Z</time></trkpt>
<trkpt lat="46.788528" lon="15.637622"><ele>291.0</ele><time>2019-08-12T12:23:23Z</time></trkpt>
<trkpt lat="46.788671" lon="15.637507"><ele>291.0</ele><time>2019-08-12T12:23:24Z</time></trkpt>
<trkpt lat="46.788794" lon="15.63745"><ele>291.8</ele><time>2019-08-12T12:23:24Z</time></trkpt>
<trkpt lat="46.788896" lon="15.637458"><ele>291.8</ele><time>2019-08-12T12:23:25Z</time></trkpt>
<trkpt lat="46.788992" lon="15.637521"><ele>291.0</ele><time>2019-08-12T12:23:25Z</time></trkpt>
<trkpt lat="46.789091" lon="15.637616"><ele>291.0</ele><time>2019-08-12T12:23:26Z</time></trkpt>
<trkpt lat="46.789759" lon="15.638408"><ele>288.6</ele><time>2019-08-12T12:23:30Z</time></trkpt>
<trkpt lat="46.789835" lon="15.638566"><ele>288.6</ele><time>2019-08-12T12:23:31Z</time></trkpt>
<trkpt lat="46.790335" lon="15.640274"><ele>280.6</ele><time>2019-08-12T12:23:38Z</time></trkpt>
<trkpt lat="46.790523" lon="15.640849"><ele>278.0</ele><time>2019-08-12T12:23:40Z</time></trkpt>
<trkpt lat="46.790755" lon="15.641247"><ele>278.0</ele><time>2019-08-12T12:23:42Z</time></trkpt>
<trkpt lat="46.791003" lon="15.641539"><ele>276.8</ele><time>2019-08-12T12:23:43Z</time></trkpt>
<trkpt lat="46.791325" lon="15.641743"><ele>274.4</ele><time>2019-08-12T12:23:45Z</time></trkpt>
<trkpt lat="46.794129" lon="15.642742"><ele>275.6</ele><time>2019-08-12T12:24:00Z</time></trkpt>
<trkpt lat="46.794465" lon="15.642806"><ele>275.2</ele><time>2019-08-12T12:24:02Z</time></trkpt>
<trkpt lat="46.794774" lon="15.642829"><ele>275.2</ele><time>2019-08-12T12:24:04Z</time></trkpt>
<trkpt lat="46.795038" lon="15.642788"><ele>274.0</ele><time>2019-08-12T12:24:05Z</time></trkpt>
<trkpt lat="46.795462" lon="15.642648"><ele>274.0</ele><time>2019-08-12T12:24:07Z</time></trkpt>
<trkpt lat="46.79742" lon="15.641835"><ele>275.8</ele><time>2019-08-12T12:24:18Z</time></trkpt>
<trkpt lat="46.798248" lon="15.641548"><ele>279.0</ele><time>2019-08-12T12:24:22Z</time></trkpt>
<trkpt lat="46.798578" lon="15.641513"><ele>279.0</ele><time>2019-08-12T12:24:24Z</time></trkpt>
<trkpt lat="46.799368" lon="15.641733"><ele>275.6</ele><time>2019-08-12T12:24:28Z</time></trkpt>
<trkpt lat="46.799649" lon="15.641869"><ele>275.6</ele><time>2019-08-12T12:24:29Z</time></trkpt>
<trkpt lat="46.801115" lon="15.642749"><ele>272.8</ele><time>2019-08-12T12:24:38Z</time></trkpt>
<trkpt lat="46.801867" lon="15.64309"><ele>272.6</ele><time>2019-08-12T12:24:42Z</time></trkpt>
<trkpt lat="46.802635" lon="15.643144"><ele>272.4</ele><time>2019-08-12T12:24:46Z</time></trkpt>
<trkpt lat="46.803248" lon="15.64294"><ele>272.4</ele><time>2019-08-12T12:24:49Z</time></trkpt>
<trkpt lat="46.803793" lon="15.642573"><ele>272.4</ele><time>2019-08-12T12:24:52Z</time></trkpt>
<trkpt lat="46.80448" lon="15.64182"><ele>273.8</ele><time>2019-08-12T12:24:56Z</time></trkpt>
<trkpt lat="46.806085" lon="15.639821"><ele>281.0</ele><time>2019-08-12T12:25:07Z</time></trkpt>
<trkpt lat="46.806342" lon="15.639473"><ele>281.0</ele><time>2019-08-12T12:25:09Z</time></trkpt>
<trkpt lat="46.806914" lon="15.638638"><ele>282.4</ele><time>2019-08-12T12:25:13Z</time></trkpt>
<trkpt lat="46.807098" lon="15.638432"><ele>282.4</ele><time>2019-08-12T12:25:14Z</time></trkpt>
<trkpt lat="46.807447" lon="15.638171"><ele>286.4</ele><time>2019-08-12T12:25:17Z</time></trkpt>
<trkpt lat="46.807677" lon="15.63806"><ele>283.2</ele><time>2019-08-12T12:25:18Z</time></trkpt>
<trkpt lat="46.808043" lon="15.637977"><ele>283.2</ele><time>2019-08-12T12:25:20Z</time></trkpt>
<trkpt lat="46.809595" lon="15.637802"><ele>287.8</ele><time>2019-08-12T12:25:28Z</time></trkpt>
<trkpt lat="46.810662" lon="15.637589"><ele>286.8</ele><time>2019-08-12T12:25:33Z</time></trkpt>
<trkpt lat="46.812007" lon="15.637277"><ele>283.4</ele><time>2019-08-12T12:25:40Z</time></trkpt>
<trkpt lat="46.812373" lon="15.637132"><ele>283.4</ele><time>2019-08-12T12:25:42Z</time></trkpt>
<trkpt lat="46.813242" lon="15.636705"><ele>282.0</ele><time>2019-08-12T12:25:47Z</time></trkpt>
<trkpt lat="46.813616" lon="15.636584"><ele>287.0</ele><time>2019-08-12T12:25:49Z</time></trkpt>
<trkpt lat="46.815859" lon="15.636002"><ele>280.4</ele><time>2019-08-12T12:26:01Z</time></trkpt>
<trkpt lat="46.817376" lon="15.635768"><ele>284.6</ele><time>2019-08-12T12:26:09Z</time></trkpt>
<trkpt lat="46.81775" lon="15.63563"><ele>282.4</ele><time>2019-08-12T12:26:11Z</time></trkpt>
<trkpt lat="46.819859" lon="15.634512"><ele>283.8</ele><time>2019-08-12T12:26:22Z</time></trkpt>
<trkpt lat="46.820205" lon="15.634367"><ele>284.8</ele><time>2019-08-12T12:26:24Z</time></trkpt>
<trkpt lat="46.820314" lon="15.634346"><ele>284.8</ele><time>2019-08-12T12:26:25Z</time></trkpt>
<trkpt lat="46.821007" lon="15.634432"><ele>286.0</ele><time>2019-08-12T12:26:28Z</time></trkpt>
<trkpt lat="46.821767" lon="15.634431"><ele>287.0</ele><time>2019-08-12T12:26:32Z</time></trkpt>
<trkpt lat="46.822213" lon="15.634405"><ele>287.0</ele><time>2019-08-12T12:26:34Z</time></trkpt>
<trkpt lat="46.822611" lon="15.634342"><ele>288.4</ele><time>2019-08-12T12:26:36Z</time></trkpt>
<trkpt lat="46.823612" lon="15.634052"><ele>289.2</ele><time>2019-08-12T12:26:42Z</time></trkpt>
<trkpt lat="46.823965" lon="15.633846"><ele>289.2</ele><time>2019-08-12T12:26:44Z</time></trkpt>
<trkpt lat="46.824375" lon="15.633491"><ele>288.8</ele><time>2019-08-12T12:26:46Z</time></trkpt>
<trkpt lat="46.824569" lon="15.633347"><ele>288.8</ele><time>2019-08-12T12:26:47Z</time></trkpt>
<trkpt lat="46.824709" lon="15.633268"><ele>288.6</ele><time>2019-08-12T12:26:48Z</time></trkpt>
<trkpt lat="46.82502" lon="15.633167"><ele>289.2</ele><time>2019-08-12T12:26:50Z</time></trkpt>
<trkpt lat="46.825681" lon="15.633018"><ele>289.2</ele><time>2019-08-12T12:26:53Z</time></trkpt>
<trkpt lat="46.825913" lon="15.633011"><ele>290.6</ele><time>2019-08-12T12:26:54Z</time></trkpt>
<trkpt lat="46.826102" lon="15.633068"><ele>290.6</ele><time>2019-08-12T12:26:55Z</time></trkpt>
<trkpt lat="46.826341" lon="15.633239"><ele>290.6</ele><time>2019-08-12T12:26:57Z</time></trkpt>
<trkpt lat="46.826697" lon="15.633581"><ele>290.6</ele><time>2019-08-12T12:26:59Z</time></trkpt>
<trkpt lat="46.826886" lon="15.633704"><ele>290.6</ele><time>2019-08-12T12:27:00Z</time></trkpt>
<trkpt lat="46.827165" lon="15.633825"><ele>290.6</ele><time>2019-08-12T12:27:02Z</time></trkpt>
<trkpt lat="46.827628" lon="15.633922"><ele>291.2</ele><time>2019-08-12T12:27:04Z</time></trkpt>
<trkpt lat="46.828635" lon="15.633989"><ele>291.8</ele><time>2019-08-12T12:27:09Z</time></trkpt>
<trkpt lat="46.828917" lon="15.63406"><ele>291.8</ele><time>2019-08-12T12:27:11Z</time></trkpt>
<trkpt lat="46.829688" lon="15.634493"><ele>292.2</ele><time>2019-08-12T12:27:15Z</time></trkpt>
<trkpt lat="46.829919" lon="15.634595"><ele>292.2</ele><time>2019-08-12T12:27:16Z</time></trkpt>
<trkpt lat="46.830239" lon="15.634698"><ele>293.0</ele><time>2019-08-12T12:27:18Z</time></trkpt>
<trkpt lat="46.830734" lon="15.634799"><ele>293.0</ele><time>2019-08-12T12:27:20Z</time></trkpt>
<trkpt lat="46.831007" lon="15.634903"><ele>293.2</ele><time>2019-08-12T12:27:22Z</time></trkpt>
<trkpt lat="46.831803" lon="15.635406"><ele>292.4</ele><time>2019-08-12T12:27:26Z</time></trkpt>
<trkpt lat="46.832472" lon="15.635871"><ele>291.6</ele><time>2019-08-12T12:27:30Z</time></trkpt>
<trkpt lat="46.833384" lon="15.636636"><ele>290.6</ele><time>2019-08-12T12:27:36Z</time></trkpt>
<trkpt lat="46.83352" lon="15.636812"><ele>289.4</ele><time>2019-08-12T12:27:36Z</time></trkpt>
<trkpt lat="46.833544" lon="15.636868"><ele>289.4</ele><time>2019-08-12T12:27:37Z</time></trkpt>
<trkpt lat="46.833579" lon="15.63713"><ele>289.4</ele><time>2019-08-12T12:27:38Z</time></trkpt>
<trkpt lat="46.833604" lon="15.638222"><ele>288.2</ele><time>2019-08-12T12:27:42Z</time></trkpt>
<trkpt lat="46.833659" lon="15.638546"><ele>286.2</ele><time>2019-08-12T12:27:43Z</time></trkpt>
<trkpt lat="46.833716" lon="15.638678"><ele>286.2</ele><time>2019-08-12T12:27:43Z</time></trkpt>
<trkpt lat="46.833811" lon="15.638812"><ele>286.2</ele><time>2019-08-12T12:27:44Z</time></trkpt>
<trkpt lat="46.833989" lon="15.638923"><ele>286.2</ele><time>2019-08-12T12:27:45Z</time></trkpt>
<trkpt lat="46.834045" lon="15.638933"><ele>286.2</ele><time>2019-08-12T12:27:45Z</time></trkpt>
<trkpt lat="46.834022" lon="15.639262"><ele>284.2</ele><time>2019-08-12T12:27:47Z</time></trkpt>
<trkpt lat="46.834021" lon="15.64031"><ele>283.4</ele><time>2019-08-12T12:27:51Z</time></trkpt>
<trkpt lat="46.834059" lon="15.640833"><ele>283.4</ele><time>2019-08-12T12:27:53Z</time></trkpt>
<trkpt lat="46.834056" lon="15.640936"><ele>283.4</ele><time>2019-08-12T12:27:53Z</time></trkpt>
<trkpt lat="46.8338" lon="15.642164"><ele>282.0</ele><time>2019-08-12T12:27:58Z</time></trkpt>
<trkpt lat="46.833285" lon="15.644846"><ele>280.2</ele><time>2019-08-12T12:28:09Z</time></trkpt>
<trkpt lat="46.833222" lon="15.645107"><ele>280.4</ele><time>2019-08-12T12:28:10Z</time></trkpt>
<trkpt lat="46.833151" lon="15.645298"><ele>280.4</ele><time>2019-08-12T12:28:11Z</time></trkpt>
<trkpt lat="46.832994" lon="15.645622"><ele>280.4</ele><time>2019-08-12T12:28:13Z</time></trkpt>
<trkpt lat="46.832509" lon="15.646479"><ele>280.8</ele><time>2019-08-12T12:28:17Z</time></trkpt>
<trkpt lat="46.832386" lon="15.646801"><ele>281.0</ele><time>2019-08-12T12:28:19Z</time></trkpt>
<trkpt lat="46.832253" lon="15.647221"><ele>281.0</ele><time>2019-08-12T12:28:21Z</time></trkpt>
<trkpt lat="46.832133" lon="15.647779"><ele>282.2</ele><time>2019-08-12T12:28:23Z</time></trkpt>
<trkpt lat="46.832187" lon="15.647856"><ele>282.2</ele><time>2019-08-12T12:28:24Z</time></trkpt>
<trkpt lat="46.832259" lon="15.647882"><ele>282.2</ele><time>2019-08-12T12:28:24Z</time></trkpt>
<trkpt lat="46.832665" lon="15.648119"><ele>281.2</ele><time>2019-08-12T12:28:28Z</time></trkpt>
<trkpt lat="46.834036" lon="15.649004"><ele>282.0</ele><time>2019-08-12T12:28:41Z</time></trkpt>
<trkpt lat="46.835341" lon="15.649899"><ele>283.2</ele><time>2019-08-12T12:28:53Z</time></trkpt>
<trkpt lat="46.835835" lon="15.650217"><ele>283.2</ele><time>2019-08-12T12:28:57Z</time></trkpt>
<trkpt lat="46.838462" lon="15.651782"><ele>282.6</ele><time>2019-08-12T12:29:21Z</time></trkpt>
<trkpt lat="46.838563" lon="15.651863"><ele>282.6</ele><time>2019-08-12T12:29:22Z</time></trkpt>
<trkpt lat="46.83877" lon="15.652087"><ele>282.6</ele><time>2019-08-12T12:29:24Z</time></trkpt>
<trkpt lat="46.838864" lon="15.65222"><ele>282.6</ele><time>2019-08-12T12:29:26Z</time></trkpt>
<trkpt lat="46.839105" lon="15.652653"><ele>287.4</ele><time>2019-08-12T12:29:29Z</time></trkpt>
<trkpt lat="46.83947" lon="15.653386"><ele>286.6</ele><time>2019-08-12T12:29:34Z</time></trkpt>
<trkpt lat="46.839731" lon="15.654005"><ele>286.6</ele><time>2019-08-12T12:29:38Z</time></trkpt>
<trkpt lat="46.840121" lon="15.654749"><ele>285.0</ele><time>2019-08-12T12:29:44Z</time></trkpt>
<trkpt lat="46.840982" lon="15.656326"><ele>285.2</ele><time>2019-08-12T12:29:55Z</time></trkpt>
<trkpt lat="46.84115" lon="15.656603"><ele>285.2</ele><time>2019-08-12T12:29:57Z</time></trkpt>
<trkpt lat="46.841253" lon="15.656725"><ele>286.6</ele><time>2019-08-12T12:29:59Z</time></trkpt>
<trkpt lat="46.841599" lon="15.657076"><ele>286.6</ele><time>2019-08-12T12:30:02Z</time></trkpt>
<trkpt lat="46.842028" lon="15.657326"><ele>285.8</ele><time>2019-08-12T12:30:06Z</time></trkpt>
<trkpt lat="46.843093" lon="15.657744"><ele>286.4</ele><time>2019-08-12T12:30:15Z</time></trkpt>
<trkpt lat="46.844072" lon="15.658015"><ele>285.8</ele><time>2019-08-12T12:30:24Z</time></trkpt>
<trkpt lat="46.844152" lon="15.657997"><ele>285.8</ele><time>2019-08-12T12:30:25Z</time></trkpt>
<trkpt lat="46.844332" lon="15.658529"><ele>287.2</ele><time>2019-08-12T12:30:27Z</time></trkpt>
<trkpt lat="46.844476" lon="15.658898"><ele>287.2</ele><time>2019-08-12T12:30:29Z</time></trkpt>
<trkpt lat="46.844554" lon="15.659052"><ele>287.2</ele><time>2019-08-12T12:30:30Z</time></trkpt>
<trkpt lat="46.845011" lon="15.659695"><ele>291.8</ele><time>2019-08-12T12:30:34Z</time></trkpt>
<trkpt lat="46.845104" lon="15.659791"><ele>291.8</ele><time>2019-08-12T12:30:35Z</time></trkpt>
<trkpt lat="46.845472" lon="15.659977"><ele>291.8</ele><time>2019-08-12T12:30:37Z</time></trkpt>
<trkpt lat="46.84599" lon="15.660531"><ele>302.2</ele><time>2019-08-12T12:30:41Z</time></trkpt>
<trkpt lat="46.84654" lon="15.661013"><ele>308.8</ele><time>2019-08-12T12:30:45Z</time></trkpt>
<trkpt lat="46.84667" lon="15.661092"><ele>313.2</ele><time>2019-08-12T12:30:46Z</time></trkpt>
<trkpt lat="46.847575" lon="15.661523"><ele>311.0</ele><time>2019-08-12T12:30:52Z</time></trkpt>
<trkpt lat="46.847909" lon="15.661732"><ele>321.6</ele><time>2019-08-12T12:30:54Z</time></trkpt>
<trkpt lat="46.848098" lon="15.661878"><ele>321.6</ele><time>2019-08-12T12:30:56Z</time></trkpt>
<trkpt lat="46.848257" lon="15.662068"><ele>321.6</ele><time>2019-08-12T12:30:57Z</time></trkpt>
<trkpt lat="46.848421" lon="15.662382"><ele>315.6</ele><time>2019-08-12T12:30:59Z</time></trkpt>
<trkpt lat="46.848631" lon="15.662977"><ele>325.2</ele><time>2019-08-12T12:31:02Z</time></trkpt>
<trkpt lat="46.848997" lon="15.663855"><ele>339.4</ele><time>2019-08-12T12:31:06Z</time></trkpt>
<trkpt lat="46.849126" lon="15.664289"><ele>354.6</ele><time>2019-08-12T12:31:08Z</time></trkpt>
<trkpt lat="46.849216" lon="15.664693"><ele>347.0</ele><time>2019-08-12T12:31:10Z</time></trkpt>
<trkpt lat="46.849276" lon="15.665067"><ele>357.8</ele><time>2019-08-12T12:31:12Z</time></trkpt>
<trkpt lat="46.849303" lon="15.665424"><ele>357.8</ele><time>2019-08-12T12:31:14Z</time></trkpt>
<trkpt lat="46.849328" lon="15.667028"><ele>374.8</ele><time>2019-08-12T12:31:20Z</time></trkpt>
<trkpt lat="46.849347" lon="15.667397"><ele>374.8</ele><time>2019-08-12T12:31:22Z</time></trkpt>
<trkpt lat="46.84945" lon="15.668464"><ele>384.2</ele><time>2019-08-12T12:31:27Z</time></trkpt>
<trkpt lat="46.849477" lon="15.669273"><ele>385.0</ele><time>2019-08-12T12:31:30Z</time></trkpt>
<trkpt lat="46.849507" lon="15.669668"><ele>385.0</ele><time>2019-08-12T12:31:32Z</time></trkpt>
<trkpt lat="46.849544" lon="15.669925"><ele>385.0</ele><time>2019-08-12T12:31:33Z</time></trkpt>
<trkpt lat="46.849656" lon="15.670383"><ele>386.8</ele><time>2019-08-12T12:31:35Z</time></trkpt>
<trkpt lat="46.849802" lon="15.670774"><ele>386.8</ele><time>2019-08-12T12:31:37Z</time></trkpt>
<trkpt lat="46.850107" lon="15.671478"><ele>395.6</ele><time>2019-08-12T12:31:41Z</time></trkpt>
<trkpt lat="46.850404" lon="15.671875"><ele>389.8</ele><time>2019-08-12T12:31:43Z</time></trkpt>
<trkpt lat="46.850765" lon="15.672255"><ele>389.8</ele><time>2019-08-12T12:31:46Z</time></trkpt>
<trkpt lat="46.851154" lon="15.67262"><ele>387.4</ele><time>2019-08-12T12:31:49Z</time></trkpt>
<trkpt lat="46.851942" lon="15.673156"><ele>388.2</ele><time>2019-08-12T12:31:54Z</time></trkpt>
<trkpt lat="46.852065" lon="15.6732"><ele>388.2</ele><time>2019-08-12T12:31:55Z</time></trkpt>
<trkpt lat="46.852717" lon="15.673314"><ele>385.0</ele><time>2019-08-12T12:31:59Z</time></trkpt>
<trkpt lat="46.852958" lon="15.673452"><ele>383.4</ele><time>2019-08-12T12:32:01Z</time></trkpt>
<trkpt lat="46.853062" lon="15.673541"><ele>383.4</ele><time>2019-08-12T12:32:02Z</time></trkpt>
<trkpt lat="46.853162" lon="15.673657"><ele>383.4</ele><time>2019-08-12T12:32:02Z</time></trkpt>
<trkpt lat="46.853325" lon="15.674188"><ele>382.6</ele><time>2019-08-12T12:32:05Z</time></trkpt>
<trkpt lat="46.853417" lon="15.674919"><ele>384.8</ele><time>2019-08-12T12:32:08Z</time></trkpt>
<trkpt lat="46.853729" lon="15.676004"><ele>387.0</ele><time>2019-08-12T12:32:13Z</time></trkpt>
<trkpt lat="46.853948" lon="15.677065"><ele>386.2</ele><time>2019-08-12T12:32:18Z</time></trkpt>
<trkpt lat="46.854862" lon="15.678221"><ele>381.6</ele><time>2019-08-12T12:32:25Z</time></trkpt>
<trkpt lat="46.856016" lon="15.680465"><ele>355.0</ele><time>2019-08-12T12:32:37Z</time></trkpt>
<trkpt lat="46.856197" lon="15.680917"><ele>352.2</ele><time>2019-08-12T12:32:40Z</time></trkpt>
<trkpt lat="46.856418" lon="15.681341"><ele>352.2</ele><time>2019-08-12T12:32:42Z</time></trkpt>
<trkpt lat="46.856655" lon="15.681694"><ele>357.4</ele><time>2019-08-12T12:32:44Z</time></trkpt>
<trkpt lat="46.857147" lon="15.682161"><ele>358.4</ele><time>2019-08-12T12:32:48Z</time></trkpt>
<trkpt lat="46.857512" lon="15.682428"><ele>362.0</ele><time>2019-08-12T12:32:50Z</time></trkpt>
<trkpt lat="46.857897" lon="15.682839"><ele>364.6</ele><time>2019-08-12T12:32:53Z</time></trkpt>
<trkpt lat="46.858057" lon="15.683261"><ele>364.6</ele><time>2019-08-12T12:32:55Z</time></trkpt>
<trkpt lat="46.858221" lon="15.683778"><ele>367.2</ele><time>2019-08-12T12:32:58Z</time></trkpt>
<trkpt lat="46.85838" lon="15.684221"><ele>371.2</ele><time>2019-08-12T12:33:00Z</time></trkpt>
<trkpt lat="46.858596" lon="15.684434"><ele>371.2</ele><time>2019-08-12T12:33:02Z</time></trkpt>
<trkpt lat="46.859124" lon="15.684698"><ele>371.2</ele><time>2019-08-12T12:33:05Z</time></trkpt>
<trkpt lat="46.859376" lon="15.684957"><ele>377.4</ele><time>2019-08-12T12:33:07Z</time></trkpt>
<trkpt lat="46.859609" lon="15.685282"><ele>381.0</ele><time>2019-08-12T12:33:09Z</time></trkpt>
<trkpt lat="46.859796" lon="15.685917"><ele>387.6</ele><time>2019-08-12T12:33:12Z</time></trkpt>
<trkpt lat="46.859774" lon="15.686274"><ele>387.6</ele><time>2019-08-12T12:33:14Z</time></trkpt>
<trkpt lat="46.859736" lon="15.686562"><ele>387.6</ele><time>2019-08-12T12:33:15Z</time></trkpt>
<trkpt lat="46.859611" lon="15.686874"><ele>395.8</ele><time>2019-08-12T12:33:17Z</time></trkpt>
<trkpt lat="46.859288" lon="15.687089"><ele>395.8</ele><time>2019-08-12T12:33:19Z</time></trkpt>
<trkpt lat="46.859132" lon="15.687226"><ele>396.8</ele><time>2019-08-12T12:33:20Z</time></trkpt>
<trkpt lat="46.858974" lon="15.687501"><ele>403.8</ele><time>2019-08-12T12:33:21Z</time></trkpt>
<trkpt lat="46.85892" lon="15.687828"><ele>403.8</ele><time>2019-08-12T12:33:23Z</time></trkpt>
<trkpt lat="46.85898" lon="15.688251"><ele>403.8</ele><time>2019-08-12T12:33:25Z</time></trkpt>
<trkpt lat="46.859079" lon="15.688623"><ele>411.0</ele><time>2019-08-12T12:33:27Z</time></trkpt>
<trkpt lat="46.859123" lon="15.688998"><ele>411.0</ele><time>2019-08-12T12:33:28Z</time></trkpt>
<trkpt lat="46.859126" lon="15.689347"><ele>417.8</ele><time>2019-08-12T12:33:30Z</time></trkpt>
<trkpt lat="46.859111" lon="15.689881"><ele>417.8</ele><time>2019-08-12T12:33:32Z</time></trkpt>
<trkpt lat="46.859016" lon="15.690728"><ele>422.4</ele><time>2019-08-12T12:33:36Z</time></trkpt>
<trkpt lat="46.858885" lon="15.691428"><ele>423.4</ele><time>2019-08-12T12:33:39Z</time></trkpt>
<trkpt lat="46.858884" lon="15.691541"><ele>423.4</ele><time>2019-08-12T12:33:39Z</time></trkpt>
<trkpt lat="46.85899" lon="15.691925"><ele>421.4</ele><time>2019-08-12T12:33:41Z</time></trkpt>
<trkpt lat="46.85919" lon="15.69239"><ele>421.2</ele><time>2019-08-12T12:33:43Z</time></trkpt>
<trkpt lat="46.859336" lon="15.692903"><ele>421.6</ele><time>2019-08-12T12:33:46Z</time></trkpt>
<trkpt lat="46.859723" lon="15.694597"><ele>421.6</ele><time>2019-08-12T12:33:53Z</time></trkpt>
<trkpt lat="46.859744" lon="15.695037"><ele>420.4</ele><time>2019-08-12T12:33:55Z</time></trkpt>
<trkpt lat="46.859741" lon="15.695347"><ele>420.4</ele><time>2019-08-12T12:33:57Z</time></trkpt>
<trkpt lat="46.859714" lon="15.695737"><ele>420.4</ele><time>2019-08-12T12:33:58Z</time></trkpt>
<trkpt lat="46.859664" lon="15.69608"><ele>416.2</ele><time>2019-08-12T12:34:00Z</time></trkpt>
<trkpt lat="46.859547" lon="15.696394"><ele>416.2</ele><time>2019-08-12T12:34:01Z</time></trkpt>
<trkpt lat="46.859269" lon="15.69703"><ele>411.2</ele><time>2019-08-12T12:34:05Z</time></trkpt>
<trkpt lat="46.859264" lon="15.697136"><ele>411.2</ele><time>2019-08-12T12:34:05Z</time></trkpt>
<trkpt lat="46.859279" lon="15.69721"><ele>411.2</ele><time>2019-08-12T12:34:05Z</time></trkpt>
<trkpt lat="46.859303" lon="15.697265"><ele>411.2</ele><time>2019-08-12T12:34:06Z</time></trkpt>
<trkpt lat="46.859371" lon="15.697318"><ele>411.2</ele><time>2019-08-12T12:34:06Z</time></trkpt>
<trkpt lat="46.859439" lon="15.69733"><ele>411.2</ele><time>2019-08-12T12:34:07Z</time></trkpt>
<trkpt lat="46.859522" lon="15.697306"><ele>411.2</ele><time>2019-08-12T12:34:07Z</time></trkpt>
<trkpt lat="46.859588" lon="15.697259"><ele>411.2</ele><time>2019-08-12T12:34:08Z</time></trkpt>
<trkpt lat="46.859888" lon="15.696931"><ele>411.2</ele><time>2019-08-12T12:34:10Z</time></trkpt>
<trkpt lat="46.859948" lon="15.69692"><ele>411.2</ele><time>2019-08-12T12:34:10Z</time></trkpt>
<trkpt lat="46.860012" lon="15.696936"><ele>405.0</ele><time>2019-08-12T12:34:11Z</time></trkpt>
<trkpt lat="46.860058" lon="15.696995"><ele>405.0</ele><time>2019-08-12T12:34:11Z</time></trkpt>
<trkpt lat="46.860106" lon="15.6971"><ele>405.0</ele><time>2019-08-12T12:34:12Z</time></trkpt>
<trkpt lat="46.860119" lon="15.697176"><ele>405.0</ele><time>2019-08-12T12:34:12Z</time></trkpt>
<trkpt lat="46.860118" lon="15.697375"><ele>405.0</ele><time>2019-08-12T12:34:13Z</time></trkpt>
<trkpt lat="46.860097" lon="15.697489"><ele>405.0</ele><time>2019-08-12T12:34:13Z</time></trkpt>
<trkpt lat="46.859968" lon="15.697741"><ele>406.4</ele><time>2019-08-12T12:34:15Z</time></trkpt>
<trkpt lat="46.859546" lon="15.698273"><ele>406.4</ele><time>2019-08-12T12:34:18Z</time></trkpt>
<trkpt lat="46.85945" lon="15.6985"><ele>396.8</ele><time>2019-08-12T12:34:20Z</time></trkpt>
<trkpt lat="46.859384" lon="15.698725"><ele>396.8</ele><time>2019-08-12T12:34:21Z</time></trkpt>
<trkpt lat="46.859337" lon="15.698969"><ele>396.8</ele><time>2019-08-12T12:34:22Z</time></trkpt>
<trkpt lat="46.859252" lon="15.699201"><ele>385.8</ele><time>2019-08-12T12:34:23Z</time></trkpt>
<trkpt lat="46.859121" lon="15.699358"><ele>392.6</ele><time>2019-08-12T12:34:24Z</time></trkpt>
<trkpt lat="46.859051" lon="15.699412"><ele>392.6</ele><time>2019-08-12T12:34:25Z</time></trkpt>
<trkpt lat="46.858859" lon="15.6995"><ele>392.6</ele><time>2019-08-12T12:34:26Z</time></trkpt>
<trkpt lat="46.858498" lon="15.699621"><ele>392.6</ele><time>2019-08-12T12:34:28Z</time></trkpt>
<trkpt lat="46.858313" lon="15.699727"><ele>389.4</ele><time>2019-08-12T12:34:29Z</time></trkpt>
<trkpt lat="46.858155" lon="15.699899"><ele>389.4</ele><time>2019-08-12T12:34:31Z</time></trkpt>
<trkpt lat="46.858074" lon="15.700019"><ele>381.2</ele><time>2019-08-12T12:34:31Z</time></trkpt>
<trkpt lat="46.858027" lon="15.70012"><ele>381.2</ele><time>2019-08-12T12:34:32Z</time></trkpt>
<trkpt lat="46.857924" lon="15.700518"><ele>381.2</ele><time>2019-08-12T12:34:34Z</time></trkpt>
<trkpt lat="46.857866" lon="15.700973"><ele>371.0</ele><time>2019-08-12T12:34:36Z</time></trkpt>
<trkpt lat="46.857851" lon="15.70128"><ele>371.0</ele><time>2019-08-12T12:34:37Z</time></trkpt>
<trkpt lat="46.857816" lon="15.701603"><ele>371.0</ele><time>2019-08-12T12:34:39Z</time></trkpt>
<trkpt lat="46.85766" lon="15.702214"><ele>362.6</ele><time>2019-08-12T12:34:41Z</time></trkpt>
<trkpt lat="46.857502" lon="15.702716"><ele>354.8</ele><time>2019-08-12T12:34:44Z</time></trkpt>
<trkpt lat="46.857479" lon="15.702899"><ele>357.2</ele><time>2019-08-12T12:34:45Z</time></trkpt>
<trkpt lat="46.85747" lon="15.703362"><ele>348.6</ele><time>2019-08-12T12:34:47Z</time></trkpt>
<trkpt lat="46.857432" lon="15.703805"><ele>348.6</ele><time>2019-08-12T12:34:49Z</time></trkpt>
<trkpt lat="46.857227" lon="15.705097"><ele>337.4</ele><time>2019-08-12T12:34:54Z</time></trkpt>
<trkpt lat="46.85722" lon="15.705268"><ele>337.4</ele><time>2019-08-12T12:34:55Z</time></trkpt>
<trkpt lat="46.857272" lon="15.70569"><ele>337.4</ele><time>2019-08-12T12:34:57Z</time></trkpt>
<trkpt lat="46.857443" lon="15.70635"><ele>333.4</ele><time>2019-08-12T12:35:00Z</time></trkpt>
<trkpt lat="46.857794" lon="15.70717"><ele>330.8</ele><time>2019-08-12T12:35:04Z</time></trkpt>
<trkpt lat="46.857818" lon="15.707309"><ele>330.8</ele><time>2019-08-12T12:35:05Z</time></trkpt>
<trkpt lat="46.857819" lon="15.707745"><ele>331.2</ele><time>2019-08-12T12:35:07Z</time></trkpt>
<trkpt lat="46.85772" lon="15.709227"><ele>335.6</ele><time>2019-08-12T12:35:13Z</time></trkpt>
<trkpt lat="46.857716" lon="15.71039"><ele>337.8</ele><time>2019-08-12T12:35:18Z</time></trkpt>
<trkpt lat="46.857685" lon="15.710699"><ele>337.8</ele><time>2019-08-12T12:35:19Z</time></trkpt>
<trkpt lat="46.85751" lon="15.711415"><ele>339.8</ele><time>2019-08-12T12:35:22Z</time></trkpt>
<trkpt lat="46.857012" lon="15.713112"><ele>333.8</ele><time>2019-08-12T12:35:30Z</time></trkpt>
<trkpt lat="46.856632" lon="15.714209"><ele>325.6</ele><time>2019-08-12T12:35:36Z</time></trkpt>
<trkpt lat="46.855833" lon="15.715696"><ele>323.2</ele><time>2019-08-12T12:35:44Z</time></trkpt>
<trkpt lat="46.855579" lon="15.716257"><ele>326.8</ele><time>2019-08-12T12:35:47Z</time></trkpt>
<trkpt lat="46.855459" lon="15.716597"><ele>326.8</ele><time>2019-08-12T12:35:48Z</time></trkpt>
<trkpt lat="46.855352" lon="15.717011"><ele>330.6</ele><time>2019-08-12T12:35:50Z</time></trkpt>
<trkpt lat="46.855168" lon="15.718259"><ele>330.0</ele><time>2019-08-12T12:35:56Z</time></trkpt>
<trkpt lat="46.854872" lon="15.71975"><ele>312.0</ele><time>2019-08-12T12:36:02Z</time></trkpt>
<trkpt lat="46.854753" lon="15.720722"><ele>309.8</ele><time>2019-08-12T12:36:07Z</time></trkpt>
<trkpt lat="46.854737" lon="15.721279"><ele>307.0</ele><time>2019-08-12T12:36:09Z</time></trkpt>
<trkpt lat="46.854765" lon="15.721842"><ele>304.2</ele><time>2019-08-12T12:36:11Z</time></trkpt>
<trkpt lat="46.854755" lon="15.722159"><ele>304.2</ele><time>2019-08-12T12:36:13Z</time></trkpt>
<trkpt lat="46.85468" lon="15.722354"><ele>304.2</ele><time>2019-08-12T12:36:14Z</time></trkpt>
<trkpt lat="46.854497" lon="15.722652"><ele>302.6</ele><time>2019-08-12T12:36:15Z</time></trkpt>
<trkpt lat="46.854261" lon="15.723498"><ele>300.6</ele><time>2019-08-12T12:36:19Z</time></trkpt>
<trkpt lat="46.854261" lon="15.723629"><ele>300.6</ele><time>2019-08-12T12:36:21Z</time></trkpt>
<trkpt lat="46.854373" lon="15.723589"><ele>300.6</ele><time>2019-08-12T12:36:22Z</time></trkpt>
<trkpt lat="46.854514" lon="15.723618"><ele>300.6</ele><time>2019-08-12T12:36:22Z</time></trkpt>
<trkpt lat="46.855389" lon="15.723885"><ele>301.6</ele><time>2019-08-12T12:36:27Z</time></trkpt>
<trkpt lat="46.855896" lon="15.724208"><ele>300.8</ele><time>2019-08-12T12:36:30Z</time></trkpt>
<trkpt lat="46.8563" lon="15.724408"><ele>300.8</ele><time>2019-08-12T12:36:32Z</time></trkpt>
<trkpt lat="46.856719" lon="15.724546"><ele>302.2</ele><time>2019-08-12T12:36:34Z</time></trkpt>
<trkpt lat="46.857173" lon="15.724653"><ele>302.2</ele><time>2019-08-12T12:36:36Z</time></trkpt>
<trkpt lat="46.858081" lon="15.724691"><ele>303.8</ele><time>2019-08-12T12:36:41Z</time></trkpt>
<trkpt lat="46.859246" lon="15.724863"><ele>307.0</ele><time>2019-08-12T12:36:47Z</time></trkpt>
<trkpt lat="46.861079" lon="15.725259"><ele>304.6</ele><time>2019-08-12T12:36:56Z</time></trkpt>
<trkpt lat="46.862667" lon="15.72572"><ele>308.4</ele><time>2019-08-12T12:37:05Z</time></trkpt>
<trkpt lat="46.862955" lon="15.725707"><ele>308.4</ele><time>2019-08-12T12:37:06Z</time></trkpt>
<trkpt lat="46.863299" lon="15.725624"><ele>308.4</ele><time>2019-08-12T12:37:08Z</time></trkpt>
<trkpt lat="46.863968" lon="15.725392"><ele>310.0</ele><time>2019-08-12T12:37:11Z</time></trkpt>
<trkpt lat="46.864397" lon="15.725304"><ele>310.8</ele><time>2019-08-12T12:37:14Z</time></trkpt>
<trkpt lat="46.866663" lon="15.725167"><ele>308.4</ele><time>2019-08-12T12:37:25Z</time></trkpt>
<trkpt lat="46.866951" lon="15.725207"><ele>309.2</ele><time>2019-08-12T12:37:27Z</time></trkpt>
<trkpt lat="46.867457" lon="15.725374"><ele>309.2</ele><time>2019-08-12T12:37:29Z</time></trkpt>
<trkpt lat="46.867721" lon="15.725412"><ele>308.8</ele><time>2019-08-12T12:37:30Z</time></trkpt>
<trkpt lat="46.868024" lon="15.725402"><ele>308.8</ele><time>2019-08-12T12:37:32Z</time></trkpt>
<trkpt lat="46.868291" lon="15.725353"><ele>308.8</ele><time>2019-08-12T12:37:33Z</time></trkpt>
<trkpt lat="46.868616" lon="15.72525"><ele>305.4</ele><time>2019-08-12T12:37:35Z</time></trkpt>
<trkpt lat="46.868882" lon="15.725218"><ele>305.4</ele><time>2019-08-12T12:37:36Z</time></trkpt>
<trkpt lat="46.86907" lon="15.725301"><ele>305.4</ele><time>2019-08-12T12:37:37Z</time></trkpt>
<trkpt lat="46.869572" lon="15.725963"><ele>303.2</ele><time>2019-08-12T12:37:41Z</time></trkpt>
<trkpt lat="46.869746" lon="15.726073"><ele>303.2</ele><time>2019-08-12T12:37:42Z</time></trkpt>
<trkpt lat="46.869946" lon="15.726145"><ele>303.2</ele><time>2019-08-12T12:37:43Z</time></trkpt>
<trkpt lat="46.870068" lon="15.726163"><ele>304.4</ele><time>2019-08-12T12:37:43Z</time></trkpt>
<trkpt lat="46.870477" lon="15.72615"><ele>304.4</ele><time>2019-08-12T12:37:46Z</time></trkpt>
<trkpt lat="46.871597" lon="15.725904"><ele>305.0</ele><time>2019-08-12T12:37:51Z</time></trkpt>
<trkpt lat="46.871824" lon="15.72592"><ele>305.2</ele><time>2019-08-12T12:37:52Z</time></trkpt>
<trkpt lat="46.872316" lon="15.726118"><ele>305.2</ele><time>2019-08-12T12:37:55Z</time></trkpt>
<trkpt lat="46.873021" lon="15.726174"><ele>306.0</ele><time>2019-08-12T12:37:59Z</time></trkpt>
<trkpt lat="46.873642" lon="15.726173"><ele>307.0</ele><time>2019-08-12T12:38:02Z</time></trkpt>
<trkpt lat="46.874873" lon="15.726024"><ele>307.0</ele><time>2019-08-12T12:38:08Z</time></trkpt>
<trkpt lat="46.875863" lon="15.725875"><ele>307.4</ele><time>2019-08-12T12:38:13Z</time></trkpt>
<trkpt lat="46.877474" lon="15.725342"><ele>309.8</ele><time>2019-08-12T12:38:21Z</time></trkpt>
<trkpt lat="46.877915" lon="15.725119"><ele>308.4</ele><time>2019-08-12T12:38:24Z</time></trkpt>
<trkpt lat="46.878502" lon="15.724617"><ele>311.4</ele><time>2019-08-12T12:38:27Z</time></trkpt>
<trkpt lat="46.878993" lon="15.724087"><ele>317.6</ele><time>2019-08-12T12:38:30Z</time></trkpt>
<trkpt lat="46.879598" lon="15.723344"><ele>315.2</ele><time>2019-08-12T12:38:34Z</time></trkpt>
<trkpt lat="46.880555" lon="15.722229"><ele>317.0</ele><time>2019-08-12T12:38:41Z</time></trkpt>
<trkpt lat="46.881937" lon="15.721124"><ele>308.6</ele><time>2019-08-12T12:38:49Z</time></trkpt>
<trkpt lat="46.88216" lon="15.72079"><ele>312.4</ele><time>2019-08-12T12:38:50Z</time></trkpt>
<trkpt lat="46.882662" lon="15.719753"><ele>312.6</ele><time>2019-08-12T12:38:55Z</time></trkpt>
<trkpt lat="46.882937" lon="15.719377"><ele>312.6</ele><time>2019-08-12T12:38:57Z</time></trkpt>
<trkpt lat="46.883104" lon="15.719196"><ele>312.6</ele><time>2019-08-12T12:38:58Z</time></trkpt>
<trkpt lat="46.883289" lon="15.719062"><ele>315.0</ele><time>2019-08-12T12:38:59Z</time></trkpt>
<trkpt lat="46.883475" lon="15.718949"><ele>318.4</ele><time>2019-08-12T12:39:00Z</time></trkpt>
<trkpt lat="46.883717" lon="15.718862"><ele>318.4</ele><time>2019-08-12T12:39:01Z</time></trkpt>
<trkpt lat="46.883848" lon="15.718835"><ele>318.4</ele><time>2019-08-12T12:39:02Z</time></trkpt>
<trkpt lat="46.884046" lon="15.718827"><ele>318.4</ele><time>2019-08-12T12:39:03Z</time></trkpt>
<trkpt lat="46.884504" lon="15.71887"><ele>325.2</ele><time>2019-08-12T12:39:05Z</time></trkpt>
<trkpt lat="46.885683" lon="15.719155"><ele>321.2</ele><time>2019-08-12T12:39:11Z</time></trkpt>
<trkpt lat="46.885683" lon="15.719155"><ele>321.2</ele><time>2019-08-12T12:39:11Z</time></trkpt>
<trkpt lat="46.886248" lon="15.719302"><ele>314.0</ele><time>2019-08-12T12:39:14Z</time></trkpt>
<trkpt lat="46.887531" lon="15.719704"><ele>315.6</ele><time>2019-08-12T12:39:20Z</time></trkpt>
<trkpt lat="46.889147" lon="15.720261"><ele>308.0</ele><time>2019-08-12T12:39:27Z</time></trkpt>
<trkpt lat="46.889682" lon="15.720464"><ele>308.0</ele><time>2019-08-12T12:39:30Z</time></trkpt>
<trkpt lat="46.889929" lon="15.720513"><ele>308.0</ele><time>2019-08-12T12:39:31Z</time></trkpt>
<trkpt lat="46.890124" lon="15.720486"><ele>307.2</ele><time>2019-08-12T12:39:32Z</time></trkpt>
<trkpt lat="46.890246" lon="15.720439"><ele>307.2</ele><time>2019-08-12T12:39:33Z</time></trkpt>
<trkpt lat="46.890378" lon="15.720332"><ele>307.2</ele><time>2019-08-12T12:39:33Z</time></trkpt>
<trkpt lat="46.890527" lon="15.721849"><ele>306.8</ele><time>2019-08-12T12:39:45Z</time></trkpt>
<trkpt lat="46.890613" lon="15.723186"><ele>306.2</ele><time>2019-08-12T12:39:56Z</time></trkpt>
<trkpt lat="46.891216" lon="15.723684"><ele>307.6</ele><time>2019-08-12T12:40:04Z</time></trkpt>
<trkpt lat="46.8913" lon="15.723796"><ele>307.6</ele><time>2019-08-12T12:40:05Z</time></trkpt>
<trkpt lat="46.891603" lon="15.724805"><ele>310.6</ele><time>2019-08-12T12:40:14Z</time></trkpt>
<trkpt lat="46.891668" lon="15.724955"><ele>311.0</ele><time>2019-08-12T12:40:15Z</time></trkpt>
<trkpt lat="46.891743" lon="15.725055"><ele>315.8</ele><time>2019-08-12T12:40:17Z</time></trkpt>
<trkpt lat="46.891815" lon="15.725083"><ele>315.8</ele><time>2019-08-12T12:40:17Z</time></trkpt>
<trkpt lat="46.892233" lon="15.725143"><ele>315.8</ele><time>2019-08-12T12:40:22Z</time></trkpt>
<trkpt lat="46.894929" lon="15.725709"><ele>319.2</ele><time>2019-08-12T12:40:54Z</time></trkpt>
<trkpt lat="46.895298" lon="15.725777"><ele>319.2</ele><time>2019-08-12T12:40:58Z</time></trkpt>
<trkpt lat="46.895976" lon="15.725844"><ele>326.2</ele><time>2019-08-12T12:41:06Z</time></trkpt>
<trkpt lat="46.896038" lon="15.725954"><ele>326.2</ele><time>2019-08-12T12:41:07Z</time></trkpt>
<trkpt lat="46.894816" lon="15.726525"><ele>335.4</ele><time>2019-08-12T12:41:14Z</time></trkpt>
<trkpt lat="46.894312" lon="15.726946"><ele>354.0</ele><time>2019-08-12T12:41:18Z</time></trkpt>
<trkpt lat="46.894065" lon="15.727397"><ele>352.8</ele><time>2019-08-12T12:41:20Z</time></trkpt>
<trkpt lat="46.893959" lon="15.727756"><ele>365.0</ele><time>2019-08-12T12:41:22Z</time></trkpt>
<trkpt lat="46.893831" lon="15.728643"><ele>369.8</ele><time>2019-08-12T12:41:25Z</time></trkpt>
<trkpt lat="46.893727" lon="15.729175"><ele>369.4</ele><time>2019-08-12T12:41:27Z</time></trkpt>
<trkpt lat="46.893478" lon="15.729748"><ele>369.4</ele><time>2019-08-12T12:41:30Z</time></trkpt>
<trkpt lat="46.892999" lon="15.730582"><ele>375.6</ele><time>2019-08-12T12:41:34Z</time></trkpt>
<trkpt lat="46.892665" lon="15.731431"><ele>376.8</ele><time>2019-08-12T12:41:38Z</time></trkpt>
<trkpt lat="46.892634" lon="15.732062"><ele>381.4</ele><time>2019-08-12T12:41:41Z</time></trkpt>
<trkpt lat="46.892843" lon="15.733685"><ele>395.6</ele><time>2019-08-12T12:41:47Z</time></trkpt>
<trkpt lat="46.893001" lon="15.73469"><ele>397.4</ele><time>2019-08-12T12:41:51Z</time></trkpt>
<trkpt lat="46.893115" lon="15.736538"><ele>393.4</ele><time>2019-08-12T12:41:59Z</time></trkpt>
<trkpt lat="46.893242" lon="15.737096"><ele>389.0</ele><time>2019-08-12T12:42:01Z</time></trkpt>
<trkpt lat="46.893363" lon="15.737436"><ele>394.8</ele><time>2019-08-12T12:42:03Z</time></trkpt>
<trkpt lat="46.89351" lon="15.737782"><ele>382.0</ele><time>2019-08-12T12:42:04Z</time></trkpt>
<trkpt lat="46.893956" lon="15.7387"><ele>371.0</ele><time>2019-08-12T12:42:09Z</time></trkpt>
<trkpt lat="46.894285" lon="15.739177"><ele>360.2</ele><time>2019-08-12T12:42:11Z</time></trkpt>
<trkpt lat="46.894472" lon="15.73948"><ele>360.2</ele><time>2019-08-12T12:42:13Z</time></trkpt>
<trkpt lat="46.894612" lon="15.739787"><ele>360.2</ele><time>2019-08-12T12:42:14Z</time></trkpt>
<trkpt lat="46.894791" lon="15.740274"><ele>354.8</ele><time>2019-08-12T12:42:17Z</time></trkpt>
<trkpt lat="46.895003" lon="15.740713"><ele>348.8</ele><time>2019-08-12T12:42:19Z</time></trkpt>
<trkpt lat="46.895317" lon="15.741153"><ele>344.6</ele><time>2019-08-12T12:42:21Z</time></trkpt>
<trkpt lat="46.895859" lon="15.741846"><ele>350.6</ele><time>2019-08-12T12:42:25Z</time></trkpt>
<trkpt lat="46.896168" lon="15.742442"><ele>350.6</ele><time>2019-08-12T12:42:28Z</time></trkpt>
<trkpt lat="46.896771" lon="15.743909"><ele>366.2</ele><time>2019-08-12T12:42:35Z</time></trkpt>
<trkpt lat="46.89704" lon="15.744664"><ele>366.8</ele><time>2019-08-12T12:42:39Z</time></trkpt>
<trkpt lat="46.897126" lon="15.745148"><ele>372.2</ele><time>2019-08-12T12:42:41Z</time></trkpt>
<trkpt lat="46.897163" lon="15.745614"><ele>372.2</ele><time>2019-08-12T12:42:42Z</time></trkpt>
<trkpt lat="46.897216" lon="15.747446"><ele>393.6</ele><time>2019-08-12T12:42:50Z</time></trkpt>
<trkpt lat="46.897166" lon="15.747806"><ele>403.6</ele><time>2019-08-12T12:42:51Z</time></trkpt>
<trkpt lat="46.89686" lon="15.748405"><ele>410.4</ele><time>2019-08-12T12:42:54Z</time></trkpt>
<trkpt lat="46.895726" lon="15.750275"><ele>417.0</ele><time>2019-08-12T12:43:04Z</time></trkpt>
<trkpt lat="46.895543" lon="15.750625"><ele>417.0</ele><time>2019-08-12T12:43:06Z</time></trkpt>
<trkpt lat="46.895363" lon="15.750917"><ele>415.6</ele><time>2019-08-12T12:43:07Z</time></trkpt>
<trkpt lat="46.89475" lon="15.751644"><ele>428.8</ele><time>2019-08-12T12:43:12Z</time></trkpt>
<trkpt lat="46.894639" lon="15.751826"><ele>426.4</ele><time>2019-08-12T12:43:13Z</time></trkpt>
<trkpt lat="46.894554" lon="15.752158"><ele>426.4</ele><time>2019-08-12T12:43:14Z</time></trkpt>
<trkpt lat="46.89452" lon="15.75256"><ele>425.4</ele><time>2019-08-12T12:43:16Z</time></trkpt>
<trkpt lat="46.894557" lon="15.752902"><ele>425.4</ele><time>2019-08-12T12:43:17Z</time></trkpt>
<trkpt lat="46.894674" lon="15.753328"><ele>425.4</ele><time>2019-08-12T12:43:19Z</time></trkpt>
<trkpt lat="46.894847" lon="15.753718"><ele>422.4</ele><time>2019-08-12T12:43:21Z</time></trkpt>
<trkpt lat="46.895941" lon="15.755751"><ele>391.6</ele><time>2019-08-12T12:43:31Z</time></trkpt>
<trkpt lat="46.896244" lon="15.756413"><ele>390.4</ele><time>2019-08-12T12:43:34Z</time></trkpt>
<trkpt lat="46.897331" lon="15.75823"><ele>379.4</ele><time>2019-08-12T12:43:44Z</time></trkpt>
<trkpt lat="46.897494" lon="15.758436"><ele>375.2</ele><time>2019-08-12T12:43:45Z</time></trkpt>
<trkpt lat="46.897685" lon="15.758636"><ele>373.8</ele><time>2019-08-12T12:43:46Z</time></trkpt>
<trkpt lat="46.897962" lon="15.758874"><ele>373.8</ele><time>2019-08-12T12:43:48Z</time></trkpt>
<trkpt lat="46.898235" lon="15.759082"><ele>373.8</ele><time>2019-08-12T12:43:50Z</time></trkpt>
<trkpt lat="46.898975" lon="15.759527"><ele>371.0</ele><time>2019-08-12T12:43:55Z</time></trkpt>
<trkpt lat="46.899115" lon="15.759649"><ele>371.0</ele><time>2019-08-12T12:43:56Z</time></trkpt>
<trkpt lat="46.899237" lon="15.759792"><ele>358.4</ele><time>2019-08-12T12:43:57Z</time></trkpt>
<trkpt lat="46.899331" lon="15.759957"><ele>358.4</ele><time>2019-08-12T12:43:57Z</time></trkpt>
<trkpt lat="46.899437" lon="15.760268"><ele>365.8</ele><time>2019-08-12T12:43:59Z</time></trkpt>
<trkpt lat="46.899606" lon="15.760903"><ele>371.2</ele><time>2019-08-12T12:44:02Z</time></trkpt>
<trkpt lat="46.899719" lon="15.761182"><ele>371.2</ele><time>2019-08-12T12:44:03Z</time></trkpt>
<trkpt lat="46.900622" lon="15.762667"><ele>374.0</ele><time>2019-08-12T12:44:11Z</time></trkpt>
<trkpt lat="46.901015" lon="15.763357"><ele>367.2</ele><time>2019-08-12T12:44:14Z</time></trkpt>
<trkpt lat="46.901165" lon="15.763717"><ele>367.2</ele><time>2019-08-12T12:44:16Z</time></trkpt>
<trkpt lat="46.901266" lon="15.764118"><ele>367.2</ele><time>2019-08-12T12:44:18Z</time></trkpt>
<trkpt lat="46.901346" lon="15.76574"><ele>361.6</ele><time>2019-08-12T12:44:24Z</time></trkpt>
<trkpt lat="46.901501" lon="15.766587"><ele>353.2</ele><time>2019-08-12T12:44:27Z</time></trkpt>
<trkpt lat="46.901584" lon="15.767188"><ele>344.8</ele><time>2019-08-12T12:44:30Z</time></trkpt>
<trkpt lat="46.901535" lon="15.76765"><ele>335.2</ele><time>2019-08-12T12:44:32Z</time></trkpt>
<trkpt lat="46.90142" lon="15.768098"><ele>335.2</ele><time>2019-08-12T12:44:34Z</time></trkpt>
<trkpt lat="46.901196" lon="15.768454"><ele>324.0</ele><time>2019-08-12T12:44:36Z</time></trkpt>
<trkpt lat="46.90069" lon="15.768981"><ele>326.0</ele><time>2019-08-12T12:44:39Z</time></trkpt>
<trkpt lat="46.900427" lon="15.769389"><ele>316.8</ele><time>2019-08-12T12:44:42Z</time></trkpt>
<trkpt lat="46.900246" lon="15.769819"><ele>316.8</ele><time>2019-08-12T12:44:43Z</time></trkpt>
<trkpt lat="46.900162" lon="15.770151"><ele>309.4</ele><time>2019-08-12T12:44:45Z</time></trkpt>
<trkpt lat="46.900101" lon="15.770511"><ele>309.4</ele><time>2019-08-12T12:44:46Z</time></trkpt>
<trkpt lat="46.90005" lon="15.771028"><ele>305.4</ele><time>2019-08-12T12:44:48Z</time></trkpt>
<trkpt lat="46.899929" lon="15.774083"><ele>302.2</ele><time>2019-08-12T12:45:00Z</time></trkpt>
<trkpt lat="46.899915" lon="15.774987"><ele>301.6</ele><time>2019-08-12T12:45:04Z</time></trkpt>
<trkpt lat="46.900438" lon="15.775123"><ele>303.2</ele><time>2019-08-12T12:45:11Z</time></trkpt>
<trkpt lat="46.900563" lon="15.77512"><ele>303.2</ele><time>2019-08-12T12:45:12Z</time></trkpt>
<trkpt lat="46.900731" lon="15.775016"><ele>303.2</ele><time>2019-08-12T12:45:14Z</time></trkpt>
<trkpt lat="46.900902" lon="15.774806"><ele>305.0</ele><time>2019-08-12T12:45:17Z</time></trkpt>
<trkpt lat="46.902338" lon="15.772864"><ele>306.8</ele><time>2019-08-12T12:45:39Z</time></trkpt>
<trkpt lat="46.902426" lon="15.772967"><ele>306.8</ele><time>2019-08-12T12:45:40Z</time></trkpt>
<trkpt lat="46.902537" lon="15.773012"><ele>310.0</ele><time>2019-08-12T12:45:42Z</time></trkpt>
<trkpt lat="46.902794" lon="15.773009"><ele>310.0</ele><time>2019-08-12T12:45:45Z</time></trkpt>
<trkpt lat="46.9029" lon="15.773087"><ele>310.0</ele><time>2019-08-12T12:45:46Z</time></trkpt>
<trkpt lat="46.903992" lon="15.77468"><ele>329.4</ele><time>2019-08-12T12:46:04Z</time></trkpt>
<trkpt lat="46.904413" lon="15.775327"><ele>350.0</ele><time>2019-08-12T12:46:11Z</time></trkpt>
<trkpt lat="46.904673" lon="15.775924"><ele>359.2</ele><time>2019-08-12T12:46:17Z</time></trkpt>
<trkpt lat="46.904864" lon="15.776518"><ele>359.2</ele><time>2019-08-12T12:46:22Z</time></trkpt>
<trkpt lat="46.905236" lon="15.777161"><ele>366.8</ele><time>2019-08-12T12:46:29Z</time></trkpt>
<trkpt lat="46.905442" lon="15.777747"><ele>370.8</ele><time>2019-08-12T12:46:34Z</time></trkpt>
<trkpt lat="46.905561" lon="15.777984"><ele>370.8</ele><time>2019-08-12T12:46:36Z</time></trkpt>
<trkpt lat="46.90569" lon="15.778074"><ele>370.8</ele><time>2019-08-12T12:46:38Z</time></trkpt>
<trkpt lat="46.905881" lon="15.778076"><ele>370.8</ele><time>2019-08-12T12:46:40Z</time></trkpt>
<trkpt lat="46.906582" lon="15.777877"><ele>370.8</ele><time>2019-08-12T12:46:48Z</time></trkpt>
<trkpt lat="46.907114" lon="15.777804"><ele>377.4</ele><time>2019-08-12T12:46:55Z</time></trkpt>
<trkpt lat="46.90879" lon="15.777743"><ele>398.6</ele><time>2019-08-12T12:47:14Z</time></trkpt>
<trkpt lat="46.90957" lon="15.777788"><ele>400.4</ele><time>2019-08-12T12:47:23Z</time></trkpt>
<trkpt lat="46.909783" lon="15.77785"><ele>400.4</ele><time>2019-08-12T12:47:26Z</time></trkpt>
<trkpt lat="46.910525" lon="15.77841"><ele>401.0</ele><time>2019-08-12T12:47:35Z</time></trkpt>
<trkpt lat="46.910852" lon="15.778716"><ele>404.4</ele><time>2019-08-12T12:47:40Z</time></trkpt>
<trkpt lat="46.910935" lon="15.778845"><ele>404.4</ele><time>2019-08-12T12:47:41Z</time></trkpt>
<trkpt lat="46.91108" lon="15.779131"><ele>404.4</ele><time>2019-08-12T12:47:44Z</time></trkpt>
<trkpt lat="46.91162" lon="15.779861"><ele>405.4</ele><time>2019-08-12T12:47:52Z</time></trkpt>
<trkpt lat="46.911847" lon="15.780125"><ele>398.4</ele><time>2019-08-12T12:47:56Z</time></trkpt>
<trkpt lat="46.911852" lon="15.780238"><ele>398.4</ele><time>2019-08-12T12:47:57Z</time></trkpt>
<trkpt lat="46.911489" lon="15.781221"><ele>391.0</ele><time>2019-08-12T12:48:06Z</time></trkpt>
<trkpt lat="46.911319" lon="15.781555"><ele>391.0</ele><time>2019-08-12T12:48:09Z</time></trkpt>
<trkpt lat="46.911181" lon="15.781752"><ele>387.2</ele><time>2019-08-12T12:48:11Z</time></trkpt>
<trkpt lat="46.91111" lon="15.782146"><ele>387.2</ele><time>2019-08-12T12:48:14Z</time></trkpt>
<trkpt lat="46.911076" lon="15.782633"><ele>386.2</ele><time>2019-08-12T12:48:18Z</time></trkpt>
<trkpt lat="46.911119" lon="15.783052"><ele>386.2</ele><time>2019-08-12T12:48:21Z</time></trkpt>
<trkpt lat="46.911294" lon="15.78335"><ele>385.6</ele><time>2019-08-12T12:48:25Z</time></trkpt>
<trkpt lat="46.912083" lon="15.784144"><ele>368.8</ele><time>2019-08-12T12:48:36Z</time></trkpt>
<trkpt lat="46.912262" lon="15.784568"><ele>370.2</ele><time>2019-08-12T12:48:40Z</time></trkpt>
<trkpt lat="46.91277" lon="15.785416"><ele>353.0</ele><time>2019-08-12T12:48:49Z</time></trkpt>
<trkpt lat="46.91302" lon="15.78579"><ele>353.0</ele><time>2019-08-12T12:48:53Z</time></trkpt>
<trkpt lat="46.913325" lon="15.786107"><ele>350.0</ele><time>2019-08-12T12:48:57Z</time></trkpt>
<trkpt lat="46.913488" lon="15.786226"><ele>335.8</ele><time>2019-08-12T12:49:00Z</time></trkpt>
<trkpt lat="46.913566" lon="15.786231"><ele>335.8</ele><time>2019-08-12T12:49:01Z</time></trkpt>
<trkpt lat="46.913643" lon="15.786118"><ele>335.8</ele><time>2019-08-12T12:49:02Z</time></trkpt>
<trkpt lat="46.91368" lon="15.786"><ele>335.8</ele><time>2019-08-12T12:49:03Z</time></trkpt>
<trkpt lat="46.913741" lon="15.785626"><ele>335.2</ele><time>2019-08-12T12:49:06Z</time></trkpt>
<trkpt lat="46.913824" lon="15.785418"><ele>335.2</ele><time>2019-08-12T12:49:08Z</time></trkpt>
<trkpt lat="46.914022" lon="15.785305"><ele>335.2</ele><time>2019-08-12T12:49:11Z</time></trkpt>
<trkpt lat="46.914093" lon="15.785195"><ele>335.2</ele><time>2019-08-12T12:49:12Z</time></trkpt>
<trkpt lat="46.914325" lon="15.784585"><ele>317.6</ele><time>2019-08-12T12:49:17Z</time></trkpt>
<trkpt lat="46.914366" lon="15.784508"><ele>317.6</ele><time>2019-08-12T12:49:18Z</time></trkpt>
<trkpt lat="46.914419" lon="15.784437"><ele>317.6</ele><time>2019-08-12T12:49:19Z</time></trkpt>
<trkpt lat="46.914739" lon="15.784201"><ele>317.6</ele><time>2019-08-12T12:49:23Z</time></trkpt>
<trkpt lat="46.914813" lon="15.784115"><ele>315.6</ele><time>2019-08-12T12:49:24Z</time></trkpt>
<trkpt lat="46.915024" lon="15.783676"><ele>310.6</ele><time>2019-08-12T12:49:29Z</time></trkpt>
<trkpt lat="46.915109" lon="15.783535"><ele>310.6</ele><time>2019-08-12T12:49:30Z</time></trkpt>
<trkpt lat="46.915203" lon="15.783445"><ele>310.6</ele><time>2019-08-12T12:49:31Z</time></trkpt>
<trkpt lat="46.91528" lon="15.78342"><ele>310.6</ele><time>2019-08-12T12:49:32Z</time></trkpt>
<trkpt lat="46.915347" lon="15.783439"><ele>310.6</ele><time>2019-08-12T12:49:33Z</time></trkpt>
<trkpt lat="46.915427" lon="15.783512"><ele>310.6</ele><time>2019-08-12T12:49:34Z</time></trkpt>
<trkpt lat="46.915478" lon="15.783635"><ele>310.6</ele><time>2019-08-12T12:49:35Z</time></trkpt>
<trkpt lat="46.915553" lon="15.784029"><ele>310.6</ele><time>2019-08-12T12:49:38Z</time></trkpt>
<trkpt lat="46.915581" lon="15.784448"><ele>310.0</ele><time>2019-08-12T12:49:42Z</time></trkpt>
<trkpt lat="46.915563" lon="15.785311"><ele>310.6</ele><time>2019-08-12T12:49:49Z</time></trkpt>
<trkpt lat="46.915604" lon="15.78546"><ele>310.6</ele><time>2019-08-12T12:49:50Z</time></trkpt>
<trkpt lat="46.91588" lon="15.785256"><ele>314.0</ele><time>2019-08-12T12:49:52Z</time></trkpt>
<trkpt lat="46.916125" lon="15.785131"><ele>314.0</ele><time>2019-08-12T12:49:53Z</time></trkpt>
<trkpt lat="46.916305" lon="15.784918"><ele>314.0</ele><time>2019-08-12T12:49:55Z</time></trkpt>
<trkpt lat="46.916431" lon="15.784694"><ele>314.0</ele><time>2019-08-12T12:49:56Z</time></trkpt>
<trkpt lat="46.916573" lon="15.784159"><ele>315.4</ele><time>2019-08-12T12:49:58Z</time></trkpt>
<trkpt lat="46.916981" lon="15.782063"><ele>319.4</ele><time>2019-08-12T12:50:07Z</time></trkpt>
<trkpt lat="46.9171" lon="15.781693"><ele>319.4</ele><time>2019-08-12T12:50:08Z</time></trkpt>
<trkpt lat="46.917164" lon="15.781547"><ele>316.6</ele><time>2019-08-12T12:50:09Z</time></trkpt>
<trkpt lat="46.917275" lon="15.781385"><ele>316.6</ele><time>2019-08-12T12:50:10Z</time></trkpt>
<trkpt lat="46.917447" lon="15.781234"><ele>316.6</ele><time>2019-08-12T12:50:11Z</time></trkpt>
<trkpt lat="46.918147" lon="15.780935"><ele>318.4</ele><time>2019-08-12T12:50:15Z</time></trkpt>
<trkpt lat="46.918364" lon="15.780822"><ele>321.2</ele><time>2019-08-12T12:50:17Z</time></trkpt>
<trkpt lat="46.919265" lon="15.780212"><ele>325.6</ele><time>2019-08-12T12:50:22Z</time></trkpt>
<trkpt lat="46.919627" lon="15.780089"><ele>325.6</ele><time>2019-08-12T12:50:25Z</time></trkpt>
<trkpt lat="46.92054" lon="15.779962"><ele>327.8</ele><time>2019-08-12T12:50:30Z</time></trkpt>
<trkpt lat="46.921327" lon="15.779608"><ele>323.4</ele><time>2019-08-12T12:50:35Z</time></trkpt>
<trkpt lat="46.922077" lon="15.779494"><ele>322.8</ele><time>2019-08-12T12:50:39Z</time></trkpt>
<trkpt lat="46.922269" lon="15.779494"><ele>322.8</ele><time>2019-08-12T12:50:40Z</time></trkpt>
<trkpt lat="46.923015" lon="15.779781"><ele>327.0</ele><time>2019-08-12T12:50:44Z</time></trkpt>
<trkpt lat="46.923616" lon="15.779896"><ele>333.6</ele><time>2019-08-12T12:50:48Z</time></trkpt>
<trkpt lat="46.923845" lon="15.779969"><ele>333.6</ele><time>2019-08-12T12:50:49Z</time></trkpt>
<trkpt lat="46.924006" lon="15.780062"><ele>333.6</ele><time>2019-08-12T12:50:50Z</time></trkpt>
<trkpt lat="46.924475" lon="15.780448"><ele>335.2</ele><time>2019-08-12T12:50:53Z</time></trkpt>
<trkpt lat="46.924663" lon="15.780505"><ele>335.2</ele><time>2019-08-12T12:50:54Z</time></trkpt>
<trkpt lat="46.925088" lon="15.780518"><ele>337.2</ele><time>2019-08-12T12:50:57Z</time></trkpt>
<trkpt lat="46.925319" lon="15.780547"><ele>337.2</ele><time>2019-08-12T12:50:58Z</time></trkpt>
<trkpt lat="46.925881" lon="15.780902"><ele>349.0</ele><time>2019-08-12T12:51:02Z</time></trkpt>
<trkpt lat="46.926698" lon="15.78092"><ele>350.4</ele><time>2019-08-12T12:51:07Z</time></trkpt>
<trkpt lat="46.927767" lon="15.78109"><ele>350.6</ele><time>2019-08-12T12:51:13Z</time></trkpt>
<trkpt lat="46.92852" lon="15.781297"><ele>353.0</ele><time>2019-08-12T12:51:17Z</time></trkpt>
<trkpt lat="46.928689" lon="15.781471"><ele>353.0</ele><time>2019-08-12T12:51:18Z</time></trkpt>
<trkpt lat="46.928815" lon="15.781641"><ele>353.0</ele><time>2019-08-12T12:51:19Z</time></trkpt>
<trkpt lat="46.92888" lon="15.781849"><ele>368.0</ele><time>2019-08-12T12:51:21Z</time></trkpt>
<trkpt lat="46.92887" lon="15.782073"><ele>368.0</ele><time>2019-08-12T12:51:21Z</time></trkpt>
<trkpt lat="46.928792" lon="15.782275"><ele>368.0</ele><time>2019-08-12T12:51:22Z</time></trkpt>
<trkpt lat="46.928656" lon="15.782313"><ele>368.0</ele><time>2019-08-12T12:51:23Z</time></trkpt>
<trkpt lat="46.928474" lon="15.782318"><ele>368.0</ele><time>2019-08-12T12:51:24Z</time></trkpt>
<trkpt lat="46.92837" lon="15.782411"><ele>368.0</ele><time>2019-08-12T12:51:25Z</time></trkpt>
<trkpt lat="46.928352" lon="15.782575"><ele>381.2</ele><time>2019-08-12T12:51:26Z</time></trkpt>
<trkpt lat="46.928404" lon="15.782717"><ele>381.2</ele><time>2019-08-12T12:51:26Z</time></trkpt>
<trkpt lat="46.928559" lon="15.782794"><ele>381.2</ele><time>2019-08-12T12:51:27Z</time></trkpt>
<trkpt lat="46.928744" lon="15.782826"><ele>381.2</ele><time>2019-08-12T12:51:28Z</time></trkpt>
<trkpt lat="46.92891" lon="15.78291"><ele>381.2</ele><time>2019-08-12T12:51:29Z</time></trkpt>
<trkpt lat="46.929334" lon="15.782992"><ele>384.4</ele><time>2019-08-12T12:51:32Z</time></trkpt>
<trkpt lat="46.929564" lon="15.783008"><ele>384.4</ele><time>2019-08-12T12:51:33Z</time></trkpt>
<trkpt lat="46.929727" lon="15.782983"><ele>384.4</ele><time>2019-08-12T12:51:34Z</time></trkpt>
<trkpt lat="46.929848" lon="15.782932"><ele>384.4</ele><time>2019-08-12T12:51:35Z</time></trkpt>
<trkpt lat="46.930642" lon="15.782407"><ele>379.4</ele><time>2019-08-12T12:51:40Z</time></trkpt>
<trkpt lat="46.930787" lon="15.782261"><ele>379.4</ele><time>2019-08-12T12:51:41Z</time></trkpt>
<trkpt lat="46.93092" lon="15.781998"><ele>377.8</ele><time>2019-08-12T12:51:42Z</time></trkpt>
<trkpt lat="46.931546" lon="15.780257"><ele>378.6</ele><time>2019-08-12T12:51:50Z</time></trkpt>
<trkpt lat="46.931648" lon="15.780032"><ele>378.6</ele><time>2019-08-12T12:51:51Z</time></trkpt>
<trkpt lat="46.931955" lon="15.77955"><ele>385.0</ele><time>2019-08-12T12:51:54Z</time></trkpt>
<trkpt lat="46.932159" lon="15.779362"><ele>385.0</ele><time>2019-08-12T12:51:55Z</time></trkpt>
<trkpt lat="46.932308" lon="15.779282"><ele>385.0</ele><time>2019-08-12T12:51:56Z</time></trkpt>
<trkpt lat="46.9324" lon="15.779268"><ele>385.0</ele><time>2019-08-12T12:51:56Z</time></trkpt>
<trkpt lat="46.932485" lon="15.779309"><ele>385.0</ele><time>2019-08-12T12:51:57Z</time></trkpt>
<trkpt lat="46.932538" lon="15.779423"><ele>376.6</ele><time>2019-08-12T12:51:58Z</time></trkpt>
<trkpt lat="46.932572" lon="15.779566"><ele>376.6</ele><time>2019-08-12T12:51:58Z</time></trkpt>
<trkpt lat="46.932553" lon="15.780537"><ele>361.0</ele><time>2019-08-12T12:52:02Z</time></trkpt>
<trkpt lat="46.932579" lon="15.780948"><ele>354.2</ele><time>2019-08-12T12:52:04Z</time></trkpt>
<trkpt lat="46.932632" lon="15.781214"><ele>354.2</ele><time>2019-08-12T12:52:05Z</time></trkpt>
<trkpt lat="46.932713" lon="15.781368"><ele>354.2</ele><time>2019-08-12T12:52:06Z</time></trkpt>
<trkpt lat="46.932798" lon="15.781418"><ele>354.2</ele><time>2019-08-12T12:52:06Z</time></trkpt>
<trkpt lat="46.933455" lon="15.781249"><ele>346.2</ele><time>2019-08-12T12:52:10Z</time></trkpt>
<trkpt lat="46.933689" lon="15.781233"><ele>346.2</ele><time>2019-08-12T12:52:11Z</time></trkpt>
<trkpt lat="46.933878" lon="15.781247"><ele>346.2</ele><time>2019-08-12T12:52:12Z</time></trkpt>
<trkpt lat="46.934384" lon="15.781385"><ele>340.2</ele><time>2019-08-12T12:52:15Z</time></trkpt>
<trkpt lat="46.934601" lon="15.78142"><ele>340.2</ele><time>2019-08-12T12:52:17Z</time></trkpt>
<trkpt lat="46.935145" lon="15.781418"><ele>335.6</ele><time>2019-08-12T12:52:20Z</time></trkpt>
<trkpt lat="46.935873" lon="15.781594"><ele>330.6</ele><time>2019-08-12T12:52:24Z</time></trkpt>
<trkpt lat="46.936087" lon="15.781578"><ele>330.6</ele><time>2019-08-12T12:52:25Z</time></trkpt>
<trkpt lat="46.936378" lon="15.781437"><ele>330.6</ele><time>2019-08-12T12:52:27Z</time></trkpt>
<trkpt lat="46.937418" lon="15.780824"><ele>328.8</ele><time>2019-08-12T12:52:34Z</time></trkpt>
<trkpt lat="46.937688" lon="15.780703"><ele>321.2</ele><time>2019-08-12T12:52:35Z</time></trkpt>
<trkpt lat="46.937849" lon="15.780654"><ele>321.2</ele><time>2019-08-12T12:52:36Z</time></trkpt>
<trkpt lat="46.937983" lon="15.780657"><ele>321.2</ele><time>2019-08-12T12:52:37Z</time></trkpt>
<trkpt lat="46.938695" lon="15.780783"><ele>319.8</ele><time>2019-08-12T12:52:41Z</time></trkpt>
<trkpt lat="46.938767" lon="15.780747"><ele>319.8</ele><time>2019-08-12T12:52:42Z</time></trkpt>
<trkpt lat="46.938941" lon="15.78103"><ele>321.0</ele><time>2019-08-12T12:52:44Z</time></trkpt>
<trkpt lat="46.939577" lon="15.78179"><ele>318.8</ele><time>2019-08-12T12:52:47Z</time></trkpt>
<trkpt lat="46.939889" lon="15.782264"><ele>318.8</ele><time>2019-08-12T12:52:49Z</time></trkpt>
<trkpt lat="46.940026" lon="15.782546"><ele>314.0</ele><time>2019-08-12T12:52:51Z</time></trkpt>
<trkpt lat="46.940134" lon="15.78283"><ele>314.0</ele><time>2019-08-12T12:52:52Z</time></trkpt>
<trkpt lat="46.940229" lon="15.783147"><ele>314.0</ele><time>2019-08-12T12:52:53Z</time></trkpt>
<trkpt lat="46.940376" lon="15.7838"><ele>313.4</ele><time>2019-08-12T12:52:55Z</time></trkpt>
<trkpt lat="46.940723" lon="15.785544"><ele>311.8</ele><time>2019-08-12T12:53:00Z</time></trkpt>
<trkpt lat="46.94083" lon="15.785862"><ele>312.0</ele><time>2019-08-12T12:53:02Z</time></trkpt>
<trkpt lat="46.940918" lon="15.786064"><ele>315.0</ele><time>2019-08-12T12:53:02Z</time></trkpt>
<trkpt lat="46.941302" lon="15.786789"><ele>313.4</ele><time>2019-08-12T12:53:05Z</time></trkpt>
<trkpt lat="46.941429" lon="15.787075"><ele>313.4</ele><time>2019-08-12T12:53:06Z</time></trkpt>
<trkpt lat="46.941461" lon="15.78722"><ele>313.4</ele><time>2019-08-12T12:53:07Z</time></trkpt>
<trkpt lat="46.941479" lon="15.787389"><ele>313.4</ele><time>2019-08-12T12:53:07Z</time></trkpt>
<trkpt lat="46.941449" lon="15.787692"><ele>312.4</ele><time>2019-08-12T12:53:08Z</time></trkpt>
<trkpt lat="46.941384" lon="15.788023"><ele>312.4</ele><time>2019-08-12T12:53:09Z</time></trkpt>
<trkpt lat="46.941353" lon="15.788441"><ele>312.4</ele><time>2019-08-12T12:53:11Z</time></trkpt>
<trkpt lat="46.941383" lon="15.788814"><ele>312.4</ele><time>2019-08-12T12:53:12Z</time></trkpt>
<trkpt lat="46.941491" lon="15.789489"><ele>311.4</ele><time>2019-08-12T12:53:14Z</time></trkpt>
<trkpt lat="46.941481" lon="15.789917"><ele>311.4</ele><time>2019-08-12T12:53:15Z</time></trkpt>
<trkpt lat="46.941445" lon="15.790132"><ele>310.2</ele><time>2019-08-12T12:53:16Z</time></trkpt>
<trkpt lat="46.941273" lon="15.790536"><ele>310.2</ele><time>2019-08-12T12:53:18Z</time></trkpt>
<trkpt lat="46.940662" lon="15.791577"><ele>308.6</ele><time>2019-08-12T12:53:22Z</time></trkpt>
<trkpt lat="46.940593" lon="15.791738"><ele>308.2</ele><time>2019-08-12T12:53:23Z</time></trkpt>
<trkpt lat="46.940509" lon="15.792113"><ele>308.2</ele><time>2019-08-12T12:53:24Z</time></trkpt>
<trkpt lat="46.940495" lon="15.792315"><ele>308.2</ele><time>2019-08-12T12:53:24Z</time></trkpt>
<trkpt lat="46.940513" lon="15.792515"><ele>308.8</ele><time>2019-08-12T12:53:25Z</time></trkpt>
<trkpt lat="46.940647" lon="15.793079"><ele>308.8</ele><time>2019-08-12T12:53:27Z</time></trkpt>
<trkpt lat="46.940661" lon="15.79332"><ele>308.8</ele><time>2019-08-12T12:53:28Z</time></trkpt>
<trkpt lat="46.940648" lon="15.793692"><ele>309.0</ele><time>2019-08-12T12:53:29Z</time></trkpt>
<trkpt lat="46.940541" lon="15.794549"><ele>309.4</ele><time>2019-08-12T12:53:32Z</time></trkpt>
<trkpt lat="46.940535" lon="15.795019"><ele>309.6</ele><time>2019-08-12T12:53:33Z</time></trkpt>
<trkpt lat="46.940677" lon="15.795845"><ele>310.6</ele><time>2019-08-12T12:53:36Z</time></trkpt>
<trkpt lat="46.940729" lon="15.796265"><ele>310.6</ele><time>2019-08-12T12:53:37Z</time></trkpt>
<trkpt lat="46.94078" lon="15.796891"><ele>311.6</ele><time>2019-08-12T12:53:39Z</time></trkpt>
<trkpt lat="46.940778" lon="15.797119"><ele>311.6</ele><time>2019-08-12T12:53:40Z</time></trkpt>
<trkpt lat="46.940749" lon="15.797356"><ele>311.6</ele><time>2019-08-12T12:53:41Z</time></trkpt>
<trkpt lat="46.940647" lon="15.797735"><ele>312.2</ele><time>2019-08-12T12:53:42Z</time></trkpt>
<trkpt lat="46.940585" lon="15.7981"><ele>312.2</ele><time>2019-08-12T12:53:43Z</time></trkpt>
<trkpt lat="46.940594" lon="15.798449"><ele>311.0</ele><time>2019-08-12T12:53:44Z</time></trkpt>
<trkpt lat="46.940922" lon="15.798502"><ele>315.2</ele><time>2019-08-12T12:53:52Z</time></trkpt>
<trkpt lat="46.940922" lon="15.798502"><ele>315.2</ele><time>2019-08-12T12:53:52Z</time></trkpt>
<trkpt lat="46.940594" lon="15.798449"><ele>311.0</ele><time>2019-08-12T12:53:59Z</time></trkpt>
<trkpt lat="46.94061" lon="15.798782"><ele>311.0</ele><time>2019-08-12T12:54:00Z</time></trkpt>
<trkpt lat="46.940656" lon="15.799178"><ele>309.2</ele><time>2019-08-12T12:54:02Z</time></trkpt>
<trkpt lat="46.940699" lon="15.799414"><ele>309.2</ele><time>2019-08-12T12:54:02Z</time></trkpt>
<trkpt lat="46.940745" lon="15.799607"><ele>309.2</ele><time>2019-08-12T12:54:03Z</time></trkpt>
<trkpt lat="46.940819" lon="15.79981"><ele>309.2</ele><time>2019-08-12T12:54:04Z</time></trkpt>
<trkpt lat="46.941126" lon="15.800556"><ele>311.6</ele><time>2019-08-12T12:54:07Z</time></trkpt>
<trkpt lat="46.941206" lon="15.800782"><ele>311.6</ele><time>2019-08-12T12:54:07Z</time></trkpt>
<trkpt lat="46.94125" lon="15.800994"><ele>310.8</ele><time>2019-08-12T12:54:08Z</time></trkpt>
<trkpt lat="46.941368" lon="15.802007"><ele>310.0</ele><time>2019-08-12T12:54:11Z</time></trkpt>
<trkpt lat="46.941423" lon="15.802237"><ele>310.0</ele><time>2019-08-12T12:54:12Z</time></trkpt>
<trkpt lat="46.94192" lon="15.803436"><ele>310.6</ele><time>2019-08-12T12:54:16Z</time></trkpt>
<trkpt lat="46.943221" lon="15.806488"><ele>307.2</ele><time>2019-08-12T12:54:28Z</time></trkpt>
<trkpt lat="46.943344" lon="15.806753"><ele>308.8</ele><time>2019-08-12T12:54:29Z</time></trkpt>
<trkpt lat="46.943593" lon="15.80717"><ele>308.8</ele><time>2019-08-12T12:54:31Z</time></trkpt>
<trkpt lat="46.943777" lon="15.807413"><ele>308.8</ele><time>2019-08-12T12:54:32Z</time></trkpt>
<trkpt lat="46.943922" lon="15.807588"><ele>307.0</ele><time>2019-08-12T12:54:33Z</time></trkpt>
<trkpt lat="46.944597" lon="15.808293"><ele>314.2</ele><time>2019-08-12T12:54:36Z</time></trkpt>
<trkpt lat="46.944814" lon="15.808616"><ele>309.6</ele><time>2019-08-12T12:54:38Z</time></trkpt>
<trkpt lat="46.945279" lon="15.809454"><ele>311.6</ele><time>2019-08-12T12:54:41Z</time></trkpt>
<trkpt lat="46.945446" lon="15.809697"><ele>311.6</ele><time>2019-08-12T12:54:42Z</time></trkpt>
<trkpt lat="46.945823" lon="15.810106"><ele>307.4</ele><time>2019-08-12T12:54:44Z</time></trkpt>
<trkpt lat="46.946662" lon="15.810909"><ele>309.0</ele><time>2019-08-12T12:54:49Z</time></trkpt>
<trkpt lat="46.946906" lon="15.811175"><ele>322.4</ele><time>2019-08-12T12:54:51Z</time></trkpt>
<trkpt lat="46.947115" lon="15.811436"><ele>322.4</ele><time>2019-08-12T12:54:52Z</time></trkpt>
<trkpt lat="46.947333" lon="15.811776"><ele>307.8</ele><time>2019-08-12T12:54:53Z</time></trkpt>
<trkpt lat="46.947649" lon="15.812436"><ele>319.8</ele><time>2019-08-12T12:54:56Z</time></trkpt>
<trkpt lat="46.947793" lon="15.812842"><ele>306.4</ele><time>2019-08-12T12:54:58Z</time></trkpt>
<trkpt lat="46.948264" lon="15.814481"><ele>300.0</ele><time>2019-08-12T12:55:03Z</time></trkpt>
<trkpt lat="46.948463" lon="15.815055"><ele>301.6</ele><time>2019-08-12T12:55:05Z</time></trkpt>
<trkpt lat="46.948599" lon="15.815361"><ele>301.6</ele><time>2019-08-12T12:55:06Z</time></trkpt>
<trkpt lat="46.948874" lon="15.815877"><ele>299.4</ele><time>2019-08-12T12:55:08Z</time></trkpt>
<trkpt lat="46.949311" lon="15.816528"><ele>309.4</ele><time>2019-08-12T12:55:11Z</time></trkpt>
<trkpt lat="46.949547" lon="15.81695"><ele>304.4</ele><time>2019-08-12T12:55:13Z</time></trkpt>
<trkpt lat="46.949838" lon="15.817535"><ele>301.0</ele><time>2019-08-12T12:55:15Z</time></trkpt>
<trkpt lat="46.950073" lon="15.818127"><ele>312.0</ele><time>2019-08-12T12:55:17Z</time></trkpt>
<trkpt lat="46.950297" lon="15.818979"><ele>306.2</ele><time>2019-08-12T12:55:20Z</time></trkpt>
<trkpt lat="46.95054" lon="15.820218"><ele>301.0</ele><time>2019-08-12T12:55:24Z</time></trkpt>
<trkpt lat="46.950707" lon="15.820867"><ele>298.8</ele><time>2019-08-12T12:55:27Z</time></trkpt>
<trkpt lat="46.950851" lon="15.821288"><ele>301.2</ele><time>2019-08-12T12:55:28Z</time></trkpt>
<trkpt lat="46.951109" lon="15.821885"><ele>298.4</ele><time>2019-08-12T12:55:30Z</time></trkpt>
<trkpt lat="46.951722" lon="15.823183"><ele>300.0</ele><time>2019-08-12T12:55:35Z</time></trkpt>
<trkpt lat="46.951987" lon="15.823832"><ele>298.4</ele><time>2019-08-12T12:55:38Z</time></trkpt>
<trkpt lat="46.952098" lon="15.824191"><ele>297.2</ele><time>2019-08-12T12:55:39Z</time></trkpt>
<trkpt lat="46.952219" lon="15.824663"><ele>297.2</ele><time>2019-08-12T12:55:40Z</time></trkpt>
<trkpt lat="46.952543" lon="15.826315"><ele>303.2</ele><time>2019-08-12T12:55:46Z</time></trkpt>
<trkpt lat="46.95263" lon="15.826864"><ele>304.0</ele><time>2019-08-12T12:55:48Z</time></trkpt>
<trkpt lat="46.952652" lon="15.827235"><ele>304.0</ele><time>2019-08-12T12:55:49Z</time></trkpt>
<trkpt lat="46.952654" lon="15.827567"><ele>305.8</ele><time>2019-08-12T12:55:50Z</time></trkpt>
<trkpt lat="46.952625" lon="15.82793"><ele>305.8</ele><time>2019-08-12T12:55:51Z</time></trkpt>
<trkpt lat="46.952571" lon="15.828291"><ele>305.8</ele><time>2019-08-12T12:55:52Z</time></trkpt>
<trkpt lat="46.952409" lon="15.828891"><ele>296.6</ele><time>2019-08-12T12:55:54Z</time></trkpt>
<trkpt lat="46.952275" lon="15.829222"><ele>302.2</ele><time>2019-08-12T12:55:55Z</time></trkpt>
<trkpt lat="46.952097" lon="15.829552"><ele>302.2</ele><time>2019-08-12T12:55:57Z</time></trkpt>
<trkpt lat="46.951194" lon="15.83079"><ele>292.0</ele><time>2019-08-12T12:56:02Z</time></trkpt>
<trkpt lat="46.950837" lon="15.831329"><ele>294.6</ele><time>2019-08-12T12:56:05Z</time></trkpt>
<trkpt lat="46.950556" lon="15.831849"><ele>292.6</ele><time>2019-08-12T12:56:07Z</time></trkpt>
<trkpt lat="46.950424" lon="15.83216"><ele>292.6</ele><time>2019-08-12T12:56:08Z</time></trkpt>
<trkpt lat="46.950274" lon="15.832574"><ele>294.2</ele><time>2019-08-12T12:56:10Z</time></trkpt>
<trkpt lat="46.95019" lon="15.832889"><ele>294.2</ele><time>2019-08-12T12:56:11Z</time></trkpt>
<trkpt lat="46.950108" lon="15.833314"><ele>294.2</ele><time>2019-08-12T12:56:12Z</time></trkpt>
<trkpt lat="46.950032" lon="15.834132"><ele>294.6</ele><time>2019-08-12T12:56:15Z</time></trkpt>
<trkpt lat="46.950024" lon="15.834525"><ele>295.4</ele><time>2019-08-12T12:56:16Z</time></trkpt>
<trkpt lat="46.950046" lon="15.834998"><ele>295.4</ele><time>2019-08-12T12:56:17Z</time></trkpt>
<trkpt lat="46.950102" lon="15.835446"><ele>296.2</ele><time>2019-08-12T12:56:19Z</time></trkpt>
<trkpt lat="46.950215" lon="15.83601"><ele>296.2</ele><time>2019-08-12T12:56:21Z</time></trkpt>
<trkpt lat="46.950319" lon="15.83639"><ele>296.2</ele><time>2019-08-12T12:56:22Z</time></trkpt>
<trkpt lat="46.950456" lon="15.83682"><ele>296.2</ele><time>2019-08-12T12:56:23Z</time></trkpt>
<trkpt lat="46.951242" lon="15.838687"><ele>302.6</ele><time>2019-08-12T12:56:30Z</time></trkpt>
<trkpt lat="46.951462" lon="15.839275"><ele>297.6</ele><time>2019-08-12T12:56:32Z</time></trkpt>
<trkpt lat="46.951587" lon="15.839683"><ele>297.6</ele><time>2019-08-12T12:56:34Z</time></trkpt>
<trkpt lat="46.951775" lon="15.840474"><ele>302.2</ele><time>2019-08-12T12:56:36Z</time></trkpt>
<trkpt lat="46.951854" lon="15.840898"><ele>297.4</ele><time>2019-08-12T12:56:38Z</time></trkpt>
<trkpt lat="46.951944" lon="15.841638"><ele>297.4</ele><time>2019-08-12T12:56:40Z</time></trkpt>
<trkpt lat="46.952096" lon="15.844576"><ele>293.2</ele><time>2019-08-12T12:56:49Z</time></trkpt>
<trkpt lat="46.952251" lon="15.846137"><ele>292.4</ele><time>2019-08-12T12:56:54Z</time></trkpt>
<trkpt lat="46.952306" lon="15.846425"><ele>292.4</ele><time>2019-08-12T12:56:55Z</time></trkpt>
<trkpt lat="46.952389" lon="15.846705"><ele>291.8</ele><time>2019-08-12T12:56:56Z</time></trkpt>
<trkpt lat="46.952522" lon="15.847027"><ele>293.0</ele><time>2019-08-12T12:56:57Z</time></trkpt>
<trkpt lat="46.952781" lon="15.847463"><ele>293.0</ele><time>2019-08-12T12:56:59Z</time></trkpt>
<trkpt lat="46.952993" lon="15.847737"><ele>291.4</ele><time>2019-08-12T12:57:01Z</time></trkpt>
<trkpt lat="46.953586" lon="15.848261"><ele>287.0</ele><time>2019-08-12T12:57:04Z</time></trkpt>
<trkpt lat="46.953764" lon="15.848454"><ele>286.6</ele><time>2019-08-12T12:57:05Z</time></trkpt>
<trkpt lat="46.953929" lon="15.84884"><ele>286.6</ele><time>2019-08-12T12:57:06Z</time></trkpt>
<trkpt lat="46.953943" lon="15.848968"><ele>286.6</ele><time>2019-08-12T12:57:08Z</time></trkpt>
<trkpt lat="46.953914" lon="15.849104"><ele>286.6</ele><time>2019-08-12T12:57:09Z</time></trkpt>
<trkpt lat="46.953732" lon="15.849252"><ele>285.2</ele><time>2019-08-12T12:57:10Z</time></trkpt>
<trkpt lat="46.953534" lon="15.849546"><ele>285.2</ele><time>2019-08-12T12:57:12Z</time></trkpt>
<trkpt lat="46.953446" lon="15.849728"><ele>285.2</ele><time>2019-08-12T12:57:13Z</time></trkpt>
<trkpt lat="46.953199" lon="15.850593"><ele>286.6</ele><time>2019-08-12T12:57:18Z</time></trkpt>
<trkpt lat="46.953088" lon="15.851573"><ele>285.4</ele><time>2019-08-12T12:57:22Z</time></trkpt>
<trkpt lat="46.953091" lon="15.852195"><ele>285.0</ele><time>2019-08-12T12:57:26Z</time></trkpt>
<trkpt lat="46.953121" lon="15.852554"><ele>286.2</ele><time>2019-08-12T12:57:27Z</time></trkpt>
<trkpt lat="46.953198" lon="15.853095"><ele>286.2</ele><time>2019-08-12T12:57:30Z</time></trkpt>
<trkpt lat="46.953316" lon="15.853626"><ele>286.4</ele><time>2019-08-12T12:57:33Z</time></trkpt>
<trkpt lat="46.953419" lon="15.854268"><ele>285.0</ele><time>2019-08-12T12:57:36Z</time></trkpt>
<trkpt lat="46.953456" lon="15.854734"><ele>285.0</ele><time>2019-08-12T12:57:38Z</time></trkpt>
<trkpt lat="46.953468" lon="15.855122"><ele>285.0</ele><time>2019-08-12T12:57:40Z</time></trkpt>
<trkpt lat="46.953445" lon="15.855533"><ele>285.0</ele><time>2019-08-12T12:57:42Z</time></trkpt>
<trkpt lat="46.953245" lon="15.858157"><ele>283.4</ele><time>2019-08-12T12:57:55Z</time></trkpt>
<trkpt lat="46.95325" lon="15.859062"><ele>283.8</ele><time>2019-08-12T12:57:59Z</time></trkpt>
<trkpt lat="46.953385" lon="15.860059"><ele>284.2</ele><time>2019-08-12T12:58:04Z</time></trkpt>
<trkpt lat="46.953572" lon="15.861123"><ele>283.0</ele><time>2019-08-12T12:58:10Z</time></trkpt>
<trkpt lat="46.953583" lon="15.861574"><ele>283.0</ele><time>2019-08-12T12:58:12Z</time></trkpt>
<trkpt lat="46.953537" lon="15.86208"><ele>282.4</ele><time>2019-08-12T12:58:14Z</time></trkpt>
<trkpt lat="46.953338" lon="15.862973"><ele>282.4</ele><time>2019-08-12T12:58:19Z</time></trkpt>
<trkpt lat="46.953035" lon="15.864076"><ele>283.0</ele><time>2019-08-12T12:58:25Z</time></trkpt>
<trkpt lat="46.952802" lon="15.865338"><ele>284.8</ele><time>2019-08-12T12:58:31Z</time></trkpt>
<trkpt lat="46.952731" lon="15.866348"><ele>286.4</ele><time>2019-08-12T12:58:36Z</time></trkpt>
<trkpt lat="46.952693" lon="15.866598"><ele>286.4</ele><time>2019-08-12T12:58:37Z</time></trkpt>
<trkpt lat="46.952574" lon="15.867303"><ele>287.0</ele><time>2019-08-12T12:58:41Z</time></trkpt>
<trkpt lat="46.952295" lon="15.868485"><ele>287.2</ele><time>2019-08-12T12:58:47Z</time></trkpt>
<trkpt lat="46.952233" lon="15.868801"><ele>287.2</ele><time>2019-08-12T12:58:48Z</time></trkpt>
<trkpt lat="46.95214" lon="15.86941"><ele>284.6</ele><time>2019-08-12T12:58:51Z</time></trkpt>
<trkpt lat="46.952131" lon="15.86967"><ele>284.6</ele><time>2019-08-12T12:58:53Z</time></trkpt>
<trkpt lat="46.952135" lon="15.870066"><ele>286.0</ele><time>2019-08-12T12:58:55Z</time></trkpt>
<trkpt lat="46.952185" lon="15.870432"><ele>286.0</ele><time>2019-08-12T12:58:56Z</time></trkpt>
<trkpt lat="46.952239" lon="15.870695"><ele>286.0</ele><time>2019-08-12T12:58:58Z</time></trkpt>
<trkpt lat="46.952414" lon="15.871367"><ele>288.8</ele><time>2019-08-12T12:59:01Z</time></trkpt>
<trkpt lat="46.952494" lon="15.871643"><ele>288.8</ele><time>2019-08-12T12:59:03Z</time></trkpt>
<trkpt lat="46.952784" lon="15.872475"><ele>285.2</ele><time>2019-08-12T12:59:07Z</time></trkpt>
<trkpt lat="46.953121" lon="15.873652"><ele>286.4</ele><time>2019-08-12T12:59:13Z</time></trkpt>
<trkpt lat="46.953514" lon="15.874789"><ele>281.6</ele><time>2019-08-12T12:59:20Z</time></trkpt>
<trkpt lat="46.953602" lon="15.875301"><ele>282.2</ele><time>2019-08-12T12:59:22Z</time></trkpt>
<trkpt lat="46.953622" lon="15.87563"><ele>282.2</ele><time>2019-08-12T12:59:24Z</time></trkpt>
<trkpt lat="46.953614" lon="15.875959"><ele>282.8</ele><time>2019-08-12T12:59:25Z</time></trkpt>
<trkpt lat="46.953471" lon="15.87691"><ele>283.2</ele><time>2019-08-12T12:59:30Z</time></trkpt>
<trkpt lat="46.953339" lon="15.87799"><ele>284.0</ele><time>2019-08-12T12:59:36Z</time></trkpt>
<trkpt lat="46.953263" lon="15.878395"><ele>285.6</ele><time>2019-08-12T12:59:38Z</time></trkpt>
<trkpt lat="46.952633" lon="15.879794"><ele>283.6</ele><time>2019-08-12T12:59:46Z</time></trkpt>
<trkpt lat="46.952021" lon="15.881307"><ele>285.0</ele><time>2019-08-12T12:59:54Z</time></trkpt>
<trkpt lat="46.950643" lon="15.885247"><ele>292.2</ele><time>2019-08-12T13:00:16Z</time></trkpt>
<trkpt lat="46.950487" lon="15.885886"><ele>290.8</ele><time>2019-08-12T13:00:19Z</time></trkpt>
<trkpt lat="46.950185" lon="15.887461"><ele>289.8</ele><time>2019-08-12T13:00:27Z</time></trkpt>
<trkpt lat="46.950223" lon="15.888281"><ele>288.5</ele><time>2019-08-12T13:00:31Z</time></trkpt>
</trkseg>
</trk>
</gpx>